<?xml version="1.0" encoding="utf-8"?>
<gpx xmlns:xsi="http://www.w3.org/2001/XMLSchema-instance" xmlns:xsd="http://www.w3.org/2001/XMLSchema" xsi:schemaLocation="http://www.topografix.com/GPX/1/1 http://www.topografix.com/GPX/1/1/gpx.xsd" version="1.1" creator="QuoVadis 6.0.9.28" xmlns="http://www.topografix.com/GPX/1/1">
  <metadata>
    <link href="http://www.quovadis-gps.com">
      <text>QuoVadis Homepage</text>
    </link>
    <time>2016-03-11T10:21:50.1462614Z</time>
  </metadata>
  <trk>
    <name>773_Tour_01</name>
    <cmt>alle Rechte Publicpress Publikationsgesellschaft mbH
www.publicpress.de
11.03.2016</cmt>
    <extensions>
      <gpxx:TrackExtension xsi:schemaLocation="http://www.garmin.com/xmlschemas/GpxExtensions/v3 http://www.garmin.com/xmlschemas/GpxExtensions/v3/GpxExtensionsv3.xsd" xmlns:gpxx="http://www.garmin.com/xmlschemas/GpxExtensions/v3">
        <gpxx:DisplayColor>Red</gpxx:DisplayColor>
      </gpxx:TrackExtension>
    </extensions>
    <trkseg>
      <trkpt lat="49.24817" lon="6.84632">
        <ele>0</ele>
        <time>0001-01-01T00:00:00Z</time>
      </trkpt>
      <trkpt lat="49.24815" lon="6.84625">
        <ele>0</ele>
        <time>0001-01-01T00:00:00Z</time>
      </trkpt>
      <trkpt lat="49.24799" lon="6.84584">
        <ele>0</ele>
        <time>0001-01-01T00:00:00Z</time>
      </trkpt>
      <trkpt lat="49.2479" lon="6.84566">
        <ele>0</ele>
        <time>0001-01-01T00:00:00Z</time>
      </trkpt>
      <trkpt lat="49.24722" lon="6.8429">
        <ele>0</ele>
        <time>0001-01-01T00:00:00Z</time>
      </trkpt>
      <trkpt lat="49.24722" lon="6.84288">
        <ele>0</ele>
        <time>0001-01-01T00:00:00Z</time>
      </trkpt>
      <trkpt lat="49.24694" lon="6.84187">
        <ele>0</ele>
        <time>0001-01-01T00:00:00Z</time>
      </trkpt>
      <trkpt lat="49.24675" lon="6.84133">
        <ele>0</ele>
        <time>0001-01-01T00:00:00Z</time>
      </trkpt>
      <trkpt lat="49.24665" lon="6.8411">
        <ele>0</ele>
        <time>0001-01-01T00:00:00Z</time>
      </trkpt>
      <trkpt lat="49.24604" lon="6.83948">
        <ele>0</ele>
        <time>0001-01-01T00:00:00Z</time>
      </trkpt>
      <trkpt lat="49.24604" lon="6.83946">
        <ele>0</ele>
        <time>0001-01-01T00:00:00Z</time>
      </trkpt>
      <trkpt lat="49.24587" lon="6.83905">
        <ele>0</ele>
        <time>0001-01-01T00:00:00Z</time>
      </trkpt>
      <trkpt lat="49.24587" lon="6.83899">
        <ele>0</ele>
        <time>0001-01-01T00:00:00Z</time>
      </trkpt>
      <trkpt lat="49.24581" lon="6.8388">
        <ele>0</ele>
        <time>0001-01-01T00:00:00Z</time>
      </trkpt>
      <trkpt lat="49.24573" lon="6.83864">
        <ele>0</ele>
        <time>0001-01-01T00:00:00Z</time>
      </trkpt>
      <trkpt lat="49.24579" lon="6.83855">
        <ele>0</ele>
        <time>0001-01-01T00:00:00Z</time>
      </trkpt>
      <trkpt lat="49.24582" lon="6.83852">
        <ele>0</ele>
        <time>0001-01-01T00:00:00Z</time>
      </trkpt>
      <trkpt lat="49.24626" lon="6.83834">
        <ele>0</ele>
        <time>0001-01-01T00:00:00Z</time>
      </trkpt>
      <trkpt lat="49.24633" lon="6.83829">
        <ele>0</ele>
        <time>0001-01-01T00:00:00Z</time>
      </trkpt>
      <trkpt lat="49.24637" lon="6.83824">
        <ele>0</ele>
        <time>0001-01-01T00:00:00Z</time>
      </trkpt>
      <trkpt lat="49.24639" lon="6.83823">
        <ele>0</ele>
        <time>0001-01-01T00:00:00Z</time>
      </trkpt>
      <trkpt lat="49.24667" lon="6.83782">
        <ele>0</ele>
        <time>0001-01-01T00:00:00Z</time>
      </trkpt>
      <trkpt lat="49.24697" lon="6.83724">
        <ele>0</ele>
        <time>0001-01-01T00:00:00Z</time>
      </trkpt>
      <trkpt lat="49.24762" lon="6.83613">
        <ele>0</ele>
        <time>0001-01-01T00:00:00Z</time>
      </trkpt>
      <trkpt lat="49.24763" lon="6.83612">
        <ele>0</ele>
        <time>0001-01-01T00:00:00Z</time>
      </trkpt>
      <trkpt lat="49.24771" lon="6.83592">
        <ele>0</ele>
        <time>0001-01-01T00:00:00Z</time>
      </trkpt>
      <trkpt lat="49.24782" lon="6.83554">
        <ele>0</ele>
        <time>0001-01-01T00:00:00Z</time>
      </trkpt>
      <trkpt lat="49.24792" lon="6.83494">
        <ele>0</ele>
        <time>0001-01-01T00:00:00Z</time>
      </trkpt>
      <trkpt lat="49.248" lon="6.83416">
        <ele>0</ele>
        <time>0001-01-01T00:00:00Z</time>
      </trkpt>
      <trkpt lat="49.248" lon="6.83397">
        <ele>0</ele>
        <time>0001-01-01T00:00:00Z</time>
      </trkpt>
      <trkpt lat="49.24798" lon="6.83371">
        <ele>0</ele>
        <time>0001-01-01T00:00:00Z</time>
      </trkpt>
      <trkpt lat="49.24776" lon="6.83279">
        <ele>0</ele>
        <time>0001-01-01T00:00:00Z</time>
      </trkpt>
      <trkpt lat="49.24719" lon="6.83091">
        <ele>0</ele>
        <time>0001-01-01T00:00:00Z</time>
      </trkpt>
      <trkpt lat="49.24713" lon="6.83042">
        <ele>0</ele>
        <time>0001-01-01T00:00:00Z</time>
      </trkpt>
      <trkpt lat="49.24713" lon="6.83007">
        <ele>0</ele>
        <time>0001-01-01T00:00:00Z</time>
      </trkpt>
      <trkpt lat="49.24722" lon="6.82887">
        <ele>0</ele>
        <time>0001-01-01T00:00:00Z</time>
      </trkpt>
      <trkpt lat="49.2472" lon="6.82682">
        <ele>0</ele>
        <time>0001-01-01T00:00:00Z</time>
      </trkpt>
      <trkpt lat="49.24713" lon="6.82494">
        <ele>0</ele>
        <time>0001-01-01T00:00:00Z</time>
      </trkpt>
      <trkpt lat="49.24714" lon="6.8244">
        <ele>0</ele>
        <time>0001-01-01T00:00:00Z</time>
      </trkpt>
      <trkpt lat="49.24725" lon="6.82399">
        <ele>0</ele>
        <time>0001-01-01T00:00:00Z</time>
      </trkpt>
      <trkpt lat="49.24734" lon="6.82376">
        <ele>0</ele>
        <time>0001-01-01T00:00:00Z</time>
      </trkpt>
      <trkpt lat="49.24765" lon="6.82319">
        <ele>0</ele>
        <time>0001-01-01T00:00:00Z</time>
      </trkpt>
      <trkpt lat="49.2478" lon="6.82298">
        <ele>0</ele>
        <time>0001-01-01T00:00:00Z</time>
      </trkpt>
      <trkpt lat="49.24802" lon="6.82272">
        <ele>0</ele>
        <time>0001-01-01T00:00:00Z</time>
      </trkpt>
      <trkpt lat="49.25009" lon="6.82058">
        <ele>0</ele>
        <time>0001-01-01T00:00:00Z</time>
      </trkpt>
      <trkpt lat="49.25019" lon="6.82054">
        <ele>0</ele>
        <time>0001-01-01T00:00:00Z</time>
      </trkpt>
      <trkpt lat="49.25057" lon="6.82018">
        <ele>0</ele>
        <time>0001-01-01T00:00:00Z</time>
      </trkpt>
      <trkpt lat="49.2506" lon="6.8202">
        <ele>0</ele>
        <time>0001-01-01T00:00:00Z</time>
      </trkpt>
      <trkpt lat="49.25063" lon="6.82023">
        <ele>0</ele>
        <time>0001-01-01T00:00:00Z</time>
      </trkpt>
      <trkpt lat="49.25069" lon="6.82023">
        <ele>0</ele>
        <time>0001-01-01T00:00:00Z</time>
      </trkpt>
      <trkpt lat="49.25073" lon="6.82021">
        <ele>0</ele>
        <time>0001-01-01T00:00:00Z</time>
      </trkpt>
      <trkpt lat="49.25076" lon="6.82018">
        <ele>0</ele>
        <time>0001-01-01T00:00:00Z</time>
      </trkpt>
      <trkpt lat="49.2508" lon="6.82011">
        <ele>0</ele>
        <time>0001-01-01T00:00:00Z</time>
      </trkpt>
      <trkpt lat="49.2508" lon="6.82009">
        <ele>0</ele>
        <time>0001-01-01T00:00:00Z</time>
      </trkpt>
      <trkpt lat="49.25081" lon="6.82006">
        <ele>0</ele>
        <time>0001-01-01T00:00:00Z</time>
      </trkpt>
      <trkpt lat="49.25081" lon="6.81994">
        <ele>0</ele>
        <time>0001-01-01T00:00:00Z</time>
      </trkpt>
      <trkpt lat="49.25113" lon="6.81964">
        <ele>0</ele>
        <time>0001-01-01T00:00:00Z</time>
      </trkpt>
      <trkpt lat="49.25117" lon="6.81959">
        <ele>0</ele>
        <time>0001-01-01T00:00:00Z</time>
      </trkpt>
      <trkpt lat="49.25123" lon="6.81948">
        <ele>0</ele>
        <time>0001-01-01T00:00:00Z</time>
      </trkpt>
      <trkpt lat="49.25191" lon="6.81874">
        <ele>0</ele>
        <time>0001-01-01T00:00:00Z</time>
      </trkpt>
      <trkpt lat="49.25194" lon="6.81872">
        <ele>0</ele>
        <time>0001-01-01T00:00:00Z</time>
      </trkpt>
      <trkpt lat="49.25197" lon="6.81868">
        <ele>0</ele>
        <time>0001-01-01T00:00:00Z</time>
      </trkpt>
      <trkpt lat="49.25238" lon="6.81826">
        <ele>0</ele>
        <time>0001-01-01T00:00:00Z</time>
      </trkpt>
      <trkpt lat="49.25259" lon="6.81801">
        <ele>0</ele>
        <time>0001-01-01T00:00:00Z</time>
      </trkpt>
      <trkpt lat="49.2528" lon="6.81783">
        <ele>0</ele>
        <time>0001-01-01T00:00:00Z</time>
      </trkpt>
      <trkpt lat="49.25431" lon="6.81631">
        <ele>0</ele>
        <time>0001-01-01T00:00:00Z</time>
      </trkpt>
      <trkpt lat="49.25451" lon="6.81614">
        <ele>0</ele>
        <time>0001-01-01T00:00:00Z</time>
      </trkpt>
      <trkpt lat="49.25451" lon="6.81617">
        <ele>0</ele>
        <time>0001-01-01T00:00:00Z</time>
      </trkpt>
      <trkpt lat="49.25452" lon="6.81617">
        <ele>0</ele>
        <time>0001-01-01T00:00:00Z</time>
      </trkpt>
      <trkpt lat="49.25452" lon="6.81619">
        <ele>0</ele>
        <time>0001-01-01T00:00:00Z</time>
      </trkpt>
      <trkpt lat="49.25453" lon="6.81619">
        <ele>0</ele>
        <time>0001-01-01T00:00:00Z</time>
      </trkpt>
      <trkpt lat="49.25453" lon="6.81621">
        <ele>0</ele>
        <time>0001-01-01T00:00:00Z</time>
      </trkpt>
      <trkpt lat="49.25454" lon="6.81621">
        <ele>0</ele>
        <time>0001-01-01T00:00:00Z</time>
      </trkpt>
      <trkpt lat="49.25454" lon="6.81622">
        <ele>0</ele>
        <time>0001-01-01T00:00:00Z</time>
      </trkpt>
      <trkpt lat="49.25455" lon="6.81622">
        <ele>0</ele>
        <time>0001-01-01T00:00:00Z</time>
      </trkpt>
      <trkpt lat="49.25455" lon="6.81623">
        <ele>0</ele>
        <time>0001-01-01T00:00:00Z</time>
      </trkpt>
      <trkpt lat="49.25456" lon="6.81623">
        <ele>0</ele>
        <time>0001-01-01T00:00:00Z</time>
      </trkpt>
      <trkpt lat="49.25457" lon="6.81624">
        <ele>0</ele>
        <time>0001-01-01T00:00:00Z</time>
      </trkpt>
      <trkpt lat="49.25462" lon="6.81624">
        <ele>0</ele>
        <time>0001-01-01T00:00:00Z</time>
      </trkpt>
      <trkpt lat="49.25462" lon="6.81623">
        <ele>0</ele>
        <time>0001-01-01T00:00:00Z</time>
      </trkpt>
      <trkpt lat="49.25463" lon="6.81623">
        <ele>0</ele>
        <time>0001-01-01T00:00:00Z</time>
      </trkpt>
      <trkpt lat="49.25463" lon="6.81622">
        <ele>0</ele>
        <time>0001-01-01T00:00:00Z</time>
      </trkpt>
      <trkpt lat="49.25464" lon="6.81622">
        <ele>0</ele>
        <time>0001-01-01T00:00:00Z</time>
      </trkpt>
      <trkpt lat="49.25464" lon="6.81621">
        <ele>0</ele>
        <time>0001-01-01T00:00:00Z</time>
      </trkpt>
      <trkpt lat="49.25466" lon="6.81619">
        <ele>0</ele>
        <time>0001-01-01T00:00:00Z</time>
      </trkpt>
      <trkpt lat="49.25466" lon="6.81617">
        <ele>0</ele>
        <time>0001-01-01T00:00:00Z</time>
      </trkpt>
      <trkpt lat="49.25467" lon="6.81617">
        <ele>0</ele>
        <time>0001-01-01T00:00:00Z</time>
      </trkpt>
      <trkpt lat="49.25467" lon="6.81606">
        <ele>0</ele>
        <time>0001-01-01T00:00:00Z</time>
      </trkpt>
      <trkpt lat="49.25466" lon="6.81605">
        <ele>0</ele>
        <time>0001-01-01T00:00:00Z</time>
      </trkpt>
      <trkpt lat="49.25466" lon="6.81603">
        <ele>0</ele>
        <time>0001-01-01T00:00:00Z</time>
      </trkpt>
      <trkpt lat="49.25465" lon="6.81603">
        <ele>0</ele>
        <time>0001-01-01T00:00:00Z</time>
      </trkpt>
      <trkpt lat="49.25465" lon="6.81602">
        <ele>0</ele>
        <time>0001-01-01T00:00:00Z</time>
      </trkpt>
      <trkpt lat="49.25464" lon="6.81601">
        <ele>0</ele>
        <time>0001-01-01T00:00:00Z</time>
      </trkpt>
      <trkpt lat="49.25514" lon="6.81544">
        <ele>0</ele>
        <time>0001-01-01T00:00:00Z</time>
      </trkpt>
      <trkpt lat="49.25606" lon="6.81454">
        <ele>0</ele>
        <time>0001-01-01T00:00:00Z</time>
      </trkpt>
      <trkpt lat="49.25615" lon="6.81441">
        <ele>0</ele>
        <time>0001-01-01T00:00:00Z</time>
      </trkpt>
      <trkpt lat="49.25755" lon="6.813">
        <ele>0</ele>
        <time>0001-01-01T00:00:00Z</time>
      </trkpt>
      <trkpt lat="49.25759" lon="6.81297">
        <ele>0</ele>
        <time>0001-01-01T00:00:00Z</time>
      </trkpt>
      <trkpt lat="49.25881" lon="6.81166">
        <ele>0</ele>
        <time>0001-01-01T00:00:00Z</time>
      </trkpt>
      <trkpt lat="49.25914" lon="6.81136">
        <ele>0</ele>
        <time>0001-01-01T00:00:00Z</time>
      </trkpt>
      <trkpt lat="49.25899" lon="6.81008">
        <ele>0</ele>
        <time>0001-01-01T00:00:00Z</time>
      </trkpt>
      <trkpt lat="49.25891" lon="6.80959">
        <ele>0</ele>
        <time>0001-01-01T00:00:00Z</time>
      </trkpt>
      <trkpt lat="49.25857" lon="6.80828">
        <ele>0</ele>
        <time>0001-01-01T00:00:00Z</time>
      </trkpt>
      <trkpt lat="49.25848" lon="6.80815">
        <ele>0</ele>
        <time>0001-01-01T00:00:00Z</time>
      </trkpt>
      <trkpt lat="49.25844" lon="6.80812">
        <ele>0</ele>
        <time>0001-01-01T00:00:00Z</time>
      </trkpt>
      <trkpt lat="49.25819" lon="6.80805">
        <ele>0</ele>
        <time>0001-01-01T00:00:00Z</time>
      </trkpt>
      <trkpt lat="49.25758" lon="6.80792">
        <ele>0</ele>
        <time>0001-01-01T00:00:00Z</time>
      </trkpt>
      <trkpt lat="49.25749" lon="6.80789">
        <ele>0</ele>
        <time>0001-01-01T00:00:00Z</time>
      </trkpt>
      <trkpt lat="49.2574" lon="6.80784">
        <ele>0</ele>
        <time>0001-01-01T00:00:00Z</time>
      </trkpt>
      <trkpt lat="49.25722" lon="6.80771">
        <ele>0</ele>
        <time>0001-01-01T00:00:00Z</time>
      </trkpt>
      <trkpt lat="49.2571" lon="6.8076">
        <ele>0</ele>
        <time>0001-01-01T00:00:00Z</time>
      </trkpt>
      <trkpt lat="49.25686" lon="6.80732">
        <ele>0</ele>
        <time>0001-01-01T00:00:00Z</time>
      </trkpt>
      <trkpt lat="49.25613" lon="6.80627">
        <ele>0</ele>
        <time>0001-01-01T00:00:00Z</time>
      </trkpt>
      <trkpt lat="49.25529" lon="6.80528">
        <ele>0</ele>
        <time>0001-01-01T00:00:00Z</time>
      </trkpt>
      <trkpt lat="49.25523" lon="6.80517">
        <ele>0</ele>
        <time>0001-01-01T00:00:00Z</time>
      </trkpt>
      <trkpt lat="49.25519" lon="6.80506">
        <ele>0</ele>
        <time>0001-01-01T00:00:00Z</time>
      </trkpt>
      <trkpt lat="49.25516" lon="6.80487">
        <ele>0</ele>
        <time>0001-01-01T00:00:00Z</time>
      </trkpt>
      <trkpt lat="49.25519" lon="6.8037">
        <ele>0</ele>
        <time>0001-01-01T00:00:00Z</time>
      </trkpt>
      <trkpt lat="49.25516" lon="6.80326">
        <ele>0</ele>
        <time>0001-01-01T00:00:00Z</time>
      </trkpt>
      <trkpt lat="49.25512" lon="6.803">
        <ele>0</ele>
        <time>0001-01-01T00:00:00Z</time>
      </trkpt>
      <trkpt lat="49.25457" lon="6.8006">
        <ele>0</ele>
        <time>0001-01-01T00:00:00Z</time>
      </trkpt>
      <trkpt lat="49.25432" lon="6.79988">
        <ele>0</ele>
        <time>0001-01-01T00:00:00Z</time>
      </trkpt>
      <trkpt lat="49.25394" lon="6.79899">
        <ele>0</ele>
        <time>0001-01-01T00:00:00Z</time>
      </trkpt>
      <trkpt lat="49.25374" lon="6.79862">
        <ele>0</ele>
        <time>0001-01-01T00:00:00Z</time>
      </trkpt>
      <trkpt lat="49.25329" lon="6.79787">
        <ele>0</ele>
        <time>0001-01-01T00:00:00Z</time>
      </trkpt>
      <trkpt lat="49.25278" lon="6.79713">
        <ele>0</ele>
        <time>0001-01-01T00:00:00Z</time>
      </trkpt>
      <trkpt lat="49.25182" lon="6.79617">
        <ele>0</ele>
        <time>0001-01-01T00:00:00Z</time>
      </trkpt>
      <trkpt lat="49.25133" lon="6.79572">
        <ele>0</ele>
        <time>0001-01-01T00:00:00Z</time>
      </trkpt>
      <trkpt lat="49.25087" lon="6.79522">
        <ele>0</ele>
        <time>0001-01-01T00:00:00Z</time>
      </trkpt>
      <trkpt lat="49.25039" lon="6.79462">
        <ele>0</ele>
        <time>0001-01-01T00:00:00Z</time>
      </trkpt>
      <trkpt lat="49.24922" lon="6.79294">
        <ele>0</ele>
        <time>0001-01-01T00:00:00Z</time>
      </trkpt>
      <trkpt lat="49.24908" lon="6.79315">
        <ele>0</ele>
        <time>0001-01-01T00:00:00Z</time>
      </trkpt>
      <trkpt lat="49.249" lon="6.79324">
        <ele>0</ele>
        <time>0001-01-01T00:00:00Z</time>
      </trkpt>
      <trkpt lat="49.24881" lon="6.79342">
        <ele>0</ele>
        <time>0001-01-01T00:00:00Z</time>
      </trkpt>
      <trkpt lat="49.24874" lon="6.79351">
        <ele>0</ele>
        <time>0001-01-01T00:00:00Z</time>
      </trkpt>
      <trkpt lat="49.24869" lon="6.79356">
        <ele>0</ele>
        <time>0001-01-01T00:00:00Z</time>
      </trkpt>
      <trkpt lat="49.2486" lon="6.79361">
        <ele>0</ele>
        <time>0001-01-01T00:00:00Z</time>
      </trkpt>
      <trkpt lat="49.24844" lon="6.79368">
        <ele>0</ele>
        <time>0001-01-01T00:00:00Z</time>
      </trkpt>
      <trkpt lat="49.24834" lon="6.7937">
        <ele>0</ele>
        <time>0001-01-01T00:00:00Z</time>
      </trkpt>
      <trkpt lat="49.24821" lon="6.79371">
        <ele>0</ele>
        <time>0001-01-01T00:00:00Z</time>
      </trkpt>
      <trkpt lat="49.24809" lon="6.7937">
        <ele>0</ele>
        <time>0001-01-01T00:00:00Z</time>
      </trkpt>
      <trkpt lat="49.24788" lon="6.79366">
        <ele>0</ele>
        <time>0001-01-01T00:00:00Z</time>
      </trkpt>
      <trkpt lat="49.24786" lon="6.79365">
        <ele>0</ele>
        <time>0001-01-01T00:00:00Z</time>
      </trkpt>
      <trkpt lat="49.24759" lon="6.79358">
        <ele>0</ele>
        <time>0001-01-01T00:00:00Z</time>
      </trkpt>
      <trkpt lat="49.24747" lon="6.79358">
        <ele>0</ele>
        <time>0001-01-01T00:00:00Z</time>
      </trkpt>
      <trkpt lat="49.24743" lon="6.79359">
        <ele>0</ele>
        <time>0001-01-01T00:00:00Z</time>
      </trkpt>
      <trkpt lat="49.24739" lon="6.79361">
        <ele>0</ele>
        <time>0001-01-01T00:00:00Z</time>
      </trkpt>
      <trkpt lat="49.24719" lon="6.79367">
        <ele>0</ele>
        <time>0001-01-01T00:00:00Z</time>
      </trkpt>
      <trkpt lat="49.24712" lon="6.7937">
        <ele>0</ele>
        <time>0001-01-01T00:00:00Z</time>
      </trkpt>
      <trkpt lat="49.24703" lon="6.79371">
        <ele>0</ele>
        <time>0001-01-01T00:00:00Z</time>
      </trkpt>
      <trkpt lat="49.24688" lon="6.7937">
        <ele>0</ele>
        <time>0001-01-01T00:00:00Z</time>
      </trkpt>
      <trkpt lat="49.24663" lon="6.79356">
        <ele>0</ele>
        <time>0001-01-01T00:00:00Z</time>
      </trkpt>
      <trkpt lat="49.24662" lon="6.79356">
        <ele>0</ele>
        <time>0001-01-01T00:00:00Z</time>
      </trkpt>
      <trkpt lat="49.24635" lon="6.79335">
        <ele>0</ele>
        <time>0001-01-01T00:00:00Z</time>
      </trkpt>
      <trkpt lat="49.24624" lon="6.79323">
        <ele>0</ele>
        <time>0001-01-01T00:00:00Z</time>
      </trkpt>
      <trkpt lat="49.2462" lon="6.79317">
        <ele>0</ele>
        <time>0001-01-01T00:00:00Z</time>
      </trkpt>
      <trkpt lat="49.24533" lon="6.79151">
        <ele>0</ele>
        <time>0001-01-01T00:00:00Z</time>
      </trkpt>
      <trkpt lat="49.24502" lon="6.79101">
        <ele>0</ele>
        <time>0001-01-01T00:00:00Z</time>
      </trkpt>
      <trkpt lat="49.244" lon="6.78988">
        <ele>0</ele>
        <time>0001-01-01T00:00:00Z</time>
      </trkpt>
      <trkpt lat="49.24321" lon="6.78912">
        <ele>0</ele>
        <time>0001-01-01T00:00:00Z</time>
      </trkpt>
      <trkpt lat="49.24287" lon="6.78889">
        <ele>0</ele>
        <time>0001-01-01T00:00:00Z</time>
      </trkpt>
      <trkpt lat="49.2425" lon="6.78856">
        <ele>0</ele>
        <time>0001-01-01T00:00:00Z</time>
      </trkpt>
      <trkpt lat="49.24247" lon="6.78851">
        <ele>0</ele>
        <time>0001-01-01T00:00:00Z</time>
      </trkpt>
      <trkpt lat="49.24243" lon="6.78847">
        <ele>0</ele>
        <time>0001-01-01T00:00:00Z</time>
      </trkpt>
      <trkpt lat="49.24228" lon="6.78824">
        <ele>0</ele>
        <time>0001-01-01T00:00:00Z</time>
      </trkpt>
      <trkpt lat="49.24171" lon="6.78715">
        <ele>0</ele>
        <time>0001-01-01T00:00:00Z</time>
      </trkpt>
      <trkpt lat="49.24138" lon="6.78633">
        <ele>0</ele>
        <time>0001-01-01T00:00:00Z</time>
      </trkpt>
      <trkpt lat="49.24115" lon="6.78582">
        <ele>0</ele>
        <time>0001-01-01T00:00:00Z</time>
      </trkpt>
      <trkpt lat="49.24107" lon="6.78561">
        <ele>0</ele>
        <time>0001-01-01T00:00:00Z</time>
      </trkpt>
      <trkpt lat="49.24103" lon="6.78546">
        <ele>0</ele>
        <time>0001-01-01T00:00:00Z</time>
      </trkpt>
      <trkpt lat="49.24097" lon="6.785">
        <ele>0</ele>
        <time>0001-01-01T00:00:00Z</time>
      </trkpt>
      <trkpt lat="49.24093" lon="6.78435">
        <ele>0</ele>
        <time>0001-01-01T00:00:00Z</time>
      </trkpt>
      <trkpt lat="49.24097" lon="6.78223">
        <ele>0</ele>
        <time>0001-01-01T00:00:00Z</time>
      </trkpt>
      <trkpt lat="49.24105" lon="6.78142">
        <ele>0</ele>
        <time>0001-01-01T00:00:00Z</time>
      </trkpt>
      <trkpt lat="49.24122" lon="6.78076">
        <ele>0</ele>
        <time>0001-01-01T00:00:00Z</time>
      </trkpt>
      <trkpt lat="49.24168" lon="6.7793">
        <ele>0</ele>
        <time>0001-01-01T00:00:00Z</time>
      </trkpt>
      <trkpt lat="49.2418" lon="6.77884">
        <ele>0</ele>
        <time>0001-01-01T00:00:00Z</time>
      </trkpt>
      <trkpt lat="49.24184" lon="6.77875">
        <ele>0</ele>
        <time>0001-01-01T00:00:00Z</time>
      </trkpt>
      <trkpt lat="49.242" lon="6.77856">
        <ele>0</ele>
        <time>0001-01-01T00:00:00Z</time>
      </trkpt>
      <trkpt lat="49.242" lon="6.77857">
        <ele>0</ele>
        <time>0001-01-01T00:00:00Z</time>
      </trkpt>
      <trkpt lat="49.24201" lon="6.77857">
        <ele>0</ele>
        <time>0001-01-01T00:00:00Z</time>
      </trkpt>
      <trkpt lat="49.24201" lon="6.77858">
        <ele>0</ele>
        <time>0001-01-01T00:00:00Z</time>
      </trkpt>
      <trkpt lat="49.24203" lon="6.77858">
        <ele>0</ele>
        <time>0001-01-01T00:00:00Z</time>
      </trkpt>
      <trkpt lat="49.24203" lon="6.77859">
        <ele>0</ele>
        <time>0001-01-01T00:00:00Z</time>
      </trkpt>
      <trkpt lat="49.24206" lon="6.77859">
        <ele>0</ele>
        <time>0001-01-01T00:00:00Z</time>
      </trkpt>
      <trkpt lat="49.24206" lon="6.77858">
        <ele>0</ele>
        <time>0001-01-01T00:00:00Z</time>
      </trkpt>
      <trkpt lat="49.24208" lon="6.77858">
        <ele>0</ele>
        <time>0001-01-01T00:00:00Z</time>
      </trkpt>
      <trkpt lat="49.24208" lon="6.77857">
        <ele>0</ele>
        <time>0001-01-01T00:00:00Z</time>
      </trkpt>
      <trkpt lat="49.24209" lon="6.77857">
        <ele>0</ele>
        <time>0001-01-01T00:00:00Z</time>
      </trkpt>
      <trkpt lat="49.24209" lon="6.77856">
        <ele>0</ele>
        <time>0001-01-01T00:00:00Z</time>
      </trkpt>
      <trkpt lat="49.2421" lon="6.77856">
        <ele>0</ele>
        <time>0001-01-01T00:00:00Z</time>
      </trkpt>
      <trkpt lat="49.2421" lon="6.77855">
        <ele>0</ele>
        <time>0001-01-01T00:00:00Z</time>
      </trkpt>
      <trkpt lat="49.24211" lon="6.77855">
        <ele>0</ele>
        <time>0001-01-01T00:00:00Z</time>
      </trkpt>
      <trkpt lat="49.24211" lon="6.77853">
        <ele>0</ele>
        <time>0001-01-01T00:00:00Z</time>
      </trkpt>
      <trkpt lat="49.24212" lon="6.77853">
        <ele>0</ele>
        <time>0001-01-01T00:00:00Z</time>
      </trkpt>
      <trkpt lat="49.24212" lon="6.7785">
        <ele>0</ele>
        <time>0001-01-01T00:00:00Z</time>
      </trkpt>
      <trkpt lat="49.24213" lon="6.7785">
        <ele>0</ele>
        <time>0001-01-01T00:00:00Z</time>
      </trkpt>
      <trkpt lat="49.24213" lon="6.77843">
        <ele>0</ele>
        <time>0001-01-01T00:00:00Z</time>
      </trkpt>
      <trkpt lat="49.24212" lon="6.77843">
        <ele>0</ele>
        <time>0001-01-01T00:00:00Z</time>
      </trkpt>
      <trkpt lat="49.24212" lon="6.7784">
        <ele>0</ele>
        <time>0001-01-01T00:00:00Z</time>
      </trkpt>
      <trkpt lat="49.24211" lon="6.77839">
        <ele>0</ele>
        <time>0001-01-01T00:00:00Z</time>
      </trkpt>
      <trkpt lat="49.24211" lon="6.77838">
        <ele>0</ele>
        <time>0001-01-01T00:00:00Z</time>
      </trkpt>
      <trkpt lat="49.2421" lon="6.77838">
        <ele>0</ele>
        <time>0001-01-01T00:00:00Z</time>
      </trkpt>
      <trkpt lat="49.2421" lon="6.77837">
        <ele>0</ele>
        <time>0001-01-01T00:00:00Z</time>
      </trkpt>
      <trkpt lat="49.24208" lon="6.77835">
        <ele>0</ele>
        <time>0001-01-01T00:00:00Z</time>
      </trkpt>
      <trkpt lat="49.24207" lon="6.77835">
        <ele>0</ele>
        <time>0001-01-01T00:00:00Z</time>
      </trkpt>
      <trkpt lat="49.24214" lon="6.7782">
        <ele>0</ele>
        <time>0001-01-01T00:00:00Z</time>
      </trkpt>
      <trkpt lat="49.24217" lon="6.77803">
        <ele>0</ele>
        <time>0001-01-01T00:00:00Z</time>
      </trkpt>
      <trkpt lat="49.24225" lon="6.77712">
        <ele>0</ele>
        <time>0001-01-01T00:00:00Z</time>
      </trkpt>
      <trkpt lat="49.24242" lon="6.77641">
        <ele>0</ele>
        <time>0001-01-01T00:00:00Z</time>
      </trkpt>
      <trkpt lat="49.24265" lon="6.77574">
        <ele>0</ele>
        <time>0001-01-01T00:00:00Z</time>
      </trkpt>
      <trkpt lat="49.24307" lon="6.77394">
        <ele>0</ele>
        <time>0001-01-01T00:00:00Z</time>
      </trkpt>
      <trkpt lat="49.24318" lon="6.77302">
        <ele>0</ele>
        <time>0001-01-01T00:00:00Z</time>
      </trkpt>
      <trkpt lat="49.2432" lon="6.77298">
        <ele>0</ele>
        <time>0001-01-01T00:00:00Z</time>
      </trkpt>
      <trkpt lat="49.24322" lon="6.77291">
        <ele>0</ele>
        <time>0001-01-01T00:00:00Z</time>
      </trkpt>
      <trkpt lat="49.24326" lon="6.77282">
        <ele>0</ele>
        <time>0001-01-01T00:00:00Z</time>
      </trkpt>
      <trkpt lat="49.24332" lon="6.77272">
        <ele>0</ele>
        <time>0001-01-01T00:00:00Z</time>
      </trkpt>
      <trkpt lat="49.24399" lon="6.77186">
        <ele>0</ele>
        <time>0001-01-01T00:00:00Z</time>
      </trkpt>
      <trkpt lat="49.2442" lon="6.77153">
        <ele>0</ele>
        <time>0001-01-01T00:00:00Z</time>
      </trkpt>
      <trkpt lat="49.24447" lon="6.77098">
        <ele>0</ele>
        <time>0001-01-01T00:00:00Z</time>
      </trkpt>
      <trkpt lat="49.24467" lon="6.77067">
        <ele>0</ele>
        <time>0001-01-01T00:00:00Z</time>
      </trkpt>
      <trkpt lat="49.24483" lon="6.77049">
        <ele>0</ele>
        <time>0001-01-01T00:00:00Z</time>
      </trkpt>
      <trkpt lat="49.24514" lon="6.77022">
        <ele>0</ele>
        <time>0001-01-01T00:00:00Z</time>
      </trkpt>
      <trkpt lat="49.24526" lon="6.77007">
        <ele>0</ele>
        <time>0001-01-01T00:00:00Z</time>
      </trkpt>
      <trkpt lat="49.24583" lon="6.76913">
        <ele>0</ele>
        <time>0001-01-01T00:00:00Z</time>
      </trkpt>
      <trkpt lat="49.24597" lon="6.76882">
        <ele>0</ele>
        <time>0001-01-01T00:00:00Z</time>
      </trkpt>
      <trkpt lat="49.24612" lon="6.76836">
        <ele>0</ele>
        <time>0001-01-01T00:00:00Z</time>
      </trkpt>
      <trkpt lat="49.24681" lon="6.76428">
        <ele>0</ele>
        <time>0001-01-01T00:00:00Z</time>
      </trkpt>
      <trkpt lat="49.24686" lon="6.76408">
        <ele>0</ele>
        <time>0001-01-01T00:00:00Z</time>
      </trkpt>
      <trkpt lat="49.24687" lon="6.76401">
        <ele>0</ele>
        <time>0001-01-01T00:00:00Z</time>
      </trkpt>
      <trkpt lat="49.24693" lon="6.76384">
        <ele>0</ele>
        <time>0001-01-01T00:00:00Z</time>
      </trkpt>
      <trkpt lat="49.24699" lon="6.76373">
        <ele>0</ele>
        <time>0001-01-01T00:00:00Z</time>
      </trkpt>
      <trkpt lat="49.24724" lon="6.76336">
        <ele>0</ele>
        <time>0001-01-01T00:00:00Z</time>
      </trkpt>
      <trkpt lat="49.24724" lon="6.76335">
        <ele>0</ele>
        <time>0001-01-01T00:00:00Z</time>
      </trkpt>
      <trkpt lat="49.24757" lon="6.76282">
        <ele>0</ele>
        <time>0001-01-01T00:00:00Z</time>
      </trkpt>
      <trkpt lat="49.2478" lon="6.76235">
        <ele>0</ele>
        <time>0001-01-01T00:00:00Z</time>
      </trkpt>
      <trkpt lat="49.24797" lon="6.76195">
        <ele>0</ele>
        <time>0001-01-01T00:00:00Z</time>
      </trkpt>
      <trkpt lat="49.24807" lon="6.76167">
        <ele>0</ele>
        <time>0001-01-01T00:00:00Z</time>
      </trkpt>
      <trkpt lat="49.2482" lon="6.76121">
        <ele>0</ele>
        <time>0001-01-01T00:00:00Z</time>
      </trkpt>
      <trkpt lat="49.24834" lon="6.76052">
        <ele>0</ele>
        <time>0001-01-01T00:00:00Z</time>
      </trkpt>
      <trkpt lat="49.2486" lon="6.75859">
        <ele>0</ele>
        <time>0001-01-01T00:00:00Z</time>
      </trkpt>
      <trkpt lat="49.24876" lon="6.75613">
        <ele>0</ele>
        <time>0001-01-01T00:00:00Z</time>
      </trkpt>
      <trkpt lat="49.24883" lon="6.75553">
        <ele>0</ele>
        <time>0001-01-01T00:00:00Z</time>
      </trkpt>
      <trkpt lat="49.24888" lon="6.75526">
        <ele>0</ele>
        <time>0001-01-01T00:00:00Z</time>
      </trkpt>
      <trkpt lat="49.24904" lon="6.7546">
        <ele>0</ele>
        <time>0001-01-01T00:00:00Z</time>
      </trkpt>
      <trkpt lat="49.24948" lon="6.75326">
        <ele>0</ele>
        <time>0001-01-01T00:00:00Z</time>
      </trkpt>
      <trkpt lat="49.24959" lon="6.75277">
        <ele>0</ele>
        <time>0001-01-01T00:00:00Z</time>
      </trkpt>
      <trkpt lat="49.24967" lon="6.75229">
        <ele>0</ele>
        <time>0001-01-01T00:00:00Z</time>
      </trkpt>
      <trkpt lat="49.24974" lon="6.75156">
        <ele>0</ele>
        <time>0001-01-01T00:00:00Z</time>
      </trkpt>
      <trkpt lat="49.25042" lon="6.74768">
        <ele>0</ele>
        <time>0001-01-01T00:00:00Z</time>
      </trkpt>
      <trkpt lat="49.25044" lon="6.74736">
        <ele>0</ele>
        <time>0001-01-01T00:00:00Z</time>
      </trkpt>
      <trkpt lat="49.25043" lon="6.74666">
        <ele>0</ele>
        <time>0001-01-01T00:00:00Z</time>
      </trkpt>
      <trkpt lat="49.25034" lon="6.74594">
        <ele>0</ele>
        <time>0001-01-01T00:00:00Z</time>
      </trkpt>
      <trkpt lat="49.25024" lon="6.74542">
        <ele>0</ele>
        <time>0001-01-01T00:00:00Z</time>
      </trkpt>
      <trkpt lat="49.24984" lon="6.7439">
        <ele>0</ele>
        <time>0001-01-01T00:00:00Z</time>
      </trkpt>
      <trkpt lat="49.24971" lon="6.74308">
        <ele>0</ele>
        <time>0001-01-01T00:00:00Z</time>
      </trkpt>
      <trkpt lat="49.24931" lon="6.73803">
        <ele>0</ele>
        <time>0001-01-01T00:00:00Z</time>
      </trkpt>
      <trkpt lat="49.24925" lon="6.73781">
        <ele>0</ele>
        <time>0001-01-01T00:00:00Z</time>
      </trkpt>
      <trkpt lat="49.24875" lon="6.73671">
        <ele>0</ele>
        <time>0001-01-01T00:00:00Z</time>
      </trkpt>
      <trkpt lat="49.24865" lon="6.73645">
        <ele>0</ele>
        <time>0001-01-01T00:00:00Z</time>
      </trkpt>
      <trkpt lat="49.24856" lon="6.73613">
        <ele>0</ele>
        <time>0001-01-01T00:00:00Z</time>
      </trkpt>
      <trkpt lat="49.24799" lon="6.7326">
        <ele>0</ele>
        <time>0001-01-01T00:00:00Z</time>
      </trkpt>
      <trkpt lat="49.2422" lon="6.73302">
        <ele>0</ele>
        <time>0001-01-01T00:00:00Z</time>
      </trkpt>
      <trkpt lat="49.24207" lon="6.73301">
        <ele>0</ele>
        <time>0001-01-01T00:00:00Z</time>
      </trkpt>
      <trkpt lat="49.24191" lon="6.73298">
        <ele>0</ele>
        <time>0001-01-01T00:00:00Z</time>
      </trkpt>
      <trkpt lat="49.24179" lon="6.73294">
        <ele>0</ele>
        <time>0001-01-01T00:00:00Z</time>
      </trkpt>
      <trkpt lat="49.24167" lon="6.73288">
        <ele>0</ele>
        <time>0001-01-01T00:00:00Z</time>
      </trkpt>
      <trkpt lat="49.24127" lon="6.73259">
        <ele>0</ele>
        <time>0001-01-01T00:00:00Z</time>
      </trkpt>
      <trkpt lat="49.24013" lon="6.73167">
        <ele>0</ele>
        <time>0001-01-01T00:00:00Z</time>
      </trkpt>
      <trkpt lat="49.23993" lon="6.73153">
        <ele>0</ele>
        <time>0001-01-01T00:00:00Z</time>
      </trkpt>
      <trkpt lat="49.2397" lon="6.73141">
        <ele>0</ele>
        <time>0001-01-01T00:00:00Z</time>
      </trkpt>
      <trkpt lat="49.23934" lon="6.73128">
        <ele>0</ele>
        <time>0001-01-01T00:00:00Z</time>
      </trkpt>
      <trkpt lat="49.23927" lon="6.73127">
        <ele>0</ele>
        <time>0001-01-01T00:00:00Z</time>
      </trkpt>
      <trkpt lat="49.23903" lon="6.73128">
        <ele>0</ele>
        <time>0001-01-01T00:00:00Z</time>
      </trkpt>
      <trkpt lat="49.23889" lon="6.73132">
        <ele>0</ele>
        <time>0001-01-01T00:00:00Z</time>
      </trkpt>
      <trkpt lat="49.23851" lon="6.73154">
        <ele>0</ele>
        <time>0001-01-01T00:00:00Z</time>
      </trkpt>
      <trkpt lat="49.23834" lon="6.7316">
        <ele>0</ele>
        <time>0001-01-01T00:00:00Z</time>
      </trkpt>
      <trkpt lat="49.23822" lon="6.73162">
        <ele>0</ele>
        <time>0001-01-01T00:00:00Z</time>
      </trkpt>
      <trkpt lat="49.23681" lon="6.73167">
        <ele>0</ele>
        <time>0001-01-01T00:00:00Z</time>
      </trkpt>
      <trkpt lat="49.23645" lon="6.73164">
        <ele>0</ele>
        <time>0001-01-01T00:00:00Z</time>
      </trkpt>
      <trkpt lat="49.23626" lon="6.73164">
        <ele>0</ele>
        <time>0001-01-01T00:00:00Z</time>
      </trkpt>
      <trkpt lat="49.23592" lon="6.73157">
        <ele>0</ele>
        <time>0001-01-01T00:00:00Z</time>
      </trkpt>
      <trkpt lat="49.23585" lon="6.73152">
        <ele>0</ele>
        <time>0001-01-01T00:00:00Z</time>
      </trkpt>
      <trkpt lat="49.23542" lon="6.73128">
        <ele>0</ele>
        <time>0001-01-01T00:00:00Z</time>
      </trkpt>
      <trkpt lat="49.2352" lon="6.73119">
        <ele>0</ele>
        <time>0001-01-01T00:00:00Z</time>
      </trkpt>
      <trkpt lat="49.23498" lon="6.73119">
        <ele>0</ele>
        <time>0001-01-01T00:00:00Z</time>
      </trkpt>
      <trkpt lat="49.23482" lon="6.73121">
        <ele>0</ele>
        <time>0001-01-01T00:00:00Z</time>
      </trkpt>
      <trkpt lat="49.23461" lon="6.73126">
        <ele>0</ele>
        <time>0001-01-01T00:00:00Z</time>
      </trkpt>
      <trkpt lat="49.23419" lon="6.7315">
        <ele>0</ele>
        <time>0001-01-01T00:00:00Z</time>
      </trkpt>
      <trkpt lat="49.23402" lon="6.73166">
        <ele>0</ele>
        <time>0001-01-01T00:00:00Z</time>
      </trkpt>
      <trkpt lat="49.23379" lon="6.73194">
        <ele>0</ele>
        <time>0001-01-01T00:00:00Z</time>
      </trkpt>
      <trkpt lat="49.23255" lon="6.73372">
        <ele>0</ele>
        <time>0001-01-01T00:00:00Z</time>
      </trkpt>
      <trkpt lat="49.23216" lon="6.73421">
        <ele>0</ele>
        <time>0001-01-01T00:00:00Z</time>
      </trkpt>
      <trkpt lat="49.23189" lon="6.73451">
        <ele>0</ele>
        <time>0001-01-01T00:00:00Z</time>
      </trkpt>
      <trkpt lat="49.23156" lon="6.73475">
        <ele>0</ele>
        <time>0001-01-01T00:00:00Z</time>
      </trkpt>
      <trkpt lat="49.23139" lon="6.73483">
        <ele>0</ele>
        <time>0001-01-01T00:00:00Z</time>
      </trkpt>
      <trkpt lat="49.23021" lon="6.73526">
        <ele>0</ele>
        <time>0001-01-01T00:00:00Z</time>
      </trkpt>
      <trkpt lat="49.22992" lon="6.7354">
        <ele>0</ele>
        <time>0001-01-01T00:00:00Z</time>
      </trkpt>
      <trkpt lat="49.22978" lon="6.73549">
        <ele>0</ele>
        <time>0001-01-01T00:00:00Z</time>
      </trkpt>
      <trkpt lat="49.22961" lon="6.73567">
        <ele>0</ele>
        <time>0001-01-01T00:00:00Z</time>
      </trkpt>
      <trkpt lat="49.22949" lon="6.73586">
        <ele>0</ele>
        <time>0001-01-01T00:00:00Z</time>
      </trkpt>
      <trkpt lat="49.22939" lon="6.73608">
        <ele>0</ele>
        <time>0001-01-01T00:00:00Z</time>
      </trkpt>
      <trkpt lat="49.2293" lon="6.73638">
        <ele>0</ele>
        <time>0001-01-01T00:00:00Z</time>
      </trkpt>
      <trkpt lat="49.22919" lon="6.73688">
        <ele>0</ele>
        <time>0001-01-01T00:00:00Z</time>
      </trkpt>
      <trkpt lat="49.22909" lon="6.73766">
        <ele>0</ele>
        <time>0001-01-01T00:00:00Z</time>
      </trkpt>
      <trkpt lat="49.22903" lon="6.73795">
        <ele>0</ele>
        <time>0001-01-01T00:00:00Z</time>
      </trkpt>
      <trkpt lat="49.22894" lon="6.73821">
        <ele>0</ele>
        <time>0001-01-01T00:00:00Z</time>
      </trkpt>
      <trkpt lat="49.22885" lon="6.73842">
        <ele>0</ele>
        <time>0001-01-01T00:00:00Z</time>
      </trkpt>
      <trkpt lat="49.22857" lon="6.73886">
        <ele>0</ele>
        <time>0001-01-01T00:00:00Z</time>
      </trkpt>
      <trkpt lat="49.22846" lon="6.73898">
        <ele>0</ele>
        <time>0001-01-01T00:00:00Z</time>
      </trkpt>
      <trkpt lat="49.22795" lon="6.73929">
        <ele>0</ele>
        <time>0001-01-01T00:00:00Z</time>
      </trkpt>
      <trkpt lat="49.22773" lon="6.73936">
        <ele>0</ele>
        <time>0001-01-01T00:00:00Z</time>
      </trkpt>
      <trkpt lat="49.22583" lon="6.73977">
        <ele>0</ele>
        <time>0001-01-01T00:00:00Z</time>
      </trkpt>
      <trkpt lat="49.22551" lon="6.73982">
        <ele>0</ele>
        <time>0001-01-01T00:00:00Z</time>
      </trkpt>
      <trkpt lat="49.22526" lon="6.73984">
        <ele>0</ele>
        <time>0001-01-01T00:00:00Z</time>
      </trkpt>
      <trkpt lat="49.22485" lon="6.73982">
        <ele>0</ele>
        <time>0001-01-01T00:00:00Z</time>
      </trkpt>
      <trkpt lat="49.22463" lon="6.73986">
        <ele>0</ele>
        <time>0001-01-01T00:00:00Z</time>
      </trkpt>
      <trkpt lat="49.22446" lon="6.73991">
        <ele>0</ele>
        <time>0001-01-01T00:00:00Z</time>
      </trkpt>
      <trkpt lat="49.22419" lon="6.74006">
        <ele>0</ele>
        <time>0001-01-01T00:00:00Z</time>
      </trkpt>
      <trkpt lat="49.22395" lon="6.74024">
        <ele>0</ele>
        <time>0001-01-01T00:00:00Z</time>
      </trkpt>
      <trkpt lat="49.22378" lon="6.74041">
        <ele>0</ele>
        <time>0001-01-01T00:00:00Z</time>
      </trkpt>
      <trkpt lat="49.22356" lon="6.74071">
        <ele>0</ele>
        <time>0001-01-01T00:00:00Z</time>
      </trkpt>
      <trkpt lat="49.22337" lon="6.74105">
        <ele>0</ele>
        <time>0001-01-01T00:00:00Z</time>
      </trkpt>
      <trkpt lat="49.22322" lon="6.74143">
        <ele>0</ele>
        <time>0001-01-01T00:00:00Z</time>
      </trkpt>
      <trkpt lat="49.2231" lon="6.74185">
        <ele>0</ele>
        <time>0001-01-01T00:00:00Z</time>
      </trkpt>
      <trkpt lat="49.22289" lon="6.74326">
        <ele>0</ele>
        <time>0001-01-01T00:00:00Z</time>
      </trkpt>
      <trkpt lat="49.22269" lon="6.74436">
        <ele>0</ele>
        <time>0001-01-01T00:00:00Z</time>
      </trkpt>
      <trkpt lat="49.2226" lon="6.74473">
        <ele>0</ele>
        <time>0001-01-01T00:00:00Z</time>
      </trkpt>
      <trkpt lat="49.2225" lon="6.74499">
        <ele>0</ele>
        <time>0001-01-01T00:00:00Z</time>
      </trkpt>
      <trkpt lat="49.2222" lon="6.74546">
        <ele>0</ele>
        <time>0001-01-01T00:00:00Z</time>
      </trkpt>
      <trkpt lat="49.2218" lon="6.74588">
        <ele>0</ele>
        <time>0001-01-01T00:00:00Z</time>
      </trkpt>
      <trkpt lat="49.22149" lon="6.74628">
        <ele>0</ele>
        <time>0001-01-01T00:00:00Z</time>
      </trkpt>
      <trkpt lat="49.22113" lon="6.74687">
        <ele>0</ele>
        <time>0001-01-01T00:00:00Z</time>
      </trkpt>
      <trkpt lat="49.22067" lon="6.74751">
        <ele>0</ele>
        <time>0001-01-01T00:00:00Z</time>
      </trkpt>
      <trkpt lat="49.22018" lon="6.74808">
        <ele>0</ele>
        <time>0001-01-01T00:00:00Z</time>
      </trkpt>
      <trkpt lat="49.22002" lon="6.74829">
        <ele>0</ele>
        <time>0001-01-01T00:00:00Z</time>
      </trkpt>
      <trkpt lat="49.21987" lon="6.74898">
        <ele>0</ele>
        <time>0001-01-01T00:00:00Z</time>
      </trkpt>
      <trkpt lat="49.21968" lon="6.7494">
        <ele>0</ele>
        <time>0001-01-01T00:00:00Z</time>
      </trkpt>
      <trkpt lat="49.2195" lon="6.74971">
        <ele>0</ele>
        <time>0001-01-01T00:00:00Z</time>
      </trkpt>
      <trkpt lat="49.21917" lon="6.75">
        <ele>0</ele>
        <time>0001-01-01T00:00:00Z</time>
      </trkpt>
      <trkpt lat="49.21898" lon="6.75041">
        <ele>0</ele>
        <time>0001-01-01T00:00:00Z</time>
      </trkpt>
      <trkpt lat="49.21884" lon="6.75076">
        <ele>0</ele>
        <time>0001-01-01T00:00:00Z</time>
      </trkpt>
      <trkpt lat="49.21879" lon="6.75095">
        <ele>0</ele>
        <time>0001-01-01T00:00:00Z</time>
      </trkpt>
      <trkpt lat="49.2186" lon="6.75197">
        <ele>0</ele>
        <time>0001-01-01T00:00:00Z</time>
      </trkpt>
      <trkpt lat="49.21852" lon="6.75223">
        <ele>0</ele>
        <time>0001-01-01T00:00:00Z</time>
      </trkpt>
      <trkpt lat="49.218" lon="6.75353">
        <ele>0</ele>
        <time>0001-01-01T00:00:00Z</time>
      </trkpt>
      <trkpt lat="49.2179" lon="6.75373">
        <ele>0</ele>
        <time>0001-01-01T00:00:00Z</time>
      </trkpt>
      <trkpt lat="49.21783" lon="6.75384">
        <ele>0</ele>
        <time>0001-01-01T00:00:00Z</time>
      </trkpt>
      <trkpt lat="49.21772" lon="6.75398">
        <ele>0</ele>
        <time>0001-01-01T00:00:00Z</time>
      </trkpt>
      <trkpt lat="49.21763" lon="6.75405">
        <ele>0</ele>
        <time>0001-01-01T00:00:00Z</time>
      </trkpt>
      <trkpt lat="49.21749" lon="6.75411">
        <ele>0</ele>
        <time>0001-01-01T00:00:00Z</time>
      </trkpt>
      <trkpt lat="49.21739" lon="6.75412">
        <ele>0</ele>
        <time>0001-01-01T00:00:00Z</time>
      </trkpt>
      <trkpt lat="49.21711" lon="6.75412">
        <ele>0</ele>
        <time>0001-01-01T00:00:00Z</time>
      </trkpt>
      <trkpt lat="49.21518" lon="6.75372">
        <ele>0</ele>
        <time>0001-01-01T00:00:00Z</time>
      </trkpt>
      <trkpt lat="49.21496" lon="6.75369">
        <ele>0</ele>
        <time>0001-01-01T00:00:00Z</time>
      </trkpt>
      <trkpt lat="49.21457" lon="6.75372">
        <ele>0</ele>
        <time>0001-01-01T00:00:00Z</time>
      </trkpt>
      <trkpt lat="49.21435" lon="6.75377">
        <ele>0</ele>
        <time>0001-01-01T00:00:00Z</time>
      </trkpt>
      <trkpt lat="49.21385" lon="6.75394">
        <ele>0</ele>
        <time>0001-01-01T00:00:00Z</time>
      </trkpt>
      <trkpt lat="49.21366" lon="6.75396">
        <ele>0</ele>
        <time>0001-01-01T00:00:00Z</time>
      </trkpt>
      <trkpt lat="49.21231" lon="6.75383">
        <ele>0</ele>
        <time>0001-01-01T00:00:00Z</time>
      </trkpt>
      <trkpt lat="49.21217" lon="6.7538">
        <ele>0</ele>
        <time>0001-01-01T00:00:00Z</time>
      </trkpt>
      <trkpt lat="49.21204" lon="6.75375">
        <ele>0</ele>
        <time>0001-01-01T00:00:00Z</time>
      </trkpt>
      <trkpt lat="49.21189" lon="6.75363">
        <ele>0</ele>
        <time>0001-01-01T00:00:00Z</time>
      </trkpt>
      <trkpt lat="49.21148" lon="6.75323">
        <ele>0</ele>
        <time>0001-01-01T00:00:00Z</time>
      </trkpt>
      <trkpt lat="49.21134" lon="6.75312">
        <ele>0</ele>
        <time>0001-01-01T00:00:00Z</time>
      </trkpt>
      <trkpt lat="49.21121" lon="6.75304">
        <ele>0</ele>
        <time>0001-01-01T00:00:00Z</time>
      </trkpt>
      <trkpt lat="49.21113" lon="6.75301">
        <ele>0</ele>
        <time>0001-01-01T00:00:00Z</time>
      </trkpt>
      <trkpt lat="49.21101" lon="6.75298">
        <ele>0</ele>
        <time>0001-01-01T00:00:00Z</time>
      </trkpt>
      <trkpt lat="49.21092" lon="6.75299">
        <ele>0</ele>
        <time>0001-01-01T00:00:00Z</time>
      </trkpt>
      <trkpt lat="49.21079" lon="6.75303">
        <ele>0</ele>
        <time>0001-01-01T00:00:00Z</time>
      </trkpt>
      <trkpt lat="49.21063" lon="6.75312">
        <ele>0</ele>
        <time>0001-01-01T00:00:00Z</time>
      </trkpt>
      <trkpt lat="49.21038" lon="6.75333">
        <ele>0</ele>
        <time>0001-01-01T00:00:00Z</time>
      </trkpt>
      <trkpt lat="49.20714" lon="6.75681">
        <ele>0</ele>
        <time>0001-01-01T00:00:00Z</time>
      </trkpt>
      <trkpt lat="49.20686" lon="6.75708">
        <ele>0</ele>
        <time>0001-01-01T00:00:00Z</time>
      </trkpt>
      <trkpt lat="49.20675" lon="6.75716">
        <ele>0</ele>
        <time>0001-01-01T00:00:00Z</time>
      </trkpt>
      <trkpt lat="49.20651" lon="6.75727">
        <ele>0</ele>
        <time>0001-01-01T00:00:00Z</time>
      </trkpt>
      <trkpt lat="49.2059" lon="6.75726">
        <ele>0</ele>
        <time>0001-01-01T00:00:00Z</time>
      </trkpt>
      <trkpt lat="49.20553" lon="6.75719">
        <ele>0</ele>
        <time>0001-01-01T00:00:00Z</time>
      </trkpt>
      <trkpt lat="49.20532" lon="6.75711">
        <ele>0</ele>
        <time>0001-01-01T00:00:00Z</time>
      </trkpt>
      <trkpt lat="49.2051" lon="6.75699">
        <ele>0</ele>
        <time>0001-01-01T00:00:00Z</time>
      </trkpt>
      <trkpt lat="49.205" lon="6.75691">
        <ele>0</ele>
        <time>0001-01-01T00:00:00Z</time>
      </trkpt>
      <trkpt lat="49.20488" lon="6.75679">
        <ele>0</ele>
        <time>0001-01-01T00:00:00Z</time>
      </trkpt>
      <trkpt lat="49.20434" lon="6.75613">
        <ele>0</ele>
        <time>0001-01-01T00:00:00Z</time>
      </trkpt>
      <trkpt lat="49.20422" lon="6.75605">
        <ele>0</ele>
        <time>0001-01-01T00:00:00Z</time>
      </trkpt>
      <trkpt lat="49.20402" lon="6.75597">
        <ele>0</ele>
        <time>0001-01-01T00:00:00Z</time>
      </trkpt>
      <trkpt lat="49.20393" lon="6.75597">
        <ele>0</ele>
        <time>0001-01-01T00:00:00Z</time>
      </trkpt>
      <trkpt lat="49.20371" lon="6.75603">
        <ele>0</ele>
        <time>0001-01-01T00:00:00Z</time>
      </trkpt>
      <trkpt lat="49.20362" lon="6.75608">
        <ele>0</ele>
        <time>0001-01-01T00:00:00Z</time>
      </trkpt>
      <trkpt lat="49.20357" lon="6.75612">
        <ele>0</ele>
        <time>0001-01-01T00:00:00Z</time>
      </trkpt>
      <trkpt lat="49.20347" lon="6.75622">
        <ele>0</ele>
        <time>0001-01-01T00:00:00Z</time>
      </trkpt>
      <trkpt lat="49.20323" lon="6.75663">
        <ele>0</ele>
        <time>0001-01-01T00:00:00Z</time>
      </trkpt>
      <trkpt lat="49.20314" lon="6.75687">
        <ele>0</ele>
        <time>0001-01-01T00:00:00Z</time>
      </trkpt>
      <trkpt lat="49.20304" lon="6.75725">
        <ele>0</ele>
        <time>0001-01-01T00:00:00Z</time>
      </trkpt>
      <trkpt lat="49.20295" lon="6.75773">
        <ele>0</ele>
        <time>0001-01-01T00:00:00Z</time>
      </trkpt>
      <trkpt lat="49.20261" lon="6.75895">
        <ele>0</ele>
        <time>0001-01-01T00:00:00Z</time>
      </trkpt>
      <trkpt lat="49.20247" lon="6.75932">
        <ele>0</ele>
        <time>0001-01-01T00:00:00Z</time>
      </trkpt>
      <trkpt lat="49.20214" lon="6.75997">
        <ele>0</ele>
        <time>0001-01-01T00:00:00Z</time>
      </trkpt>
      <trkpt lat="49.20189" lon="6.76041">
        <ele>0</ele>
        <time>0001-01-01T00:00:00Z</time>
      </trkpt>
      <trkpt lat="49.20183" lon="6.76049">
        <ele>0</ele>
        <time>0001-01-01T00:00:00Z</time>
      </trkpt>
      <trkpt lat="49.20171" lon="6.76062">
        <ele>0</ele>
        <time>0001-01-01T00:00:00Z</time>
      </trkpt>
      <trkpt lat="49.20163" lon="6.76069">
        <ele>0</ele>
        <time>0001-01-01T00:00:00Z</time>
      </trkpt>
      <trkpt lat="49.20151" lon="6.76076">
        <ele>0</ele>
        <time>0001-01-01T00:00:00Z</time>
      </trkpt>
      <trkpt lat="49.2014" lon="6.7608">
        <ele>0</ele>
        <time>0001-01-01T00:00:00Z</time>
      </trkpt>
      <trkpt lat="49.20134" lon="6.76085">
        <ele>0</ele>
        <time>0001-01-01T00:00:00Z</time>
      </trkpt>
      <trkpt lat="49.20125" lon="6.76099">
        <ele>0</ele>
        <time>0001-01-01T00:00:00Z</time>
      </trkpt>
      <trkpt lat="49.20116" lon="6.76131">
        <ele>0</ele>
        <time>0001-01-01T00:00:00Z</time>
      </trkpt>
      <trkpt lat="49.20107" lon="6.76181">
        <ele>0</ele>
        <time>0001-01-01T00:00:00Z</time>
      </trkpt>
      <trkpt lat="49.20105" lon="6.76216">
        <ele>0</ele>
        <time>0001-01-01T00:00:00Z</time>
      </trkpt>
      <trkpt lat="49.20105" lon="6.7627">
        <ele>0</ele>
        <time>0001-01-01T00:00:00Z</time>
      </trkpt>
      <trkpt lat="49.20111" lon="6.76357">
        <ele>0</ele>
        <time>0001-01-01T00:00:00Z</time>
      </trkpt>
      <trkpt lat="49.20111" lon="6.76377">
        <ele>0</ele>
        <time>0001-01-01T00:00:00Z</time>
      </trkpt>
      <trkpt lat="49.20107" lon="6.76399">
        <ele>0</ele>
        <time>0001-01-01T00:00:00Z</time>
      </trkpt>
      <trkpt lat="49.20096" lon="6.76444">
        <ele>0</ele>
        <time>0001-01-01T00:00:00Z</time>
      </trkpt>
      <trkpt lat="49.20093" lon="6.76462">
        <ele>0</ele>
        <time>0001-01-01T00:00:00Z</time>
      </trkpt>
      <trkpt lat="49.20085" lon="6.76563">
        <ele>0</ele>
        <time>0001-01-01T00:00:00Z</time>
      </trkpt>
      <trkpt lat="49.20098" lon="6.7672">
        <ele>0</ele>
        <time>0001-01-01T00:00:00Z</time>
      </trkpt>
      <trkpt lat="49.20097" lon="6.76735">
        <ele>0</ele>
        <time>0001-01-01T00:00:00Z</time>
      </trkpt>
      <trkpt lat="49.20094" lon="6.76753">
        <ele>0</ele>
        <time>0001-01-01T00:00:00Z</time>
      </trkpt>
      <trkpt lat="49.20073" lon="6.76824">
        <ele>0</ele>
        <time>0001-01-01T00:00:00Z</time>
      </trkpt>
      <trkpt lat="49.20069" lon="6.76845">
        <ele>0</ele>
        <time>0001-01-01T00:00:00Z</time>
      </trkpt>
      <trkpt lat="49.20044" lon="6.77041">
        <ele>0</ele>
        <time>0001-01-01T00:00:00Z</time>
      </trkpt>
      <trkpt lat="49.20043" lon="6.77062">
        <ele>0</ele>
        <time>0001-01-01T00:00:00Z</time>
      </trkpt>
      <trkpt lat="49.20045" lon="6.77099">
        <ele>0</ele>
        <time>0001-01-01T00:00:00Z</time>
      </trkpt>
      <trkpt lat="49.20052" lon="6.77155">
        <ele>0</ele>
        <time>0001-01-01T00:00:00Z</time>
      </trkpt>
      <trkpt lat="49.20057" lon="6.77179">
        <ele>0</ele>
        <time>0001-01-01T00:00:00Z</time>
      </trkpt>
      <trkpt lat="49.20064" lon="6.77237">
        <ele>0</ele>
        <time>0001-01-01T00:00:00Z</time>
      </trkpt>
      <trkpt lat="49.20062" lon="6.77299">
        <ele>0</ele>
        <time>0001-01-01T00:00:00Z</time>
      </trkpt>
      <trkpt lat="49.20056" lon="6.77351">
        <ele>0</ele>
        <time>0001-01-01T00:00:00Z</time>
      </trkpt>
      <trkpt lat="49.2005" lon="6.77472">
        <ele>0</ele>
        <time>0001-01-01T00:00:00Z</time>
      </trkpt>
      <trkpt lat="49.20045" lon="6.77488">
        <ele>0</ele>
        <time>0001-01-01T00:00:00Z</time>
      </trkpt>
      <trkpt lat="49.20041" lon="6.77497">
        <ele>0</ele>
        <time>0001-01-01T00:00:00Z</time>
      </trkpt>
      <trkpt lat="49.2004" lon="6.77501">
        <ele>0</ele>
        <time>0001-01-01T00:00:00Z</time>
      </trkpt>
      <trkpt lat="49.20032" lon="6.77513">
        <ele>0</ele>
        <time>0001-01-01T00:00:00Z</time>
      </trkpt>
      <trkpt lat="49.20002" lon="6.77541">
        <ele>0</ele>
        <time>0001-01-01T00:00:00Z</time>
      </trkpt>
      <trkpt lat="49.19981" lon="6.77557">
        <ele>0</ele>
        <time>0001-01-01T00:00:00Z</time>
      </trkpt>
      <trkpt lat="49.19998" lon="6.7762">
        <ele>0</ele>
        <time>0001-01-01T00:00:00Z</time>
      </trkpt>
      <trkpt lat="49.19999" lon="6.77621">
        <ele>0</ele>
        <time>0001-01-01T00:00:00Z</time>
      </trkpt>
      <trkpt lat="49.20001" lon="6.77625">
        <ele>0</ele>
        <time>0001-01-01T00:00:00Z</time>
      </trkpt>
      <trkpt lat="49.20041" lon="6.77793">
        <ele>0</ele>
        <time>0001-01-01T00:00:00Z</time>
      </trkpt>
      <trkpt lat="49.2006" lon="6.77858">
        <ele>0</ele>
        <time>0001-01-01T00:00:00Z</time>
      </trkpt>
      <trkpt lat="49.20081" lon="6.77907">
        <ele>0</ele>
        <time>0001-01-01T00:00:00Z</time>
      </trkpt>
      <trkpt lat="49.20155" lon="6.78057">
        <ele>0</ele>
        <time>0001-01-01T00:00:00Z</time>
      </trkpt>
      <trkpt lat="49.20188" lon="6.78153">
        <ele>0</ele>
        <time>0001-01-01T00:00:00Z</time>
      </trkpt>
      <trkpt lat="49.20206" lon="6.78222">
        <ele>0</ele>
        <time>0001-01-01T00:00:00Z</time>
      </trkpt>
      <trkpt lat="49.20235" lon="6.78357">
        <ele>0</ele>
        <time>0001-01-01T00:00:00Z</time>
      </trkpt>
      <trkpt lat="49.20298" lon="6.78555">
        <ele>0</ele>
        <time>0001-01-01T00:00:00Z</time>
      </trkpt>
      <trkpt lat="49.20307" lon="6.78576">
        <ele>0</ele>
        <time>0001-01-01T00:00:00Z</time>
      </trkpt>
      <trkpt lat="49.2044" lon="6.78801">
        <ele>0</ele>
        <time>0001-01-01T00:00:00Z</time>
      </trkpt>
      <trkpt lat="49.20459" lon="6.78826">
        <ele>0</ele>
        <time>0001-01-01T00:00:00Z</time>
      </trkpt>
      <trkpt lat="49.2047" lon="6.78838">
        <ele>0</ele>
        <time>0001-01-01T00:00:00Z</time>
      </trkpt>
      <trkpt lat="49.20544" lon="6.78902">
        <ele>0</ele>
        <time>0001-01-01T00:00:00Z</time>
      </trkpt>
      <trkpt lat="49.20592" lon="6.78948">
        <ele>0</ele>
        <time>0001-01-01T00:00:00Z</time>
      </trkpt>
      <trkpt lat="49.20667" lon="6.7903">
        <ele>0</ele>
        <time>0001-01-01T00:00:00Z</time>
      </trkpt>
      <trkpt lat="49.20763" lon="6.79103">
        <ele>0</ele>
        <time>0001-01-01T00:00:00Z</time>
      </trkpt>
      <trkpt lat="49.20782" lon="6.79121">
        <ele>0</ele>
        <time>0001-01-01T00:00:00Z</time>
      </trkpt>
      <trkpt lat="49.20803" lon="6.79147">
        <ele>0</ele>
        <time>0001-01-01T00:00:00Z</time>
      </trkpt>
      <trkpt lat="49.20824" lon="6.79184">
        <ele>0</ele>
        <time>0001-01-01T00:00:00Z</time>
      </trkpt>
      <trkpt lat="49.20873" lon="6.79318">
        <ele>0</ele>
        <time>0001-01-01T00:00:00Z</time>
      </trkpt>
      <trkpt lat="49.20891" lon="6.79357">
        <ele>0</ele>
        <time>0001-01-01T00:00:00Z</time>
      </trkpt>
      <trkpt lat="49.20911" lon="6.79392">
        <ele>0</ele>
        <time>0001-01-01T00:00:00Z</time>
      </trkpt>
      <trkpt lat="49.20934" lon="6.79422">
        <ele>0</ele>
        <time>0001-01-01T00:00:00Z</time>
      </trkpt>
      <trkpt lat="49.20964" lon="6.79454">
        <ele>0</ele>
        <time>0001-01-01T00:00:00Z</time>
      </trkpt>
      <trkpt lat="49.21167" lon="6.79647">
        <ele>0</ele>
        <time>0001-01-01T00:00:00Z</time>
      </trkpt>
      <trkpt lat="49.21151" lon="6.79671">
        <ele>0</ele>
        <time>0001-01-01T00:00:00Z</time>
      </trkpt>
      <trkpt lat="49.2112" lon="6.79705">
        <ele>0</ele>
        <time>0001-01-01T00:00:00Z</time>
      </trkpt>
      <trkpt lat="49.21106" lon="6.79716">
        <ele>0</ele>
        <time>0001-01-01T00:00:00Z</time>
      </trkpt>
      <trkpt lat="49.21089" lon="6.79724">
        <ele>0</ele>
        <time>0001-01-01T00:00:00Z</time>
      </trkpt>
      <trkpt lat="49.21079" lon="6.79724">
        <ele>0</ele>
        <time>0001-01-01T00:00:00Z</time>
      </trkpt>
      <trkpt lat="49.21072" lon="6.79723">
        <ele>0</ele>
        <time>0001-01-01T00:00:00Z</time>
      </trkpt>
      <trkpt lat="49.21071" lon="6.79722">
        <ele>0</ele>
        <time>0001-01-01T00:00:00Z</time>
      </trkpt>
      <trkpt lat="49.21059" lon="6.79717">
        <ele>0</ele>
        <time>0001-01-01T00:00:00Z</time>
      </trkpt>
      <trkpt lat="49.20689" lon="6.79445">
        <ele>0</ele>
        <time>0001-01-01T00:00:00Z</time>
      </trkpt>
      <trkpt lat="49.20661" lon="6.79432">
        <ele>0</ele>
        <time>0001-01-01T00:00:00Z</time>
      </trkpt>
      <trkpt lat="49.2065" lon="6.79431">
        <ele>0</ele>
        <time>0001-01-01T00:00:00Z</time>
      </trkpt>
      <trkpt lat="49.2063" lon="6.79436">
        <ele>0</ele>
        <time>0001-01-01T00:00:00Z</time>
      </trkpt>
      <trkpt lat="49.20598" lon="6.79453">
        <ele>0</ele>
        <time>0001-01-01T00:00:00Z</time>
      </trkpt>
      <trkpt lat="49.20583" lon="6.79464">
        <ele>0</ele>
        <time>0001-01-01T00:00:00Z</time>
      </trkpt>
      <trkpt lat="49.20571" lon="6.79479">
        <ele>0</ele>
        <time>0001-01-01T00:00:00Z</time>
      </trkpt>
      <trkpt lat="49.20564" lon="6.7949">
        <ele>0</ele>
        <time>0001-01-01T00:00:00Z</time>
      </trkpt>
      <trkpt lat="49.20545" lon="6.79535">
        <ele>0</ele>
        <time>0001-01-01T00:00:00Z</time>
      </trkpt>
      <trkpt lat="49.20533" lon="6.79572">
        <ele>0</ele>
        <time>0001-01-01T00:00:00Z</time>
      </trkpt>
      <trkpt lat="49.20522" lon="6.79616">
        <ele>0</ele>
        <time>0001-01-01T00:00:00Z</time>
      </trkpt>
      <trkpt lat="49.20509" lon="6.79656">
        <ele>0</ele>
        <time>0001-01-01T00:00:00Z</time>
      </trkpt>
      <trkpt lat="49.20509" lon="6.79658">
        <ele>0</ele>
        <time>0001-01-01T00:00:00Z</time>
      </trkpt>
      <trkpt lat="49.20491" lon="6.79695">
        <ele>0</ele>
        <time>0001-01-01T00:00:00Z</time>
      </trkpt>
      <trkpt lat="49.2048" lon="6.79714">
        <ele>0</ele>
        <time>0001-01-01T00:00:00Z</time>
      </trkpt>
      <trkpt lat="49.20462" lon="6.79737">
        <ele>0</ele>
        <time>0001-01-01T00:00:00Z</time>
      </trkpt>
      <trkpt lat="49.20337" lon="6.79876">
        <ele>0</ele>
        <time>0001-01-01T00:00:00Z</time>
      </trkpt>
      <trkpt lat="49.20315" lon="6.79894">
        <ele>0</ele>
        <time>0001-01-01T00:00:00Z</time>
      </trkpt>
      <trkpt lat="49.20287" lon="6.79909">
        <ele>0</ele>
        <time>0001-01-01T00:00:00Z</time>
      </trkpt>
      <trkpt lat="49.20213" lon="6.79939">
        <ele>0</ele>
        <time>0001-01-01T00:00:00Z</time>
      </trkpt>
      <trkpt lat="49.20171" lon="6.7995">
        <ele>0</ele>
        <time>0001-01-01T00:00:00Z</time>
      </trkpt>
      <trkpt lat="49.20063" lon="6.79973">
        <ele>0</ele>
        <time>0001-01-01T00:00:00Z</time>
      </trkpt>
      <trkpt lat="49.20047" lon="6.79979">
        <ele>0</ele>
        <time>0001-01-01T00:00:00Z</time>
      </trkpt>
      <trkpt lat="49.20032" lon="6.79988">
        <ele>0</ele>
        <time>0001-01-01T00:00:00Z</time>
      </trkpt>
      <trkpt lat="49.1999" lon="6.8002">
        <ele>0</ele>
        <time>0001-01-01T00:00:00Z</time>
      </trkpt>
      <trkpt lat="49.19972" lon="6.80036">
        <ele>0</ele>
        <time>0001-01-01T00:00:00Z</time>
      </trkpt>
      <trkpt lat="49.19943" lon="6.80058">
        <ele>0</ele>
        <time>0001-01-01T00:00:00Z</time>
      </trkpt>
      <trkpt lat="49.19889" lon="6.80092">
        <ele>0</ele>
        <time>0001-01-01T00:00:00Z</time>
      </trkpt>
      <trkpt lat="49.19761" lon="6.80163">
        <ele>0</ele>
        <time>0001-01-01T00:00:00Z</time>
      </trkpt>
      <trkpt lat="49.19741" lon="6.80169">
        <ele>0</ele>
        <time>0001-01-01T00:00:00Z</time>
      </trkpt>
      <trkpt lat="49.19725" lon="6.8017">
        <ele>0</ele>
        <time>0001-01-01T00:00:00Z</time>
      </trkpt>
      <trkpt lat="49.197" lon="6.80164">
        <ele>0</ele>
        <time>0001-01-01T00:00:00Z</time>
      </trkpt>
      <trkpt lat="49.19594" lon="6.80106">
        <ele>0</ele>
        <time>0001-01-01T00:00:00Z</time>
      </trkpt>
      <trkpt lat="49.19584" lon="6.80102">
        <ele>0</ele>
        <time>0001-01-01T00:00:00Z</time>
      </trkpt>
      <trkpt lat="49.19566" lon="6.80098">
        <ele>0</ele>
        <time>0001-01-01T00:00:00Z</time>
      </trkpt>
      <trkpt lat="49.19468" lon="6.80105">
        <ele>0</ele>
        <time>0001-01-01T00:00:00Z</time>
      </trkpt>
      <trkpt lat="49.19441" lon="6.80111">
        <ele>0</ele>
        <time>0001-01-01T00:00:00Z</time>
      </trkpt>
      <trkpt lat="49.19385" lon="6.80134">
        <ele>0</ele>
        <time>0001-01-01T00:00:00Z</time>
      </trkpt>
      <trkpt lat="49.19349" lon="6.80151">
        <ele>0</ele>
        <time>0001-01-01T00:00:00Z</time>
      </trkpt>
      <trkpt lat="49.19331" lon="6.80157">
        <ele>0</ele>
        <time>0001-01-01T00:00:00Z</time>
      </trkpt>
      <trkpt lat="49.1932" lon="6.80157">
        <ele>0</ele>
        <time>0001-01-01T00:00:00Z</time>
      </trkpt>
      <trkpt lat="49.1929" lon="6.8016">
        <ele>0</ele>
        <time>0001-01-01T00:00:00Z</time>
      </trkpt>
      <trkpt lat="49.19271" lon="6.80164">
        <ele>0</ele>
        <time>0001-01-01T00:00:00Z</time>
      </trkpt>
      <trkpt lat="49.19258" lon="6.80168">
        <ele>0</ele>
        <time>0001-01-01T00:00:00Z</time>
      </trkpt>
      <trkpt lat="49.19215" lon="6.8019">
        <ele>0</ele>
        <time>0001-01-01T00:00:00Z</time>
      </trkpt>
      <trkpt lat="49.19193" lon="6.80198">
        <ele>0</ele>
        <time>0001-01-01T00:00:00Z</time>
      </trkpt>
      <trkpt lat="49.19171" lon="6.80202">
        <ele>0</ele>
        <time>0001-01-01T00:00:00Z</time>
      </trkpt>
      <trkpt lat="49.19115" lon="6.80207">
        <ele>0</ele>
        <time>0001-01-01T00:00:00Z</time>
      </trkpt>
      <trkpt lat="49.19097" lon="6.80207">
        <ele>0</ele>
        <time>0001-01-01T00:00:00Z</time>
      </trkpt>
      <trkpt lat="49.19076" lon="6.8021">
        <ele>0</ele>
        <time>0001-01-01T00:00:00Z</time>
      </trkpt>
      <trkpt lat="49.19047" lon="6.80218">
        <ele>0</ele>
        <time>0001-01-01T00:00:00Z</time>
      </trkpt>
      <trkpt lat="49.19003" lon="6.80238">
        <ele>0</ele>
        <time>0001-01-01T00:00:00Z</time>
      </trkpt>
      <trkpt lat="49.18988" lon="6.80247">
        <ele>0</ele>
        <time>0001-01-01T00:00:00Z</time>
      </trkpt>
      <trkpt lat="49.18973" lon="6.80258">
        <ele>0</ele>
        <time>0001-01-01T00:00:00Z</time>
      </trkpt>
      <trkpt lat="49.18934" lon="6.80295">
        <ele>0</ele>
        <time>0001-01-01T00:00:00Z</time>
      </trkpt>
      <trkpt lat="49.18917" lon="6.80316">
        <ele>0</ele>
        <time>0001-01-01T00:00:00Z</time>
      </trkpt>
      <trkpt lat="49.18899" lon="6.80342">
        <ele>0</ele>
        <time>0001-01-01T00:00:00Z</time>
      </trkpt>
      <trkpt lat="49.18791" lon="6.80552">
        <ele>0</ele>
        <time>0001-01-01T00:00:00Z</time>
      </trkpt>
      <trkpt lat="49.18783" lon="6.80565">
        <ele>0</ele>
        <time>0001-01-01T00:00:00Z</time>
      </trkpt>
      <trkpt lat="49.18758" lon="6.80594">
        <ele>0</ele>
        <time>0001-01-01T00:00:00Z</time>
      </trkpt>
      <trkpt lat="49.18746" lon="6.80605">
        <ele>0</ele>
        <time>0001-01-01T00:00:00Z</time>
      </trkpt>
      <trkpt lat="49.18733" lon="6.80615">
        <ele>0</ele>
        <time>0001-01-01T00:00:00Z</time>
      </trkpt>
      <trkpt lat="49.18679" lon="6.80645">
        <ele>0</ele>
        <time>0001-01-01T00:00:00Z</time>
      </trkpt>
      <trkpt lat="49.18635" lon="6.80676">
        <ele>0</ele>
        <time>0001-01-01T00:00:00Z</time>
      </trkpt>
      <trkpt lat="49.18621" lon="6.80688">
        <ele>0</ele>
        <time>0001-01-01T00:00:00Z</time>
      </trkpt>
      <trkpt lat="49.18585" lon="6.80725">
        <ele>0</ele>
        <time>0001-01-01T00:00:00Z</time>
      </trkpt>
      <trkpt lat="49.18568" lon="6.80745">
        <ele>0</ele>
        <time>0001-01-01T00:00:00Z</time>
      </trkpt>
      <trkpt lat="49.18537" lon="6.80789">
        <ele>0</ele>
        <time>0001-01-01T00:00:00Z</time>
      </trkpt>
      <trkpt lat="49.18514" lon="6.80827">
        <ele>0</ele>
        <time>0001-01-01T00:00:00Z</time>
      </trkpt>
      <trkpt lat="49.18498" lon="6.80858">
        <ele>0</ele>
        <time>0001-01-01T00:00:00Z</time>
      </trkpt>
      <trkpt lat="49.18477" lon="6.80907">
        <ele>0</ele>
        <time>0001-01-01T00:00:00Z</time>
      </trkpt>
      <trkpt lat="49.18454" lon="6.80978">
        <ele>0</ele>
        <time>0001-01-01T00:00:00Z</time>
      </trkpt>
      <trkpt lat="49.18438" lon="6.81042">
        <ele>0</ele>
        <time>0001-01-01T00:00:00Z</time>
      </trkpt>
      <trkpt lat="49.18432" lon="6.81074">
        <ele>0</ele>
        <time>0001-01-01T00:00:00Z</time>
      </trkpt>
      <trkpt lat="49.18429" lon="6.81082">
        <ele>0</ele>
        <time>0001-01-01T00:00:00Z</time>
      </trkpt>
      <trkpt lat="49.18418" lon="6.81159">
        <ele>0</ele>
        <time>0001-01-01T00:00:00Z</time>
      </trkpt>
      <trkpt lat="49.18384" lon="6.81544">
        <ele>0</ele>
        <time>0001-01-01T00:00:00Z</time>
      </trkpt>
      <trkpt lat="49.1837" lon="6.81603">
        <ele>0</ele>
        <time>0001-01-01T00:00:00Z</time>
      </trkpt>
      <trkpt lat="49.18349" lon="6.8166">
        <ele>0</ele>
        <time>0001-01-01T00:00:00Z</time>
      </trkpt>
      <trkpt lat="49.18335" lon="6.81689">
        <ele>0</ele>
        <time>0001-01-01T00:00:00Z</time>
      </trkpt>
      <trkpt lat="49.18312" lon="6.8172">
        <ele>0</ele>
        <time>0001-01-01T00:00:00Z</time>
      </trkpt>
      <trkpt lat="49.18287" lon="6.81746">
        <ele>0</ele>
        <time>0001-01-01T00:00:00Z</time>
      </trkpt>
      <trkpt lat="49.18262" lon="6.81764">
        <ele>0</ele>
        <time>0001-01-01T00:00:00Z</time>
      </trkpt>
      <trkpt lat="49.18243" lon="6.81774">
        <ele>0</ele>
        <time>0001-01-01T00:00:00Z</time>
      </trkpt>
      <trkpt lat="49.18218" lon="6.81782">
        <ele>0</ele>
        <time>0001-01-01T00:00:00Z</time>
      </trkpt>
      <trkpt lat="49.18207" lon="6.81784">
        <ele>0</ele>
        <time>0001-01-01T00:00:00Z</time>
      </trkpt>
      <trkpt lat="49.18192" lon="6.81785">
        <ele>0</ele>
        <time>0001-01-01T00:00:00Z</time>
      </trkpt>
      <trkpt lat="49.18172" lon="6.81784">
        <ele>0</ele>
        <time>0001-01-01T00:00:00Z</time>
      </trkpt>
      <trkpt lat="49.18157" lon="6.8178">
        <ele>0</ele>
        <time>0001-01-01T00:00:00Z</time>
      </trkpt>
      <trkpt lat="49.18136" lon="6.81772">
        <ele>0</ele>
        <time>0001-01-01T00:00:00Z</time>
      </trkpt>
      <trkpt lat="49.18105" lon="6.81753">
        <ele>0</ele>
        <time>0001-01-01T00:00:00Z</time>
      </trkpt>
      <trkpt lat="49.18086" lon="6.81738">
        <ele>0</ele>
        <time>0001-01-01T00:00:00Z</time>
      </trkpt>
      <trkpt lat="49.18051" lon="6.817">
        <ele>0</ele>
        <time>0001-01-01T00:00:00Z</time>
      </trkpt>
      <trkpt lat="49.18013" lon="6.81648">
        <ele>0</ele>
        <time>0001-01-01T00:00:00Z</time>
      </trkpt>
      <trkpt lat="49.17832" lon="6.81374">
        <ele>0</ele>
        <time>0001-01-01T00:00:00Z</time>
      </trkpt>
      <trkpt lat="49.17772" lon="6.81273">
        <ele>0</ele>
        <time>0001-01-01T00:00:00Z</time>
      </trkpt>
      <trkpt lat="49.1771" lon="6.81185">
        <ele>0</ele>
        <time>0001-01-01T00:00:00Z</time>
      </trkpt>
      <trkpt lat="49.17694" lon="6.81165">
        <ele>0</ele>
        <time>0001-01-01T00:00:00Z</time>
      </trkpt>
      <trkpt lat="49.1768" lon="6.81152">
        <ele>0</ele>
        <time>0001-01-01T00:00:00Z</time>
      </trkpt>
      <trkpt lat="49.17673" lon="6.81149">
        <ele>0</ele>
        <time>0001-01-01T00:00:00Z</time>
      </trkpt>
      <trkpt lat="49.17662" lon="6.81141">
        <ele>0</ele>
        <time>0001-01-01T00:00:00Z</time>
      </trkpt>
      <trkpt lat="49.17551" lon="6.81077">
        <ele>0</ele>
        <time>0001-01-01T00:00:00Z</time>
      </trkpt>
      <trkpt lat="49.17518" lon="6.81065">
        <ele>0</ele>
        <time>0001-01-01T00:00:00Z</time>
      </trkpt>
      <trkpt lat="49.17507" lon="6.81058">
        <ele>0</ele>
        <time>0001-01-01T00:00:00Z</time>
      </trkpt>
      <trkpt lat="49.17502" lon="6.81056">
        <ele>0</ele>
        <time>0001-01-01T00:00:00Z</time>
      </trkpt>
      <trkpt lat="49.17467" lon="6.81055">
        <ele>0</ele>
        <time>0001-01-01T00:00:00Z</time>
      </trkpt>
      <trkpt lat="49.17461" lon="6.81057">
        <ele>0</ele>
        <time>0001-01-01T00:00:00Z</time>
      </trkpt>
      <trkpt lat="49.17453" lon="6.81061">
        <ele>0</ele>
        <time>0001-01-01T00:00:00Z</time>
      </trkpt>
      <trkpt lat="49.17438" lon="6.81072">
        <ele>0</ele>
        <time>0001-01-01T00:00:00Z</time>
      </trkpt>
      <trkpt lat="49.17432" lon="6.81078">
        <ele>0</ele>
        <time>0001-01-01T00:00:00Z</time>
      </trkpt>
      <trkpt lat="49.17415" lon="6.81092">
        <ele>0</ele>
        <time>0001-01-01T00:00:00Z</time>
      </trkpt>
      <trkpt lat="49.17415" lon="6.81093">
        <ele>0</ele>
        <time>0001-01-01T00:00:00Z</time>
      </trkpt>
      <trkpt lat="49.17413" lon="6.81099">
        <ele>0</ele>
        <time>0001-01-01T00:00:00Z</time>
      </trkpt>
      <trkpt lat="49.17405" lon="6.81107">
        <ele>0</ele>
        <time>0001-01-01T00:00:00Z</time>
      </trkpt>
      <trkpt lat="49.17392" lon="6.81117">
        <ele>0</ele>
        <time>0001-01-01T00:00:00Z</time>
      </trkpt>
      <trkpt lat="49.1738" lon="6.81129">
        <ele>0</ele>
        <time>0001-01-01T00:00:00Z</time>
      </trkpt>
      <trkpt lat="49.17374" lon="6.81139">
        <ele>0</ele>
        <time>0001-01-01T00:00:00Z</time>
      </trkpt>
      <trkpt lat="49.17367" lon="6.81157">
        <ele>0</ele>
        <time>0001-01-01T00:00:00Z</time>
      </trkpt>
      <trkpt lat="49.17345" lon="6.81259">
        <ele>0</ele>
        <time>0001-01-01T00:00:00Z</time>
      </trkpt>
      <trkpt lat="49.17342" lon="6.81281">
        <ele>0</ele>
        <time>0001-01-01T00:00:00Z</time>
      </trkpt>
      <trkpt lat="49.17342" lon="6.81305">
        <ele>0</ele>
        <time>0001-01-01T00:00:00Z</time>
      </trkpt>
      <trkpt lat="49.17346" lon="6.81335">
        <ele>0</ele>
        <time>0001-01-01T00:00:00Z</time>
      </trkpt>
      <trkpt lat="49.1737" lon="6.8146">
        <ele>0</ele>
        <time>0001-01-01T00:00:00Z</time>
      </trkpt>
      <trkpt lat="49.17374" lon="6.81502">
        <ele>0</ele>
        <time>0001-01-01T00:00:00Z</time>
      </trkpt>
      <trkpt lat="49.17374" lon="6.81531">
        <ele>0</ele>
        <time>0001-01-01T00:00:00Z</time>
      </trkpt>
      <trkpt lat="49.1737" lon="6.81566">
        <ele>0</ele>
        <time>0001-01-01T00:00:00Z</time>
      </trkpt>
      <trkpt lat="49.17359" lon="6.81606">
        <ele>0</ele>
        <time>0001-01-01T00:00:00Z</time>
      </trkpt>
      <trkpt lat="49.17351" lon="6.81623">
        <ele>0</ele>
        <time>0001-01-01T00:00:00Z</time>
      </trkpt>
      <trkpt lat="49.17339" lon="6.81643">
        <ele>0</ele>
        <time>0001-01-01T00:00:00Z</time>
      </trkpt>
      <trkpt lat="49.17326" lon="6.81661">
        <ele>0</ele>
        <time>0001-01-01T00:00:00Z</time>
      </trkpt>
      <trkpt lat="49.17306" lon="6.81681">
        <ele>0</ele>
        <time>0001-01-01T00:00:00Z</time>
      </trkpt>
      <trkpt lat="49.17301" lon="6.81685">
        <ele>0</ele>
        <time>0001-01-01T00:00:00Z</time>
      </trkpt>
      <trkpt lat="49.17232" lon="6.81726">
        <ele>0</ele>
        <time>0001-01-01T00:00:00Z</time>
      </trkpt>
      <trkpt lat="49.17224" lon="6.81732">
        <ele>0</ele>
        <time>0001-01-01T00:00:00Z</time>
      </trkpt>
      <trkpt lat="49.17218" lon="6.81738">
        <ele>0</ele>
        <time>0001-01-01T00:00:00Z</time>
      </trkpt>
      <trkpt lat="49.1721" lon="6.81749">
        <ele>0</ele>
        <time>0001-01-01T00:00:00Z</time>
      </trkpt>
      <trkpt lat="49.17204" lon="6.81763">
        <ele>0</ele>
        <time>0001-01-01T00:00:00Z</time>
      </trkpt>
      <trkpt lat="49.17199" lon="6.81782">
        <ele>0</ele>
        <time>0001-01-01T00:00:00Z</time>
      </trkpt>
      <trkpt lat="49.17198" lon="6.81791">
        <ele>0</ele>
        <time>0001-01-01T00:00:00Z</time>
      </trkpt>
      <trkpt lat="49.17198" lon="6.81812">
        <ele>0</ele>
        <time>0001-01-01T00:00:00Z</time>
      </trkpt>
      <trkpt lat="49.17235" lon="6.82019">
        <ele>0</ele>
        <time>0001-01-01T00:00:00Z</time>
      </trkpt>
      <trkpt lat="49.17239" lon="6.82085">
        <ele>0</ele>
        <time>0001-01-01T00:00:00Z</time>
      </trkpt>
      <trkpt lat="49.17238" lon="6.82134">
        <ele>0</ele>
        <time>0001-01-01T00:00:00Z</time>
      </trkpt>
      <trkpt lat="49.17234" lon="6.82187">
        <ele>0</ele>
        <time>0001-01-01T00:00:00Z</time>
      </trkpt>
      <trkpt lat="49.17234" lon="6.82205">
        <ele>0</ele>
        <time>0001-01-01T00:00:00Z</time>
      </trkpt>
      <trkpt lat="49.17236" lon="6.82232">
        <ele>0</ele>
        <time>0001-01-01T00:00:00Z</time>
      </trkpt>
      <trkpt lat="49.17252" lon="6.82324">
        <ele>0</ele>
        <time>0001-01-01T00:00:00Z</time>
      </trkpt>
      <trkpt lat="49.17256" lon="6.82359">
        <ele>0</ele>
        <time>0001-01-01T00:00:00Z</time>
      </trkpt>
      <trkpt lat="49.17253" lon="6.82525">
        <ele>0</ele>
        <time>0001-01-01T00:00:00Z</time>
      </trkpt>
      <trkpt lat="49.17251" lon="6.82539">
        <ele>0</ele>
        <time>0001-01-01T00:00:00Z</time>
      </trkpt>
      <trkpt lat="49.17247" lon="6.82549">
        <ele>0</ele>
        <time>0001-01-01T00:00:00Z</time>
      </trkpt>
      <trkpt lat="49.17244" lon="6.82553">
        <ele>0</ele>
        <time>0001-01-01T00:00:00Z</time>
      </trkpt>
      <trkpt lat="49.17241" lon="6.82555">
        <ele>0</ele>
        <time>0001-01-01T00:00:00Z</time>
      </trkpt>
      <trkpt lat="49.17235" lon="6.82555">
        <ele>0</ele>
        <time>0001-01-01T00:00:00Z</time>
      </trkpt>
      <trkpt lat="49.17233" lon="6.82554">
        <ele>0</ele>
        <time>0001-01-01T00:00:00Z</time>
      </trkpt>
      <trkpt lat="49.17231" lon="6.82552">
        <ele>0</ele>
        <time>0001-01-01T00:00:00Z</time>
      </trkpt>
      <trkpt lat="49.17229" lon="6.82548">
        <ele>0</ele>
        <time>0001-01-01T00:00:00Z</time>
      </trkpt>
      <trkpt lat="49.17228" lon="6.82543">
        <ele>0</ele>
        <time>0001-01-01T00:00:00Z</time>
      </trkpt>
      <trkpt lat="49.17224" lon="6.8245">
        <ele>0</ele>
        <time>0001-01-01T00:00:00Z</time>
      </trkpt>
      <trkpt lat="49.17223" lon="6.82444">
        <ele>0</ele>
        <time>0001-01-01T00:00:00Z</time>
      </trkpt>
      <trkpt lat="49.1722" lon="6.82434">
        <ele>0</ele>
        <time>0001-01-01T00:00:00Z</time>
      </trkpt>
      <trkpt lat="49.17217" lon="6.82428">
        <ele>0</ele>
        <time>0001-01-01T00:00:00Z</time>
      </trkpt>
      <trkpt lat="49.17211" lon="6.82419">
        <ele>0</ele>
        <time>0001-01-01T00:00:00Z</time>
      </trkpt>
      <trkpt lat="49.17202" lon="6.8241">
        <ele>0</ele>
        <time>0001-01-01T00:00:00Z</time>
      </trkpt>
      <trkpt lat="49.17185" lon="6.82399">
        <ele>0</ele>
        <time>0001-01-01T00:00:00Z</time>
      </trkpt>
      <trkpt lat="49.17181" lon="6.82398">
        <ele>0</ele>
        <time>0001-01-01T00:00:00Z</time>
      </trkpt>
      <trkpt lat="49.17177" lon="6.82396">
        <ele>0</ele>
        <time>0001-01-01T00:00:00Z</time>
      </trkpt>
      <trkpt lat="49.17159" lon="6.82395">
        <ele>0</ele>
        <time>0001-01-01T00:00:00Z</time>
      </trkpt>
      <trkpt lat="49.17122" lon="6.82396">
        <ele>0</ele>
        <time>0001-01-01T00:00:00Z</time>
      </trkpt>
      <trkpt lat="49.17116" lon="6.82397">
        <ele>0</ele>
        <time>0001-01-01T00:00:00Z</time>
      </trkpt>
      <trkpt lat="49.17112" lon="6.82397">
        <ele>0</ele>
        <time>0001-01-01T00:00:00Z</time>
      </trkpt>
      <trkpt lat="49.17108" lon="6.82398">
        <ele>0</ele>
        <time>0001-01-01T00:00:00Z</time>
      </trkpt>
      <trkpt lat="49.17105" lon="6.824">
        <ele>0</ele>
        <time>0001-01-01T00:00:00Z</time>
      </trkpt>
      <trkpt lat="49.17098" lon="6.82407">
        <ele>0</ele>
        <time>0001-01-01T00:00:00Z</time>
      </trkpt>
      <trkpt lat="49.17094" lon="6.82416">
        <ele>0</ele>
        <time>0001-01-01T00:00:00Z</time>
      </trkpt>
      <trkpt lat="49.1709" lon="6.82431">
        <ele>0</ele>
        <time>0001-01-01T00:00:00Z</time>
      </trkpt>
      <trkpt lat="49.17079" lon="6.82492">
        <ele>0</ele>
        <time>0001-01-01T00:00:00Z</time>
      </trkpt>
      <trkpt lat="49.17075" lon="6.82533">
        <ele>0</ele>
        <time>0001-01-01T00:00:00Z</time>
      </trkpt>
      <trkpt lat="49.17066" lon="6.82721">
        <ele>0</ele>
        <time>0001-01-01T00:00:00Z</time>
      </trkpt>
      <trkpt lat="49.17055" lon="6.82794">
        <ele>0</ele>
        <time>0001-01-01T00:00:00Z</time>
      </trkpt>
      <trkpt lat="49.17047" lon="6.82828">
        <ele>0</ele>
        <time>0001-01-01T00:00:00Z</time>
      </trkpt>
      <trkpt lat="49.17041" lon="6.82845">
        <ele>0</ele>
        <time>0001-01-01T00:00:00Z</time>
      </trkpt>
      <trkpt lat="49.17019" lon="6.82893">
        <ele>0</ele>
        <time>0001-01-01T00:00:00Z</time>
      </trkpt>
      <trkpt lat="49.1701" lon="6.82917">
        <ele>0</ele>
        <time>0001-01-01T00:00:00Z</time>
      </trkpt>
      <trkpt lat="49.17006" lon="6.82933">
        <ele>0</ele>
        <time>0001-01-01T00:00:00Z</time>
      </trkpt>
      <trkpt lat="49.17003" lon="6.82955">
        <ele>0</ele>
        <time>0001-01-01T00:00:00Z</time>
      </trkpt>
      <trkpt lat="49.17003" lon="6.82994">
        <ele>0</ele>
        <time>0001-01-01T00:00:00Z</time>
      </trkpt>
      <trkpt lat="49.17012" lon="6.83128">
        <ele>0</ele>
        <time>0001-01-01T00:00:00Z</time>
      </trkpt>
      <trkpt lat="49.1701" lon="6.83175">
        <ele>0</ele>
        <time>0001-01-01T00:00:00Z</time>
      </trkpt>
      <trkpt lat="49.17004" lon="6.83203">
        <ele>0</ele>
        <time>0001-01-01T00:00:00Z</time>
      </trkpt>
      <trkpt lat="49.1694" lon="6.83415">
        <ele>0</ele>
        <time>0001-01-01T00:00:00Z</time>
      </trkpt>
      <trkpt lat="49.16937" lon="6.83422">
        <ele>0</ele>
        <time>0001-01-01T00:00:00Z</time>
      </trkpt>
      <trkpt lat="49.16887" lon="6.83585">
        <ele>0</ele>
        <time>0001-01-01T00:00:00Z</time>
      </trkpt>
      <trkpt lat="49.16817" lon="6.83781">
        <ele>0</ele>
        <time>0001-01-01T00:00:00Z</time>
      </trkpt>
      <trkpt lat="49.16813" lon="6.83799">
        <ele>0</ele>
        <time>0001-01-01T00:00:00Z</time>
      </trkpt>
      <trkpt lat="49.16812" lon="6.83811">
        <ele>0</ele>
        <time>0001-01-01T00:00:00Z</time>
      </trkpt>
      <trkpt lat="49.16793" lon="6.83812">
        <ele>0</ele>
        <time>0001-01-01T00:00:00Z</time>
      </trkpt>
      <trkpt lat="49.16766" lon="6.83817">
        <ele>0</ele>
        <time>0001-01-01T00:00:00Z</time>
      </trkpt>
      <trkpt lat="49.16751" lon="6.83822">
        <ele>0</ele>
        <time>0001-01-01T00:00:00Z</time>
      </trkpt>
      <trkpt lat="49.16746" lon="6.83823">
        <ele>0</ele>
        <time>0001-01-01T00:00:00Z</time>
      </trkpt>
      <trkpt lat="49.16726" lon="6.83831">
        <ele>0</ele>
        <time>0001-01-01T00:00:00Z</time>
      </trkpt>
      <trkpt lat="49.16708" lon="6.8384">
        <ele>0</ele>
        <time>0001-01-01T00:00:00Z</time>
      </trkpt>
      <trkpt lat="49.16688" lon="6.83852">
        <ele>0</ele>
        <time>0001-01-01T00:00:00Z</time>
      </trkpt>
      <trkpt lat="49.16491" lon="6.83992">
        <ele>0</ele>
        <time>0001-01-01T00:00:00Z</time>
      </trkpt>
      <trkpt lat="49.16426" lon="6.84033">
        <ele>0</ele>
        <time>0001-01-01T00:00:00Z</time>
      </trkpt>
      <trkpt lat="49.16336" lon="6.8408">
        <ele>0</ele>
        <time>0001-01-01T00:00:00Z</time>
      </trkpt>
      <trkpt lat="49.15979" lon="6.84236">
        <ele>0</ele>
        <time>0001-01-01T00:00:00Z</time>
      </trkpt>
      <trkpt lat="49.15955" lon="6.84251">
        <ele>0</ele>
        <time>0001-01-01T00:00:00Z</time>
      </trkpt>
      <trkpt lat="49.15865" lon="6.84321">
        <ele>0</ele>
        <time>0001-01-01T00:00:00Z</time>
      </trkpt>
      <trkpt lat="49.15669" lon="6.84432">
        <ele>0</ele>
        <time>0001-01-01T00:00:00Z</time>
      </trkpt>
      <trkpt lat="49.15666" lon="6.84433">
        <ele>0</ele>
        <time>0001-01-01T00:00:00Z</time>
      </trkpt>
      <trkpt lat="49.1563" lon="6.84453">
        <ele>0</ele>
        <time>0001-01-01T00:00:00Z</time>
      </trkpt>
      <trkpt lat="49.15621" lon="6.84459">
        <ele>0</ele>
        <time>0001-01-01T00:00:00Z</time>
      </trkpt>
      <trkpt lat="49.15612" lon="6.84463">
        <ele>0</ele>
        <time>0001-01-01T00:00:00Z</time>
      </trkpt>
      <trkpt lat="49.15603" lon="6.84473">
        <ele>0</ele>
        <time>0001-01-01T00:00:00Z</time>
      </trkpt>
      <trkpt lat="49.15603" lon="6.84471">
        <ele>0</ele>
        <time>0001-01-01T00:00:00Z</time>
      </trkpt>
      <trkpt lat="49.15602" lon="6.84471">
        <ele>0</ele>
        <time>0001-01-01T00:00:00Z</time>
      </trkpt>
      <trkpt lat="49.15602" lon="6.8447">
        <ele>0</ele>
        <time>0001-01-01T00:00:00Z</time>
      </trkpt>
      <trkpt lat="49.15601" lon="6.8447">
        <ele>0</ele>
        <time>0001-01-01T00:00:00Z</time>
      </trkpt>
      <trkpt lat="49.156" lon="6.84469">
        <ele>0</ele>
        <time>0001-01-01T00:00:00Z</time>
      </trkpt>
      <trkpt lat="49.15598" lon="6.84469">
        <ele>0</ele>
        <time>0001-01-01T00:00:00Z</time>
      </trkpt>
      <trkpt lat="49.15597" lon="6.8447">
        <ele>0</ele>
        <time>0001-01-01T00:00:00Z</time>
      </trkpt>
      <trkpt lat="49.15596" lon="6.8447">
        <ele>0</ele>
        <time>0001-01-01T00:00:00Z</time>
      </trkpt>
      <trkpt lat="49.15594" lon="6.84472">
        <ele>0</ele>
        <time>0001-01-01T00:00:00Z</time>
      </trkpt>
      <trkpt lat="49.15594" lon="6.84473">
        <ele>0</ele>
        <time>0001-01-01T00:00:00Z</time>
      </trkpt>
      <trkpt lat="49.15593" lon="6.84473">
        <ele>0</ele>
        <time>0001-01-01T00:00:00Z</time>
      </trkpt>
      <trkpt lat="49.15593" lon="6.84474">
        <ele>0</ele>
        <time>0001-01-01T00:00:00Z</time>
      </trkpt>
      <trkpt lat="49.15592" lon="6.84475">
        <ele>0</ele>
        <time>0001-01-01T00:00:00Z</time>
      </trkpt>
      <trkpt lat="49.15592" lon="6.84477">
        <ele>0</ele>
        <time>0001-01-01T00:00:00Z</time>
      </trkpt>
      <trkpt lat="49.15591" lon="6.84477">
        <ele>0</ele>
        <time>0001-01-01T00:00:00Z</time>
      </trkpt>
      <trkpt lat="49.15591" lon="6.84486">
        <ele>0</ele>
        <time>0001-01-01T00:00:00Z</time>
      </trkpt>
      <trkpt lat="49.15592" lon="6.84487">
        <ele>0</ele>
        <time>0001-01-01T00:00:00Z</time>
      </trkpt>
      <trkpt lat="49.15592" lon="6.84489">
        <ele>0</ele>
        <time>0001-01-01T00:00:00Z</time>
      </trkpt>
      <trkpt lat="49.156" lon="6.84509">
        <ele>0</ele>
        <time>0001-01-01T00:00:00Z</time>
      </trkpt>
      <trkpt lat="49.15635" lon="6.84579">
        <ele>0</ele>
        <time>0001-01-01T00:00:00Z</time>
      </trkpt>
      <trkpt lat="49.15643" lon="6.84591">
        <ele>0</ele>
        <time>0001-01-01T00:00:00Z</time>
      </trkpt>
      <trkpt lat="49.15718" lon="6.84765">
        <ele>0</ele>
        <time>0001-01-01T00:00:00Z</time>
      </trkpt>
      <trkpt lat="49.15739" lon="6.84808">
        <ele>0</ele>
        <time>0001-01-01T00:00:00Z</time>
      </trkpt>
      <trkpt lat="49.15791" lon="6.84901">
        <ele>0</ele>
        <time>0001-01-01T00:00:00Z</time>
      </trkpt>
      <trkpt lat="49.15798" lon="6.84919">
        <ele>0</ele>
        <time>0001-01-01T00:00:00Z</time>
      </trkpt>
      <trkpt lat="49.15877" lon="6.85055">
        <ele>0</ele>
        <time>0001-01-01T00:00:00Z</time>
      </trkpt>
      <trkpt lat="49.15877" lon="6.85059">
        <ele>0</ele>
        <time>0001-01-01T00:00:00Z</time>
      </trkpt>
      <trkpt lat="49.15878" lon="6.8506">
        <ele>0</ele>
        <time>0001-01-01T00:00:00Z</time>
      </trkpt>
      <trkpt lat="49.15878" lon="6.85063">
        <ele>0</ele>
        <time>0001-01-01T00:00:00Z</time>
      </trkpt>
      <trkpt lat="49.15879" lon="6.85064">
        <ele>0</ele>
        <time>0001-01-01T00:00:00Z</time>
      </trkpt>
      <trkpt lat="49.15879" lon="6.85066">
        <ele>0</ele>
        <time>0001-01-01T00:00:00Z</time>
      </trkpt>
      <trkpt lat="49.1588" lon="6.85067">
        <ele>0</ele>
        <time>0001-01-01T00:00:00Z</time>
      </trkpt>
      <trkpt lat="49.1588" lon="6.85068">
        <ele>0</ele>
        <time>0001-01-01T00:00:00Z</time>
      </trkpt>
      <trkpt lat="49.15881" lon="6.85068">
        <ele>0</ele>
        <time>0001-01-01T00:00:00Z</time>
      </trkpt>
      <trkpt lat="49.15881" lon="6.85069">
        <ele>0</ele>
        <time>0001-01-01T00:00:00Z</time>
      </trkpt>
      <trkpt lat="49.15882" lon="6.85069">
        <ele>0</ele>
        <time>0001-01-01T00:00:00Z</time>
      </trkpt>
      <trkpt lat="49.15882" lon="6.8507">
        <ele>0</ele>
        <time>0001-01-01T00:00:00Z</time>
      </trkpt>
      <trkpt lat="49.15883" lon="6.8507">
        <ele>0</ele>
        <time>0001-01-01T00:00:00Z</time>
      </trkpt>
      <trkpt lat="49.15883" lon="6.85071">
        <ele>0</ele>
        <time>0001-01-01T00:00:00Z</time>
      </trkpt>
      <trkpt lat="49.15884" lon="6.85071">
        <ele>0</ele>
        <time>0001-01-01T00:00:00Z</time>
      </trkpt>
      <trkpt lat="49.15885" lon="6.85072">
        <ele>0</ele>
        <time>0001-01-01T00:00:00Z</time>
      </trkpt>
      <trkpt lat="49.15887" lon="6.85072">
        <ele>0</ele>
        <time>0001-01-01T00:00:00Z</time>
      </trkpt>
      <trkpt lat="49.15887" lon="6.85073">
        <ele>0</ele>
        <time>0001-01-01T00:00:00Z</time>
      </trkpt>
      <trkpt lat="49.15889" lon="6.85073">
        <ele>0</ele>
        <time>0001-01-01T00:00:00Z</time>
      </trkpt>
      <trkpt lat="49.1589" lon="6.85072">
        <ele>0</ele>
        <time>0001-01-01T00:00:00Z</time>
      </trkpt>
      <trkpt lat="49.15891" lon="6.85072">
        <ele>0</ele>
        <time>0001-01-01T00:00:00Z</time>
      </trkpt>
      <trkpt lat="49.1592" lon="6.85124">
        <ele>0</ele>
        <time>0001-01-01T00:00:00Z</time>
      </trkpt>
      <trkpt lat="49.15928" lon="6.85132">
        <ele>0</ele>
        <time>0001-01-01T00:00:00Z</time>
      </trkpt>
      <trkpt lat="49.15995" lon="6.85236">
        <ele>0</ele>
        <time>0001-01-01T00:00:00Z</time>
      </trkpt>
      <trkpt lat="49.15996" lon="6.85242">
        <ele>0</ele>
        <time>0001-01-01T00:00:00Z</time>
      </trkpt>
      <trkpt lat="49.16007" lon="6.85261">
        <ele>0</ele>
        <time>0001-01-01T00:00:00Z</time>
      </trkpt>
      <trkpt lat="49.1602" lon="6.8528">
        <ele>0</ele>
        <time>0001-01-01T00:00:00Z</time>
      </trkpt>
      <trkpt lat="49.16109" lon="6.85426">
        <ele>0</ele>
        <time>0001-01-01T00:00:00Z</time>
      </trkpt>
      <trkpt lat="49.16111" lon="6.85428">
        <ele>0</ele>
        <time>0001-01-01T00:00:00Z</time>
      </trkpt>
      <trkpt lat="49.16282" lon="6.85702">
        <ele>0</ele>
        <time>0001-01-01T00:00:00Z</time>
      </trkpt>
      <trkpt lat="49.16299" lon="6.85737">
        <ele>0</ele>
        <time>0001-01-01T00:00:00Z</time>
      </trkpt>
      <trkpt lat="49.16361" lon="6.85882">
        <ele>0</ele>
        <time>0001-01-01T00:00:00Z</time>
      </trkpt>
      <trkpt lat="49.16349" lon="6.85887">
        <ele>0</ele>
        <time>0001-01-01T00:00:00Z</time>
      </trkpt>
      <trkpt lat="49.16333" lon="6.85898">
        <ele>0</ele>
        <time>0001-01-01T00:00:00Z</time>
      </trkpt>
      <trkpt lat="49.16289" lon="6.85908">
        <ele>0</ele>
        <time>0001-01-01T00:00:00Z</time>
      </trkpt>
      <trkpt lat="49.16272" lon="6.8591">
        <ele>0</ele>
        <time>0001-01-01T00:00:00Z</time>
      </trkpt>
      <trkpt lat="49.16259" lon="6.85913">
        <ele>0</ele>
        <time>0001-01-01T00:00:00Z</time>
      </trkpt>
      <trkpt lat="49.16241" lon="6.85911">
        <ele>0</ele>
        <time>0001-01-01T00:00:00Z</time>
      </trkpt>
      <trkpt lat="49.16231" lon="6.85908">
        <ele>0</ele>
        <time>0001-01-01T00:00:00Z</time>
      </trkpt>
      <trkpt lat="49.16222" lon="6.85903">
        <ele>0</ele>
        <time>0001-01-01T00:00:00Z</time>
      </trkpt>
      <trkpt lat="49.1621" lon="6.8589">
        <ele>0</ele>
        <time>0001-01-01T00:00:00Z</time>
      </trkpt>
      <trkpt lat="49.16159" lon="6.85812">
        <ele>0</ele>
        <time>0001-01-01T00:00:00Z</time>
      </trkpt>
      <trkpt lat="49.16134" lon="6.85784">
        <ele>0</ele>
        <time>0001-01-01T00:00:00Z</time>
      </trkpt>
      <trkpt lat="49.16113" lon="6.85766">
        <ele>0</ele>
        <time>0001-01-01T00:00:00Z</time>
      </trkpt>
      <trkpt lat="49.16089" lon="6.85751">
        <ele>0</ele>
        <time>0001-01-01T00:00:00Z</time>
      </trkpt>
      <trkpt lat="49.16057" lon="6.85735">
        <ele>0</ele>
        <time>0001-01-01T00:00:00Z</time>
      </trkpt>
      <trkpt lat="49.16053" lon="6.85734">
        <ele>0</ele>
        <time>0001-01-01T00:00:00Z</time>
      </trkpt>
      <trkpt lat="49.16037" lon="6.85733">
        <ele>0</ele>
        <time>0001-01-01T00:00:00Z</time>
      </trkpt>
      <trkpt lat="49.16031" lon="6.85734">
        <ele>0</ele>
        <time>0001-01-01T00:00:00Z</time>
      </trkpt>
      <trkpt lat="49.16025" lon="6.85736">
        <ele>0</ele>
        <time>0001-01-01T00:00:00Z</time>
      </trkpt>
      <trkpt lat="49.16024" lon="6.85737">
        <ele>0</ele>
        <time>0001-01-01T00:00:00Z</time>
      </trkpt>
      <trkpt lat="49.16015" lon="6.85741">
        <ele>0</ele>
        <time>0001-01-01T00:00:00Z</time>
      </trkpt>
      <trkpt lat="49.15979" lon="6.85762">
        <ele>0</ele>
        <time>0001-01-01T00:00:00Z</time>
      </trkpt>
      <trkpt lat="49.15963" lon="6.85764">
        <ele>0</ele>
        <time>0001-01-01T00:00:00Z</time>
      </trkpt>
      <trkpt lat="49.15957" lon="6.85764">
        <ele>0</ele>
        <time>0001-01-01T00:00:00Z</time>
      </trkpt>
      <trkpt lat="49.15957" lon="6.85763">
        <ele>0</ele>
        <time>0001-01-01T00:00:00Z</time>
      </trkpt>
      <trkpt lat="49.15953" lon="6.85763">
        <ele>0</ele>
        <time>0001-01-01T00:00:00Z</time>
      </trkpt>
      <trkpt lat="49.15943" lon="6.8576">
        <ele>0</ele>
        <time>0001-01-01T00:00:00Z</time>
      </trkpt>
      <trkpt lat="49.1594" lon="6.85757">
        <ele>0</ele>
        <time>0001-01-01T00:00:00Z</time>
      </trkpt>
      <trkpt lat="49.15927" lon="6.85748">
        <ele>0</ele>
        <time>0001-01-01T00:00:00Z</time>
      </trkpt>
      <trkpt lat="49.1587" lon="6.85693">
        <ele>0</ele>
        <time>0001-01-01T00:00:00Z</time>
      </trkpt>
      <trkpt lat="49.15861" lon="6.85687">
        <ele>0</ele>
        <time>0001-01-01T00:00:00Z</time>
      </trkpt>
      <trkpt lat="49.15848" lon="6.85681">
        <ele>0</ele>
        <time>0001-01-01T00:00:00Z</time>
      </trkpt>
      <trkpt lat="49.15587" lon="6.85627">
        <ele>0</ele>
        <time>0001-01-01T00:00:00Z</time>
      </trkpt>
      <trkpt lat="49.15585" lon="6.85627">
        <ele>0</ele>
        <time>0001-01-01T00:00:00Z</time>
      </trkpt>
      <trkpt lat="49.15277" lon="6.85555">
        <ele>0</ele>
        <time>0001-01-01T00:00:00Z</time>
      </trkpt>
      <trkpt lat="49.15213" lon="6.85533">
        <ele>0</ele>
        <time>0001-01-01T00:00:00Z</time>
      </trkpt>
      <trkpt lat="49.15122" lon="6.85528">
        <ele>0</ele>
        <time>0001-01-01T00:00:00Z</time>
      </trkpt>
      <trkpt lat="49.14989" lon="6.85544">
        <ele>0</ele>
        <time>0001-01-01T00:00:00Z</time>
      </trkpt>
      <trkpt lat="49.14941" lon="6.85554">
        <ele>0</ele>
        <time>0001-01-01T00:00:00Z</time>
      </trkpt>
      <trkpt lat="49.14879" lon="6.85572">
        <ele>0</ele>
        <time>0001-01-01T00:00:00Z</time>
      </trkpt>
      <trkpt lat="49.14825" lon="6.85591">
        <ele>0</ele>
        <time>0001-01-01T00:00:00Z</time>
      </trkpt>
      <trkpt lat="49.1481" lon="6.85598">
        <ele>0</ele>
        <time>0001-01-01T00:00:00Z</time>
      </trkpt>
      <trkpt lat="49.14797" lon="6.85606">
        <ele>0</ele>
        <time>0001-01-01T00:00:00Z</time>
      </trkpt>
      <trkpt lat="49.14782" lon="6.85619">
        <ele>0</ele>
        <time>0001-01-01T00:00:00Z</time>
      </trkpt>
      <trkpt lat="49.14705" lon="6.85699">
        <ele>0</ele>
        <time>0001-01-01T00:00:00Z</time>
      </trkpt>
      <trkpt lat="49.14694" lon="6.85708">
        <ele>0</ele>
        <time>0001-01-01T00:00:00Z</time>
      </trkpt>
      <trkpt lat="49.14687" lon="6.85712">
        <ele>0</ele>
        <time>0001-01-01T00:00:00Z</time>
      </trkpt>
      <trkpt lat="49.14672" lon="6.85718">
        <ele>0</ele>
        <time>0001-01-01T00:00:00Z</time>
      </trkpt>
      <trkpt lat="49.14666" lon="6.85719">
        <ele>0</ele>
        <time>0001-01-01T00:00:00Z</time>
      </trkpt>
      <trkpt lat="49.1466" lon="6.85719">
        <ele>0</ele>
        <time>0001-01-01T00:00:00Z</time>
      </trkpt>
      <trkpt lat="49.14658" lon="6.85718">
        <ele>0</ele>
        <time>0001-01-01T00:00:00Z</time>
      </trkpt>
      <trkpt lat="49.14647" lon="6.85717">
        <ele>0</ele>
        <time>0001-01-01T00:00:00Z</time>
      </trkpt>
      <trkpt lat="49.14604" lon="6.85705">
        <ele>0</ele>
        <time>0001-01-01T00:00:00Z</time>
      </trkpt>
      <trkpt lat="49.14554" lon="6.85695">
        <ele>0</ele>
        <time>0001-01-01T00:00:00Z</time>
      </trkpt>
      <trkpt lat="49.14525" lon="6.85684">
        <ele>0</ele>
        <time>0001-01-01T00:00:00Z</time>
      </trkpt>
      <trkpt lat="49.1448" lon="6.85658">
        <ele>0</ele>
        <time>0001-01-01T00:00:00Z</time>
      </trkpt>
      <trkpt lat="49.14472" lon="6.85652">
        <ele>0</ele>
        <time>0001-01-01T00:00:00Z</time>
      </trkpt>
      <trkpt lat="49.14462" lon="6.85648">
        <ele>0</ele>
        <time>0001-01-01T00:00:00Z</time>
      </trkpt>
      <trkpt lat="49.14457" lon="6.85647">
        <ele>0</ele>
        <time>0001-01-01T00:00:00Z</time>
      </trkpt>
      <trkpt lat="49.1445" lon="6.85647">
        <ele>0</ele>
        <time>0001-01-01T00:00:00Z</time>
      </trkpt>
      <trkpt lat="49.14445" lon="6.85646">
        <ele>0</ele>
        <time>0001-01-01T00:00:00Z</time>
      </trkpt>
      <trkpt lat="49.14409" lon="6.85652">
        <ele>0</ele>
        <time>0001-01-01T00:00:00Z</time>
      </trkpt>
      <trkpt lat="49.14385" lon="6.8566">
        <ele>0</ele>
        <time>0001-01-01T00:00:00Z</time>
      </trkpt>
      <trkpt lat="49.14347" lon="6.85681">
        <ele>0</ele>
        <time>0001-01-01T00:00:00Z</time>
      </trkpt>
      <trkpt lat="49.1434" lon="6.85684">
        <ele>0</ele>
        <time>0001-01-01T00:00:00Z</time>
      </trkpt>
      <trkpt lat="49.1432" lon="6.85687">
        <ele>0</ele>
        <time>0001-01-01T00:00:00Z</time>
      </trkpt>
      <trkpt lat="49.14319" lon="6.85679">
        <ele>0</ele>
        <time>0001-01-01T00:00:00Z</time>
      </trkpt>
      <trkpt lat="49.14317" lon="6.85675">
        <ele>0</ele>
        <time>0001-01-01T00:00:00Z</time>
      </trkpt>
      <trkpt lat="49.14314" lon="6.85672">
        <ele>0</ele>
        <time>0001-01-01T00:00:00Z</time>
      </trkpt>
      <trkpt lat="49.14312" lon="6.85671">
        <ele>0</ele>
        <time>0001-01-01T00:00:00Z</time>
      </trkpt>
      <trkpt lat="49.14308" lon="6.85671">
        <ele>0</ele>
        <time>0001-01-01T00:00:00Z</time>
      </trkpt>
      <trkpt lat="49.14304" lon="6.85673">
        <ele>0</ele>
        <time>0001-01-01T00:00:00Z</time>
      </trkpt>
      <trkpt lat="49.14302" lon="6.85675">
        <ele>0</ele>
        <time>0001-01-01T00:00:00Z</time>
      </trkpt>
      <trkpt lat="49.14301" lon="6.85679">
        <ele>0</ele>
        <time>0001-01-01T00:00:00Z</time>
      </trkpt>
      <trkpt lat="49.143" lon="6.85681">
        <ele>0</ele>
        <time>0001-01-01T00:00:00Z</time>
      </trkpt>
      <trkpt lat="49.143" lon="6.85695">
        <ele>0</ele>
        <time>0001-01-01T00:00:00Z</time>
      </trkpt>
      <trkpt lat="49.14288" lon="6.85707">
        <ele>0</ele>
        <time>0001-01-01T00:00:00Z</time>
      </trkpt>
      <trkpt lat="49.14274" lon="6.85717">
        <ele>0</ele>
        <time>0001-01-01T00:00:00Z</time>
      </trkpt>
      <trkpt lat="49.142" lon="6.85754">
        <ele>0</ele>
        <time>0001-01-01T00:00:00Z</time>
      </trkpt>
      <trkpt lat="49.13954" lon="6.85907">
        <ele>0</ele>
        <time>0001-01-01T00:00:00Z</time>
      </trkpt>
      <trkpt lat="49.13948" lon="6.85914">
        <ele>0</ele>
        <time>0001-01-01T00:00:00Z</time>
      </trkpt>
      <trkpt lat="49.13943" lon="6.85918">
        <ele>0</ele>
        <time>0001-01-01T00:00:00Z</time>
      </trkpt>
      <trkpt lat="49.13929" lon="6.85938">
        <ele>0</ele>
        <time>0001-01-01T00:00:00Z</time>
      </trkpt>
      <trkpt lat="49.13915" lon="6.85971">
        <ele>0</ele>
        <time>0001-01-01T00:00:00Z</time>
      </trkpt>
      <trkpt lat="49.13907" lon="6.86002">
        <ele>0</ele>
        <time>0001-01-01T00:00:00Z</time>
      </trkpt>
      <trkpt lat="49.13901" lon="6.86033">
        <ele>0</ele>
        <time>0001-01-01T00:00:00Z</time>
      </trkpt>
      <trkpt lat="49.13869" lon="6.86385">
        <ele>0</ele>
        <time>0001-01-01T00:00:00Z</time>
      </trkpt>
      <trkpt lat="49.13827" lon="6.8668">
        <ele>0</ele>
        <time>0001-01-01T00:00:00Z</time>
      </trkpt>
      <trkpt lat="49.13824" lon="6.86688">
        <ele>0</ele>
        <time>0001-01-01T00:00:00Z</time>
      </trkpt>
      <trkpt lat="49.13822" lon="6.86698">
        <ele>0</ele>
        <time>0001-01-01T00:00:00Z</time>
      </trkpt>
      <trkpt lat="49.13804" lon="6.86745">
        <ele>0</ele>
        <time>0001-01-01T00:00:00Z</time>
      </trkpt>
      <trkpt lat="49.1376" lon="6.86838">
        <ele>0</ele>
        <time>0001-01-01T00:00:00Z</time>
      </trkpt>
      <trkpt lat="49.13693" lon="6.86955">
        <ele>0</ele>
        <time>0001-01-01T00:00:00Z</time>
      </trkpt>
      <trkpt lat="49.13683" lon="6.86976">
        <ele>0</ele>
        <time>0001-01-01T00:00:00Z</time>
      </trkpt>
      <trkpt lat="49.13571" lon="6.87259">
        <ele>0</ele>
        <time>0001-01-01T00:00:00Z</time>
      </trkpt>
      <trkpt lat="49.13518" lon="6.87371">
        <ele>0</ele>
        <time>0001-01-01T00:00:00Z</time>
      </trkpt>
      <trkpt lat="49.13501" lon="6.87391">
        <ele>0</ele>
        <time>0001-01-01T00:00:00Z</time>
      </trkpt>
      <trkpt lat="49.13424" lon="6.87498">
        <ele>0</ele>
        <time>0001-01-01T00:00:00Z</time>
      </trkpt>
      <trkpt lat="49.13404" lon="6.87532">
        <ele>0</ele>
        <time>0001-01-01T00:00:00Z</time>
      </trkpt>
      <trkpt lat="49.13314" lon="6.87735">
        <ele>0</ele>
        <time>0001-01-01T00:00:00Z</time>
      </trkpt>
      <trkpt lat="49.13288" lon="6.87806">
        <ele>0</ele>
        <time>0001-01-01T00:00:00Z</time>
      </trkpt>
      <trkpt lat="49.13149" lon="6.88132">
        <ele>0</ele>
        <time>0001-01-01T00:00:00Z</time>
      </trkpt>
      <trkpt lat="49.13135" lon="6.88177">
        <ele>0</ele>
        <time>0001-01-01T00:00:00Z</time>
      </trkpt>
      <trkpt lat="49.13128" lon="6.88206">
        <ele>0</ele>
        <time>0001-01-01T00:00:00Z</time>
      </trkpt>
      <trkpt lat="49.1312" lon="6.8825">
        <ele>0</ele>
        <time>0001-01-01T00:00:00Z</time>
      </trkpt>
      <trkpt lat="49.13109" lon="6.88454">
        <ele>0</ele>
        <time>0001-01-01T00:00:00Z</time>
      </trkpt>
      <trkpt lat="49.13102" lon="6.88497">
        <ele>0</ele>
        <time>0001-01-01T00:00:00Z</time>
      </trkpt>
      <trkpt lat="49.13096" lon="6.88523">
        <ele>0</ele>
        <time>0001-01-01T00:00:00Z</time>
      </trkpt>
      <trkpt lat="49.13085" lon="6.88548">
        <ele>0</ele>
        <time>0001-01-01T00:00:00Z</time>
      </trkpt>
      <trkpt lat="49.12988" lon="6.88737">
        <ele>0</ele>
        <time>0001-01-01T00:00:00Z</time>
      </trkpt>
      <trkpt lat="49.12962" lon="6.88795">
        <ele>0</ele>
        <time>0001-01-01T00:00:00Z</time>
      </trkpt>
      <trkpt lat="49.12944" lon="6.88853">
        <ele>0</ele>
        <time>0001-01-01T00:00:00Z</time>
      </trkpt>
      <trkpt lat="49.12916" lon="6.88961">
        <ele>0</ele>
        <time>0001-01-01T00:00:00Z</time>
      </trkpt>
      <trkpt lat="49.12906" lon="6.88981">
        <ele>0</ele>
        <time>0001-01-01T00:00:00Z</time>
      </trkpt>
      <trkpt lat="49.12893" lon="6.88997">
        <ele>0</ele>
        <time>0001-01-01T00:00:00Z</time>
      </trkpt>
      <trkpt lat="49.12886" lon="6.89003">
        <ele>0</ele>
        <time>0001-01-01T00:00:00Z</time>
      </trkpt>
      <trkpt lat="49.12859" lon="6.89017">
        <ele>0</ele>
        <time>0001-01-01T00:00:00Z</time>
      </trkpt>
      <trkpt lat="49.12853" lon="6.89021">
        <ele>0</ele>
        <time>0001-01-01T00:00:00Z</time>
      </trkpt>
      <trkpt lat="49.12838" lon="6.89036">
        <ele>0</ele>
        <time>0001-01-01T00:00:00Z</time>
      </trkpt>
      <trkpt lat="49.12825" lon="6.89055">
        <ele>0</ele>
        <time>0001-01-01T00:00:00Z</time>
      </trkpt>
      <trkpt lat="49.12818" lon="6.89072">
        <ele>0</ele>
        <time>0001-01-01T00:00:00Z</time>
      </trkpt>
      <trkpt lat="49.12812" lon="6.89099">
        <ele>0</ele>
        <time>0001-01-01T00:00:00Z</time>
      </trkpt>
      <trkpt lat="49.12802" lon="6.89209">
        <ele>0</ele>
        <time>0001-01-01T00:00:00Z</time>
      </trkpt>
      <trkpt lat="49.128" lon="6.89286">
        <ele>0</ele>
        <time>0001-01-01T00:00:00Z</time>
      </trkpt>
      <trkpt lat="49.12801" lon="6.89339">
        <ele>0</ele>
        <time>0001-01-01T00:00:00Z</time>
      </trkpt>
      <trkpt lat="49.12784" lon="6.89343">
        <ele>0</ele>
        <time>0001-01-01T00:00:00Z</time>
      </trkpt>
      <trkpt lat="49.12634" lon="6.8939">
        <ele>0</ele>
        <time>0001-01-01T00:00:00Z</time>
      </trkpt>
      <trkpt lat="49.1262" lon="6.89393">
        <ele>0</ele>
        <time>0001-01-01T00:00:00Z</time>
      </trkpt>
      <trkpt lat="49.12141" lon="6.89381">
        <ele>0</ele>
        <time>0001-01-01T00:00:00Z</time>
      </trkpt>
      <trkpt lat="49.1199" lon="6.89381">
        <ele>0</ele>
        <time>0001-01-01T00:00:00Z</time>
      </trkpt>
      <trkpt lat="49.11972" lon="6.89387">
        <ele>0</ele>
        <time>0001-01-01T00:00:00Z</time>
      </trkpt>
      <trkpt lat="49.11958" lon="6.89395">
        <ele>0</ele>
        <time>0001-01-01T00:00:00Z</time>
      </trkpt>
      <trkpt lat="49.11944" lon="6.89406">
        <ele>0</ele>
        <time>0001-01-01T00:00:00Z</time>
      </trkpt>
      <trkpt lat="49.11914" lon="6.89438">
        <ele>0</ele>
        <time>0001-01-01T00:00:00Z</time>
      </trkpt>
      <trkpt lat="49.11909" lon="6.89436">
        <ele>0</ele>
        <time>0001-01-01T00:00:00Z</time>
      </trkpt>
      <trkpt lat="49.11903" lon="6.89436">
        <ele>0</ele>
        <time>0001-01-01T00:00:00Z</time>
      </trkpt>
      <trkpt lat="49.11899" lon="6.89435">
        <ele>0</ele>
        <time>0001-01-01T00:00:00Z</time>
      </trkpt>
      <trkpt lat="49.11895" lon="6.89435">
        <ele>0</ele>
        <time>0001-01-01T00:00:00Z</time>
      </trkpt>
      <trkpt lat="49.11891" lon="6.89433">
        <ele>0</ele>
        <time>0001-01-01T00:00:00Z</time>
      </trkpt>
      <trkpt lat="49.11887" lon="6.8943">
        <ele>0</ele>
        <time>0001-01-01T00:00:00Z</time>
      </trkpt>
      <trkpt lat="49.11874" lon="6.89423">
        <ele>0</ele>
        <time>0001-01-01T00:00:00Z</time>
      </trkpt>
      <trkpt lat="49.11873" lon="6.89418">
        <ele>0</ele>
        <time>0001-01-01T00:00:00Z</time>
      </trkpt>
      <trkpt lat="49.11871" lon="6.89415">
        <ele>0</ele>
        <time>0001-01-01T00:00:00Z</time>
      </trkpt>
      <trkpt lat="49.11869" lon="6.8941">
        <ele>0</ele>
        <time>0001-01-01T00:00:00Z</time>
      </trkpt>
      <trkpt lat="49.11866" lon="6.89405">
        <ele>0</ele>
        <time>0001-01-01T00:00:00Z</time>
      </trkpt>
      <trkpt lat="49.11864" lon="6.894">
        <ele>0</ele>
        <time>0001-01-01T00:00:00Z</time>
      </trkpt>
      <trkpt lat="49.11861" lon="6.89397">
        <ele>0</ele>
        <time>0001-01-01T00:00:00Z</time>
      </trkpt>
      <trkpt lat="49.11859" lon="6.89396">
        <ele>0</ele>
        <time>0001-01-01T00:00:00Z</time>
      </trkpt>
      <trkpt lat="49.11858" lon="6.89395">
        <ele>0</ele>
        <time>0001-01-01T00:00:00Z</time>
      </trkpt>
      <trkpt lat="49.11854" lon="6.89393">
        <ele>0</ele>
        <time>0001-01-01T00:00:00Z</time>
      </trkpt>
      <trkpt lat="49.11853" lon="6.89393">
        <ele>0</ele>
        <time>0001-01-01T00:00:00Z</time>
      </trkpt>
      <trkpt lat="49.11851" lon="6.89392">
        <ele>0</ele>
        <time>0001-01-01T00:00:00Z</time>
      </trkpt>
      <trkpt lat="49.11845" lon="6.89392">
        <ele>0</ele>
        <time>0001-01-01T00:00:00Z</time>
      </trkpt>
      <trkpt lat="49.11844" lon="6.89393">
        <ele>0</ele>
        <time>0001-01-01T00:00:00Z</time>
      </trkpt>
      <trkpt lat="49.11836" lon="6.89396">
        <ele>0</ele>
        <time>0001-01-01T00:00:00Z</time>
      </trkpt>
      <trkpt lat="49.11824" lon="6.89408">
        <ele>0</ele>
        <time>0001-01-01T00:00:00Z</time>
      </trkpt>
      <trkpt lat="49.11818" lon="6.89427">
        <ele>0</ele>
        <time>0001-01-01T00:00:00Z</time>
      </trkpt>
      <trkpt lat="49.11818" lon="6.89442">
        <ele>0</ele>
        <time>0001-01-01T00:00:00Z</time>
      </trkpt>
      <trkpt lat="49.1182" lon="6.89455">
        <ele>0</ele>
        <time>0001-01-01T00:00:00Z</time>
      </trkpt>
      <trkpt lat="49.11822" lon="6.89462">
        <ele>0</ele>
        <time>0001-01-01T00:00:00Z</time>
      </trkpt>
      <trkpt lat="49.11828" lon="6.89472">
        <ele>0</ele>
        <time>0001-01-01T00:00:00Z</time>
      </trkpt>
      <trkpt lat="49.11834" lon="6.89478">
        <ele>0</ele>
        <time>0001-01-01T00:00:00Z</time>
      </trkpt>
      <trkpt lat="49.11843" lon="6.89482">
        <ele>0</ele>
        <time>0001-01-01T00:00:00Z</time>
      </trkpt>
      <trkpt lat="49.1185" lon="6.89494">
        <ele>0</ele>
        <time>0001-01-01T00:00:00Z</time>
      </trkpt>
      <trkpt lat="49.11855" lon="6.895">
        <ele>0</ele>
        <time>0001-01-01T00:00:00Z</time>
      </trkpt>
      <trkpt lat="49.11876" lon="6.89546">
        <ele>0</ele>
        <time>0001-01-01T00:00:00Z</time>
      </trkpt>
      <trkpt lat="49.11882" lon="6.89554">
        <ele>0</ele>
        <time>0001-01-01T00:00:00Z</time>
      </trkpt>
      <trkpt lat="49.11899" lon="6.89612">
        <ele>0</ele>
        <time>0001-01-01T00:00:00Z</time>
      </trkpt>
      <trkpt lat="49.11899" lon="6.89623">
        <ele>0</ele>
        <time>0001-01-01T00:00:00Z</time>
      </trkpt>
      <trkpt lat="49.11901" lon="6.89641">
        <ele>0</ele>
        <time>0001-01-01T00:00:00Z</time>
      </trkpt>
      <trkpt lat="49.11901" lon="6.89732">
        <ele>0</ele>
        <time>0001-01-01T00:00:00Z</time>
      </trkpt>
      <trkpt lat="49.11897" lon="6.89811">
        <ele>0</ele>
        <time>0001-01-01T00:00:00Z</time>
      </trkpt>
      <trkpt lat="49.11872" lon="6.90014">
        <ele>0</ele>
        <time>0001-01-01T00:00:00Z</time>
      </trkpt>
      <trkpt lat="49.11778" lon="6.90613">
        <ele>0</ele>
        <time>0001-01-01T00:00:00Z</time>
      </trkpt>
      <trkpt lat="49.11778" lon="6.90616">
        <ele>0</ele>
        <time>0001-01-01T00:00:00Z</time>
      </trkpt>
      <trkpt lat="49.11743" lon="6.90827">
        <ele>0</ele>
        <time>0001-01-01T00:00:00Z</time>
      </trkpt>
      <trkpt lat="49.11736" lon="6.90846">
        <ele>0</ele>
        <time>0001-01-01T00:00:00Z</time>
      </trkpt>
      <trkpt lat="49.11661" lon="6.91322">
        <ele>0</ele>
        <time>0001-01-01T00:00:00Z</time>
      </trkpt>
      <trkpt lat="49.11662" lon="6.91337">
        <ele>0</ele>
        <time>0001-01-01T00:00:00Z</time>
      </trkpt>
      <trkpt lat="49.115" lon="6.92365">
        <ele>0</ele>
        <time>0001-01-01T00:00:00Z</time>
      </trkpt>
      <trkpt lat="49.11477" lon="6.9249">
        <ele>0</ele>
        <time>0001-01-01T00:00:00Z</time>
      </trkpt>
      <trkpt lat="49.11477" lon="6.92492">
        <ele>0</ele>
        <time>0001-01-01T00:00:00Z</time>
      </trkpt>
      <trkpt lat="49.11456" lon="6.92577">
        <ele>0</ele>
        <time>0001-01-01T00:00:00Z</time>
      </trkpt>
      <trkpt lat="49.1143" lon="6.92668">
        <ele>0</ele>
        <time>0001-01-01T00:00:00Z</time>
      </trkpt>
      <trkpt lat="49.11215" lon="6.93276">
        <ele>0</ele>
        <time>0001-01-01T00:00:00Z</time>
      </trkpt>
      <trkpt lat="49.1121" lon="6.93294">
        <ele>0</ele>
        <time>0001-01-01T00:00:00Z</time>
      </trkpt>
      <trkpt lat="49.1121" lon="6.93296">
        <ele>0</ele>
        <time>0001-01-01T00:00:00Z</time>
      </trkpt>
      <trkpt lat="49.11209" lon="6.93297">
        <ele>0</ele>
        <time>0001-01-01T00:00:00Z</time>
      </trkpt>
      <trkpt lat="49.11208" lon="6.93302">
        <ele>0</ele>
        <time>0001-01-01T00:00:00Z</time>
      </trkpt>
      <trkpt lat="49.1114" lon="6.93495">
        <ele>0</ele>
        <time>0001-01-01T00:00:00Z</time>
      </trkpt>
      <trkpt lat="49.11128" lon="6.93535">
        <ele>0</ele>
        <time>0001-01-01T00:00:00Z</time>
      </trkpt>
      <trkpt lat="49.11121" lon="6.93569">
        <ele>0</ele>
        <time>0001-01-01T00:00:00Z</time>
      </trkpt>
      <trkpt lat="49.11117" lon="6.93608">
        <ele>0</ele>
        <time>0001-01-01T00:00:00Z</time>
      </trkpt>
      <trkpt lat="49.11112" lon="6.93712">
        <ele>0</ele>
        <time>0001-01-01T00:00:00Z</time>
      </trkpt>
      <trkpt lat="49.11106" lon="6.93782">
        <ele>0</ele>
        <time>0001-01-01T00:00:00Z</time>
      </trkpt>
      <trkpt lat="49.11099" lon="6.93812">
        <ele>0</ele>
        <time>0001-01-01T00:00:00Z</time>
      </trkpt>
      <trkpt lat="49.11092" lon="6.93835">
        <ele>0</ele>
        <time>0001-01-01T00:00:00Z</time>
      </trkpt>
      <trkpt lat="49.11083" lon="6.93858">
        <ele>0</ele>
        <time>0001-01-01T00:00:00Z</time>
      </trkpt>
      <trkpt lat="49.11067" lon="6.93883">
        <ele>0</ele>
        <time>0001-01-01T00:00:00Z</time>
      </trkpt>
      <trkpt lat="49.11057" lon="6.93895">
        <ele>0</ele>
        <time>0001-01-01T00:00:00Z</time>
      </trkpt>
      <trkpt lat="49.11045" lon="6.93907">
        <ele>0</ele>
        <time>0001-01-01T00:00:00Z</time>
      </trkpt>
      <trkpt lat="49.11033" lon="6.93917">
        <ele>0</ele>
        <time>0001-01-01T00:00:00Z</time>
      </trkpt>
      <trkpt lat="49.11005" lon="6.9393">
        <ele>0</ele>
        <time>0001-01-01T00:00:00Z</time>
      </trkpt>
      <trkpt lat="49.10982" lon="6.93938">
        <ele>0</ele>
        <time>0001-01-01T00:00:00Z</time>
      </trkpt>
      <trkpt lat="49.1097" lon="6.93944">
        <ele>0</ele>
        <time>0001-01-01T00:00:00Z</time>
      </trkpt>
      <trkpt lat="49.10953" lon="6.93956">
        <ele>0</ele>
        <time>0001-01-01T00:00:00Z</time>
      </trkpt>
      <trkpt lat="49.10934" lon="6.93974">
        <ele>0</ele>
        <time>0001-01-01T00:00:00Z</time>
      </trkpt>
      <trkpt lat="49.10863" lon="6.9408">
        <ele>0</ele>
        <time>0001-01-01T00:00:00Z</time>
      </trkpt>
      <trkpt lat="49.10855" lon="6.94096">
        <ele>0</ele>
        <time>0001-01-01T00:00:00Z</time>
      </trkpt>
      <trkpt lat="49.10843" lon="6.94136">
        <ele>0</ele>
        <time>0001-01-01T00:00:00Z</time>
      </trkpt>
      <trkpt lat="49.10838" lon="6.94176">
        <ele>0</ele>
        <time>0001-01-01T00:00:00Z</time>
      </trkpt>
      <trkpt lat="49.10838" lon="6.9419">
        <ele>0</ele>
        <time>0001-01-01T00:00:00Z</time>
      </trkpt>
      <trkpt lat="49.10833" lon="6.94228">
        <ele>0</ele>
        <time>0001-01-01T00:00:00Z</time>
      </trkpt>
      <trkpt lat="49.10828" lon="6.94251">
        <ele>0</ele>
        <time>0001-01-01T00:00:00Z</time>
      </trkpt>
      <trkpt lat="49.10821" lon="6.94271">
        <ele>0</ele>
        <time>0001-01-01T00:00:00Z</time>
      </trkpt>
      <trkpt lat="49.10809" lon="6.94298">
        <ele>0</ele>
        <time>0001-01-01T00:00:00Z</time>
      </trkpt>
      <trkpt lat="49.10723" lon="6.94447">
        <ele>0</ele>
        <time>0001-01-01T00:00:00Z</time>
      </trkpt>
      <trkpt lat="49.10686" lon="6.94521">
        <ele>0</ele>
        <time>0001-01-01T00:00:00Z</time>
      </trkpt>
      <trkpt lat="49.1066" lon="6.94607">
        <ele>0</ele>
        <time>0001-01-01T00:00:00Z</time>
      </trkpt>
      <trkpt lat="49.10651" lon="6.94654">
        <ele>0</ele>
        <time>0001-01-01T00:00:00Z</time>
      </trkpt>
      <trkpt lat="49.10646" lon="6.94709">
        <ele>0</ele>
        <time>0001-01-01T00:00:00Z</time>
      </trkpt>
      <trkpt lat="49.10637" lon="6.9516">
        <ele>0</ele>
        <time>0001-01-01T00:00:00Z</time>
      </trkpt>
      <trkpt lat="49.10638" lon="6.95273">
        <ele>0</ele>
        <time>0001-01-01T00:00:00Z</time>
      </trkpt>
      <trkpt lat="49.10633" lon="6.95443">
        <ele>0</ele>
        <time>0001-01-01T00:00:00Z</time>
      </trkpt>
      <trkpt lat="49.10616" lon="6.95581">
        <ele>0</ele>
        <time>0001-01-01T00:00:00Z</time>
      </trkpt>
      <trkpt lat="49.10584" lon="6.95753">
        <ele>0</ele>
        <time>0001-01-01T00:00:00Z</time>
      </trkpt>
      <trkpt lat="49.10562" lon="6.95823">
        <ele>0</ele>
        <time>0001-01-01T00:00:00Z</time>
      </trkpt>
      <trkpt lat="49.10558" lon="6.95831">
        <ele>0</ele>
        <time>0001-01-01T00:00:00Z</time>
      </trkpt>
      <trkpt lat="49.1047" lon="6.95965">
        <ele>0</ele>
        <time>0001-01-01T00:00:00Z</time>
      </trkpt>
      <trkpt lat="49.10469" lon="6.95966">
        <ele>0</ele>
        <time>0001-01-01T00:00:00Z</time>
      </trkpt>
      <trkpt lat="49.10458" lon="6.95986">
        <ele>0</ele>
        <time>0001-01-01T00:00:00Z</time>
      </trkpt>
      <trkpt lat="49.10443" lon="6.96026">
        <ele>0</ele>
        <time>0001-01-01T00:00:00Z</time>
      </trkpt>
      <trkpt lat="49.10435" lon="6.96055">
        <ele>0</ele>
        <time>0001-01-01T00:00:00Z</time>
      </trkpt>
      <trkpt lat="49.10419" lon="6.96129">
        <ele>0</ele>
        <time>0001-01-01T00:00:00Z</time>
      </trkpt>
      <trkpt lat="49.10407" lon="6.96212">
        <ele>0</ele>
        <time>0001-01-01T00:00:00Z</time>
      </trkpt>
      <trkpt lat="49.10404" lon="6.96256">
        <ele>0</ele>
        <time>0001-01-01T00:00:00Z</time>
      </trkpt>
      <trkpt lat="49.10404" lon="6.96353">
        <ele>0</ele>
        <time>0001-01-01T00:00:00Z</time>
      </trkpt>
      <trkpt lat="49.10409" lon="6.96395">
        <ele>0</ele>
        <time>0001-01-01T00:00:00Z</time>
      </trkpt>
      <trkpt lat="49.10465" lon="6.96714">
        <ele>0</ele>
        <time>0001-01-01T00:00:00Z</time>
      </trkpt>
      <trkpt lat="49.1049" lon="6.96943">
        <ele>0</ele>
        <time>0001-01-01T00:00:00Z</time>
      </trkpt>
      <trkpt lat="49.105" lon="6.96997">
        <ele>0</ele>
        <time>0001-01-01T00:00:00Z</time>
      </trkpt>
      <trkpt lat="49.10529" lon="6.9711">
        <ele>0</ele>
        <time>0001-01-01T00:00:00Z</time>
      </trkpt>
      <trkpt lat="49.10586" lon="6.97381">
        <ele>0</ele>
        <time>0001-01-01T00:00:00Z</time>
      </trkpt>
      <trkpt lat="49.10636" lon="6.97664">
        <ele>0</ele>
        <time>0001-01-01T00:00:00Z</time>
      </trkpt>
      <trkpt lat="49.10645" lon="6.97685">
        <ele>0</ele>
        <time>0001-01-01T00:00:00Z</time>
      </trkpt>
      <trkpt lat="49.10651" lon="6.97694">
        <ele>0</ele>
        <time>0001-01-01T00:00:00Z</time>
      </trkpt>
      <trkpt lat="49.10668" lon="6.97713">
        <ele>0</ele>
        <time>0001-01-01T00:00:00Z</time>
      </trkpt>
      <trkpt lat="49.10676" lon="6.97719">
        <ele>0</ele>
        <time>0001-01-01T00:00:00Z</time>
      </trkpt>
      <trkpt lat="49.10677" lon="6.97722">
        <ele>0</ele>
        <time>0001-01-01T00:00:00Z</time>
      </trkpt>
      <trkpt lat="49.10681" lon="6.97727">
        <ele>0</ele>
        <time>0001-01-01T00:00:00Z</time>
      </trkpt>
      <trkpt lat="49.10692" lon="6.97749">
        <ele>0</ele>
        <time>0001-01-01T00:00:00Z</time>
      </trkpt>
      <trkpt lat="49.10695" lon="6.97761">
        <ele>0</ele>
        <time>0001-01-01T00:00:00Z</time>
      </trkpt>
      <trkpt lat="49.10698" lon="6.97794">
        <ele>0</ele>
        <time>0001-01-01T00:00:00Z</time>
      </trkpt>
      <trkpt lat="49.10694" lon="6.97903">
        <ele>0</ele>
        <time>0001-01-01T00:00:00Z</time>
      </trkpt>
      <trkpt lat="49.10701" lon="6.97958">
        <ele>0</ele>
        <time>0001-01-01T00:00:00Z</time>
      </trkpt>
      <trkpt lat="49.10722" lon="6.98081">
        <ele>0</ele>
        <time>0001-01-01T00:00:00Z</time>
      </trkpt>
      <trkpt lat="49.10729" lon="6.98098">
        <ele>0</ele>
        <time>0001-01-01T00:00:00Z</time>
      </trkpt>
      <trkpt lat="49.10776" lon="6.98176">
        <ele>0</ele>
        <time>0001-01-01T00:00:00Z</time>
      </trkpt>
      <trkpt lat="49.10831" lon="6.98303">
        <ele>0</ele>
        <time>0001-01-01T00:00:00Z</time>
      </trkpt>
      <trkpt lat="49.10832" lon="6.98311">
        <ele>0</ele>
        <time>0001-01-01T00:00:00Z</time>
      </trkpt>
      <trkpt lat="49.1083" lon="6.98326">
        <ele>0</ele>
        <time>0001-01-01T00:00:00Z</time>
      </trkpt>
      <trkpt lat="49.10828" lon="6.98333">
        <ele>0</ele>
        <time>0001-01-01T00:00:00Z</time>
      </trkpt>
      <trkpt lat="49.10825" lon="6.98339">
        <ele>0</ele>
        <time>0001-01-01T00:00:00Z</time>
      </trkpt>
      <trkpt lat="49.10738" lon="6.9843">
        <ele>0</ele>
        <time>0001-01-01T00:00:00Z</time>
      </trkpt>
      <trkpt lat="49.10665" lon="6.98517">
        <ele>0</ele>
        <time>0001-01-01T00:00:00Z</time>
      </trkpt>
      <trkpt lat="49.10643" lon="6.98549">
        <ele>0</ele>
        <time>0001-01-01T00:00:00Z</time>
      </trkpt>
      <trkpt lat="49.10612" lon="6.98609">
        <ele>0</ele>
        <time>0001-01-01T00:00:00Z</time>
      </trkpt>
      <trkpt lat="49.10587" lon="6.98693">
        <ele>0</ele>
        <time>0001-01-01T00:00:00Z</time>
      </trkpt>
      <trkpt lat="49.10578" lon="6.98768">
        <ele>0</ele>
        <time>0001-01-01T00:00:00Z</time>
      </trkpt>
      <trkpt lat="49.10538" lon="6.99703">
        <ele>0</ele>
        <time>0001-01-01T00:00:00Z</time>
      </trkpt>
      <trkpt lat="49.10542" lon="6.99807">
        <ele>0</ele>
        <time>0001-01-01T00:00:00Z</time>
      </trkpt>
      <trkpt lat="49.10546" lon="6.9984">
        <ele>0</ele>
        <time>0001-01-01T00:00:00Z</time>
      </trkpt>
      <trkpt lat="49.10588" lon="7.00064">
        <ele>0</ele>
        <time>0001-01-01T00:00:00Z</time>
      </trkpt>
      <trkpt lat="49.1059" lon="7.00093">
        <ele>0</ele>
        <time>0001-01-01T00:00:00Z</time>
      </trkpt>
      <trkpt lat="49.10608" lon="7.00191">
        <ele>0</ele>
        <time>0001-01-01T00:00:00Z</time>
      </trkpt>
      <trkpt lat="49.1061" lon="7.00198">
        <ele>0</ele>
        <time>0001-01-01T00:00:00Z</time>
      </trkpt>
      <trkpt lat="49.10611" lon="7.00205">
        <ele>0</ele>
        <time>0001-01-01T00:00:00Z</time>
      </trkpt>
      <trkpt lat="49.10611" lon="7.00211">
        <ele>0</ele>
        <time>0001-01-01T00:00:00Z</time>
      </trkpt>
      <trkpt lat="49.10612" lon="7.00217">
        <ele>0</ele>
        <time>0001-01-01T00:00:00Z</time>
      </trkpt>
      <trkpt lat="49.10612" lon="7.00222">
        <ele>0</ele>
        <time>0001-01-01T00:00:00Z</time>
      </trkpt>
      <trkpt lat="49.10613" lon="7.00228">
        <ele>0</ele>
        <time>0001-01-01T00:00:00Z</time>
      </trkpt>
      <trkpt lat="49.10613" lon="7.00237">
        <ele>0</ele>
        <time>0001-01-01T00:00:00Z</time>
      </trkpt>
      <trkpt lat="49.10612" lon="7.00243">
        <ele>0</ele>
        <time>0001-01-01T00:00:00Z</time>
      </trkpt>
      <trkpt lat="49.10612" lon="7.00254">
        <ele>0</ele>
        <time>0001-01-01T00:00:00Z</time>
      </trkpt>
      <trkpt lat="49.10608" lon="7.00275">
        <ele>0</ele>
        <time>0001-01-01T00:00:00Z</time>
      </trkpt>
      <trkpt lat="49.106" lon="7.00298">
        <ele>0</ele>
        <time>0001-01-01T00:00:00Z</time>
      </trkpt>
      <trkpt lat="49.10592" lon="7.00315">
        <ele>0</ele>
        <time>0001-01-01T00:00:00Z</time>
      </trkpt>
      <trkpt lat="49.10584" lon="7.0034">
        <ele>0</ele>
        <time>0001-01-01T00:00:00Z</time>
      </trkpt>
      <trkpt lat="49.10584" lon="7.00364">
        <ele>0</ele>
        <time>0001-01-01T00:00:00Z</time>
      </trkpt>
      <trkpt lat="49.10586" lon="7.00376">
        <ele>0</ele>
        <time>0001-01-01T00:00:00Z</time>
      </trkpt>
      <trkpt lat="49.1059" lon="7.00389">
        <ele>0</ele>
        <time>0001-01-01T00:00:00Z</time>
      </trkpt>
      <trkpt lat="49.10591" lon="7.00395">
        <ele>0</ele>
        <time>0001-01-01T00:00:00Z</time>
      </trkpt>
      <trkpt lat="49.10597" lon="7.00413">
        <ele>0</ele>
        <time>0001-01-01T00:00:00Z</time>
      </trkpt>
      <trkpt lat="49.10629" lon="7.00492">
        <ele>0</ele>
        <time>0001-01-01T00:00:00Z</time>
      </trkpt>
      <trkpt lat="49.10644" lon="7.00539">
        <ele>0</ele>
        <time>0001-01-01T00:00:00Z</time>
      </trkpt>
      <trkpt lat="49.1065" lon="7.00569">
        <ele>0</ele>
        <time>0001-01-01T00:00:00Z</time>
      </trkpt>
      <trkpt lat="49.10859" lon="7.02526">
        <ele>0</ele>
        <time>0001-01-01T00:00:00Z</time>
      </trkpt>
      <trkpt lat="49.10861" lon="7.02535">
        <ele>0</ele>
        <time>0001-01-01T00:00:00Z</time>
      </trkpt>
      <trkpt lat="49.10862" lon="7.02547">
        <ele>0</ele>
        <time>0001-01-01T00:00:00Z</time>
      </trkpt>
      <trkpt lat="49.10873" lon="7.026">
        <ele>0</ele>
        <time>0001-01-01T00:00:00Z</time>
      </trkpt>
      <trkpt lat="49.10876" lon="7.0261">
        <ele>0</ele>
        <time>0001-01-01T00:00:00Z</time>
      </trkpt>
      <trkpt lat="49.10877" lon="7.02616">
        <ele>0</ele>
        <time>0001-01-01T00:00:00Z</time>
      </trkpt>
      <trkpt lat="49.10883" lon="7.02636">
        <ele>0</ele>
        <time>0001-01-01T00:00:00Z</time>
      </trkpt>
      <trkpt lat="49.10889" lon="7.02668">
        <ele>0</ele>
        <time>0001-01-01T00:00:00Z</time>
      </trkpt>
      <trkpt lat="49.10894" lon="7.02707">
        <ele>0</ele>
        <time>0001-01-01T00:00:00Z</time>
      </trkpt>
      <trkpt lat="49.10889" lon="7.02719">
        <ele>0</ele>
        <time>0001-01-01T00:00:00Z</time>
      </trkpt>
      <trkpt lat="49.10887" lon="7.02728">
        <ele>0</ele>
        <time>0001-01-01T00:00:00Z</time>
      </trkpt>
      <trkpt lat="49.10887" lon="7.02754">
        <ele>0</ele>
        <time>0001-01-01T00:00:00Z</time>
      </trkpt>
      <trkpt lat="49.10896" lon="7.02772">
        <ele>0</ele>
        <time>0001-01-01T00:00:00Z</time>
      </trkpt>
      <trkpt lat="49.10904" lon="7.02781">
        <ele>0</ele>
        <time>0001-01-01T00:00:00Z</time>
      </trkpt>
      <trkpt lat="49.10908" lon="7.02784">
        <ele>0</ele>
        <time>0001-01-01T00:00:00Z</time>
      </trkpt>
      <trkpt lat="49.10913" lon="7.02786">
        <ele>0</ele>
        <time>0001-01-01T00:00:00Z</time>
      </trkpt>
      <trkpt lat="49.10918" lon="7.02787">
        <ele>0</ele>
        <time>0001-01-01T00:00:00Z</time>
      </trkpt>
      <trkpt lat="49.10932" lon="7.02817">
        <ele>0</ele>
        <time>0001-01-01T00:00:00Z</time>
      </trkpt>
      <trkpt lat="49.10948" lon="7.02892">
        <ele>0</ele>
        <time>0001-01-01T00:00:00Z</time>
      </trkpt>
      <trkpt lat="49.10961" lon="7.02979">
        <ele>0</ele>
        <time>0001-01-01T00:00:00Z</time>
      </trkpt>
      <trkpt lat="49.10961" lon="7.02997">
        <ele>0</ele>
        <time>0001-01-01T00:00:00Z</time>
      </trkpt>
      <trkpt lat="49.1096" lon="7.03005">
        <ele>0</ele>
        <time>0001-01-01T00:00:00Z</time>
      </trkpt>
      <trkpt lat="49.10957" lon="7.0301">
        <ele>0</ele>
        <time>0001-01-01T00:00:00Z</time>
      </trkpt>
      <trkpt lat="49.10956" lon="7.03014">
        <ele>0</ele>
        <time>0001-01-01T00:00:00Z</time>
      </trkpt>
      <trkpt lat="49.10955" lon="7.03016">
        <ele>0</ele>
        <time>0001-01-01T00:00:00Z</time>
      </trkpt>
      <trkpt lat="49.10954" lon="7.0302">
        <ele>0</ele>
        <time>0001-01-01T00:00:00Z</time>
      </trkpt>
      <trkpt lat="49.10954" lon="7.03036">
        <ele>0</ele>
        <time>0001-01-01T00:00:00Z</time>
      </trkpt>
      <trkpt lat="49.10957" lon="7.03052">
        <ele>0</ele>
        <time>0001-01-01T00:00:00Z</time>
      </trkpt>
      <trkpt lat="49.10959" lon="7.03057">
        <ele>0</ele>
        <time>0001-01-01T00:00:00Z</time>
      </trkpt>
      <trkpt lat="49.10958" lon="7.03075">
        <ele>0</ele>
        <time>0001-01-01T00:00:00Z</time>
      </trkpt>
      <trkpt lat="49.10931" lon="7.03164">
        <ele>0</ele>
        <time>0001-01-01T00:00:00Z</time>
      </trkpt>
      <trkpt lat="49.10926" lon="7.03175">
        <ele>0</ele>
        <time>0001-01-01T00:00:00Z</time>
      </trkpt>
      <trkpt lat="49.10922" lon="7.03192">
        <ele>0</ele>
        <time>0001-01-01T00:00:00Z</time>
      </trkpt>
      <trkpt lat="49.10875" lon="7.03325">
        <ele>0</ele>
        <time>0001-01-01T00:00:00Z</time>
      </trkpt>
      <trkpt lat="49.10862" lon="7.03378">
        <ele>0</ele>
        <time>0001-01-01T00:00:00Z</time>
      </trkpt>
      <trkpt lat="49.10857" lon="7.03426">
        <ele>0</ele>
        <time>0001-01-01T00:00:00Z</time>
      </trkpt>
      <trkpt lat="49.10859" lon="7.03467">
        <ele>0</ele>
        <time>0001-01-01T00:00:00Z</time>
      </trkpt>
      <trkpt lat="49.10865" lon="7.03502">
        <ele>0</ele>
        <time>0001-01-01T00:00:00Z</time>
      </trkpt>
      <trkpt lat="49.10879" lon="7.03547">
        <ele>0</ele>
        <time>0001-01-01T00:00:00Z</time>
      </trkpt>
      <trkpt lat="49.10897" lon="7.03586">
        <ele>0</ele>
        <time>0001-01-01T00:00:00Z</time>
      </trkpt>
      <trkpt lat="49.10929" lon="7.03647">
        <ele>0</ele>
        <time>0001-01-01T00:00:00Z</time>
      </trkpt>
      <trkpt lat="49.1094" lon="7.03672">
        <ele>0</ele>
        <time>0001-01-01T00:00:00Z</time>
      </trkpt>
      <trkpt lat="49.11014" lon="7.03883">
        <ele>0</ele>
        <time>0001-01-01T00:00:00Z</time>
      </trkpt>
      <trkpt lat="49.11026" lon="7.03926">
        <ele>0</ele>
        <time>0001-01-01T00:00:00Z</time>
      </trkpt>
      <trkpt lat="49.1112" lon="7.04327">
        <ele>0</ele>
        <time>0001-01-01T00:00:00Z</time>
      </trkpt>
      <trkpt lat="49.11119" lon="7.04342">
        <ele>0</ele>
        <time>0001-01-01T00:00:00Z</time>
      </trkpt>
      <trkpt lat="49.1112" lon="7.0435">
        <ele>0</ele>
        <time>0001-01-01T00:00:00Z</time>
      </trkpt>
      <trkpt lat="49.11127" lon="7.0438">
        <ele>0</ele>
        <time>0001-01-01T00:00:00Z</time>
      </trkpt>
      <trkpt lat="49.11132" lon="7.04393">
        <ele>0</ele>
        <time>0001-01-01T00:00:00Z</time>
      </trkpt>
      <trkpt lat="49.11156" lon="7.04419">
        <ele>0</ele>
        <time>0001-01-01T00:00:00Z</time>
      </trkpt>
      <trkpt lat="49.11168" lon="7.04426">
        <ele>0</ele>
        <time>0001-01-01T00:00:00Z</time>
      </trkpt>
      <trkpt lat="49.11186" lon="7.04445">
        <ele>0</ele>
        <time>0001-01-01T00:00:00Z</time>
      </trkpt>
      <trkpt lat="49.11207" lon="7.04479">
        <ele>0</ele>
        <time>0001-01-01T00:00:00Z</time>
      </trkpt>
      <trkpt lat="49.11259" lon="7.04633">
        <ele>0</ele>
        <time>0001-01-01T00:00:00Z</time>
      </trkpt>
      <trkpt lat="49.11274" lon="7.0467">
        <ele>0</ele>
        <time>0001-01-01T00:00:00Z</time>
      </trkpt>
      <trkpt lat="49.11285" lon="7.04689">
        <ele>0</ele>
        <time>0001-01-01T00:00:00Z</time>
      </trkpt>
      <trkpt lat="49.11291" lon="7.04696">
        <ele>0</ele>
        <time>0001-01-01T00:00:00Z</time>
      </trkpt>
      <trkpt lat="49.11291" lon="7.04697">
        <ele>0</ele>
        <time>0001-01-01T00:00:00Z</time>
      </trkpt>
      <trkpt lat="49.1129" lon="7.04697">
        <ele>0</ele>
        <time>0001-01-01T00:00:00Z</time>
      </trkpt>
      <trkpt lat="49.1129" lon="7.04698">
        <ele>0</ele>
        <time>0001-01-01T00:00:00Z</time>
      </trkpt>
      <trkpt lat="49.11289" lon="7.04699">
        <ele>0</ele>
        <time>0001-01-01T00:00:00Z</time>
      </trkpt>
      <trkpt lat="49.11289" lon="7.04701">
        <ele>0</ele>
        <time>0001-01-01T00:00:00Z</time>
      </trkpt>
      <trkpt lat="49.11288" lon="7.04702">
        <ele>0</ele>
        <time>0001-01-01T00:00:00Z</time>
      </trkpt>
      <trkpt lat="49.11288" lon="7.04715">
        <ele>0</ele>
        <time>0001-01-01T00:00:00Z</time>
      </trkpt>
      <trkpt lat="49.11289" lon="7.04716">
        <ele>0</ele>
        <time>0001-01-01T00:00:00Z</time>
      </trkpt>
      <trkpt lat="49.11289" lon="7.04718">
        <ele>0</ele>
        <time>0001-01-01T00:00:00Z</time>
      </trkpt>
      <trkpt lat="49.1129" lon="7.04718">
        <ele>0</ele>
        <time>0001-01-01T00:00:00Z</time>
      </trkpt>
      <trkpt lat="49.1129" lon="7.0472">
        <ele>0</ele>
        <time>0001-01-01T00:00:00Z</time>
      </trkpt>
      <trkpt lat="49.11291" lon="7.0472">
        <ele>0</ele>
        <time>0001-01-01T00:00:00Z</time>
      </trkpt>
      <trkpt lat="49.11291" lon="7.04722">
        <ele>0</ele>
        <time>0001-01-01T00:00:00Z</time>
      </trkpt>
      <trkpt lat="49.11292" lon="7.04722">
        <ele>0</ele>
        <time>0001-01-01T00:00:00Z</time>
      </trkpt>
      <trkpt lat="49.11282" lon="7.04746">
        <ele>0</ele>
        <time>0001-01-01T00:00:00Z</time>
      </trkpt>
      <trkpt lat="49.11279" lon="7.04761">
        <ele>0</ele>
        <time>0001-01-01T00:00:00Z</time>
      </trkpt>
      <trkpt lat="49.1128" lon="7.0478">
        <ele>0</ele>
        <time>0001-01-01T00:00:00Z</time>
      </trkpt>
      <trkpt lat="49.11304" lon="7.04889">
        <ele>0</ele>
        <time>0001-01-01T00:00:00Z</time>
      </trkpt>
      <trkpt lat="49.11305" lon="7.04931">
        <ele>0</ele>
        <time>0001-01-01T00:00:00Z</time>
      </trkpt>
      <trkpt lat="49.11303" lon="7.04957">
        <ele>0</ele>
        <time>0001-01-01T00:00:00Z</time>
      </trkpt>
      <trkpt lat="49.11285" lon="7.05082">
        <ele>0</ele>
        <time>0001-01-01T00:00:00Z</time>
      </trkpt>
      <trkpt lat="49.11272" lon="7.0513">
        <ele>0</ele>
        <time>0001-01-01T00:00:00Z</time>
      </trkpt>
      <trkpt lat="49.11215" lon="7.05286">
        <ele>0</ele>
        <time>0001-01-01T00:00:00Z</time>
      </trkpt>
      <trkpt lat="49.11197" lon="7.05359">
        <ele>0</ele>
        <time>0001-01-01T00:00:00Z</time>
      </trkpt>
      <trkpt lat="49.11167" lon="7.05526">
        <ele>0</ele>
        <time>0001-01-01T00:00:00Z</time>
      </trkpt>
      <trkpt lat="49.11156" lon="7.05614">
        <ele>0</ele>
        <time>0001-01-01T00:00:00Z</time>
      </trkpt>
      <trkpt lat="49.11139" lon="7.05842">
        <ele>0</ele>
        <time>0001-01-01T00:00:00Z</time>
      </trkpt>
      <trkpt lat="49.11139" lon="7.05858">
        <ele>0</ele>
        <time>0001-01-01T00:00:00Z</time>
      </trkpt>
      <trkpt lat="49.11147" lon="7.05881">
        <ele>0</ele>
        <time>0001-01-01T00:00:00Z</time>
      </trkpt>
      <trkpt lat="49.11151" lon="7.05889">
        <ele>0</ele>
        <time>0001-01-01T00:00:00Z</time>
      </trkpt>
      <trkpt lat="49.11161" lon="7.05905">
        <ele>0</ele>
        <time>0001-01-01T00:00:00Z</time>
      </trkpt>
      <trkpt lat="49.11169" lon="7.05915">
        <ele>0</ele>
        <time>0001-01-01T00:00:00Z</time>
      </trkpt>
      <trkpt lat="49.11175" lon="7.05927">
        <ele>0</ele>
        <time>0001-01-01T00:00:00Z</time>
      </trkpt>
      <trkpt lat="49.11186" lon="7.0596">
        <ele>0</ele>
        <time>0001-01-01T00:00:00Z</time>
      </trkpt>
      <trkpt lat="49.112" lon="7.0602">
        <ele>0</ele>
        <time>0001-01-01T00:00:00Z</time>
      </trkpt>
      <trkpt lat="49.11221" lon="7.06166">
        <ele>0</ele>
        <time>0001-01-01T00:00:00Z</time>
      </trkpt>
      <trkpt lat="49.11234" lon="7.06213">
        <ele>0</ele>
        <time>0001-01-01T00:00:00Z</time>
      </trkpt>
      <trkpt lat="49.11247" lon="7.06247">
        <ele>0</ele>
        <time>0001-01-01T00:00:00Z</time>
      </trkpt>
      <trkpt lat="49.11284" lon="7.06328">
        <ele>0</ele>
        <time>0001-01-01T00:00:00Z</time>
      </trkpt>
      <trkpt lat="49.11318" lon="7.06413">
        <ele>0</ele>
        <time>0001-01-01T00:00:00Z</time>
      </trkpt>
      <trkpt lat="49.11325" lon="7.06434">
        <ele>0</ele>
        <time>0001-01-01T00:00:00Z</time>
      </trkpt>
      <trkpt lat="49.11341" lon="7.06525">
        <ele>0</ele>
        <time>0001-01-01T00:00:00Z</time>
      </trkpt>
      <trkpt lat="49.11343" lon="7.06548">
        <ele>0</ele>
        <time>0001-01-01T00:00:00Z</time>
      </trkpt>
      <trkpt lat="49.11341" lon="7.06614">
        <ele>0</ele>
        <time>0001-01-01T00:00:00Z</time>
      </trkpt>
      <trkpt lat="49.11335" lon="7.06645">
        <ele>0</ele>
        <time>0001-01-01T00:00:00Z</time>
      </trkpt>
      <trkpt lat="49.11326" lon="7.06673">
        <ele>0</ele>
        <time>0001-01-01T00:00:00Z</time>
      </trkpt>
      <trkpt lat="49.11302" lon="7.06727">
        <ele>0</ele>
        <time>0001-01-01T00:00:00Z</time>
      </trkpt>
      <trkpt lat="49.11242" lon="7.06849">
        <ele>0</ele>
        <time>0001-01-01T00:00:00Z</time>
      </trkpt>
      <trkpt lat="49.11218" lon="7.06916">
        <ele>0</ele>
        <time>0001-01-01T00:00:00Z</time>
      </trkpt>
      <trkpt lat="49.1121" lon="7.06946">
        <ele>0</ele>
        <time>0001-01-01T00:00:00Z</time>
      </trkpt>
      <trkpt lat="49.11156" lon="7.07041">
        <ele>0</ele>
        <time>0001-01-01T00:00:00Z</time>
      </trkpt>
      <trkpt lat="49.11237" lon="7.0716">
        <ele>0</ele>
        <time>0001-01-01T00:00:00Z</time>
      </trkpt>
      <trkpt lat="49.11289" lon="7.07243">
        <ele>0</ele>
        <time>0001-01-01T00:00:00Z</time>
      </trkpt>
      <trkpt lat="49.11519" lon="7.07585">
        <ele>0</ele>
        <time>0001-01-01T00:00:00Z</time>
      </trkpt>
      <trkpt lat="49.11534" lon="7.07612">
        <ele>0</ele>
        <time>0001-01-01T00:00:00Z</time>
      </trkpt>
      <trkpt lat="49.11553" lon="7.07653">
        <ele>0</ele>
        <time>0001-01-01T00:00:00Z</time>
      </trkpt>
      <trkpt lat="49.11562" lon="7.07677">
        <ele>0</ele>
        <time>0001-01-01T00:00:00Z</time>
      </trkpt>
      <trkpt lat="49.11575" lon="7.07726">
        <ele>0</ele>
        <time>0001-01-01T00:00:00Z</time>
      </trkpt>
      <trkpt lat="49.11586" lon="7.07779">
        <ele>0</ele>
        <time>0001-01-01T00:00:00Z</time>
      </trkpt>
      <trkpt lat="49.11592" lon="7.07794">
        <ele>0</ele>
        <time>0001-01-01T00:00:00Z</time>
      </trkpt>
      <trkpt lat="49.11654" lon="7.08028">
        <ele>0</ele>
        <time>0001-01-01T00:00:00Z</time>
      </trkpt>
      <trkpt lat="49.11674" lon="7.08089">
        <ele>0</ele>
        <time>0001-01-01T00:00:00Z</time>
      </trkpt>
      <trkpt lat="49.11736" lon="7.08233">
        <ele>0</ele>
        <time>0001-01-01T00:00:00Z</time>
      </trkpt>
      <trkpt lat="49.11874" lon="7.08576">
        <ele>0</ele>
        <time>0001-01-01T00:00:00Z</time>
      </trkpt>
      <trkpt lat="49.11905" lon="7.08643">
        <ele>0</ele>
        <time>0001-01-01T00:00:00Z</time>
      </trkpt>
      <trkpt lat="49.11969" lon="7.08796">
        <ele>0</ele>
        <time>0001-01-01T00:00:00Z</time>
      </trkpt>
      <trkpt lat="49.11979" lon="7.08824">
        <ele>0</ele>
        <time>0001-01-01T00:00:00Z</time>
      </trkpt>
      <trkpt lat="49.11983" lon="7.0884">
        <ele>0</ele>
        <time>0001-01-01T00:00:00Z</time>
      </trkpt>
      <trkpt lat="49.11988" lon="7.08871">
        <ele>0</ele>
        <time>0001-01-01T00:00:00Z</time>
      </trkpt>
      <trkpt lat="49.11991" lon="7.08901">
        <ele>0</ele>
        <time>0001-01-01T00:00:00Z</time>
      </trkpt>
      <trkpt lat="49.11987" lon="7.08956">
        <ele>0</ele>
        <time>0001-01-01T00:00:00Z</time>
      </trkpt>
      <trkpt lat="49.11985" lon="7.08969">
        <ele>0</ele>
        <time>0001-01-01T00:00:00Z</time>
      </trkpt>
      <trkpt lat="49.11982" lon="7.08979">
        <ele>0</ele>
        <time>0001-01-01T00:00:00Z</time>
      </trkpt>
      <trkpt lat="49.11991" lon="7.08988">
        <ele>0</ele>
        <time>0001-01-01T00:00:00Z</time>
      </trkpt>
      <trkpt lat="49.12019" lon="7.09054">
        <ele>0</ele>
        <time>0001-01-01T00:00:00Z</time>
      </trkpt>
      <trkpt lat="49.12026" lon="7.09084">
        <ele>0</ele>
        <time>0001-01-01T00:00:00Z</time>
      </trkpt>
      <trkpt lat="49.12055" lon="7.09173">
        <ele>0</ele>
        <time>0001-01-01T00:00:00Z</time>
      </trkpt>
      <trkpt lat="49.12077" lon="7.0926">
        <ele>0</ele>
        <time>0001-01-01T00:00:00Z</time>
      </trkpt>
      <trkpt lat="49.12126" lon="7.09386">
        <ele>0</ele>
        <time>0001-01-01T00:00:00Z</time>
      </trkpt>
      <trkpt lat="49.12135" lon="7.09402">
        <ele>0</ele>
        <time>0001-01-01T00:00:00Z</time>
      </trkpt>
      <trkpt lat="49.12376" lon="7.0993">
        <ele>0</ele>
        <time>0001-01-01T00:00:00Z</time>
      </trkpt>
      <trkpt lat="49.12404" lon="7.09999">
        <ele>0</ele>
        <time>0001-01-01T00:00:00Z</time>
      </trkpt>
      <trkpt lat="49.1253" lon="7.10341">
        <ele>0</ele>
        <time>0001-01-01T00:00:00Z</time>
      </trkpt>
      <trkpt lat="49.12586" lon="7.10473">
        <ele>0</ele>
        <time>0001-01-01T00:00:00Z</time>
      </trkpt>
      <trkpt lat="49.12647" lon="7.10601">
        <ele>0</ele>
        <time>0001-01-01T00:00:00Z</time>
      </trkpt>
      <trkpt lat="49.12649" lon="7.10604">
        <ele>0</ele>
        <time>0001-01-01T00:00:00Z</time>
      </trkpt>
      <trkpt lat="49.12992" lon="7.11316">
        <ele>0</ele>
        <time>0001-01-01T00:00:00Z</time>
      </trkpt>
      <trkpt lat="49.13034" lon="7.1139">
        <ele>0</ele>
        <time>0001-01-01T00:00:00Z</time>
      </trkpt>
      <trkpt lat="49.13069" lon="7.11443">
        <ele>0</ele>
        <time>0001-01-01T00:00:00Z</time>
      </trkpt>
      <trkpt lat="49.13085" lon="7.11464">
        <ele>0</ele>
        <time>0001-01-01T00:00:00Z</time>
      </trkpt>
      <trkpt lat="49.13116" lon="7.11497">
        <ele>0</ele>
        <time>0001-01-01T00:00:00Z</time>
      </trkpt>
      <trkpt lat="49.13167" lon="7.11539">
        <ele>0</ele>
        <time>0001-01-01T00:00:00Z</time>
      </trkpt>
      <trkpt lat="49.13277" lon="7.11612">
        <ele>0</ele>
        <time>0001-01-01T00:00:00Z</time>
      </trkpt>
      <trkpt lat="49.13277" lon="7.11613">
        <ele>0</ele>
        <time>0001-01-01T00:00:00Z</time>
      </trkpt>
      <trkpt lat="49.13331" lon="7.11649">
        <ele>0</ele>
        <time>0001-01-01T00:00:00Z</time>
      </trkpt>
      <trkpt lat="49.13418" lon="7.11722">
        <ele>0</ele>
        <time>0001-01-01T00:00:00Z</time>
      </trkpt>
      <trkpt lat="49.13471" lon="7.11777">
        <ele>0</ele>
        <time>0001-01-01T00:00:00Z</time>
      </trkpt>
      <trkpt lat="49.13524" lon="7.11841">
        <ele>0</ele>
        <time>0001-01-01T00:00:00Z</time>
      </trkpt>
      <trkpt lat="49.13575" lon="7.11911">
        <ele>0</ele>
        <time>0001-01-01T00:00:00Z</time>
      </trkpt>
      <trkpt lat="49.13601" lon="7.11951">
        <ele>0</ele>
        <time>0001-01-01T00:00:00Z</time>
      </trkpt>
      <trkpt lat="49.13647" lon="7.12031">
        <ele>0</ele>
        <time>0001-01-01T00:00:00Z</time>
      </trkpt>
      <trkpt lat="49.13693" lon="7.12126">
        <ele>0</ele>
        <time>0001-01-01T00:00:00Z</time>
      </trkpt>
      <trkpt lat="49.13741" lon="7.12248">
        <ele>0</ele>
        <time>0001-01-01T00:00:00Z</time>
      </trkpt>
      <trkpt lat="49.13772" lon="7.12344">
        <ele>0</ele>
        <time>0001-01-01T00:00:00Z</time>
      </trkpt>
      <trkpt lat="49.13786" lon="7.12406">
        <ele>0</ele>
        <time>0001-01-01T00:00:00Z</time>
      </trkpt>
      <trkpt lat="49.13783" lon="7.12409">
        <ele>0</ele>
        <time>0001-01-01T00:00:00Z</time>
      </trkpt>
      <trkpt lat="49.13783" lon="7.12411">
        <ele>0</ele>
        <time>0001-01-01T00:00:00Z</time>
      </trkpt>
      <trkpt lat="49.13782" lon="7.12412">
        <ele>0</ele>
        <time>0001-01-01T00:00:00Z</time>
      </trkpt>
      <trkpt lat="49.13782" lon="7.12415">
        <ele>0</ele>
        <time>0001-01-01T00:00:00Z</time>
      </trkpt>
      <trkpt lat="49.13781" lon="7.12416">
        <ele>0</ele>
        <time>0001-01-01T00:00:00Z</time>
      </trkpt>
      <trkpt lat="49.13781" lon="7.12428">
        <ele>0</ele>
        <time>0001-01-01T00:00:00Z</time>
      </trkpt>
      <trkpt lat="49.13782" lon="7.12429">
        <ele>0</ele>
        <time>0001-01-01T00:00:00Z</time>
      </trkpt>
      <trkpt lat="49.13782" lon="7.12431">
        <ele>0</ele>
        <time>0001-01-01T00:00:00Z</time>
      </trkpt>
      <trkpt lat="49.13783" lon="7.12432">
        <ele>0</ele>
        <time>0001-01-01T00:00:00Z</time>
      </trkpt>
      <trkpt lat="49.13783" lon="7.12433">
        <ele>0</ele>
        <time>0001-01-01T00:00:00Z</time>
      </trkpt>
      <trkpt lat="49.13784" lon="7.12434">
        <ele>0</ele>
        <time>0001-01-01T00:00:00Z</time>
      </trkpt>
      <trkpt lat="49.13784" lon="7.12435">
        <ele>0</ele>
        <time>0001-01-01T00:00:00Z</time>
      </trkpt>
      <trkpt lat="49.13785" lon="7.12436">
        <ele>0</ele>
        <time>0001-01-01T00:00:00Z</time>
      </trkpt>
      <trkpt lat="49.13785" lon="7.12437">
        <ele>0</ele>
        <time>0001-01-01T00:00:00Z</time>
      </trkpt>
      <trkpt lat="49.13786" lon="7.12437">
        <ele>0</ele>
        <time>0001-01-01T00:00:00Z</time>
      </trkpt>
      <trkpt lat="49.13786" lon="7.12438">
        <ele>0</ele>
        <time>0001-01-01T00:00:00Z</time>
      </trkpt>
      <trkpt lat="49.13787" lon="7.12439">
        <ele>0</ele>
        <time>0001-01-01T00:00:00Z</time>
      </trkpt>
      <trkpt lat="49.13788" lon="7.12439">
        <ele>0</ele>
        <time>0001-01-01T00:00:00Z</time>
      </trkpt>
      <trkpt lat="49.13788" lon="7.1244">
        <ele>0</ele>
        <time>0001-01-01T00:00:00Z</time>
      </trkpt>
      <trkpt lat="49.13789" lon="7.1244">
        <ele>0</ele>
        <time>0001-01-01T00:00:00Z</time>
      </trkpt>
      <trkpt lat="49.1379" lon="7.12441">
        <ele>0</ele>
        <time>0001-01-01T00:00:00Z</time>
      </trkpt>
      <trkpt lat="49.13796" lon="7.12441">
        <ele>0</ele>
        <time>0001-01-01T00:00:00Z</time>
      </trkpt>
      <trkpt lat="49.13797" lon="7.1244">
        <ele>0</ele>
        <time>0001-01-01T00:00:00Z</time>
      </trkpt>
      <trkpt lat="49.13805" lon="7.12449">
        <ele>0</ele>
        <time>0001-01-01T00:00:00Z</time>
      </trkpt>
      <trkpt lat="49.13813" lon="7.12467">
        <ele>0</ele>
        <time>0001-01-01T00:00:00Z</time>
      </trkpt>
      <trkpt lat="49.13815" lon="7.12478">
        <ele>0</ele>
        <time>0001-01-01T00:00:00Z</time>
      </trkpt>
      <trkpt lat="49.13816" lon="7.12491">
        <ele>0</ele>
        <time>0001-01-01T00:00:00Z</time>
      </trkpt>
      <trkpt lat="49.13826" lon="7.12536">
        <ele>0</ele>
        <time>0001-01-01T00:00:00Z</time>
      </trkpt>
      <trkpt lat="49.1387" lon="7.12673">
        <ele>0</ele>
        <time>0001-01-01T00:00:00Z</time>
      </trkpt>
      <trkpt lat="49.13873" lon="7.1268">
        <ele>0</ele>
        <time>0001-01-01T00:00:00Z</time>
      </trkpt>
      <trkpt lat="49.13889" lon="7.12743">
        <ele>0</ele>
        <time>0001-01-01T00:00:00Z</time>
      </trkpt>
      <trkpt lat="49.13898" lon="7.12765">
        <ele>0</ele>
        <time>0001-01-01T00:00:00Z</time>
      </trkpt>
      <trkpt lat="49.13914" lon="7.1286">
        <ele>0</ele>
        <time>0001-01-01T00:00:00Z</time>
      </trkpt>
      <trkpt lat="49.13916" lon="7.12892">
        <ele>0</ele>
        <time>0001-01-01T00:00:00Z</time>
      </trkpt>
      <trkpt lat="49.13914" lon="7.12906">
        <ele>0</ele>
        <time>0001-01-01T00:00:00Z</time>
      </trkpt>
      <trkpt lat="49.13919" lon="7.13027">
        <ele>0</ele>
        <time>0001-01-01T00:00:00Z</time>
      </trkpt>
      <trkpt lat="49.13913" lon="7.13085">
        <ele>0</ele>
        <time>0001-01-01T00:00:00Z</time>
      </trkpt>
      <trkpt lat="49.13897" lon="7.13169">
        <ele>0</ele>
        <time>0001-01-01T00:00:00Z</time>
      </trkpt>
      <trkpt lat="49.13891" lon="7.13192">
        <ele>0</ele>
        <time>0001-01-01T00:00:00Z</time>
      </trkpt>
      <trkpt lat="49.13876" lon="7.13237">
        <ele>0</ele>
        <time>0001-01-01T00:00:00Z</time>
      </trkpt>
      <trkpt lat="49.13868" lon="7.13234">
        <ele>0</ele>
        <time>0001-01-01T00:00:00Z</time>
      </trkpt>
      <trkpt lat="49.13828" lon="7.1324">
        <ele>0</ele>
        <time>0001-01-01T00:00:00Z</time>
      </trkpt>
      <trkpt lat="49.13815" lon="7.1324">
        <ele>0</ele>
        <time>0001-01-01T00:00:00Z</time>
      </trkpt>
      <trkpt lat="49.13784" lon="7.13243">
        <ele>0</ele>
        <time>0001-01-01T00:00:00Z</time>
      </trkpt>
      <trkpt lat="49.13754" lon="7.1325">
        <ele>0</ele>
        <time>0001-01-01T00:00:00Z</time>
      </trkpt>
      <trkpt lat="49.13673" lon="7.13279">
        <ele>0</ele>
        <time>0001-01-01T00:00:00Z</time>
      </trkpt>
      <trkpt lat="49.1355" lon="7.13315">
        <ele>0</ele>
        <time>0001-01-01T00:00:00Z</time>
      </trkpt>
      <trkpt lat="49.13506" lon="7.13331">
        <ele>0</ele>
        <time>0001-01-01T00:00:00Z</time>
      </trkpt>
      <trkpt lat="49.13495" lon="7.13334">
        <ele>0</ele>
        <time>0001-01-01T00:00:00Z</time>
      </trkpt>
      <trkpt lat="49.13406" lon="7.13368">
        <ele>0</ele>
        <time>0001-01-01T00:00:00Z</time>
      </trkpt>
      <trkpt lat="49.13391" lon="7.13377">
        <ele>0</ele>
        <time>0001-01-01T00:00:00Z</time>
      </trkpt>
      <trkpt lat="49.1338" lon="7.13387">
        <ele>0</ele>
        <time>0001-01-01T00:00:00Z</time>
      </trkpt>
      <trkpt lat="49.13364" lon="7.13409">
        <ele>0</ele>
        <time>0001-01-01T00:00:00Z</time>
      </trkpt>
      <trkpt lat="49.13358" lon="7.13422">
        <ele>0</ele>
        <time>0001-01-01T00:00:00Z</time>
      </trkpt>
      <trkpt lat="49.13344" lon="7.13463">
        <ele>0</ele>
        <time>0001-01-01T00:00:00Z</time>
      </trkpt>
      <trkpt lat="49.13333" lon="7.13505">
        <ele>0</ele>
        <time>0001-01-01T00:00:00Z</time>
      </trkpt>
      <trkpt lat="49.13333" lon="7.13658">
        <ele>0</ele>
        <time>0001-01-01T00:00:00Z</time>
      </trkpt>
      <trkpt lat="49.1333" lon="7.1375">
        <ele>0</ele>
        <time>0001-01-01T00:00:00Z</time>
      </trkpt>
      <trkpt lat="49.13315" lon="7.13815">
        <ele>0</ele>
        <time>0001-01-01T00:00:00Z</time>
      </trkpt>
      <trkpt lat="49.13301" lon="7.13853">
        <ele>0</ele>
        <time>0001-01-01T00:00:00Z</time>
      </trkpt>
      <trkpt lat="49.13278" lon="7.13894">
        <ele>0</ele>
        <time>0001-01-01T00:00:00Z</time>
      </trkpt>
      <trkpt lat="49.13267" lon="7.13908">
        <ele>0</ele>
        <time>0001-01-01T00:00:00Z</time>
      </trkpt>
      <trkpt lat="49.13236" lon="7.13939">
        <ele>0</ele>
        <time>0001-01-01T00:00:00Z</time>
      </trkpt>
      <trkpt lat="49.13171" lon="7.13996">
        <ele>0</ele>
        <time>0001-01-01T00:00:00Z</time>
      </trkpt>
      <trkpt lat="49.13138" lon="7.14031">
        <ele>0</ele>
        <time>0001-01-01T00:00:00Z</time>
      </trkpt>
      <trkpt lat="49.12993" lon="7.14241">
        <ele>0</ele>
        <time>0001-01-01T00:00:00Z</time>
      </trkpt>
      <trkpt lat="49.12963" lon="7.14293">
        <ele>0</ele>
        <time>0001-01-01T00:00:00Z</time>
      </trkpt>
      <trkpt lat="49.12946" lon="7.1433">
        <ele>0</ele>
        <time>0001-01-01T00:00:00Z</time>
      </trkpt>
      <trkpt lat="49.12935" lon="7.14358">
        <ele>0</ele>
        <time>0001-01-01T00:00:00Z</time>
      </trkpt>
      <trkpt lat="49.12917" lon="7.14417">
        <ele>0</ele>
        <time>0001-01-01T00:00:00Z</time>
      </trkpt>
      <trkpt lat="49.12904" lon="7.14475">
        <ele>0</ele>
        <time>0001-01-01T00:00:00Z</time>
      </trkpt>
      <trkpt lat="49.12844" lon="7.14802">
        <ele>0</ele>
        <time>0001-01-01T00:00:00Z</time>
      </trkpt>
      <trkpt lat="49.12833" lon="7.14877">
        <ele>0</ele>
        <time>0001-01-01T00:00:00Z</time>
      </trkpt>
      <trkpt lat="49.12827" lon="7.14988">
        <ele>0</ele>
        <time>0001-01-01T00:00:00Z</time>
      </trkpt>
      <trkpt lat="49.12831" lon="7.15142">
        <ele>0</ele>
        <time>0001-01-01T00:00:00Z</time>
      </trkpt>
      <trkpt lat="49.12837" lon="7.15218">
        <ele>0</ele>
        <time>0001-01-01T00:00:00Z</time>
      </trkpt>
      <trkpt lat="49.12846" lon="7.15278">
        <ele>0</ele>
        <time>0001-01-01T00:00:00Z</time>
      </trkpt>
      <trkpt lat="49.12856" lon="7.15326">
        <ele>0</ele>
        <time>0001-01-01T00:00:00Z</time>
      </trkpt>
      <trkpt lat="49.12872" lon="7.15386">
        <ele>0</ele>
        <time>0001-01-01T00:00:00Z</time>
      </trkpt>
      <trkpt lat="49.13029" lon="7.15825">
        <ele>0</ele>
        <time>0001-01-01T00:00:00Z</time>
      </trkpt>
      <trkpt lat="49.1305" lon="7.15873">
        <ele>0</ele>
        <time>0001-01-01T00:00:00Z</time>
      </trkpt>
      <trkpt lat="49.13086" lon="7.15939">
        <ele>0</ele>
        <time>0001-01-01T00:00:00Z</time>
      </trkpt>
      <trkpt lat="49.13131" lon="7.16002">
        <ele>0</ele>
        <time>0001-01-01T00:00:00Z</time>
      </trkpt>
      <trkpt lat="49.13231" lon="7.16128">
        <ele>0</ele>
        <time>0001-01-01T00:00:00Z</time>
      </trkpt>
      <trkpt lat="49.13237" lon="7.16137">
        <ele>0</ele>
        <time>0001-01-01T00:00:00Z</time>
      </trkpt>
      <trkpt lat="49.13287" lon="7.16201">
        <ele>0</ele>
        <time>0001-01-01T00:00:00Z</time>
      </trkpt>
      <trkpt lat="49.13332" lon="7.16271">
        <ele>0</ele>
        <time>0001-01-01T00:00:00Z</time>
      </trkpt>
      <trkpt lat="49.13358" lon="7.16322">
        <ele>0</ele>
        <time>0001-01-01T00:00:00Z</time>
      </trkpt>
      <trkpt lat="49.13394" lon="7.16405">
        <ele>0</ele>
        <time>0001-01-01T00:00:00Z</time>
      </trkpt>
      <trkpt lat="49.13404" lon="7.16436">
        <ele>0</ele>
        <time>0001-01-01T00:00:00Z</time>
      </trkpt>
      <trkpt lat="49.13407" lon="7.16452">
        <ele>0</ele>
        <time>0001-01-01T00:00:00Z</time>
      </trkpt>
      <trkpt lat="49.13406" lon="7.1647">
        <ele>0</ele>
        <time>0001-01-01T00:00:00Z</time>
      </trkpt>
      <trkpt lat="49.13403" lon="7.16486">
        <ele>0</ele>
        <time>0001-01-01T00:00:00Z</time>
      </trkpt>
      <trkpt lat="49.13385" lon="7.16517">
        <ele>0</ele>
        <time>0001-01-01T00:00:00Z</time>
      </trkpt>
      <trkpt lat="49.13379" lon="7.16532">
        <ele>0</ele>
        <time>0001-01-01T00:00:00Z</time>
      </trkpt>
      <trkpt lat="49.13375" lon="7.1655">
        <ele>0</ele>
        <time>0001-01-01T00:00:00Z</time>
      </trkpt>
      <trkpt lat="49.13374" lon="7.1658">
        <ele>0</ele>
        <time>0001-01-01T00:00:00Z</time>
      </trkpt>
      <trkpt lat="49.13377" lon="7.16667">
        <ele>0</ele>
        <time>0001-01-01T00:00:00Z</time>
      </trkpt>
      <trkpt lat="49.13381" lon="7.1669">
        <ele>0</ele>
        <time>0001-01-01T00:00:00Z</time>
      </trkpt>
      <trkpt lat="49.13387" lon="7.1671">
        <ele>0</ele>
        <time>0001-01-01T00:00:00Z</time>
      </trkpt>
      <trkpt lat="49.13396" lon="7.16732">
        <ele>0</ele>
        <time>0001-01-01T00:00:00Z</time>
      </trkpt>
      <trkpt lat="49.13429" lon="7.1679">
        <ele>0</ele>
        <time>0001-01-01T00:00:00Z</time>
      </trkpt>
      <trkpt lat="49.13441" lon="7.16803">
        <ele>0</ele>
        <time>0001-01-01T00:00:00Z</time>
      </trkpt>
      <trkpt lat="49.13629" lon="7.16948">
        <ele>0</ele>
        <time>0001-01-01T00:00:00Z</time>
      </trkpt>
      <trkpt lat="49.13683" lon="7.16982">
        <ele>0</ele>
        <time>0001-01-01T00:00:00Z</time>
      </trkpt>
      <trkpt lat="49.13697" lon="7.16995">
        <ele>0</ele>
        <time>0001-01-01T00:00:00Z</time>
      </trkpt>
      <trkpt lat="49.13708" lon="7.17007">
        <ele>0</ele>
        <time>0001-01-01T00:00:00Z</time>
      </trkpt>
      <trkpt lat="49.13718" lon="7.17016">
        <ele>0</ele>
        <time>0001-01-01T00:00:00Z</time>
      </trkpt>
      <trkpt lat="49.13734" lon="7.17043">
        <ele>0</ele>
        <time>0001-01-01T00:00:00Z</time>
      </trkpt>
      <trkpt lat="49.13772" lon="7.17122">
        <ele>0</ele>
        <time>0001-01-01T00:00:00Z</time>
      </trkpt>
      <trkpt lat="49.1378" lon="7.1715">
        <ele>0</ele>
        <time>0001-01-01T00:00:00Z</time>
      </trkpt>
      <trkpt lat="49.13791" lon="7.17228">
        <ele>0</ele>
        <time>0001-01-01T00:00:00Z</time>
      </trkpt>
      <trkpt lat="49.13802" lon="7.17279">
        <ele>0</ele>
        <time>0001-01-01T00:00:00Z</time>
      </trkpt>
      <trkpt lat="49.13808" lon="7.17295">
        <ele>0</ele>
        <time>0001-01-01T00:00:00Z</time>
      </trkpt>
      <trkpt lat="49.13822" lon="7.17321">
        <ele>0</ele>
        <time>0001-01-01T00:00:00Z</time>
      </trkpt>
      <trkpt lat="49.13886" lon="7.17395">
        <ele>0</ele>
        <time>0001-01-01T00:00:00Z</time>
      </trkpt>
      <trkpt lat="49.13894" lon="7.17408">
        <ele>0</ele>
        <time>0001-01-01T00:00:00Z</time>
      </trkpt>
      <trkpt lat="49.13901" lon="7.17424">
        <ele>0</ele>
        <time>0001-01-01T00:00:00Z</time>
      </trkpt>
      <trkpt lat="49.13905" lon="7.17445">
        <ele>0</ele>
        <time>0001-01-01T00:00:00Z</time>
      </trkpt>
      <trkpt lat="49.13907" lon="7.17471">
        <ele>0</ele>
        <time>0001-01-01T00:00:00Z</time>
      </trkpt>
      <trkpt lat="49.13904" lon="7.17518">
        <ele>0</ele>
        <time>0001-01-01T00:00:00Z</time>
      </trkpt>
      <trkpt lat="49.13898" lon="7.17549">
        <ele>0</ele>
        <time>0001-01-01T00:00:00Z</time>
      </trkpt>
      <trkpt lat="49.13857" lon="7.17641">
        <ele>0</ele>
        <time>0001-01-01T00:00:00Z</time>
      </trkpt>
      <trkpt lat="49.13849" lon="7.1768">
        <ele>0</ele>
        <time>0001-01-01T00:00:00Z</time>
      </trkpt>
      <trkpt lat="49.13848" lon="7.17713">
        <ele>0</ele>
        <time>0001-01-01T00:00:00Z</time>
      </trkpt>
      <trkpt lat="49.13849" lon="7.17728">
        <ele>0</ele>
        <time>0001-01-01T00:00:00Z</time>
      </trkpt>
      <trkpt lat="49.13861" lon="7.17811">
        <ele>0</ele>
        <time>0001-01-01T00:00:00Z</time>
      </trkpt>
      <trkpt lat="49.1386" lon="7.17833">
        <ele>0</ele>
        <time>0001-01-01T00:00:00Z</time>
      </trkpt>
      <trkpt lat="49.13857" lon="7.17845">
        <ele>0</ele>
        <time>0001-01-01T00:00:00Z</time>
      </trkpt>
      <trkpt lat="49.13853" lon="7.17855">
        <ele>0</ele>
        <time>0001-01-01T00:00:00Z</time>
      </trkpt>
      <trkpt lat="49.13811" lon="7.17926">
        <ele>0</ele>
        <time>0001-01-01T00:00:00Z</time>
      </trkpt>
      <trkpt lat="49.1377" lon="7.1802">
        <ele>0</ele>
        <time>0001-01-01T00:00:00Z</time>
      </trkpt>
      <trkpt lat="49.1377" lon="7.18026">
        <ele>0</ele>
        <time>0001-01-01T00:00:00Z</time>
      </trkpt>
      <trkpt lat="49.13773" lon="7.18041">
        <ele>0</ele>
        <time>0001-01-01T00:00:00Z</time>
      </trkpt>
      <trkpt lat="49.1381" lon="7.18148">
        <ele>0</ele>
        <time>0001-01-01T00:00:00Z</time>
      </trkpt>
      <trkpt lat="49.13817" lon="7.18188">
        <ele>0</ele>
        <time>0001-01-01T00:00:00Z</time>
      </trkpt>
      <trkpt lat="49.13823" lon="7.18244">
        <ele>0</ele>
        <time>0001-01-01T00:00:00Z</time>
      </trkpt>
      <trkpt lat="49.13853" lon="7.1879">
        <ele>0</ele>
        <time>0001-01-01T00:00:00Z</time>
      </trkpt>
      <trkpt lat="49.13856" lon="7.18818">
        <ele>0</ele>
        <time>0001-01-01T00:00:00Z</time>
      </trkpt>
      <trkpt lat="49.13863" lon="7.18859">
        <ele>0</ele>
        <time>0001-01-01T00:00:00Z</time>
      </trkpt>
      <trkpt lat="49.13874" lon="7.18901">
        <ele>0</ele>
        <time>0001-01-01T00:00:00Z</time>
      </trkpt>
      <trkpt lat="49.13902" lon="7.18972">
        <ele>0</ele>
        <time>0001-01-01T00:00:00Z</time>
      </trkpt>
      <trkpt lat="49.13955" lon="7.19089">
        <ele>0</ele>
        <time>0001-01-01T00:00:00Z</time>
      </trkpt>
      <trkpt lat="49.1398" lon="7.1916">
        <ele>0</ele>
        <time>0001-01-01T00:00:00Z</time>
      </trkpt>
      <trkpt lat="49.14154" lon="7.19953">
        <ele>0</ele>
        <time>0001-01-01T00:00:00Z</time>
      </trkpt>
      <trkpt lat="49.14169" lon="7.19997">
        <ele>0</ele>
        <time>0001-01-01T00:00:00Z</time>
      </trkpt>
      <trkpt lat="49.14177" lon="7.20014">
        <ele>0</ele>
        <time>0001-01-01T00:00:00Z</time>
      </trkpt>
      <trkpt lat="49.14185" lon="7.20028">
        <ele>0</ele>
        <time>0001-01-01T00:00:00Z</time>
      </trkpt>
      <trkpt lat="49.14215" lon="7.20062">
        <ele>0</ele>
        <time>0001-01-01T00:00:00Z</time>
      </trkpt>
      <trkpt lat="49.14489" lon="7.20309">
        <ele>0</ele>
        <time>0001-01-01T00:00:00Z</time>
      </trkpt>
      <trkpt lat="49.14574" lon="7.20396">
        <ele>0</ele>
        <time>0001-01-01T00:00:00Z</time>
      </trkpt>
      <trkpt lat="49.14598" lon="7.20416">
        <ele>0</ele>
        <time>0001-01-01T00:00:00Z</time>
      </trkpt>
      <trkpt lat="49.14648" lon="7.20452">
        <ele>0</ele>
        <time>0001-01-01T00:00:00Z</time>
      </trkpt>
      <trkpt lat="49.14678" lon="7.20486">
        <ele>0</ele>
        <time>0001-01-01T00:00:00Z</time>
      </trkpt>
      <trkpt lat="49.14701" lon="7.20521">
        <ele>0</ele>
        <time>0001-01-01T00:00:00Z</time>
      </trkpt>
      <trkpt lat="49.14722" lon="7.20561">
        <ele>0</ele>
        <time>0001-01-01T00:00:00Z</time>
      </trkpt>
      <trkpt lat="49.14751" lon="7.20626">
        <ele>0</ele>
        <time>0001-01-01T00:00:00Z</time>
      </trkpt>
      <trkpt lat="49.14757" lon="7.20654">
        <ele>0</ele>
        <time>0001-01-01T00:00:00Z</time>
      </trkpt>
      <trkpt lat="49.14757" lon="7.20671">
        <ele>0</ele>
        <time>0001-01-01T00:00:00Z</time>
      </trkpt>
      <trkpt lat="49.14753" lon="7.20697">
        <ele>0</ele>
        <time>0001-01-01T00:00:00Z</time>
      </trkpt>
      <trkpt lat="49.14735" lon="7.20776">
        <ele>0</ele>
        <time>0001-01-01T00:00:00Z</time>
      </trkpt>
      <trkpt lat="49.14724" lon="7.20843">
        <ele>0</ele>
        <time>0001-01-01T00:00:00Z</time>
      </trkpt>
      <trkpt lat="49.14724" lon="7.20847">
        <ele>0</ele>
        <time>0001-01-01T00:00:00Z</time>
      </trkpt>
      <trkpt lat="49.14715" lon="7.20905">
        <ele>0</ele>
        <time>0001-01-01T00:00:00Z</time>
      </trkpt>
      <trkpt lat="49.14713" lon="7.20913">
        <ele>0</ele>
        <time>0001-01-01T00:00:00Z</time>
      </trkpt>
      <trkpt lat="49.14713" lon="7.20919">
        <ele>0</ele>
        <time>0001-01-01T00:00:00Z</time>
      </trkpt>
      <trkpt lat="49.14712" lon="7.20924">
        <ele>0</ele>
        <time>0001-01-01T00:00:00Z</time>
      </trkpt>
      <trkpt lat="49.14719" lon="7.20929">
        <ele>0</ele>
        <time>0001-01-01T00:00:00Z</time>
      </trkpt>
      <trkpt lat="49.14741" lon="7.20936">
        <ele>0</ele>
        <time>0001-01-01T00:00:00Z</time>
      </trkpt>
      <trkpt lat="49.14757" lon="7.20944">
        <ele>0</ele>
        <time>0001-01-01T00:00:00Z</time>
      </trkpt>
      <trkpt lat="49.14766" lon="7.20947">
        <ele>0</ele>
        <time>0001-01-01T00:00:00Z</time>
      </trkpt>
      <trkpt lat="49.1481" lon="7.20968">
        <ele>0</ele>
        <time>0001-01-01T00:00:00Z</time>
      </trkpt>
      <trkpt lat="49.14894" lon="7.20996">
        <ele>0</ele>
        <time>0001-01-01T00:00:00Z</time>
      </trkpt>
      <trkpt lat="49.14921" lon="7.20993">
        <ele>0</ele>
        <time>0001-01-01T00:00:00Z</time>
      </trkpt>
      <trkpt lat="49.15045" lon="7.20971">
        <ele>0</ele>
        <time>0001-01-01T00:00:00Z</time>
      </trkpt>
      <trkpt lat="49.15092" lon="7.20968">
        <ele>0</ele>
        <time>0001-01-01T00:00:00Z</time>
      </trkpt>
      <trkpt lat="49.15168" lon="7.20967">
        <ele>0</ele>
        <time>0001-01-01T00:00:00Z</time>
      </trkpt>
      <trkpt lat="49.15238" lon="7.20972">
        <ele>0</ele>
        <time>0001-01-01T00:00:00Z</time>
      </trkpt>
      <trkpt lat="49.15283" lon="7.20982">
        <ele>0</ele>
        <time>0001-01-01T00:00:00Z</time>
      </trkpt>
      <trkpt lat="49.15294" lon="7.20989">
        <ele>0</ele>
        <time>0001-01-01T00:00:00Z</time>
      </trkpt>
      <trkpt lat="49.15319" lon="7.21002">
        <ele>0</ele>
        <time>0001-01-01T00:00:00Z</time>
      </trkpt>
      <trkpt lat="49.15347" lon="7.2102">
        <ele>0</ele>
        <time>0001-01-01T00:00:00Z</time>
      </trkpt>
      <trkpt lat="49.15375" lon="7.21048">
        <ele>0</ele>
        <time>0001-01-01T00:00:00Z</time>
      </trkpt>
      <trkpt lat="49.15443" lon="7.21125">
        <ele>0</ele>
        <time>0001-01-01T00:00:00Z</time>
      </trkpt>
      <trkpt lat="49.15471" lon="7.21163">
        <ele>0</ele>
        <time>0001-01-01T00:00:00Z</time>
      </trkpt>
      <trkpt lat="49.15493" lon="7.21187">
        <ele>0</ele>
        <time>0001-01-01T00:00:00Z</time>
      </trkpt>
      <trkpt lat="49.15495" lon="7.21188">
        <ele>0</ele>
        <time>0001-01-01T00:00:00Z</time>
      </trkpt>
      <trkpt lat="49.15499" lon="7.21188">
        <ele>0</ele>
        <time>0001-01-01T00:00:00Z</time>
      </trkpt>
      <trkpt lat="49.1551" lon="7.21197">
        <ele>0</ele>
        <time>0001-01-01T00:00:00Z</time>
      </trkpt>
      <trkpt lat="49.15537" lon="7.2121">
        <ele>0</ele>
        <time>0001-01-01T00:00:00Z</time>
      </trkpt>
      <trkpt lat="49.15582" lon="7.21228">
        <ele>0</ele>
        <time>0001-01-01T00:00:00Z</time>
      </trkpt>
      <trkpt lat="49.15733" lon="7.21299">
        <ele>0</ele>
        <time>0001-01-01T00:00:00Z</time>
      </trkpt>
      <trkpt lat="49.15741" lon="7.21304">
        <ele>0</ele>
        <time>0001-01-01T00:00:00Z</time>
      </trkpt>
      <trkpt lat="49.15897" lon="7.2146">
        <ele>0</ele>
        <time>0001-01-01T00:00:00Z</time>
      </trkpt>
      <trkpt lat="49.15936" lon="7.21496">
        <ele>0</ele>
        <time>0001-01-01T00:00:00Z</time>
      </trkpt>
      <trkpt lat="49.16028" lon="7.21568">
        <ele>0</ele>
        <time>0001-01-01T00:00:00Z</time>
      </trkpt>
      <trkpt lat="49.16051" lon="7.21594">
        <ele>0</ele>
        <time>0001-01-01T00:00:00Z</time>
      </trkpt>
      <trkpt lat="49.16069" lon="7.21625">
        <ele>0</ele>
        <time>0001-01-01T00:00:00Z</time>
      </trkpt>
      <trkpt lat="49.16256" lon="7.22009">
        <ele>0</ele>
        <time>0001-01-01T00:00:00Z</time>
      </trkpt>
      <trkpt lat="49.16356" lon="7.22154">
        <ele>0</ele>
        <time>0001-01-01T00:00:00Z</time>
      </trkpt>
      <trkpt lat="49.16389" lon="7.22213">
        <ele>0</ele>
        <time>0001-01-01T00:00:00Z</time>
      </trkpt>
      <trkpt lat="49.16443" lon="7.22323">
        <ele>0</ele>
        <time>0001-01-01T00:00:00Z</time>
      </trkpt>
      <trkpt lat="49.16479" lon="7.22387">
        <ele>0</ele>
        <time>0001-01-01T00:00:00Z</time>
      </trkpt>
      <trkpt lat="49.16603" lon="7.22582">
        <ele>0</ele>
        <time>0001-01-01T00:00:00Z</time>
      </trkpt>
      <trkpt lat="49.16629" lon="7.22634">
        <ele>0</ele>
        <time>0001-01-01T00:00:00Z</time>
      </trkpt>
      <trkpt lat="49.16637" lon="7.22654">
        <ele>0</ele>
        <time>0001-01-01T00:00:00Z</time>
      </trkpt>
      <trkpt lat="49.16662" lon="7.22687">
        <ele>0</ele>
        <time>0001-01-01T00:00:00Z</time>
      </trkpt>
      <trkpt lat="49.16691" lon="7.22721">
        <ele>0</ele>
        <time>0001-01-01T00:00:00Z</time>
      </trkpt>
      <trkpt lat="49.16698" lon="7.22704">
        <ele>0</ele>
        <time>0001-01-01T00:00:00Z</time>
      </trkpt>
      <trkpt lat="49.16701" lon="7.22693">
        <ele>0</ele>
        <time>0001-01-01T00:00:00Z</time>
      </trkpt>
      <trkpt lat="49.16701" lon="7.22682">
        <ele>0</ele>
        <time>0001-01-01T00:00:00Z</time>
      </trkpt>
      <trkpt lat="49.167" lon="7.22673">
        <ele>0</ele>
        <time>0001-01-01T00:00:00Z</time>
      </trkpt>
      <trkpt lat="49.16697" lon="7.22666">
        <ele>0</ele>
        <time>0001-01-01T00:00:00Z</time>
      </trkpt>
      <trkpt lat="49.16673" lon="7.22628">
        <ele>0</ele>
        <time>0001-01-01T00:00:00Z</time>
      </trkpt>
      <trkpt lat="49.16609" lon="7.22477">
        <ele>0</ele>
        <time>0001-01-01T00:00:00Z</time>
      </trkpt>
      <trkpt lat="49.16602" lon="7.22454">
        <ele>0</ele>
        <time>0001-01-01T00:00:00Z</time>
      </trkpt>
      <trkpt lat="49.16599" lon="7.22437">
        <ele>0</ele>
        <time>0001-01-01T00:00:00Z</time>
      </trkpt>
      <trkpt lat="49.16597" lon="7.224">
        <ele>0</ele>
        <time>0001-01-01T00:00:00Z</time>
      </trkpt>
      <trkpt lat="49.16599" lon="7.22392">
        <ele>0</ele>
        <time>0001-01-01T00:00:00Z</time>
      </trkpt>
      <trkpt lat="49.16602" lon="7.22372">
        <ele>0</ele>
        <time>0001-01-01T00:00:00Z</time>
      </trkpt>
      <trkpt lat="49.16617" lon="7.22328">
        <ele>0</ele>
        <time>0001-01-01T00:00:00Z</time>
      </trkpt>
      <trkpt lat="49.16623" lon="7.22317">
        <ele>0</ele>
        <time>0001-01-01T00:00:00Z</time>
      </trkpt>
      <trkpt lat="49.16653" lon="7.22271">
        <ele>0</ele>
        <time>0001-01-01T00:00:00Z</time>
      </trkpt>
      <trkpt lat="49.16667" lon="7.22245">
        <ele>0</ele>
        <time>0001-01-01T00:00:00Z</time>
      </trkpt>
      <trkpt lat="49.16683" lon="7.22208">
        <ele>0</ele>
        <time>0001-01-01T00:00:00Z</time>
      </trkpt>
      <trkpt lat="49.167" lon="7.22146">
        <ele>0</ele>
        <time>0001-01-01T00:00:00Z</time>
      </trkpt>
      <trkpt lat="49.16712" lon="7.22064">
        <ele>0</ele>
        <time>0001-01-01T00:00:00Z</time>
      </trkpt>
      <trkpt lat="49.16714" lon="7.22024">
        <ele>0</ele>
        <time>0001-01-01T00:00:00Z</time>
      </trkpt>
      <trkpt lat="49.16722" lon="7.21956">
        <ele>0</ele>
        <time>0001-01-01T00:00:00Z</time>
      </trkpt>
      <trkpt lat="49.16767" lon="7.21783">
        <ele>0</ele>
        <time>0001-01-01T00:00:00Z</time>
      </trkpt>
      <trkpt lat="49.1678" lon="7.2168">
        <ele>0</ele>
        <time>0001-01-01T00:00:00Z</time>
      </trkpt>
      <trkpt lat="49.16789" lon="7.21643">
        <ele>0</ele>
        <time>0001-01-01T00:00:00Z</time>
      </trkpt>
      <trkpt lat="49.16796" lon="7.21623">
        <ele>0</ele>
        <time>0001-01-01T00:00:00Z</time>
      </trkpt>
      <trkpt lat="49.16809" lon="7.21593">
        <ele>0</ele>
        <time>0001-01-01T00:00:00Z</time>
      </trkpt>
      <trkpt lat="49.16815" lon="7.21576">
        <ele>0</ele>
        <time>0001-01-01T00:00:00Z</time>
      </trkpt>
      <trkpt lat="49.16841" lon="7.21517">
        <ele>0</ele>
        <time>0001-01-01T00:00:00Z</time>
      </trkpt>
      <trkpt lat="49.16852" lon="7.21496">
        <ele>0</ele>
        <time>0001-01-01T00:00:00Z</time>
      </trkpt>
      <trkpt lat="49.16888" lon="7.21436">
        <ele>0</ele>
        <time>0001-01-01T00:00:00Z</time>
      </trkpt>
      <trkpt lat="49.16967" lon="7.21314">
        <ele>0</ele>
        <time>0001-01-01T00:00:00Z</time>
      </trkpt>
      <trkpt lat="49.1702" lon="7.21244">
        <ele>0</ele>
        <time>0001-01-01T00:00:00Z</time>
      </trkpt>
      <trkpt lat="49.17078" lon="7.2114">
        <ele>0</ele>
        <time>0001-01-01T00:00:00Z</time>
      </trkpt>
      <trkpt lat="49.17107" lon="7.21093">
        <ele>0</ele>
        <time>0001-01-01T00:00:00Z</time>
      </trkpt>
      <trkpt lat="49.17258" lon="7.20882">
        <ele>0</ele>
        <time>0001-01-01T00:00:00Z</time>
      </trkpt>
      <trkpt lat="49.1728" lon="7.20855">
        <ele>0</ele>
        <time>0001-01-01T00:00:00Z</time>
      </trkpt>
      <trkpt lat="49.17297" lon="7.20841">
        <ele>0</ele>
        <time>0001-01-01T00:00:00Z</time>
      </trkpt>
      <trkpt lat="49.17318" lon="7.20819">
        <ele>0</ele>
        <time>0001-01-01T00:00:00Z</time>
      </trkpt>
      <trkpt lat="49.17325" lon="7.20808">
        <ele>0</ele>
        <time>0001-01-01T00:00:00Z</time>
      </trkpt>
      <trkpt lat="49.17354" lon="7.2075">
        <ele>0</ele>
        <time>0001-01-01T00:00:00Z</time>
      </trkpt>
      <trkpt lat="49.17365" lon="7.20716">
        <ele>0</ele>
        <time>0001-01-01T00:00:00Z</time>
      </trkpt>
      <trkpt lat="49.17371" lon="7.20702">
        <ele>0</ele>
        <time>0001-01-01T00:00:00Z</time>
      </trkpt>
      <trkpt lat="49.17376" lon="7.20693">
        <ele>0</ele>
        <time>0001-01-01T00:00:00Z</time>
      </trkpt>
      <trkpt lat="49.1738" lon="7.20689">
        <ele>0</ele>
        <time>0001-01-01T00:00:00Z</time>
      </trkpt>
      <trkpt lat="49.17386" lon="7.20686">
        <ele>0</ele>
        <time>0001-01-01T00:00:00Z</time>
      </trkpt>
      <trkpt lat="49.17398" lon="7.20685">
        <ele>0</ele>
        <time>0001-01-01T00:00:00Z</time>
      </trkpt>
      <trkpt lat="49.17408" lon="7.20688">
        <ele>0</ele>
        <time>0001-01-01T00:00:00Z</time>
      </trkpt>
      <trkpt lat="49.17418" lon="7.20693">
        <ele>0</ele>
        <time>0001-01-01T00:00:00Z</time>
      </trkpt>
      <trkpt lat="49.17431" lon="7.20703">
        <ele>0</ele>
        <time>0001-01-01T00:00:00Z</time>
      </trkpt>
      <trkpt lat="49.17483" lon="7.20732">
        <ele>0</ele>
        <time>0001-01-01T00:00:00Z</time>
      </trkpt>
      <trkpt lat="49.17491" lon="7.20735">
        <ele>0</ele>
        <time>0001-01-01T00:00:00Z</time>
      </trkpt>
      <trkpt lat="49.17518" lon="7.20738">
        <ele>0</ele>
        <time>0001-01-01T00:00:00Z</time>
      </trkpt>
      <trkpt lat="49.1758" lon="7.20738">
        <ele>0</ele>
        <time>0001-01-01T00:00:00Z</time>
      </trkpt>
      <trkpt lat="49.17669" lon="7.20709">
        <ele>0</ele>
        <time>0001-01-01T00:00:00Z</time>
      </trkpt>
      <trkpt lat="49.17676" lon="7.20708">
        <ele>0</ele>
        <time>0001-01-01T00:00:00Z</time>
      </trkpt>
      <trkpt lat="49.17684" lon="7.20708">
        <ele>0</ele>
        <time>0001-01-01T00:00:00Z</time>
      </trkpt>
      <trkpt lat="49.17688" lon="7.20709">
        <ele>0</ele>
        <time>0001-01-01T00:00:00Z</time>
      </trkpt>
      <trkpt lat="49.17694" lon="7.20712">
        <ele>0</ele>
        <time>0001-01-01T00:00:00Z</time>
      </trkpt>
      <trkpt lat="49.17716" lon="7.20736">
        <ele>0</ele>
        <time>0001-01-01T00:00:00Z</time>
      </trkpt>
      <trkpt lat="49.17737" lon="7.20743">
        <ele>0</ele>
        <time>0001-01-01T00:00:00Z</time>
      </trkpt>
      <trkpt lat="49.17943" lon="7.20737">
        <ele>0</ele>
        <time>0001-01-01T00:00:00Z</time>
      </trkpt>
      <trkpt lat="49.18025" lon="7.20738">
        <ele>0</ele>
        <time>0001-01-01T00:00:00Z</time>
      </trkpt>
      <trkpt lat="49.18052" lon="7.20736">
        <ele>0</ele>
        <time>0001-01-01T00:00:00Z</time>
      </trkpt>
      <trkpt lat="49.18072" lon="7.2073">
        <ele>0</ele>
        <time>0001-01-01T00:00:00Z</time>
      </trkpt>
      <trkpt lat="49.18086" lon="7.20724">
        <ele>0</ele>
        <time>0001-01-01T00:00:00Z</time>
      </trkpt>
      <trkpt lat="49.18103" lon="7.2071">
        <ele>0</ele>
        <time>0001-01-01T00:00:00Z</time>
      </trkpt>
      <trkpt lat="49.18123" lon="7.2069">
        <ele>0</ele>
        <time>0001-01-01T00:00:00Z</time>
      </trkpt>
      <trkpt lat="49.18342" lon="7.20447">
        <ele>0</ele>
        <time>0001-01-01T00:00:00Z</time>
      </trkpt>
      <trkpt lat="49.18361" lon="7.20433">
        <ele>0</ele>
        <time>0001-01-01T00:00:00Z</time>
      </trkpt>
      <trkpt lat="49.18368" lon="7.20429">
        <ele>0</ele>
        <time>0001-01-01T00:00:00Z</time>
      </trkpt>
      <trkpt lat="49.1839" lon="7.20425">
        <ele>0</ele>
        <time>0001-01-01T00:00:00Z</time>
      </trkpt>
      <trkpt lat="49.18403" lon="7.20426">
        <ele>0</ele>
        <time>0001-01-01T00:00:00Z</time>
      </trkpt>
      <trkpt lat="49.18417" lon="7.2043">
        <ele>0</ele>
        <time>0001-01-01T00:00:00Z</time>
      </trkpt>
      <trkpt lat="49.18419" lon="7.20431">
        <ele>0</ele>
        <time>0001-01-01T00:00:00Z</time>
      </trkpt>
      <trkpt lat="49.18512" lon="7.20499">
        <ele>0</ele>
        <time>0001-01-01T00:00:00Z</time>
      </trkpt>
      <trkpt lat="49.18522" lon="7.20505">
        <ele>0</ele>
        <time>0001-01-01T00:00:00Z</time>
      </trkpt>
      <trkpt lat="49.18572" lon="7.20542">
        <ele>0</ele>
        <time>0001-01-01T00:00:00Z</time>
      </trkpt>
      <trkpt lat="49.18587" lon="7.20551">
        <ele>0</ele>
        <time>0001-01-01T00:00:00Z</time>
      </trkpt>
      <trkpt lat="49.18598" lon="7.20552">
        <ele>0</ele>
        <time>0001-01-01T00:00:00Z</time>
      </trkpt>
      <trkpt lat="49.18613" lon="7.2055">
        <ele>0</ele>
        <time>0001-01-01T00:00:00Z</time>
      </trkpt>
      <trkpt lat="49.18623" lon="7.20542">
        <ele>0</ele>
        <time>0001-01-01T00:00:00Z</time>
      </trkpt>
      <trkpt lat="49.18628" lon="7.20534">
        <ele>0</ele>
        <time>0001-01-01T00:00:00Z</time>
      </trkpt>
      <trkpt lat="49.18638" lon="7.20508">
        <ele>0</ele>
        <time>0001-01-01T00:00:00Z</time>
      </trkpt>
      <trkpt lat="49.18641" lon="7.20492">
        <ele>0</ele>
        <time>0001-01-01T00:00:00Z</time>
      </trkpt>
      <trkpt lat="49.18659" lon="7.20333">
        <ele>0</ele>
        <time>0001-01-01T00:00:00Z</time>
      </trkpt>
      <trkpt lat="49.18663" lon="7.20314">
        <ele>0</ele>
        <time>0001-01-01T00:00:00Z</time>
      </trkpt>
      <trkpt lat="49.18677" lon="7.20267">
        <ele>0</ele>
        <time>0001-01-01T00:00:00Z</time>
      </trkpt>
      <trkpt lat="49.18696" lon="7.20231">
        <ele>0</ele>
        <time>0001-01-01T00:00:00Z</time>
      </trkpt>
      <trkpt lat="49.18714" lon="7.20207">
        <ele>0</ele>
        <time>0001-01-01T00:00:00Z</time>
      </trkpt>
      <trkpt lat="49.18726" lon="7.20196">
        <ele>0</ele>
        <time>0001-01-01T00:00:00Z</time>
      </trkpt>
      <trkpt lat="49.18734" lon="7.2019">
        <ele>0</ele>
        <time>0001-01-01T00:00:00Z</time>
      </trkpt>
      <trkpt lat="49.18762" lon="7.20182">
        <ele>0</ele>
        <time>0001-01-01T00:00:00Z</time>
      </trkpt>
      <trkpt lat="49.18833" lon="7.20181">
        <ele>0</ele>
        <time>0001-01-01T00:00:00Z</time>
      </trkpt>
      <trkpt lat="49.18837" lon="7.2018">
        <ele>0</ele>
        <time>0001-01-01T00:00:00Z</time>
      </trkpt>
      <trkpt lat="49.18858" lon="7.20169">
        <ele>0</ele>
        <time>0001-01-01T00:00:00Z</time>
      </trkpt>
      <trkpt lat="49.18863" lon="7.20163">
        <ele>0</ele>
        <time>0001-01-01T00:00:00Z</time>
      </trkpt>
      <trkpt lat="49.18873" lon="7.20154">
        <ele>0</ele>
        <time>0001-01-01T00:00:00Z</time>
      </trkpt>
      <trkpt lat="49.18877" lon="7.20147">
        <ele>0</ele>
        <time>0001-01-01T00:00:00Z</time>
      </trkpt>
      <trkpt lat="49.18888" lon="7.2012">
        <ele>0</ele>
        <time>0001-01-01T00:00:00Z</time>
      </trkpt>
      <trkpt lat="49.18916" lon="7.20002">
        <ele>0</ele>
        <time>0001-01-01T00:00:00Z</time>
      </trkpt>
      <trkpt lat="49.1892" lon="7.19977">
        <ele>0</ele>
        <time>0001-01-01T00:00:00Z</time>
      </trkpt>
      <trkpt lat="49.18921" lon="7.19949">
        <ele>0</ele>
        <time>0001-01-01T00:00:00Z</time>
      </trkpt>
      <trkpt lat="49.1892" lon="7.19932">
        <ele>0</ele>
        <time>0001-01-01T00:00:00Z</time>
      </trkpt>
      <trkpt lat="49.18918" lon="7.19922">
        <ele>0</ele>
        <time>0001-01-01T00:00:00Z</time>
      </trkpt>
      <trkpt lat="49.18918" lon="7.19918">
        <ele>0</ele>
        <time>0001-01-01T00:00:00Z</time>
      </trkpt>
      <trkpt lat="49.18909" lon="7.19886">
        <ele>0</ele>
        <time>0001-01-01T00:00:00Z</time>
      </trkpt>
      <trkpt lat="49.18876" lon="7.19788">
        <ele>0</ele>
        <time>0001-01-01T00:00:00Z</time>
      </trkpt>
      <trkpt lat="49.18865" lon="7.19761">
        <ele>0</ele>
        <time>0001-01-01T00:00:00Z</time>
      </trkpt>
      <trkpt lat="49.18846" lon="7.19728">
        <ele>0</ele>
        <time>0001-01-01T00:00:00Z</time>
      </trkpt>
      <trkpt lat="49.18785" lon="7.19636">
        <ele>0</ele>
        <time>0001-01-01T00:00:00Z</time>
      </trkpt>
      <trkpt lat="49.18777" lon="7.19615">
        <ele>0</ele>
        <time>0001-01-01T00:00:00Z</time>
      </trkpt>
      <trkpt lat="49.18775" lon="7.19603">
        <ele>0</ele>
        <time>0001-01-01T00:00:00Z</time>
      </trkpt>
      <trkpt lat="49.18775" lon="7.19587">
        <ele>0</ele>
        <time>0001-01-01T00:00:00Z</time>
      </trkpt>
      <trkpt lat="49.18778" lon="7.19569">
        <ele>0</ele>
        <time>0001-01-01T00:00:00Z</time>
      </trkpt>
      <trkpt lat="49.18784" lon="7.19552">
        <ele>0</ele>
        <time>0001-01-01T00:00:00Z</time>
      </trkpt>
      <trkpt lat="49.18796" lon="7.19532">
        <ele>0</ele>
        <time>0001-01-01T00:00:00Z</time>
      </trkpt>
      <trkpt lat="49.19" lon="7.19295">
        <ele>0</ele>
        <time>0001-01-01T00:00:00Z</time>
      </trkpt>
      <trkpt lat="49.19023" lon="7.19275">
        <ele>0</ele>
        <time>0001-01-01T00:00:00Z</time>
      </trkpt>
      <trkpt lat="49.1903" lon="7.1927">
        <ele>0</ele>
        <time>0001-01-01T00:00:00Z</time>
      </trkpt>
      <trkpt lat="49.19041" lon="7.19266">
        <ele>0</ele>
        <time>0001-01-01T00:00:00Z</time>
      </trkpt>
      <trkpt lat="49.19056" lon="7.19263">
        <ele>0</ele>
        <time>0001-01-01T00:00:00Z</time>
      </trkpt>
      <trkpt lat="49.19072" lon="7.19263">
        <ele>0</ele>
        <time>0001-01-01T00:00:00Z</time>
      </trkpt>
      <trkpt lat="49.1909" lon="7.19269">
        <ele>0</ele>
        <time>0001-01-01T00:00:00Z</time>
      </trkpt>
      <trkpt lat="49.19165" lon="7.19336">
        <ele>0</ele>
        <time>0001-01-01T00:00:00Z</time>
      </trkpt>
      <trkpt lat="49.19173" lon="7.19339">
        <ele>0</ele>
        <time>0001-01-01T00:00:00Z</time>
      </trkpt>
      <trkpt lat="49.19182" lon="7.19338">
        <ele>0</ele>
        <time>0001-01-01T00:00:00Z</time>
      </trkpt>
      <trkpt lat="49.19191" lon="7.19334">
        <ele>0</ele>
        <time>0001-01-01T00:00:00Z</time>
      </trkpt>
      <trkpt lat="49.19201" lon="7.19321">
        <ele>0</ele>
        <time>0001-01-01T00:00:00Z</time>
      </trkpt>
      <trkpt lat="49.19207" lon="7.19308">
        <ele>0</ele>
        <time>0001-01-01T00:00:00Z</time>
      </trkpt>
      <trkpt lat="49.19209" lon="7.19298">
        <ele>0</ele>
        <time>0001-01-01T00:00:00Z</time>
      </trkpt>
      <trkpt lat="49.19214" lon="7.19236">
        <ele>0</ele>
        <time>0001-01-01T00:00:00Z</time>
      </trkpt>
      <trkpt lat="49.19221" lon="7.1921">
        <ele>0</ele>
        <time>0001-01-01T00:00:00Z</time>
      </trkpt>
      <trkpt lat="49.19234" lon="7.19188">
        <ele>0</ele>
        <time>0001-01-01T00:00:00Z</time>
      </trkpt>
      <trkpt lat="49.19247" lon="7.19175">
        <ele>0</ele>
        <time>0001-01-01T00:00:00Z</time>
      </trkpt>
      <trkpt lat="49.19266" lon="7.19163">
        <ele>0</ele>
        <time>0001-01-01T00:00:00Z</time>
      </trkpt>
      <trkpt lat="49.19357" lon="7.19117">
        <ele>0</ele>
        <time>0001-01-01T00:00:00Z</time>
      </trkpt>
      <trkpt lat="49.19398" lon="7.19094">
        <ele>0</ele>
        <time>0001-01-01T00:00:00Z</time>
      </trkpt>
      <trkpt lat="49.19414" lon="7.19079">
        <ele>0</ele>
        <time>0001-01-01T00:00:00Z</time>
      </trkpt>
      <trkpt lat="49.19424" lon="7.19066">
        <ele>0</ele>
        <time>0001-01-01T00:00:00Z</time>
      </trkpt>
      <trkpt lat="49.19435" lon="7.19041">
        <ele>0</ele>
        <time>0001-01-01T00:00:00Z</time>
      </trkpt>
      <trkpt lat="49.19443" lon="7.19016">
        <ele>0</ele>
        <time>0001-01-01T00:00:00Z</time>
      </trkpt>
      <trkpt lat="49.19472" lon="7.18891">
        <ele>0</ele>
        <time>0001-01-01T00:00:00Z</time>
      </trkpt>
      <trkpt lat="49.19478" lon="7.18879">
        <ele>0</ele>
        <time>0001-01-01T00:00:00Z</time>
      </trkpt>
      <trkpt lat="49.19482" lon="7.18868">
        <ele>0</ele>
        <time>0001-01-01T00:00:00Z</time>
      </trkpt>
      <trkpt lat="49.19496" lon="7.18851">
        <ele>0</ele>
        <time>0001-01-01T00:00:00Z</time>
      </trkpt>
      <trkpt lat="49.19513" lon="7.18834">
        <ele>0</ele>
        <time>0001-01-01T00:00:00Z</time>
      </trkpt>
      <trkpt lat="49.19525" lon="7.1882">
        <ele>0</ele>
        <time>0001-01-01T00:00:00Z</time>
      </trkpt>
      <trkpt lat="49.19535" lon="7.18791">
        <ele>0</ele>
        <time>0001-01-01T00:00:00Z</time>
      </trkpt>
      <trkpt lat="49.19547" lon="7.18744">
        <ele>0</ele>
        <time>0001-01-01T00:00:00Z</time>
      </trkpt>
      <trkpt lat="49.19556" lon="7.18605">
        <ele>0</ele>
        <time>0001-01-01T00:00:00Z</time>
      </trkpt>
      <trkpt lat="49.19549" lon="7.18428">
        <ele>0</ele>
        <time>0001-01-01T00:00:00Z</time>
      </trkpt>
      <trkpt lat="49.19541" lon="7.18356">
        <ele>0</ele>
        <time>0001-01-01T00:00:00Z</time>
      </trkpt>
      <trkpt lat="49.19519" lon="7.18072">
        <ele>0</ele>
        <time>0001-01-01T00:00:00Z</time>
      </trkpt>
      <trkpt lat="49.19519" lon="7.18059">
        <ele>0</ele>
        <time>0001-01-01T00:00:00Z</time>
      </trkpt>
      <trkpt lat="49.1952" lon="7.18049">
        <ele>0</ele>
        <time>0001-01-01T00:00:00Z</time>
      </trkpt>
      <trkpt lat="49.19522" lon="7.18043">
        <ele>0</ele>
        <time>0001-01-01T00:00:00Z</time>
      </trkpt>
      <trkpt lat="49.19528" lon="7.18032">
        <ele>0</ele>
        <time>0001-01-01T00:00:00Z</time>
      </trkpt>
      <trkpt lat="49.19538" lon="7.18023">
        <ele>0</ele>
        <time>0001-01-01T00:00:00Z</time>
      </trkpt>
      <trkpt lat="49.19547" lon="7.18019">
        <ele>0</ele>
        <time>0001-01-01T00:00:00Z</time>
      </trkpt>
      <trkpt lat="49.19552" lon="7.18018">
        <ele>0</ele>
        <time>0001-01-01T00:00:00Z</time>
      </trkpt>
      <trkpt lat="49.19565" lon="7.18018">
        <ele>0</ele>
        <time>0001-01-01T00:00:00Z</time>
      </trkpt>
      <trkpt lat="49.19579" lon="7.18022">
        <ele>0</ele>
        <time>0001-01-01T00:00:00Z</time>
      </trkpt>
      <trkpt lat="49.19591" lon="7.18028">
        <ele>0</ele>
        <time>0001-01-01T00:00:00Z</time>
      </trkpt>
      <trkpt lat="49.19617" lon="7.18045">
        <ele>0</ele>
        <time>0001-01-01T00:00:00Z</time>
      </trkpt>
      <trkpt lat="49.19625" lon="7.18048">
        <ele>0</ele>
        <time>0001-01-01T00:00:00Z</time>
      </trkpt>
      <trkpt lat="49.19633" lon="7.18049">
        <ele>0</ele>
        <time>0001-01-01T00:00:00Z</time>
      </trkpt>
      <trkpt lat="49.19639" lon="7.18047">
        <ele>0</ele>
        <time>0001-01-01T00:00:00Z</time>
      </trkpt>
      <trkpt lat="49.19645" lon="7.18043">
        <ele>0</ele>
        <time>0001-01-01T00:00:00Z</time>
      </trkpt>
      <trkpt lat="49.19649" lon="7.18037">
        <ele>0</ele>
        <time>0001-01-01T00:00:00Z</time>
      </trkpt>
      <trkpt lat="49.19659" lon="7.18015">
        <ele>0</ele>
        <time>0001-01-01T00:00:00Z</time>
      </trkpt>
      <trkpt lat="49.19663" lon="7.17995">
        <ele>0</ele>
        <time>0001-01-01T00:00:00Z</time>
      </trkpt>
      <trkpt lat="49.19664" lon="7.17983">
        <ele>0</ele>
        <time>0001-01-01T00:00:00Z</time>
      </trkpt>
      <trkpt lat="49.19664" lon="7.17933">
        <ele>0</ele>
        <time>0001-01-01T00:00:00Z</time>
      </trkpt>
      <trkpt lat="49.19671" lon="7.17882">
        <ele>0</ele>
        <time>0001-01-01T00:00:00Z</time>
      </trkpt>
      <trkpt lat="49.19683" lon="7.17862">
        <ele>0</ele>
        <time>0001-01-01T00:00:00Z</time>
      </trkpt>
      <trkpt lat="49.19687" lon="7.17857">
        <ele>0</ele>
        <time>0001-01-01T00:00:00Z</time>
      </trkpt>
      <trkpt lat="49.19717" lon="7.17835">
        <ele>0</ele>
        <time>0001-01-01T00:00:00Z</time>
      </trkpt>
      <trkpt lat="49.19726" lon="7.17827">
        <ele>0</ele>
        <time>0001-01-01T00:00:00Z</time>
      </trkpt>
      <trkpt lat="49.19762" lon="7.17785">
        <ele>0</ele>
        <time>0001-01-01T00:00:00Z</time>
      </trkpt>
      <trkpt lat="49.19782" lon="7.1777">
        <ele>0</ele>
        <time>0001-01-01T00:00:00Z</time>
      </trkpt>
      <trkpt lat="49.19808" lon="7.17754">
        <ele>0</ele>
        <time>0001-01-01T00:00:00Z</time>
      </trkpt>
      <trkpt lat="49.19814" lon="7.17747">
        <ele>0</ele>
        <time>0001-01-01T00:00:00Z</time>
      </trkpt>
      <trkpt lat="49.19832" lon="7.17719">
        <ele>0</ele>
        <time>0001-01-01T00:00:00Z</time>
      </trkpt>
      <trkpt lat="49.1988" lon="7.1763">
        <ele>0</ele>
        <time>0001-01-01T00:00:00Z</time>
      </trkpt>
      <trkpt lat="49.19931" lon="7.17577">
        <ele>0</ele>
        <time>0001-01-01T00:00:00Z</time>
      </trkpt>
      <trkpt lat="49.19973" lon="7.1754">
        <ele>0</ele>
        <time>0001-01-01T00:00:00Z</time>
      </trkpt>
      <trkpt lat="49.20217" lon="7.17367">
        <ele>0</ele>
        <time>0001-01-01T00:00:00Z</time>
      </trkpt>
      <trkpt lat="49.20242" lon="7.17344">
        <ele>0</ele>
        <time>0001-01-01T00:00:00Z</time>
      </trkpt>
      <trkpt lat="49.20248" lon="7.17333">
        <ele>0</ele>
        <time>0001-01-01T00:00:00Z</time>
      </trkpt>
      <trkpt lat="49.20589" lon="7.17569">
        <ele>0</ele>
        <time>0001-01-01T00:00:00Z</time>
      </trkpt>
      <trkpt lat="49.20663" lon="7.17613">
        <ele>0</ele>
        <time>0001-01-01T00:00:00Z</time>
      </trkpt>
      <trkpt lat="49.20668" lon="7.17623">
        <ele>0</ele>
        <time>0001-01-01T00:00:00Z</time>
      </trkpt>
      <trkpt lat="49.20711" lon="7.17659">
        <ele>0</ele>
        <time>0001-01-01T00:00:00Z</time>
      </trkpt>
      <trkpt lat="49.20828" lon="7.17744">
        <ele>0</ele>
        <time>0001-01-01T00:00:00Z</time>
      </trkpt>
      <trkpt lat="49.20838" lon="7.17745">
        <ele>0</ele>
        <time>0001-01-01T00:00:00Z</time>
      </trkpt>
      <trkpt lat="49.20922" lon="7.17803">
        <ele>0</ele>
        <time>0001-01-01T00:00:00Z</time>
      </trkpt>
      <trkpt lat="49.20994" lon="7.17861">
        <ele>0</ele>
        <time>0001-01-01T00:00:00Z</time>
      </trkpt>
      <trkpt lat="49.21127" lon="7.17986">
        <ele>0</ele>
        <time>0001-01-01T00:00:00Z</time>
      </trkpt>
      <trkpt lat="49.2128" lon="7.18153">
        <ele>0</ele>
        <time>0001-01-01T00:00:00Z</time>
      </trkpt>
      <trkpt lat="49.2132" lon="7.18203">
        <ele>0</ele>
        <time>0001-01-01T00:00:00Z</time>
      </trkpt>
      <trkpt lat="49.21419" lon="7.18346">
        <ele>0</ele>
        <time>0001-01-01T00:00:00Z</time>
      </trkpt>
      <trkpt lat="49.21525" lon="7.1852">
        <ele>0</ele>
        <time>0001-01-01T00:00:00Z</time>
      </trkpt>
      <trkpt lat="49.21632" lon="7.18717">
        <ele>0</ele>
        <time>0001-01-01T00:00:00Z</time>
      </trkpt>
      <trkpt lat="49.21635" lon="7.18726">
        <ele>0</ele>
        <time>0001-01-01T00:00:00Z</time>
      </trkpt>
      <trkpt lat="49.21653" lon="7.1875">
        <ele>0</ele>
        <time>0001-01-01T00:00:00Z</time>
      </trkpt>
      <trkpt lat="49.21653" lon="7.18756">
        <ele>0</ele>
        <time>0001-01-01T00:00:00Z</time>
      </trkpt>
      <trkpt lat="49.21654" lon="7.18756">
        <ele>0</ele>
        <time>0001-01-01T00:00:00Z</time>
      </trkpt>
      <trkpt lat="49.21654" lon="7.18759">
        <ele>0</ele>
        <time>0001-01-01T00:00:00Z</time>
      </trkpt>
      <trkpt lat="49.21655" lon="7.1876">
        <ele>0</ele>
        <time>0001-01-01T00:00:00Z</time>
      </trkpt>
      <trkpt lat="49.21655" lon="7.18762">
        <ele>0</ele>
        <time>0001-01-01T00:00:00Z</time>
      </trkpt>
      <trkpt lat="49.21656" lon="7.18762">
        <ele>0</ele>
        <time>0001-01-01T00:00:00Z</time>
      </trkpt>
      <trkpt lat="49.21656" lon="7.18763">
        <ele>0</ele>
        <time>0001-01-01T00:00:00Z</time>
      </trkpt>
      <trkpt lat="49.21658" lon="7.18765">
        <ele>0</ele>
        <time>0001-01-01T00:00:00Z</time>
      </trkpt>
      <trkpt lat="49.21658" lon="7.18766">
        <ele>0</ele>
        <time>0001-01-01T00:00:00Z</time>
      </trkpt>
      <trkpt lat="49.2166" lon="7.18766">
        <ele>0</ele>
        <time>0001-01-01T00:00:00Z</time>
      </trkpt>
      <trkpt lat="49.2166" lon="7.18767">
        <ele>0</ele>
        <time>0001-01-01T00:00:00Z</time>
      </trkpt>
      <trkpt lat="49.21666" lon="7.18767">
        <ele>0</ele>
        <time>0001-01-01T00:00:00Z</time>
      </trkpt>
      <trkpt lat="49.21667" lon="7.18766">
        <ele>0</ele>
        <time>0001-01-01T00:00:00Z</time>
      </trkpt>
      <trkpt lat="49.21668" lon="7.18766">
        <ele>0</ele>
        <time>0001-01-01T00:00:00Z</time>
      </trkpt>
      <trkpt lat="49.21668" lon="7.18765">
        <ele>0</ele>
        <time>0001-01-01T00:00:00Z</time>
      </trkpt>
      <trkpt lat="49.21669" lon="7.18765">
        <ele>0</ele>
        <time>0001-01-01T00:00:00Z</time>
      </trkpt>
      <trkpt lat="49.21669" lon="7.18764">
        <ele>0</ele>
        <time>0001-01-01T00:00:00Z</time>
      </trkpt>
      <trkpt lat="49.2167" lon="7.18763">
        <ele>0</ele>
        <time>0001-01-01T00:00:00Z</time>
      </trkpt>
      <trkpt lat="49.2167" lon="7.18762">
        <ele>0</ele>
        <time>0001-01-01T00:00:00Z</time>
      </trkpt>
      <trkpt lat="49.21671" lon="7.18762">
        <ele>0</ele>
        <time>0001-01-01T00:00:00Z</time>
      </trkpt>
      <trkpt lat="49.21671" lon="7.18761">
        <ele>0</ele>
        <time>0001-01-01T00:00:00Z</time>
      </trkpt>
      <trkpt lat="49.21672" lon="7.1876">
        <ele>0</ele>
        <time>0001-01-01T00:00:00Z</time>
      </trkpt>
      <trkpt lat="49.21672" lon="7.18757">
        <ele>0</ele>
        <time>0001-01-01T00:00:00Z</time>
      </trkpt>
      <trkpt lat="49.21673" lon="7.18757">
        <ele>0</ele>
        <time>0001-01-01T00:00:00Z</time>
      </trkpt>
      <trkpt lat="49.21673" lon="7.18754">
        <ele>0</ele>
        <time>0001-01-01T00:00:00Z</time>
      </trkpt>
      <trkpt lat="49.21689" lon="7.18723">
        <ele>0</ele>
        <time>0001-01-01T00:00:00Z</time>
      </trkpt>
      <trkpt lat="49.21694" lon="7.1871">
        <ele>0</ele>
        <time>0001-01-01T00:00:00Z</time>
      </trkpt>
      <trkpt lat="49.21705" lon="7.18708">
        <ele>0</ele>
        <time>0001-01-01T00:00:00Z</time>
      </trkpt>
      <trkpt lat="49.22042" lon="7.18516">
        <ele>0</ele>
        <time>0001-01-01T00:00:00Z</time>
      </trkpt>
      <trkpt lat="49.22081" lon="7.1848">
        <ele>0</ele>
        <time>0001-01-01T00:00:00Z</time>
      </trkpt>
      <trkpt lat="49.22132" lon="7.18405">
        <ele>0</ele>
        <time>0001-01-01T00:00:00Z</time>
      </trkpt>
      <trkpt lat="49.22171" lon="7.18366">
        <ele>0</ele>
        <time>0001-01-01T00:00:00Z</time>
      </trkpt>
      <trkpt lat="49.2219" lon="7.18354">
        <ele>0</ele>
        <time>0001-01-01T00:00:00Z</time>
      </trkpt>
      <trkpt lat="49.2222" lon="7.18341">
        <ele>0</ele>
        <time>0001-01-01T00:00:00Z</time>
      </trkpt>
      <trkpt lat="49.22239" lon="7.18336">
        <ele>0</ele>
        <time>0001-01-01T00:00:00Z</time>
      </trkpt>
      <trkpt lat="49.22266" lon="7.18332">
        <ele>0</ele>
        <time>0001-01-01T00:00:00Z</time>
      </trkpt>
      <trkpt lat="49.22699" lon="7.18328">
        <ele>0</ele>
        <time>0001-01-01T00:00:00Z</time>
      </trkpt>
      <trkpt lat="49.2273" lon="7.18331">
        <ele>0</ele>
        <time>0001-01-01T00:00:00Z</time>
      </trkpt>
      <trkpt lat="49.22741" lon="7.18333">
        <ele>0</ele>
        <time>0001-01-01T00:00:00Z</time>
      </trkpt>
      <trkpt lat="49.22752" lon="7.18338">
        <ele>0</ele>
        <time>0001-01-01T00:00:00Z</time>
      </trkpt>
      <trkpt lat="49.22769" lon="7.18343">
        <ele>0</ele>
        <time>0001-01-01T00:00:00Z</time>
      </trkpt>
      <trkpt lat="49.22779" lon="7.18349">
        <ele>0</ele>
        <time>0001-01-01T00:00:00Z</time>
      </trkpt>
      <trkpt lat="49.22796" lon="7.18365">
        <ele>0</ele>
        <time>0001-01-01T00:00:00Z</time>
      </trkpt>
      <trkpt lat="49.22814" lon="7.18404">
        <ele>0</ele>
        <time>0001-01-01T00:00:00Z</time>
      </trkpt>
      <trkpt lat="49.22833" lon="7.1847">
        <ele>0</ele>
        <time>0001-01-01T00:00:00Z</time>
      </trkpt>
      <trkpt lat="49.22852" lon="7.18517">
        <ele>0</ele>
        <time>0001-01-01T00:00:00Z</time>
      </trkpt>
      <trkpt lat="49.22887" lon="7.18568">
        <ele>0</ele>
        <time>0001-01-01T00:00:00Z</time>
      </trkpt>
      <trkpt lat="49.22895" lon="7.18592">
        <ele>0</ele>
        <time>0001-01-01T00:00:00Z</time>
      </trkpt>
      <trkpt lat="49.229" lon="7.18619">
        <ele>0</ele>
        <time>0001-01-01T00:00:00Z</time>
      </trkpt>
      <trkpt lat="49.22901" lon="7.18635">
        <ele>0</ele>
        <time>0001-01-01T00:00:00Z</time>
      </trkpt>
      <trkpt lat="49.229" lon="7.18639">
        <ele>0</ele>
        <time>0001-01-01T00:00:00Z</time>
      </trkpt>
      <trkpt lat="49.22897" lon="7.18706">
        <ele>0</ele>
        <time>0001-01-01T00:00:00Z</time>
      </trkpt>
      <trkpt lat="49.229" lon="7.18747">
        <ele>0</ele>
        <time>0001-01-01T00:00:00Z</time>
      </trkpt>
      <trkpt lat="49.22904" lon="7.18768">
        <ele>0</ele>
        <time>0001-01-01T00:00:00Z</time>
      </trkpt>
      <trkpt lat="49.2291" lon="7.18788">
        <ele>0</ele>
        <time>0001-01-01T00:00:00Z</time>
      </trkpt>
      <trkpt lat="49.22985" lon="7.18959">
        <ele>0</ele>
        <time>0001-01-01T00:00:00Z</time>
      </trkpt>
      <trkpt lat="49.23021" lon="7.19032">
        <ele>0</ele>
        <time>0001-01-01T00:00:00Z</time>
      </trkpt>
      <trkpt lat="49.23031" lon="7.19059">
        <ele>0</ele>
        <time>0001-01-01T00:00:00Z</time>
      </trkpt>
      <trkpt lat="49.23037" lon="7.1909">
        <ele>0</ele>
        <time>0001-01-01T00:00:00Z</time>
      </trkpt>
      <trkpt lat="49.23039" lon="7.19107">
        <ele>0</ele>
        <time>0001-01-01T00:00:00Z</time>
      </trkpt>
      <trkpt lat="49.23042" lon="7.19201">
        <ele>0</ele>
        <time>0001-01-01T00:00:00Z</time>
      </trkpt>
      <trkpt lat="49.23044" lon="7.19213">
        <ele>0</ele>
        <time>0001-01-01T00:00:00Z</time>
      </trkpt>
      <trkpt lat="49.23051" lon="7.19232">
        <ele>0</ele>
        <time>0001-01-01T00:00:00Z</time>
      </trkpt>
      <trkpt lat="49.23062" lon="7.1925">
        <ele>0</ele>
        <time>0001-01-01T00:00:00Z</time>
      </trkpt>
      <trkpt lat="49.23069" lon="7.19258">
        <ele>0</ele>
        <time>0001-01-01T00:00:00Z</time>
      </trkpt>
      <trkpt lat="49.23081" lon="7.19268">
        <ele>0</ele>
        <time>0001-01-01T00:00:00Z</time>
      </trkpt>
      <trkpt lat="49.23118" lon="7.19308">
        <ele>0</ele>
        <time>0001-01-01T00:00:00Z</time>
      </trkpt>
      <trkpt lat="49.23145" lon="7.19332">
        <ele>0</ele>
        <time>0001-01-01T00:00:00Z</time>
      </trkpt>
      <trkpt lat="49.23154" lon="7.19337">
        <ele>0</ele>
        <time>0001-01-01T00:00:00Z</time>
      </trkpt>
      <trkpt lat="49.23163" lon="7.1934">
        <ele>0</ele>
        <time>0001-01-01T00:00:00Z</time>
      </trkpt>
      <trkpt lat="49.23176" lon="7.19342">
        <ele>0</ele>
        <time>0001-01-01T00:00:00Z</time>
      </trkpt>
      <trkpt lat="49.23223" lon="7.19338">
        <ele>0</ele>
        <time>0001-01-01T00:00:00Z</time>
      </trkpt>
      <trkpt lat="49.23242" lon="7.19339">
        <ele>0</ele>
        <time>0001-01-01T00:00:00Z</time>
      </trkpt>
      <trkpt lat="49.23259" lon="7.19345">
        <ele>0</ele>
        <time>0001-01-01T00:00:00Z</time>
      </trkpt>
      <trkpt lat="49.23283" lon="7.19357">
        <ele>0</ele>
        <time>0001-01-01T00:00:00Z</time>
      </trkpt>
      <trkpt lat="49.23291" lon="7.19359">
        <ele>0</ele>
        <time>0001-01-01T00:00:00Z</time>
      </trkpt>
      <trkpt lat="49.23298" lon="7.19359">
        <ele>0</ele>
        <time>0001-01-01T00:00:00Z</time>
      </trkpt>
      <trkpt lat="49.23303" lon="7.19357">
        <ele>0</ele>
        <time>0001-01-01T00:00:00Z</time>
      </trkpt>
      <trkpt lat="49.23312" lon="7.19351">
        <ele>0</ele>
        <time>0001-01-01T00:00:00Z</time>
      </trkpt>
      <trkpt lat="49.2333" lon="7.19319">
        <ele>0</ele>
        <time>0001-01-01T00:00:00Z</time>
      </trkpt>
      <trkpt lat="49.23335" lon="7.19312">
        <ele>0</ele>
        <time>0001-01-01T00:00:00Z</time>
      </trkpt>
      <trkpt lat="49.23343" lon="7.19303">
        <ele>0</ele>
        <time>0001-01-01T00:00:00Z</time>
      </trkpt>
      <trkpt lat="49.23352" lon="7.19297">
        <ele>0</ele>
        <time>0001-01-01T00:00:00Z</time>
      </trkpt>
      <trkpt lat="49.23361" lon="7.19294">
        <ele>0</ele>
        <time>0001-01-01T00:00:00Z</time>
      </trkpt>
      <trkpt lat="49.23372" lon="7.19294">
        <ele>0</ele>
        <time>0001-01-01T00:00:00Z</time>
      </trkpt>
      <trkpt lat="49.23394" lon="7.19299">
        <ele>0</ele>
        <time>0001-01-01T00:00:00Z</time>
      </trkpt>
      <trkpt lat="49.23404" lon="7.19298">
        <ele>0</ele>
        <time>0001-01-01T00:00:00Z</time>
      </trkpt>
      <trkpt lat="49.23414" lon="7.19292">
        <ele>0</ele>
        <time>0001-01-01T00:00:00Z</time>
      </trkpt>
      <trkpt lat="49.23425" lon="7.19278">
        <ele>0</ele>
        <time>0001-01-01T00:00:00Z</time>
      </trkpt>
      <trkpt lat="49.23432" lon="7.19256">
        <ele>0</ele>
        <time>0001-01-01T00:00:00Z</time>
      </trkpt>
      <trkpt lat="49.23432" lon="7.19247">
        <ele>0</ele>
        <time>0001-01-01T00:00:00Z</time>
      </trkpt>
      <trkpt lat="49.2343" lon="7.19227">
        <ele>0</ele>
        <time>0001-01-01T00:00:00Z</time>
      </trkpt>
      <trkpt lat="49.23415" lon="7.19165">
        <ele>0</ele>
        <time>0001-01-01T00:00:00Z</time>
      </trkpt>
      <trkpt lat="49.23412" lon="7.19146">
        <ele>0</ele>
        <time>0001-01-01T00:00:00Z</time>
      </trkpt>
      <trkpt lat="49.23411" lon="7.19129">
        <ele>0</ele>
        <time>0001-01-01T00:00:00Z</time>
      </trkpt>
      <trkpt lat="49.23413" lon="7.19105">
        <ele>0</ele>
        <time>0001-01-01T00:00:00Z</time>
      </trkpt>
      <trkpt lat="49.23419" lon="7.19089">
        <ele>0</ele>
        <time>0001-01-01T00:00:00Z</time>
      </trkpt>
      <trkpt lat="49.2343" lon="7.1907">
        <ele>0</ele>
        <time>0001-01-01T00:00:00Z</time>
      </trkpt>
      <trkpt lat="49.23515" lon="7.18979">
        <ele>0</ele>
        <time>0001-01-01T00:00:00Z</time>
      </trkpt>
      <trkpt lat="49.23547" lon="7.18949">
        <ele>0</ele>
        <time>0001-01-01T00:00:00Z</time>
      </trkpt>
      <trkpt lat="49.2362" lon="7.18905">
        <ele>0</ele>
        <time>0001-01-01T00:00:00Z</time>
      </trkpt>
      <trkpt lat="49.23634" lon="7.18898">
        <ele>0</ele>
        <time>0001-01-01T00:00:00Z</time>
      </trkpt>
      <trkpt lat="49.23719" lon="7.1887">
        <ele>0</ele>
        <time>0001-01-01T00:00:00Z</time>
      </trkpt>
      <trkpt lat="49.23732" lon="7.18862">
        <ele>0</ele>
        <time>0001-01-01T00:00:00Z</time>
      </trkpt>
      <trkpt lat="49.23823" lon="7.18787">
        <ele>0</ele>
        <time>0001-01-01T00:00:00Z</time>
      </trkpt>
      <trkpt lat="49.23832" lon="7.18782">
        <ele>0</ele>
        <time>0001-01-01T00:00:00Z</time>
      </trkpt>
      <trkpt lat="49.23874" lon="7.1877">
        <ele>0</ele>
        <time>0001-01-01T00:00:00Z</time>
      </trkpt>
      <trkpt lat="49.23934" lon="7.18727">
        <ele>0</ele>
        <time>0001-01-01T00:00:00Z</time>
      </trkpt>
      <trkpt lat="49.23947" lon="7.18719">
        <ele>0</ele>
        <time>0001-01-01T00:00:00Z</time>
      </trkpt>
      <trkpt lat="49.23971" lon="7.18716">
        <ele>0</ele>
        <time>0001-01-01T00:00:00Z</time>
      </trkpt>
      <trkpt lat="49.24001" lon="7.18719">
        <ele>0</ele>
        <time>0001-01-01T00:00:00Z</time>
      </trkpt>
      <trkpt lat="49.24016" lon="7.18723">
        <ele>0</ele>
        <time>0001-01-01T00:00:00Z</time>
      </trkpt>
      <trkpt lat="49.24025" lon="7.18727">
        <ele>0</ele>
        <time>0001-01-01T00:00:00Z</time>
      </trkpt>
      <trkpt lat="49.24041" lon="7.18737">
        <ele>0</ele>
        <time>0001-01-01T00:00:00Z</time>
      </trkpt>
      <trkpt lat="49.24058" lon="7.18751">
        <ele>0</ele>
        <time>0001-01-01T00:00:00Z</time>
      </trkpt>
      <trkpt lat="49.24098" lon="7.18793">
        <ele>0</ele>
        <time>0001-01-01T00:00:00Z</time>
      </trkpt>
      <trkpt lat="49.24112" lon="7.18811">
        <ele>0</ele>
        <time>0001-01-01T00:00:00Z</time>
      </trkpt>
      <trkpt lat="49.24129" lon="7.18837">
        <ele>0</ele>
        <time>0001-01-01T00:00:00Z</time>
      </trkpt>
      <trkpt lat="49.24193" lon="7.18956">
        <ele>0</ele>
        <time>0001-01-01T00:00:00Z</time>
      </trkpt>
      <trkpt lat="49.242" lon="7.18973">
        <ele>0</ele>
        <time>0001-01-01T00:00:00Z</time>
      </trkpt>
      <trkpt lat="49.24212" lon="7.19009">
        <ele>0</ele>
        <time>0001-01-01T00:00:00Z</time>
      </trkpt>
      <trkpt lat="49.24253" lon="7.19199">
        <ele>0</ele>
        <time>0001-01-01T00:00:00Z</time>
      </trkpt>
      <trkpt lat="49.24291" lon="7.19333">
        <ele>0</ele>
        <time>0001-01-01T00:00:00Z</time>
      </trkpt>
      <trkpt lat="49.24291" lon="7.19343">
        <ele>0</ele>
        <time>0001-01-01T00:00:00Z</time>
      </trkpt>
      <trkpt lat="49.24292" lon="7.19343">
        <ele>0</ele>
        <time>0001-01-01T00:00:00Z</time>
      </trkpt>
      <trkpt lat="49.24292" lon="7.19344">
        <ele>0</ele>
        <time>0001-01-01T00:00:00Z</time>
      </trkpt>
      <trkpt lat="49.24293" lon="7.19345">
        <ele>0</ele>
        <time>0001-01-01T00:00:00Z</time>
      </trkpt>
      <trkpt lat="49.24293" lon="7.19346">
        <ele>0</ele>
        <time>0001-01-01T00:00:00Z</time>
      </trkpt>
      <trkpt lat="49.24294" lon="7.19346">
        <ele>0</ele>
        <time>0001-01-01T00:00:00Z</time>
      </trkpt>
      <trkpt lat="49.24294" lon="7.19347">
        <ele>0</ele>
        <time>0001-01-01T00:00:00Z</time>
      </trkpt>
      <trkpt lat="49.24296" lon="7.19347">
        <ele>0</ele>
        <time>0001-01-01T00:00:00Z</time>
      </trkpt>
      <trkpt lat="49.24296" lon="7.19348">
        <ele>0</ele>
        <time>0001-01-01T00:00:00Z</time>
      </trkpt>
      <trkpt lat="49.24298" lon="7.19348">
        <ele>0</ele>
        <time>0001-01-01T00:00:00Z</time>
      </trkpt>
      <trkpt lat="49.24326" lon="7.19449">
        <ele>0</ele>
        <time>0001-01-01T00:00:00Z</time>
      </trkpt>
      <trkpt lat="49.24338" lon="7.19507">
        <ele>0</ele>
        <time>0001-01-01T00:00:00Z</time>
      </trkpt>
      <trkpt lat="49.24341" lon="7.19539">
        <ele>0</ele>
        <time>0001-01-01T00:00:00Z</time>
      </trkpt>
      <trkpt lat="49.24339" lon="7.19633">
        <ele>0</ele>
        <time>0001-01-01T00:00:00Z</time>
      </trkpt>
      <trkpt lat="49.24332" lon="7.19734">
        <ele>0</ele>
        <time>0001-01-01T00:00:00Z</time>
      </trkpt>
      <trkpt lat="49.24304" lon="7.19943">
        <ele>0</ele>
        <time>0001-01-01T00:00:00Z</time>
      </trkpt>
      <trkpt lat="49.24301" lon="7.19991">
        <ele>0</ele>
        <time>0001-01-01T00:00:00Z</time>
      </trkpt>
      <trkpt lat="49.24303" lon="7.20011">
        <ele>0</ele>
        <time>0001-01-01T00:00:00Z</time>
      </trkpt>
      <trkpt lat="49.24352" lon="7.20237">
        <ele>0</ele>
        <time>0001-01-01T00:00:00Z</time>
      </trkpt>
      <trkpt lat="49.24368" lon="7.20275">
        <ele>0</ele>
        <time>0001-01-01T00:00:00Z</time>
      </trkpt>
      <trkpt lat="49.24399" lon="7.20326">
        <ele>0</ele>
        <time>0001-01-01T00:00:00Z</time>
      </trkpt>
      <trkpt lat="49.24405" lon="7.20341">
        <ele>0</ele>
        <time>0001-01-01T00:00:00Z</time>
      </trkpt>
      <trkpt lat="49.24412" lon="7.20364">
        <ele>0</ele>
        <time>0001-01-01T00:00:00Z</time>
      </trkpt>
      <trkpt lat="49.24478" lon="7.21067">
        <ele>0</ele>
        <time>0001-01-01T00:00:00Z</time>
      </trkpt>
      <trkpt lat="49.24477" lon="7.2111">
        <ele>0</ele>
        <time>0001-01-01T00:00:00Z</time>
      </trkpt>
      <trkpt lat="49.24479" lon="7.21141">
        <ele>0</ele>
        <time>0001-01-01T00:00:00Z</time>
      </trkpt>
      <trkpt lat="49.24492" lon="7.21226">
        <ele>0</ele>
        <time>0001-01-01T00:00:00Z</time>
      </trkpt>
      <trkpt lat="49.24504" lon="7.21267">
        <ele>0</ele>
        <time>0001-01-01T00:00:00Z</time>
      </trkpt>
      <trkpt lat="49.2452" lon="7.21304">
        <ele>0</ele>
        <time>0001-01-01T00:00:00Z</time>
      </trkpt>
      <trkpt lat="49.24538" lon="7.21338">
        <ele>0</ele>
        <time>0001-01-01T00:00:00Z</time>
      </trkpt>
      <trkpt lat="49.24551" lon="7.21357">
        <ele>0</ele>
        <time>0001-01-01T00:00:00Z</time>
      </trkpt>
      <trkpt lat="49.24558" lon="7.21364">
        <ele>0</ele>
        <time>0001-01-01T00:00:00Z</time>
      </trkpt>
      <trkpt lat="49.24583" lon="7.21419">
        <ele>0</ele>
        <time>0001-01-01T00:00:00Z</time>
      </trkpt>
      <trkpt lat="49.24596" lon="7.21456">
        <ele>0</ele>
        <time>0001-01-01T00:00:00Z</time>
      </trkpt>
      <trkpt lat="49.24654" lon="7.21794">
        <ele>0</ele>
        <time>0001-01-01T00:00:00Z</time>
      </trkpt>
      <trkpt lat="49.24659" lon="7.21865">
        <ele>0</ele>
        <time>0001-01-01T00:00:00Z</time>
      </trkpt>
      <trkpt lat="49.24668" lon="7.22169">
        <ele>0</ele>
        <time>0001-01-01T00:00:00Z</time>
      </trkpt>
      <trkpt lat="49.24676" lon="7.22301">
        <ele>0</ele>
        <time>0001-01-01T00:00:00Z</time>
      </trkpt>
      <trkpt lat="49.24683" lon="7.2237">
        <ele>0</ele>
        <time>0001-01-01T00:00:00Z</time>
      </trkpt>
      <trkpt lat="49.24684" lon="7.22396">
        <ele>0</ele>
        <time>0001-01-01T00:00:00Z</time>
      </trkpt>
      <trkpt lat="49.24682" lon="7.22458">
        <ele>0</ele>
        <time>0001-01-01T00:00:00Z</time>
      </trkpt>
      <trkpt lat="49.24684" lon="7.22518">
        <ele>0</ele>
        <time>0001-01-01T00:00:00Z</time>
      </trkpt>
      <trkpt lat="49.24705" lon="7.22739">
        <ele>0</ele>
        <time>0001-01-01T00:00:00Z</time>
      </trkpt>
      <trkpt lat="49.2476" lon="7.23093">
        <ele>0</ele>
        <time>0001-01-01T00:00:00Z</time>
      </trkpt>
      <trkpt lat="49.24785" lon="7.23209">
        <ele>0</ele>
        <time>0001-01-01T00:00:00Z</time>
      </trkpt>
      <trkpt lat="49.24799" lon="7.23253">
        <ele>0</ele>
        <time>0001-01-01T00:00:00Z</time>
      </trkpt>
      <trkpt lat="49.24812" lon="7.23285">
        <ele>0</ele>
        <time>0001-01-01T00:00:00Z</time>
      </trkpt>
      <trkpt lat="49.24829" lon="7.23321">
        <ele>0</ele>
        <time>0001-01-01T00:00:00Z</time>
      </trkpt>
      <trkpt lat="49.24836" lon="7.2334">
        <ele>0</ele>
        <time>0001-01-01T00:00:00Z</time>
      </trkpt>
      <trkpt lat="49.24865" lon="7.23504">
        <ele>0</ele>
        <time>0001-01-01T00:00:00Z</time>
      </trkpt>
      <trkpt lat="49.24879" lon="7.23555">
        <ele>0</ele>
        <time>0001-01-01T00:00:00Z</time>
      </trkpt>
      <trkpt lat="49.24896" lon="7.23604">
        <ele>0</ele>
        <time>0001-01-01T00:00:00Z</time>
      </trkpt>
      <trkpt lat="49.24949" lon="7.23716">
        <ele>0</ele>
        <time>0001-01-01T00:00:00Z</time>
      </trkpt>
      <trkpt lat="49.24957" lon="7.23738">
        <ele>0</ele>
        <time>0001-01-01T00:00:00Z</time>
      </trkpt>
      <trkpt lat="49.25016" lon="7.23976">
        <ele>0</ele>
        <time>0001-01-01T00:00:00Z</time>
      </trkpt>
      <trkpt lat="49.25033" lon="7.24075">
        <ele>0</ele>
        <time>0001-01-01T00:00:00Z</time>
      </trkpt>
      <trkpt lat="49.25042" lon="7.24168">
        <ele>0</ele>
        <time>0001-01-01T00:00:00Z</time>
      </trkpt>
      <trkpt lat="49.25046" lon="7.24195">
        <ele>0</ele>
        <time>0001-01-01T00:00:00Z</time>
      </trkpt>
      <trkpt lat="49.25052" lon="7.24217">
        <ele>0</ele>
        <time>0001-01-01T00:00:00Z</time>
      </trkpt>
      <trkpt lat="49.25067" lon="7.24252">
        <ele>0</ele>
        <time>0001-01-01T00:00:00Z</time>
      </trkpt>
      <trkpt lat="49.25081" lon="7.24275">
        <ele>0</ele>
        <time>0001-01-01T00:00:00Z</time>
      </trkpt>
      <trkpt lat="49.25145" lon="7.24358">
        <ele>0</ele>
        <time>0001-01-01T00:00:00Z</time>
      </trkpt>
      <trkpt lat="49.25158" lon="7.24379">
        <ele>0</ele>
        <time>0001-01-01T00:00:00Z</time>
      </trkpt>
      <trkpt lat="49.25173" lon="7.24408">
        <ele>0</ele>
        <time>0001-01-01T00:00:00Z</time>
      </trkpt>
      <trkpt lat="49.25189" lon="7.24431">
        <ele>0</ele>
        <time>0001-01-01T00:00:00Z</time>
      </trkpt>
      <trkpt lat="49.25221" lon="7.24455">
        <ele>0</ele>
        <time>0001-01-01T00:00:00Z</time>
      </trkpt>
      <trkpt lat="49.25225" lon="7.24459">
        <ele>0</ele>
        <time>0001-01-01T00:00:00Z</time>
      </trkpt>
      <trkpt lat="49.25282" lon="7.24546">
        <ele>0</ele>
        <time>0001-01-01T00:00:00Z</time>
      </trkpt>
      <trkpt lat="49.25308" lon="7.2459">
        <ele>0</ele>
        <time>0001-01-01T00:00:00Z</time>
      </trkpt>
      <trkpt lat="49.25333" lon="7.24658">
        <ele>0</ele>
        <time>0001-01-01T00:00:00Z</time>
      </trkpt>
      <trkpt lat="49.25347" lon="7.24712">
        <ele>0</ele>
        <time>0001-01-01T00:00:00Z</time>
      </trkpt>
      <trkpt lat="49.25354" lon="7.24785">
        <ele>0</ele>
        <time>0001-01-01T00:00:00Z</time>
      </trkpt>
      <trkpt lat="49.25354" lon="7.24846">
        <ele>0</ele>
        <time>0001-01-01T00:00:00Z</time>
      </trkpt>
      <trkpt lat="49.25352" lon="7.24884">
        <ele>0</ele>
        <time>0001-01-01T00:00:00Z</time>
      </trkpt>
      <trkpt lat="49.25326" lon="7.25022">
        <ele>0</ele>
        <time>0001-01-01T00:00:00Z</time>
      </trkpt>
      <trkpt lat="49.25318" lon="7.25106">
        <ele>0</ele>
        <time>0001-01-01T00:00:00Z</time>
      </trkpt>
      <trkpt lat="49.25307" lon="7.25145">
        <ele>0</ele>
        <time>0001-01-01T00:00:00Z</time>
      </trkpt>
      <trkpt lat="49.25277" lon="7.25214">
        <ele>0</ele>
        <time>0001-01-01T00:00:00Z</time>
      </trkpt>
      <trkpt lat="49.25258" lon="7.25269">
        <ele>0</ele>
        <time>0001-01-01T00:00:00Z</time>
      </trkpt>
      <trkpt lat="49.25256" lon="7.25277">
        <ele>0</ele>
        <time>0001-01-01T00:00:00Z</time>
      </trkpt>
      <trkpt lat="49.25254" lon="7.25291">
        <ele>0</ele>
        <time>0001-01-01T00:00:00Z</time>
      </trkpt>
      <trkpt lat="49.25252" lon="7.25411">
        <ele>0</ele>
        <time>0001-01-01T00:00:00Z</time>
      </trkpt>
      <trkpt lat="49.25248" lon="7.25436">
        <ele>0</ele>
        <time>0001-01-01T00:00:00Z</time>
      </trkpt>
      <trkpt lat="49.25243" lon="7.25447">
        <ele>0</ele>
        <time>0001-01-01T00:00:00Z</time>
      </trkpt>
      <trkpt lat="49.25237" lon="7.25493">
        <ele>0</ele>
        <time>0001-01-01T00:00:00Z</time>
      </trkpt>
      <trkpt lat="49.25394" lon="7.25451">
        <ele>0</ele>
        <time>0001-01-01T00:00:00Z</time>
      </trkpt>
      <trkpt lat="49.25399" lon="7.25448">
        <ele>0</ele>
        <time>0001-01-01T00:00:00Z</time>
      </trkpt>
      <trkpt lat="49.25407" lon="7.2544">
        <ele>0</ele>
        <time>0001-01-01T00:00:00Z</time>
      </trkpt>
      <trkpt lat="49.2542" lon="7.25421">
        <ele>0</ele>
        <time>0001-01-01T00:00:00Z</time>
      </trkpt>
      <trkpt lat="49.25459" lon="7.25353">
        <ele>0</ele>
        <time>0001-01-01T00:00:00Z</time>
      </trkpt>
      <trkpt lat="49.25477" lon="7.25325">
        <ele>0</ele>
        <time>0001-01-01T00:00:00Z</time>
      </trkpt>
      <trkpt lat="49.25483" lon="7.25321">
        <ele>0</ele>
        <time>0001-01-01T00:00:00Z</time>
      </trkpt>
      <trkpt lat="49.25506" lon="7.25299">
        <ele>0</ele>
        <time>0001-01-01T00:00:00Z</time>
      </trkpt>
      <trkpt lat="49.25539" lon="7.25272">
        <ele>0</ele>
        <time>0001-01-01T00:00:00Z</time>
      </trkpt>
      <trkpt lat="49.2555" lon="7.2526">
        <ele>0</ele>
        <time>0001-01-01T00:00:00Z</time>
      </trkpt>
      <trkpt lat="49.25634" lon="7.252">
        <ele>0</ele>
        <time>0001-01-01T00:00:00Z</time>
      </trkpt>
      <trkpt lat="49.25653" lon="7.25188">
        <ele>0</ele>
        <time>0001-01-01T00:00:00Z</time>
      </trkpt>
      <trkpt lat="49.25662" lon="7.25184">
        <ele>0</ele>
        <time>0001-01-01T00:00:00Z</time>
      </trkpt>
      <trkpt lat="49.25673" lon="7.25181">
        <ele>0</ele>
        <time>0001-01-01T00:00:00Z</time>
      </trkpt>
      <trkpt lat="49.25709" lon="7.25179">
        <ele>0</ele>
        <time>0001-01-01T00:00:00Z</time>
      </trkpt>
      <trkpt lat="49.25852" lon="7.25188">
        <ele>0</ele>
        <time>0001-01-01T00:00:00Z</time>
      </trkpt>
      <trkpt lat="49.26019" lon="7.25185">
        <ele>0</ele>
        <time>0001-01-01T00:00:00Z</time>
      </trkpt>
      <trkpt lat="49.26031" lon="7.25187">
        <ele>0</ele>
        <time>0001-01-01T00:00:00Z</time>
      </trkpt>
      <trkpt lat="49.26046" lon="7.25192">
        <ele>0</ele>
        <time>0001-01-01T00:00:00Z</time>
      </trkpt>
      <trkpt lat="49.26067" lon="7.25201">
        <ele>0</ele>
        <time>0001-01-01T00:00:00Z</time>
      </trkpt>
      <trkpt lat="49.26082" lon="7.25217">
        <ele>0</ele>
        <time>0001-01-01T00:00:00Z</time>
      </trkpt>
      <trkpt lat="49.261" lon="7.25226">
        <ele>0</ele>
        <time>0001-01-01T00:00:00Z</time>
      </trkpt>
      <trkpt lat="49.26129" lon="7.25233">
        <ele>0</ele>
        <time>0001-01-01T00:00:00Z</time>
      </trkpt>
      <trkpt lat="49.26139" lon="7.25234">
        <ele>0</ele>
        <time>0001-01-01T00:00:00Z</time>
      </trkpt>
      <trkpt lat="49.26193" lon="7.25232">
        <ele>0</ele>
        <time>0001-01-01T00:00:00Z</time>
      </trkpt>
      <trkpt lat="49.26263" lon="7.25221">
        <ele>0</ele>
        <time>0001-01-01T00:00:00Z</time>
      </trkpt>
      <trkpt lat="49.26283" lon="7.25212">
        <ele>0</ele>
        <time>0001-01-01T00:00:00Z</time>
      </trkpt>
      <trkpt lat="49.26371" lon="7.25197">
        <ele>0</ele>
        <time>0001-01-01T00:00:00Z</time>
      </trkpt>
      <trkpt lat="49.26411" lon="7.25184">
        <ele>0</ele>
        <time>0001-01-01T00:00:00Z</time>
      </trkpt>
      <trkpt lat="49.2643" lon="7.25171">
        <ele>0</ele>
        <time>0001-01-01T00:00:00Z</time>
      </trkpt>
      <trkpt lat="49.26447" lon="7.25151">
        <ele>0</ele>
        <time>0001-01-01T00:00:00Z</time>
      </trkpt>
      <trkpt lat="49.2653" lon="7.25003">
        <ele>0</ele>
        <time>0001-01-01T00:00:00Z</time>
      </trkpt>
      <trkpt lat="49.26542" lon="7.24987">
        <ele>0</ele>
        <time>0001-01-01T00:00:00Z</time>
      </trkpt>
      <trkpt lat="49.26555" lon="7.24974">
        <ele>0</ele>
        <time>0001-01-01T00:00:00Z</time>
      </trkpt>
      <trkpt lat="49.26569" lon="7.24964">
        <ele>0</ele>
        <time>0001-01-01T00:00:00Z</time>
      </trkpt>
      <trkpt lat="49.26609" lon="7.24943">
        <ele>0</ele>
        <time>0001-01-01T00:00:00Z</time>
      </trkpt>
      <trkpt lat="49.26621" lon="7.24934">
        <ele>0</ele>
        <time>0001-01-01T00:00:00Z</time>
      </trkpt>
      <trkpt lat="49.26627" lon="7.24926">
        <ele>0</ele>
        <time>0001-01-01T00:00:00Z</time>
      </trkpt>
      <trkpt lat="49.26635" lon="7.24912">
        <ele>0</ele>
        <time>0001-01-01T00:00:00Z</time>
      </trkpt>
      <trkpt lat="49.26739" lon="7.24679">
        <ele>0</ele>
        <time>0001-01-01T00:00:00Z</time>
      </trkpt>
      <trkpt lat="49.26752" lon="7.24641">
        <ele>0</ele>
        <time>0001-01-01T00:00:00Z</time>
      </trkpt>
      <trkpt lat="49.26776" lon="7.24555">
        <ele>0</ele>
        <time>0001-01-01T00:00:00Z</time>
      </trkpt>
      <trkpt lat="49.26782" lon="7.24521">
        <ele>0</ele>
        <time>0001-01-01T00:00:00Z</time>
      </trkpt>
      <trkpt lat="49.26786" lon="7.24481">
        <ele>0</ele>
        <time>0001-01-01T00:00:00Z</time>
      </trkpt>
      <trkpt lat="49.2679" lon="7.24382">
        <ele>0</ele>
        <time>0001-01-01T00:00:00Z</time>
      </trkpt>
      <trkpt lat="49.26796" lon="7.24307">
        <ele>0</ele>
        <time>0001-01-01T00:00:00Z</time>
      </trkpt>
      <trkpt lat="49.26801" lon="7.24282">
        <ele>0</ele>
        <time>0001-01-01T00:00:00Z</time>
      </trkpt>
      <trkpt lat="49.26808" lon="7.24258">
        <ele>0</ele>
        <time>0001-01-01T00:00:00Z</time>
      </trkpt>
      <trkpt lat="49.26814" lon="7.24242">
        <ele>0</ele>
        <time>0001-01-01T00:00:00Z</time>
      </trkpt>
      <trkpt lat="49.26914" lon="7.24046">
        <ele>0</ele>
        <time>0001-01-01T00:00:00Z</time>
      </trkpt>
      <trkpt lat="49.26924" lon="7.2403">
        <ele>0</ele>
        <time>0001-01-01T00:00:00Z</time>
      </trkpt>
      <trkpt lat="49.26959" lon="7.23987">
        <ele>0</ele>
        <time>0001-01-01T00:00:00Z</time>
      </trkpt>
      <trkpt lat="49.27079" lon="7.23852">
        <ele>0</ele>
        <time>0001-01-01T00:00:00Z</time>
      </trkpt>
      <trkpt lat="49.27093" lon="7.23838">
        <ele>0</ele>
        <time>0001-01-01T00:00:00Z</time>
      </trkpt>
      <trkpt lat="49.27122" lon="7.23815">
        <ele>0</ele>
        <time>0001-01-01T00:00:00Z</time>
      </trkpt>
      <trkpt lat="49.27196" lon="7.23784">
        <ele>0</ele>
        <time>0001-01-01T00:00:00Z</time>
      </trkpt>
      <trkpt lat="49.27353" lon="7.23735">
        <ele>0</ele>
        <time>0001-01-01T00:00:00Z</time>
      </trkpt>
      <trkpt lat="49.27383" lon="7.23723">
        <ele>0</ele>
        <time>0001-01-01T00:00:00Z</time>
      </trkpt>
      <trkpt lat="49.27411" lon="7.23708">
        <ele>0</ele>
        <time>0001-01-01T00:00:00Z</time>
      </trkpt>
      <trkpt lat="49.27428" lon="7.23696">
        <ele>0</ele>
        <time>0001-01-01T00:00:00Z</time>
      </trkpt>
      <trkpt lat="49.27476" lon="7.23653">
        <ele>0</ele>
        <time>0001-01-01T00:00:00Z</time>
      </trkpt>
      <trkpt lat="49.27513" lon="7.23598">
        <ele>0</ele>
        <time>0001-01-01T00:00:00Z</time>
      </trkpt>
      <trkpt lat="49.27515" lon="7.23596">
        <ele>0</ele>
        <time>0001-01-01T00:00:00Z</time>
      </trkpt>
      <trkpt lat="49.27721" lon="7.23242">
        <ele>0</ele>
        <time>0001-01-01T00:00:00Z</time>
      </trkpt>
      <trkpt lat="49.27762" lon="7.23146">
        <ele>0</ele>
        <time>0001-01-01T00:00:00Z</time>
      </trkpt>
      <trkpt lat="49.27783" lon="7.23082">
        <ele>0</ele>
        <time>0001-01-01T00:00:00Z</time>
      </trkpt>
      <trkpt lat="49.27785" lon="7.2307">
        <ele>0</ele>
        <time>0001-01-01T00:00:00Z</time>
      </trkpt>
      <trkpt lat="49.27801" lon="7.23006">
        <ele>0</ele>
        <time>0001-01-01T00:00:00Z</time>
      </trkpt>
      <trkpt lat="49.27814" lon="7.22925">
        <ele>0</ele>
        <time>0001-01-01T00:00:00Z</time>
      </trkpt>
      <trkpt lat="49.27853" lon="7.22318">
        <ele>0</ele>
        <time>0001-01-01T00:00:00Z</time>
      </trkpt>
      <trkpt lat="49.27866" lon="7.22167">
        <ele>0</ele>
        <time>0001-01-01T00:00:00Z</time>
      </trkpt>
      <trkpt lat="49.27911" lon="7.21787">
        <ele>0</ele>
        <time>0001-01-01T00:00:00Z</time>
      </trkpt>
      <trkpt lat="49.27919" lon="7.21764">
        <ele>0</ele>
        <time>0001-01-01T00:00:00Z</time>
      </trkpt>
      <trkpt lat="49.27926" lon="7.2175">
        <ele>0</ele>
        <time>0001-01-01T00:00:00Z</time>
      </trkpt>
      <trkpt lat="49.27934" lon="7.21745">
        <ele>0</ele>
        <time>0001-01-01T00:00:00Z</time>
      </trkpt>
      <trkpt lat="49.27944" lon="7.21784">
        <ele>0</ele>
        <time>0001-01-01T00:00:00Z</time>
      </trkpt>
      <trkpt lat="49.27961" lon="7.21835">
        <ele>0</ele>
        <time>0001-01-01T00:00:00Z</time>
      </trkpt>
      <trkpt lat="49.27984" lon="7.21889">
        <ele>0</ele>
        <time>0001-01-01T00:00:00Z</time>
      </trkpt>
      <trkpt lat="49.27991" lon="7.21902">
        <ele>0</ele>
        <time>0001-01-01T00:00:00Z</time>
      </trkpt>
      <trkpt lat="49.28004" lon="7.2192">
        <ele>0</ele>
        <time>0001-01-01T00:00:00Z</time>
      </trkpt>
      <trkpt lat="49.2801" lon="7.21924">
        <ele>0</ele>
        <time>0001-01-01T00:00:00Z</time>
      </trkpt>
      <trkpt lat="49.28017" lon="7.21937">
        <ele>0</ele>
        <time>0001-01-01T00:00:00Z</time>
      </trkpt>
      <trkpt lat="49.28094" lon="7.22049">
        <ele>0</ele>
        <time>0001-01-01T00:00:00Z</time>
      </trkpt>
      <trkpt lat="49.28108" lon="7.22074">
        <ele>0</ele>
        <time>0001-01-01T00:00:00Z</time>
      </trkpt>
      <trkpt lat="49.28189" lon="7.22189">
        <ele>0</ele>
        <time>0001-01-01T00:00:00Z</time>
      </trkpt>
      <trkpt lat="49.28194" lon="7.22201">
        <ele>0</ele>
        <time>0001-01-01T00:00:00Z</time>
      </trkpt>
      <trkpt lat="49.28206" lon="7.22216">
        <ele>0</ele>
        <time>0001-01-01T00:00:00Z</time>
      </trkpt>
      <trkpt lat="49.28239" lon="7.22263">
        <ele>0</ele>
        <time>0001-01-01T00:00:00Z</time>
      </trkpt>
      <trkpt lat="49.28239" lon="7.22272">
        <ele>0</ele>
        <time>0001-01-01T00:00:00Z</time>
      </trkpt>
      <trkpt lat="49.2824" lon="7.22274">
        <ele>0</ele>
        <time>0001-01-01T00:00:00Z</time>
      </trkpt>
      <trkpt lat="49.2824" lon="7.22276">
        <ele>0</ele>
        <time>0001-01-01T00:00:00Z</time>
      </trkpt>
      <trkpt lat="49.28241" lon="7.22279">
        <ele>0</ele>
        <time>0001-01-01T00:00:00Z</time>
      </trkpt>
      <trkpt lat="49.28242" lon="7.2228">
        <ele>0</ele>
        <time>0001-01-01T00:00:00Z</time>
      </trkpt>
      <trkpt lat="49.28242" lon="7.22281">
        <ele>0</ele>
        <time>0001-01-01T00:00:00Z</time>
      </trkpt>
      <trkpt lat="49.28243" lon="7.22282">
        <ele>0</ele>
        <time>0001-01-01T00:00:00Z</time>
      </trkpt>
      <trkpt lat="49.28243" lon="7.22284">
        <ele>0</ele>
        <time>0001-01-01T00:00:00Z</time>
      </trkpt>
      <trkpt lat="49.28249" lon="7.2229">
        <ele>0</ele>
        <time>0001-01-01T00:00:00Z</time>
      </trkpt>
      <trkpt lat="49.28251" lon="7.2229">
        <ele>0</ele>
        <time>0001-01-01T00:00:00Z</time>
      </trkpt>
      <trkpt lat="49.28252" lon="7.22291">
        <ele>0</ele>
        <time>0001-01-01T00:00:00Z</time>
      </trkpt>
      <trkpt lat="49.28256" lon="7.22291">
        <ele>0</ele>
        <time>0001-01-01T00:00:00Z</time>
      </trkpt>
      <trkpt lat="49.28258" lon="7.2229">
        <ele>0</ele>
        <time>0001-01-01T00:00:00Z</time>
      </trkpt>
      <trkpt lat="49.28259" lon="7.2229">
        <ele>0</ele>
        <time>0001-01-01T00:00:00Z</time>
      </trkpt>
      <trkpt lat="49.28259" lon="7.22289">
        <ele>0</ele>
        <time>0001-01-01T00:00:00Z</time>
      </trkpt>
      <trkpt lat="49.2826" lon="7.22289">
        <ele>0</ele>
        <time>0001-01-01T00:00:00Z</time>
      </trkpt>
      <trkpt lat="49.28262" lon="7.22287">
        <ele>0</ele>
        <time>0001-01-01T00:00:00Z</time>
      </trkpt>
      <trkpt lat="49.28263" lon="7.22287">
        <ele>0</ele>
        <time>0001-01-01T00:00:00Z</time>
      </trkpt>
      <trkpt lat="49.28263" lon="7.22286">
        <ele>0</ele>
        <time>0001-01-01T00:00:00Z</time>
      </trkpt>
      <trkpt lat="49.28264" lon="7.22285">
        <ele>0</ele>
        <time>0001-01-01T00:00:00Z</time>
      </trkpt>
      <trkpt lat="49.28265" lon="7.22282">
        <ele>0</ele>
        <time>0001-01-01T00:00:00Z</time>
      </trkpt>
      <trkpt lat="49.28267" lon="7.2228">
        <ele>0</ele>
        <time>0001-01-01T00:00:00Z</time>
      </trkpt>
      <trkpt lat="49.28267" lon="7.22278">
        <ele>0</ele>
        <time>0001-01-01T00:00:00Z</time>
      </trkpt>
      <trkpt lat="49.28268" lon="7.22277">
        <ele>0</ele>
        <time>0001-01-01T00:00:00Z</time>
      </trkpt>
      <trkpt lat="49.28268" lon="7.22274">
        <ele>0</ele>
        <time>0001-01-01T00:00:00Z</time>
      </trkpt>
      <trkpt lat="49.28269" lon="7.22272">
        <ele>0</ele>
        <time>0001-01-01T00:00:00Z</time>
      </trkpt>
      <trkpt lat="49.28269" lon="7.22262">
        <ele>0</ele>
        <time>0001-01-01T00:00:00Z</time>
      </trkpt>
      <trkpt lat="49.28268" lon="7.2226">
        <ele>0</ele>
        <time>0001-01-01T00:00:00Z</time>
      </trkpt>
      <trkpt lat="49.28268" lon="7.22257">
        <ele>0</ele>
        <time>0001-01-01T00:00:00Z</time>
      </trkpt>
      <trkpt lat="49.28285" lon="7.22244">
        <ele>0</ele>
        <time>0001-01-01T00:00:00Z</time>
      </trkpt>
      <trkpt lat="49.28291" lon="7.22238">
        <ele>0</ele>
        <time>0001-01-01T00:00:00Z</time>
      </trkpt>
      <trkpt lat="49.283" lon="7.22235">
        <ele>0</ele>
        <time>0001-01-01T00:00:00Z</time>
      </trkpt>
      <trkpt lat="49.28318" lon="7.22232">
        <ele>0</ele>
        <time>0001-01-01T00:00:00Z</time>
      </trkpt>
      <trkpt lat="49.28428" lon="7.22201">
        <ele>0</ele>
        <time>0001-01-01T00:00:00Z</time>
      </trkpt>
      <trkpt lat="49.28442" lon="7.22195">
        <ele>0</ele>
        <time>0001-01-01T00:00:00Z</time>
      </trkpt>
      <trkpt lat="49.28468" lon="7.22178">
        <ele>0</ele>
        <time>0001-01-01T00:00:00Z</time>
      </trkpt>
      <trkpt lat="49.28668" lon="7.22028">
        <ele>0</ele>
        <time>0001-01-01T00:00:00Z</time>
      </trkpt>
      <trkpt lat="49.2868" lon="7.22023">
        <ele>0</ele>
        <time>0001-01-01T00:00:00Z</time>
      </trkpt>
      <trkpt lat="49.28723" lon="7.21993">
        <ele>0</ele>
        <time>0001-01-01T00:00:00Z</time>
      </trkpt>
      <trkpt lat="49.28724" lon="7.21993">
        <ele>0</ele>
        <time>0001-01-01T00:00:00Z</time>
      </trkpt>
      <trkpt lat="49.28724" lon="7.21994">
        <ele>0</ele>
        <time>0001-01-01T00:00:00Z</time>
      </trkpt>
      <trkpt lat="49.28726" lon="7.21996">
        <ele>0</ele>
        <time>0001-01-01T00:00:00Z</time>
      </trkpt>
      <trkpt lat="49.28727" lon="7.21996">
        <ele>0</ele>
        <time>0001-01-01T00:00:00Z</time>
      </trkpt>
      <trkpt lat="49.28727" lon="7.21997">
        <ele>0</ele>
        <time>0001-01-01T00:00:00Z</time>
      </trkpt>
      <trkpt lat="49.28728" lon="7.21997">
        <ele>0</ele>
        <time>0001-01-01T00:00:00Z</time>
      </trkpt>
      <trkpt lat="49.28729" lon="7.21998">
        <ele>0</ele>
        <time>0001-01-01T00:00:00Z</time>
      </trkpt>
      <trkpt lat="49.28734" lon="7.21998">
        <ele>0</ele>
        <time>0001-01-01T00:00:00Z</time>
      </trkpt>
      <trkpt lat="49.28735" lon="7.21997">
        <ele>0</ele>
        <time>0001-01-01T00:00:00Z</time>
      </trkpt>
      <trkpt lat="49.28736" lon="7.21997">
        <ele>0</ele>
        <time>0001-01-01T00:00:00Z</time>
      </trkpt>
      <trkpt lat="49.28737" lon="7.21996">
        <ele>0</ele>
        <time>0001-01-01T00:00:00Z</time>
      </trkpt>
      <trkpt lat="49.28738" lon="7.21996">
        <ele>0</ele>
        <time>0001-01-01T00:00:00Z</time>
      </trkpt>
      <trkpt lat="49.28738" lon="7.21995">
        <ele>0</ele>
        <time>0001-01-01T00:00:00Z</time>
      </trkpt>
      <trkpt lat="49.28739" lon="7.21995">
        <ele>0</ele>
        <time>0001-01-01T00:00:00Z</time>
      </trkpt>
      <trkpt lat="49.28739" lon="7.21994">
        <ele>0</ele>
        <time>0001-01-01T00:00:00Z</time>
      </trkpt>
      <trkpt lat="49.2874" lon="7.21993">
        <ele>0</ele>
        <time>0001-01-01T00:00:00Z</time>
      </trkpt>
      <trkpt lat="49.2874" lon="7.21991">
        <ele>0</ele>
        <time>0001-01-01T00:00:00Z</time>
      </trkpt>
      <trkpt lat="49.28741" lon="7.21991">
        <ele>0</ele>
        <time>0001-01-01T00:00:00Z</time>
      </trkpt>
      <trkpt lat="49.28741" lon="7.21989">
        <ele>0</ele>
        <time>0001-01-01T00:00:00Z</time>
      </trkpt>
      <trkpt lat="49.28742" lon="7.21988">
        <ele>0</ele>
        <time>0001-01-01T00:00:00Z</time>
      </trkpt>
      <trkpt lat="49.28742" lon="7.21981">
        <ele>0</ele>
        <time>0001-01-01T00:00:00Z</time>
      </trkpt>
      <trkpt lat="49.28782" lon="7.21953">
        <ele>0</ele>
        <time>0001-01-01T00:00:00Z</time>
      </trkpt>
      <trkpt lat="49.28809" lon="7.21931">
        <ele>0</ele>
        <time>0001-01-01T00:00:00Z</time>
      </trkpt>
      <trkpt lat="49.28834" lon="7.21907">
        <ele>0</ele>
        <time>0001-01-01T00:00:00Z</time>
      </trkpt>
      <trkpt lat="49.29284" lon="7.21423">
        <ele>0</ele>
        <time>0001-01-01T00:00:00Z</time>
      </trkpt>
      <trkpt lat="49.29342" lon="7.21372">
        <ele>0</ele>
        <time>0001-01-01T00:00:00Z</time>
      </trkpt>
      <trkpt lat="49.29382" lon="7.21346">
        <ele>0</ele>
        <time>0001-01-01T00:00:00Z</time>
      </trkpt>
      <trkpt lat="49.29415" lon="7.2133">
        <ele>0</ele>
        <time>0001-01-01T00:00:00Z</time>
      </trkpt>
      <trkpt lat="49.29444" lon="7.21319">
        <ele>0</ele>
        <time>0001-01-01T00:00:00Z</time>
      </trkpt>
      <trkpt lat="49.29467" lon="7.21314">
        <ele>0</ele>
        <time>0001-01-01T00:00:00Z</time>
      </trkpt>
      <trkpt lat="49.29532" lon="7.21305">
        <ele>0</ele>
        <time>0001-01-01T00:00:00Z</time>
      </trkpt>
      <trkpt lat="49.29602" lon="7.21302">
        <ele>0</ele>
        <time>0001-01-01T00:00:00Z</time>
      </trkpt>
      <trkpt lat="49.29651" lon="7.21292">
        <ele>0</ele>
        <time>0001-01-01T00:00:00Z</time>
      </trkpt>
      <trkpt lat="49.29667" lon="7.21286">
        <ele>0</ele>
        <time>0001-01-01T00:00:00Z</time>
      </trkpt>
      <trkpt lat="49.29704" lon="7.21264">
        <ele>0</ele>
        <time>0001-01-01T00:00:00Z</time>
      </trkpt>
      <trkpt lat="49.29738" lon="7.21234">
        <ele>0</ele>
        <time>0001-01-01T00:00:00Z</time>
      </trkpt>
      <trkpt lat="49.29771" lon="7.21196">
        <ele>0</ele>
        <time>0001-01-01T00:00:00Z</time>
      </trkpt>
      <trkpt lat="49.29783" lon="7.21179">
        <ele>0</ele>
        <time>0001-01-01T00:00:00Z</time>
      </trkpt>
      <trkpt lat="49.29812" lon="7.21119">
        <ele>0</ele>
        <time>0001-01-01T00:00:00Z</time>
      </trkpt>
      <trkpt lat="49.29821" lon="7.21094">
        <ele>0</ele>
        <time>0001-01-01T00:00:00Z</time>
      </trkpt>
      <trkpt lat="49.29892" lon="7.20847">
        <ele>0</ele>
        <time>0001-01-01T00:00:00Z</time>
      </trkpt>
      <trkpt lat="49.299" lon="7.20833">
        <ele>0</ele>
        <time>0001-01-01T00:00:00Z</time>
      </trkpt>
      <trkpt lat="49.29918" lon="7.20772">
        <ele>0</ele>
        <time>0001-01-01T00:00:00Z</time>
      </trkpt>
      <trkpt lat="49.29919" lon="7.20759">
        <ele>0</ele>
        <time>0001-01-01T00:00:00Z</time>
      </trkpt>
      <trkpt lat="49.29926" lon="7.20734">
        <ele>0</ele>
        <time>0001-01-01T00:00:00Z</time>
      </trkpt>
      <trkpt lat="49.29938" lon="7.20701">
        <ele>0</ele>
        <time>0001-01-01T00:00:00Z</time>
      </trkpt>
      <trkpt lat="49.29957" lon="7.20671">
        <ele>0</ele>
        <time>0001-01-01T00:00:00Z</time>
      </trkpt>
      <trkpt lat="49.29974" lon="7.20657">
        <ele>0</ele>
        <time>0001-01-01T00:00:00Z</time>
      </trkpt>
      <trkpt lat="49.29984" lon="7.20653">
        <ele>0</ele>
        <time>0001-01-01T00:00:00Z</time>
      </trkpt>
      <trkpt lat="49.29996" lon="7.2065">
        <ele>0</ele>
        <time>0001-01-01T00:00:00Z</time>
      </trkpt>
      <trkpt lat="49.30008" lon="7.20649">
        <ele>0</ele>
        <time>0001-01-01T00:00:00Z</time>
      </trkpt>
      <trkpt lat="49.30019" lon="7.20653">
        <ele>0</ele>
        <time>0001-01-01T00:00:00Z</time>
      </trkpt>
      <trkpt lat="49.30036" lon="7.20663">
        <ele>0</ele>
        <time>0001-01-01T00:00:00Z</time>
      </trkpt>
      <trkpt lat="49.30047" lon="7.20674">
        <ele>0</ele>
        <time>0001-01-01T00:00:00Z</time>
      </trkpt>
      <trkpt lat="49.3006" lon="7.20691">
        <ele>0</ele>
        <time>0001-01-01T00:00:00Z</time>
      </trkpt>
      <trkpt lat="49.30112" lon="7.20793">
        <ele>0</ele>
        <time>0001-01-01T00:00:00Z</time>
      </trkpt>
      <trkpt lat="49.30125" lon="7.20813">
        <ele>0</ele>
        <time>0001-01-01T00:00:00Z</time>
      </trkpt>
      <trkpt lat="49.30131" lon="7.2082">
        <ele>0</ele>
        <time>0001-01-01T00:00:00Z</time>
      </trkpt>
      <trkpt lat="49.30142" lon="7.2083">
        <ele>0</ele>
        <time>0001-01-01T00:00:00Z</time>
      </trkpt>
      <trkpt lat="49.3015" lon="7.20835">
        <ele>0</ele>
        <time>0001-01-01T00:00:00Z</time>
      </trkpt>
      <trkpt lat="49.30164" lon="7.2084">
        <ele>0</ele>
        <time>0001-01-01T00:00:00Z</time>
      </trkpt>
      <trkpt lat="49.30178" lon="7.20839">
        <ele>0</ele>
        <time>0001-01-01T00:00:00Z</time>
      </trkpt>
      <trkpt lat="49.30186" lon="7.20836">
        <ele>0</ele>
        <time>0001-01-01T00:00:00Z</time>
      </trkpt>
      <trkpt lat="49.30197" lon="7.20829">
        <ele>0</ele>
        <time>0001-01-01T00:00:00Z</time>
      </trkpt>
      <trkpt lat="49.30211" lon="7.20818">
        <ele>0</ele>
        <time>0001-01-01T00:00:00Z</time>
      </trkpt>
      <trkpt lat="49.30252" lon="7.2077">
        <ele>0</ele>
        <time>0001-01-01T00:00:00Z</time>
      </trkpt>
      <trkpt lat="49.30353" lon="7.20638">
        <ele>0</ele>
        <time>0001-01-01T00:00:00Z</time>
      </trkpt>
      <trkpt lat="49.3036" lon="7.20626">
        <ele>0</ele>
        <time>0001-01-01T00:00:00Z</time>
      </trkpt>
      <trkpt lat="49.30364" lon="7.20617">
        <ele>0</ele>
        <time>0001-01-01T00:00:00Z</time>
      </trkpt>
      <trkpt lat="49.3037" lon="7.20598">
        <ele>0</ele>
        <time>0001-01-01T00:00:00Z</time>
      </trkpt>
      <trkpt lat="49.30373" lon="7.20584">
        <ele>0</ele>
        <time>0001-01-01T00:00:00Z</time>
      </trkpt>
      <trkpt lat="49.30374" lon="7.20549">
        <ele>0</ele>
        <time>0001-01-01T00:00:00Z</time>
      </trkpt>
      <trkpt lat="49.30365" lon="7.2048">
        <ele>0</ele>
        <time>0001-01-01T00:00:00Z</time>
      </trkpt>
      <trkpt lat="49.30366" lon="7.20454">
        <ele>0</ele>
        <time>0001-01-01T00:00:00Z</time>
      </trkpt>
      <trkpt lat="49.30373" lon="7.20427">
        <ele>0</ele>
        <time>0001-01-01T00:00:00Z</time>
      </trkpt>
      <trkpt lat="49.3038" lon="7.20411">
        <ele>0</ele>
        <time>0001-01-01T00:00:00Z</time>
      </trkpt>
      <trkpt lat="49.30388" lon="7.20397">
        <ele>0</ele>
        <time>0001-01-01T00:00:00Z</time>
      </trkpt>
      <trkpt lat="49.304" lon="7.20381">
        <ele>0</ele>
        <time>0001-01-01T00:00:00Z</time>
      </trkpt>
      <trkpt lat="49.30476" lon="7.20301">
        <ele>0</ele>
        <time>0001-01-01T00:00:00Z</time>
      </trkpt>
      <trkpt lat="49.30503" lon="7.20268">
        <ele>0</ele>
        <time>0001-01-01T00:00:00Z</time>
      </trkpt>
      <trkpt lat="49.30523" lon="7.20238">
        <ele>0</ele>
        <time>0001-01-01T00:00:00Z</time>
      </trkpt>
      <trkpt lat="49.3054" lon="7.20208">
        <ele>0</ele>
        <time>0001-01-01T00:00:00Z</time>
      </trkpt>
      <trkpt lat="49.30562" lon="7.20156">
        <ele>0</ele>
        <time>0001-01-01T00:00:00Z</time>
      </trkpt>
      <trkpt lat="49.30579" lon="7.201">
        <ele>0</ele>
        <time>0001-01-01T00:00:00Z</time>
      </trkpt>
      <trkpt lat="49.30586" lon="7.20068">
        <ele>0</ele>
        <time>0001-01-01T00:00:00Z</time>
      </trkpt>
      <trkpt lat="49.3067" lon="7.19535">
        <ele>0</ele>
        <time>0001-01-01T00:00:00Z</time>
      </trkpt>
      <trkpt lat="49.3068" lon="7.19501">
        <ele>0</ele>
        <time>0001-01-01T00:00:00Z</time>
      </trkpt>
      <trkpt lat="49.30697" lon="7.19457">
        <ele>0</ele>
        <time>0001-01-01T00:00:00Z</time>
      </trkpt>
      <trkpt lat="49.30713" lon="7.19425">
        <ele>0</ele>
        <time>0001-01-01T00:00:00Z</time>
      </trkpt>
      <trkpt lat="49.30739" lon="7.19391">
        <ele>0</ele>
        <time>0001-01-01T00:00:00Z</time>
      </trkpt>
      <trkpt lat="49.30744" lon="7.19387">
        <ele>0</ele>
        <time>0001-01-01T00:00:00Z</time>
      </trkpt>
      <trkpt lat="49.30847" lon="7.19286">
        <ele>0</ele>
        <time>0001-01-01T00:00:00Z</time>
      </trkpt>
      <trkpt lat="49.30913" lon="7.19226">
        <ele>0</ele>
        <time>0001-01-01T00:00:00Z</time>
      </trkpt>
      <trkpt lat="49.30931" lon="7.19207">
        <ele>0</ele>
        <time>0001-01-01T00:00:00Z</time>
      </trkpt>
      <trkpt lat="49.31122" lon="7.18984">
        <ele>0</ele>
        <time>0001-01-01T00:00:00Z</time>
      </trkpt>
      <trkpt lat="49.31166" lon="7.18942">
        <ele>0</ele>
        <time>0001-01-01T00:00:00Z</time>
      </trkpt>
      <trkpt lat="49.31284" lon="7.18854">
        <ele>0</ele>
        <time>0001-01-01T00:00:00Z</time>
      </trkpt>
      <trkpt lat="49.31322" lon="7.18828">
        <ele>0</ele>
        <time>0001-01-01T00:00:00Z</time>
      </trkpt>
      <trkpt lat="49.31372" lon="7.18798">
        <ele>0</ele>
        <time>0001-01-01T00:00:00Z</time>
      </trkpt>
      <trkpt lat="49.31395" lon="7.18787">
        <ele>0</ele>
        <time>0001-01-01T00:00:00Z</time>
      </trkpt>
      <trkpt lat="49.31411" lon="7.18782">
        <ele>0</ele>
        <time>0001-01-01T00:00:00Z</time>
      </trkpt>
      <trkpt lat="49.31443" lon="7.18776">
        <ele>0</ele>
        <time>0001-01-01T00:00:00Z</time>
      </trkpt>
      <trkpt lat="49.31484" lon="7.18777">
        <ele>0</ele>
        <time>0001-01-01T00:00:00Z</time>
      </trkpt>
      <trkpt lat="49.31563" lon="7.18784">
        <ele>0</ele>
        <time>0001-01-01T00:00:00Z</time>
      </trkpt>
      <trkpt lat="49.31579" lon="7.18784">
        <ele>0</ele>
        <time>0001-01-01T00:00:00Z</time>
      </trkpt>
      <trkpt lat="49.31595" lon="7.18782">
        <ele>0</ele>
        <time>0001-01-01T00:00:00Z</time>
      </trkpt>
      <trkpt lat="49.31621" lon="7.18772">
        <ele>0</ele>
        <time>0001-01-01T00:00:00Z</time>
      </trkpt>
      <trkpt lat="49.31661" lon="7.18742">
        <ele>0</ele>
        <time>0001-01-01T00:00:00Z</time>
      </trkpt>
      <trkpt lat="49.31671" lon="7.18737">
        <ele>0</ele>
        <time>0001-01-01T00:00:00Z</time>
      </trkpt>
      <trkpt lat="49.31679" lon="7.18735">
        <ele>0</ele>
        <time>0001-01-01T00:00:00Z</time>
      </trkpt>
      <trkpt lat="49.31688" lon="7.18736">
        <ele>0</ele>
        <time>0001-01-01T00:00:00Z</time>
      </trkpt>
      <trkpt lat="49.317" lon="7.18741">
        <ele>0</ele>
        <time>0001-01-01T00:00:00Z</time>
      </trkpt>
      <trkpt lat="49.31729" lon="7.18761">
        <ele>0</ele>
        <time>0001-01-01T00:00:00Z</time>
      </trkpt>
      <trkpt lat="49.31745" lon="7.18768">
        <ele>0</ele>
        <time>0001-01-01T00:00:00Z</time>
      </trkpt>
      <trkpt lat="49.31763" lon="7.1877">
        <ele>0</ele>
        <time>0001-01-01T00:00:00Z</time>
      </trkpt>
      <trkpt lat="49.318" lon="7.18766">
        <ele>0</ele>
        <time>0001-01-01T00:00:00Z</time>
      </trkpt>
      <trkpt lat="49.31837" lon="7.18759">
        <ele>0</ele>
        <time>0001-01-01T00:00:00Z</time>
      </trkpt>
      <trkpt lat="49.31848" lon="7.18758">
        <ele>0</ele>
        <time>0001-01-01T00:00:00Z</time>
      </trkpt>
      <trkpt lat="49.31863" lon="7.18759">
        <ele>0</ele>
        <time>0001-01-01T00:00:00Z</time>
      </trkpt>
      <trkpt lat="49.31951" lon="7.18774">
        <ele>0</ele>
        <time>0001-01-01T00:00:00Z</time>
      </trkpt>
      <trkpt lat="49.3197" lon="7.18774">
        <ele>0</ele>
        <time>0001-01-01T00:00:00Z</time>
      </trkpt>
      <trkpt lat="49.31985" lon="7.18772">
        <ele>0</ele>
        <time>0001-01-01T00:00:00Z</time>
      </trkpt>
      <trkpt lat="49.32002" lon="7.18767">
        <ele>0</ele>
        <time>0001-01-01T00:00:00Z</time>
      </trkpt>
      <trkpt lat="49.32069" lon="7.18733">
        <ele>0</ele>
        <time>0001-01-01T00:00:00Z</time>
      </trkpt>
      <trkpt lat="49.32091" lon="7.18727">
        <ele>0</ele>
        <time>0001-01-01T00:00:00Z</time>
      </trkpt>
      <trkpt lat="49.32105" lon="7.18725">
        <ele>0</ele>
        <time>0001-01-01T00:00:00Z</time>
      </trkpt>
      <trkpt lat="49.32113" lon="7.18725">
        <ele>0</ele>
        <time>0001-01-01T00:00:00Z</time>
      </trkpt>
      <trkpt lat="49.3212" lon="7.18724">
        <ele>0</ele>
        <time>0001-01-01T00:00:00Z</time>
      </trkpt>
      <trkpt lat="49.32215" lon="7.18729">
        <ele>0</ele>
        <time>0001-01-01T00:00:00Z</time>
      </trkpt>
      <trkpt lat="49.32228" lon="7.18728">
        <ele>0</ele>
        <time>0001-01-01T00:00:00Z</time>
      </trkpt>
      <trkpt lat="49.32248" lon="7.18723">
        <ele>0</ele>
        <time>0001-01-01T00:00:00Z</time>
      </trkpt>
      <trkpt lat="49.32461" lon="7.18592">
        <ele>0</ele>
        <time>0001-01-01T00:00:00Z</time>
      </trkpt>
      <trkpt lat="49.32476" lon="7.18584">
        <ele>0</ele>
        <time>0001-01-01T00:00:00Z</time>
      </trkpt>
      <trkpt lat="49.32488" lon="7.18579">
        <ele>0</ele>
        <time>0001-01-01T00:00:00Z</time>
      </trkpt>
      <trkpt lat="49.32492" lon="7.18578">
        <ele>0</ele>
        <time>0001-01-01T00:00:00Z</time>
      </trkpt>
      <trkpt lat="49.32504" lon="7.18573">
        <ele>0</ele>
        <time>0001-01-01T00:00:00Z</time>
      </trkpt>
      <trkpt lat="49.3252" lon="7.18571">
        <ele>0</ele>
        <time>0001-01-01T00:00:00Z</time>
      </trkpt>
      <trkpt lat="49.32698" lon="7.18571">
        <ele>0</ele>
        <time>0001-01-01T00:00:00Z</time>
      </trkpt>
      <trkpt lat="49.32733" lon="7.18575">
        <ele>0</ele>
        <time>0001-01-01T00:00:00Z</time>
      </trkpt>
      <trkpt lat="49.32849" lon="7.18596">
        <ele>0</ele>
        <time>0001-01-01T00:00:00Z</time>
      </trkpt>
      <trkpt lat="49.32883" lon="7.18608">
        <ele>0</ele>
        <time>0001-01-01T00:00:00Z</time>
      </trkpt>
      <trkpt lat="49.3294" lon="7.18614">
        <ele>0</ele>
        <time>0001-01-01T00:00:00Z</time>
      </trkpt>
      <trkpt lat="49.3295" lon="7.18616">
        <ele>0</ele>
        <time>0001-01-01T00:00:00Z</time>
      </trkpt>
      <trkpt lat="49.32974" lon="7.18616">
        <ele>0</ele>
        <time>0001-01-01T00:00:00Z</time>
      </trkpt>
      <trkpt lat="49.33083" lon="7.18605">
        <ele>0</ele>
        <time>0001-01-01T00:00:00Z</time>
      </trkpt>
      <trkpt lat="49.331" lon="7.18606">
        <ele>0</ele>
        <time>0001-01-01T00:00:00Z</time>
      </trkpt>
      <trkpt lat="49.33108" lon="7.1861">
        <ele>0</ele>
        <time>0001-01-01T00:00:00Z</time>
      </trkpt>
      <trkpt lat="49.33204" lon="7.18671">
        <ele>0</ele>
        <time>0001-01-01T00:00:00Z</time>
      </trkpt>
      <trkpt lat="49.3332" lon="7.1876">
        <ele>0</ele>
        <time>0001-01-01T00:00:00Z</time>
      </trkpt>
      <trkpt lat="49.33319" lon="7.18761">
        <ele>0</ele>
        <time>0001-01-01T00:00:00Z</time>
      </trkpt>
      <trkpt lat="49.33319" lon="7.18762">
        <ele>0</ele>
        <time>0001-01-01T00:00:00Z</time>
      </trkpt>
      <trkpt lat="49.33318" lon="7.18763">
        <ele>0</ele>
        <time>0001-01-01T00:00:00Z</time>
      </trkpt>
      <trkpt lat="49.33318" lon="7.18765">
        <ele>0</ele>
        <time>0001-01-01T00:00:00Z</time>
      </trkpt>
      <trkpt lat="49.33317" lon="7.18766">
        <ele>0</ele>
        <time>0001-01-01T00:00:00Z</time>
      </trkpt>
      <trkpt lat="49.33317" lon="7.18768">
        <ele>0</ele>
        <time>0001-01-01T00:00:00Z</time>
      </trkpt>
      <trkpt lat="49.33316" lon="7.18769">
        <ele>0</ele>
        <time>0001-01-01T00:00:00Z</time>
      </trkpt>
      <trkpt lat="49.33316" lon="7.18778">
        <ele>0</ele>
        <time>0001-01-01T00:00:00Z</time>
      </trkpt>
      <trkpt lat="49.33317" lon="7.18779">
        <ele>0</ele>
        <time>0001-01-01T00:00:00Z</time>
      </trkpt>
      <trkpt lat="49.33317" lon="7.18781">
        <ele>0</ele>
        <time>0001-01-01T00:00:00Z</time>
      </trkpt>
      <trkpt lat="49.33318" lon="7.18782">
        <ele>0</ele>
        <time>0001-01-01T00:00:00Z</time>
      </trkpt>
      <trkpt lat="49.33318" lon="7.18784">
        <ele>0</ele>
        <time>0001-01-01T00:00:00Z</time>
      </trkpt>
      <trkpt lat="49.33319" lon="7.18785">
        <ele>0</ele>
        <time>0001-01-01T00:00:00Z</time>
      </trkpt>
      <trkpt lat="49.33319" lon="7.18786">
        <ele>0</ele>
        <time>0001-01-01T00:00:00Z</time>
      </trkpt>
      <trkpt lat="49.33323" lon="7.1879">
        <ele>0</ele>
        <time>0001-01-01T00:00:00Z</time>
      </trkpt>
      <trkpt lat="49.33324" lon="7.1879">
        <ele>0</ele>
        <time>0001-01-01T00:00:00Z</time>
      </trkpt>
      <trkpt lat="49.33325" lon="7.18791">
        <ele>0</ele>
        <time>0001-01-01T00:00:00Z</time>
      </trkpt>
      <trkpt lat="49.33327" lon="7.18791">
        <ele>0</ele>
        <time>0001-01-01T00:00:00Z</time>
      </trkpt>
      <trkpt lat="49.33328" lon="7.18792">
        <ele>0</ele>
        <time>0001-01-01T00:00:00Z</time>
      </trkpt>
      <trkpt lat="49.33329" lon="7.18791">
        <ele>0</ele>
        <time>0001-01-01T00:00:00Z</time>
      </trkpt>
      <trkpt lat="49.33331" lon="7.18791">
        <ele>0</ele>
        <time>0001-01-01T00:00:00Z</time>
      </trkpt>
      <trkpt lat="49.33332" lon="7.1879">
        <ele>0</ele>
        <time>0001-01-01T00:00:00Z</time>
      </trkpt>
      <trkpt lat="49.33333" lon="7.1879">
        <ele>0</ele>
        <time>0001-01-01T00:00:00Z</time>
      </trkpt>
      <trkpt lat="49.33337" lon="7.18786">
        <ele>0</ele>
        <time>0001-01-01T00:00:00Z</time>
      </trkpt>
      <trkpt lat="49.33337" lon="7.18784">
        <ele>0</ele>
        <time>0001-01-01T00:00:00Z</time>
      </trkpt>
      <trkpt lat="49.33338" lon="7.18784">
        <ele>0</ele>
        <time>0001-01-01T00:00:00Z</time>
      </trkpt>
      <trkpt lat="49.33338" lon="7.18782">
        <ele>0</ele>
        <time>0001-01-01T00:00:00Z</time>
      </trkpt>
      <trkpt lat="49.33339" lon="7.18781">
        <ele>0</ele>
        <time>0001-01-01T00:00:00Z</time>
      </trkpt>
      <trkpt lat="49.33339" lon="7.18778">
        <ele>0</ele>
        <time>0001-01-01T00:00:00Z</time>
      </trkpt>
      <trkpt lat="49.3334" lon="7.18778">
        <ele>0</ele>
        <time>0001-01-01T00:00:00Z</time>
      </trkpt>
      <trkpt lat="49.3334" lon="7.1877">
        <ele>0</ele>
        <time>0001-01-01T00:00:00Z</time>
      </trkpt>
      <trkpt lat="49.33339" lon="7.18768">
        <ele>0</ele>
        <time>0001-01-01T00:00:00Z</time>
      </trkpt>
      <trkpt lat="49.33369" lon="7.18749">
        <ele>0</ele>
        <time>0001-01-01T00:00:00Z</time>
      </trkpt>
      <trkpt lat="49.33415" lon="7.1875">
        <ele>0</ele>
        <time>0001-01-01T00:00:00Z</time>
      </trkpt>
      <trkpt lat="49.33441" lon="7.18746">
        <ele>0</ele>
        <time>0001-01-01T00:00:00Z</time>
      </trkpt>
      <trkpt lat="49.33452" lon="7.18743">
        <ele>0</ele>
        <time>0001-01-01T00:00:00Z</time>
      </trkpt>
      <trkpt lat="49.33461" lon="7.18739">
        <ele>0</ele>
        <time>0001-01-01T00:00:00Z</time>
      </trkpt>
      <trkpt lat="49.33491" lon="7.18722">
        <ele>0</ele>
        <time>0001-01-01T00:00:00Z</time>
      </trkpt>
      <trkpt lat="49.33478" lon="7.1864">
        <ele>0</ele>
        <time>0001-01-01T00:00:00Z</time>
      </trkpt>
      <trkpt lat="49.33616" lon="7.18446">
        <ele>0</ele>
        <time>0001-01-01T00:00:00Z</time>
      </trkpt>
      <trkpt lat="49.33673" lon="7.18375">
        <ele>0</ele>
        <time>0001-01-01T00:00:00Z</time>
      </trkpt>
      <trkpt lat="49.33681" lon="7.18368">
        <ele>0</ele>
        <time>0001-01-01T00:00:00Z</time>
      </trkpt>
      <trkpt lat="49.33705" lon="7.18357">
        <ele>0</ele>
        <time>0001-01-01T00:00:00Z</time>
      </trkpt>
      <trkpt lat="49.33756" lon="7.18344">
        <ele>0</ele>
        <time>0001-01-01T00:00:00Z</time>
      </trkpt>
      <trkpt lat="49.33763" lon="7.18343">
        <ele>0</ele>
        <time>0001-01-01T00:00:00Z</time>
      </trkpt>
      <trkpt lat="49.33774" lon="7.18339">
        <ele>0</ele>
        <time>0001-01-01T00:00:00Z</time>
      </trkpt>
      <trkpt lat="49.33795" lon="7.18329">
        <ele>0</ele>
        <time>0001-01-01T00:00:00Z</time>
      </trkpt>
      <trkpt lat="49.3391" lon="7.18246">
        <ele>0</ele>
        <time>0001-01-01T00:00:00Z</time>
      </trkpt>
      <trkpt lat="49.33917" lon="7.18243">
        <ele>0</ele>
        <time>0001-01-01T00:00:00Z</time>
      </trkpt>
      <trkpt lat="49.33939" lon="7.18222">
        <ele>0</ele>
        <time>0001-01-01T00:00:00Z</time>
      </trkpt>
      <trkpt lat="49.3397" lon="7.18182">
        <ele>0</ele>
        <time>0001-01-01T00:00:00Z</time>
      </trkpt>
      <trkpt lat="49.33986" lon="7.18155">
        <ele>0</ele>
        <time>0001-01-01T00:00:00Z</time>
      </trkpt>
      <trkpt lat="49.34006" lon="7.18105">
        <ele>0</ele>
        <time>0001-01-01T00:00:00Z</time>
      </trkpt>
      <trkpt lat="49.34006" lon="7.18098">
        <ele>0</ele>
        <time>0001-01-01T00:00:00Z</time>
      </trkpt>
      <trkpt lat="49.34019" lon="7.1807">
        <ele>0</ele>
        <time>0001-01-01T00:00:00Z</time>
      </trkpt>
      <trkpt lat="49.34024" lon="7.18062">
        <ele>0</ele>
        <time>0001-01-01T00:00:00Z</time>
      </trkpt>
      <trkpt lat="49.3404" lon="7.18049">
        <ele>0</ele>
        <time>0001-01-01T00:00:00Z</time>
      </trkpt>
      <trkpt lat="49.34058" lon="7.1805">
        <ele>0</ele>
        <time>0001-01-01T00:00:00Z</time>
      </trkpt>
      <trkpt lat="49.3406" lon="7.18051">
        <ele>0</ele>
        <time>0001-01-01T00:00:00Z</time>
      </trkpt>
      <trkpt lat="49.34195" lon="7.18073">
        <ele>0</ele>
        <time>0001-01-01T00:00:00Z</time>
      </trkpt>
      <trkpt lat="49.34203" lon="7.18076">
        <ele>0</ele>
        <time>0001-01-01T00:00:00Z</time>
      </trkpt>
      <trkpt lat="49.3421" lon="7.18076">
        <ele>0</ele>
        <time>0001-01-01T00:00:00Z</time>
      </trkpt>
      <trkpt lat="49.34222" lon="7.18074">
        <ele>0</ele>
        <time>0001-01-01T00:00:00Z</time>
      </trkpt>
      <trkpt lat="49.3424" lon="7.18061">
        <ele>0</ele>
        <time>0001-01-01T00:00:00Z</time>
      </trkpt>
      <trkpt lat="49.34283" lon="7.18037">
        <ele>0</ele>
        <time>0001-01-01T00:00:00Z</time>
      </trkpt>
      <trkpt lat="49.34297" lon="7.18031">
        <ele>0</ele>
        <time>0001-01-01T00:00:00Z</time>
      </trkpt>
      <trkpt lat="49.34351" lon="7.18017">
        <ele>0</ele>
        <time>0001-01-01T00:00:00Z</time>
      </trkpt>
      <trkpt lat="49.34355" lon="7.18011">
        <ele>0</ele>
        <time>0001-01-01T00:00:00Z</time>
      </trkpt>
      <trkpt lat="49.344" lon="7.18004">
        <ele>0</ele>
        <time>0001-01-01T00:00:00Z</time>
      </trkpt>
      <trkpt lat="49.34411" lon="7.18011">
        <ele>0</ele>
        <time>0001-01-01T00:00:00Z</time>
      </trkpt>
      <trkpt lat="49.34435" lon="7.18021">
        <ele>0</ele>
        <time>0001-01-01T00:00:00Z</time>
      </trkpt>
      <trkpt lat="49.34445" lon="7.18024">
        <ele>0</ele>
        <time>0001-01-01T00:00:00Z</time>
      </trkpt>
      <trkpt lat="49.34502" lon="7.18029">
        <ele>0</ele>
        <time>0001-01-01T00:00:00Z</time>
      </trkpt>
      <trkpt lat="49.34509" lon="7.18031">
        <ele>0</ele>
        <time>0001-01-01T00:00:00Z</time>
      </trkpt>
      <trkpt lat="49.34516" lon="7.18034">
        <ele>0</ele>
        <time>0001-01-01T00:00:00Z</time>
      </trkpt>
      <trkpt lat="49.34574" lon="7.18066">
        <ele>0</ele>
        <time>0001-01-01T00:00:00Z</time>
      </trkpt>
      <trkpt lat="49.34582" lon="7.18066">
        <ele>0</ele>
        <time>0001-01-01T00:00:00Z</time>
      </trkpt>
      <trkpt lat="49.34591" lon="7.18064">
        <ele>0</ele>
        <time>0001-01-01T00:00:00Z</time>
      </trkpt>
      <trkpt lat="49.34593" lon="7.18064">
        <ele>0</ele>
        <time>0001-01-01T00:00:00Z</time>
      </trkpt>
      <trkpt lat="49.34594" lon="7.18063">
        <ele>0</ele>
        <time>0001-01-01T00:00:00Z</time>
      </trkpt>
      <trkpt lat="49.34595" lon="7.18063">
        <ele>0</ele>
        <time>0001-01-01T00:00:00Z</time>
      </trkpt>
      <trkpt lat="49.34598" lon="7.1806">
        <ele>0</ele>
        <time>0001-01-01T00:00:00Z</time>
      </trkpt>
      <trkpt lat="49.34607" lon="7.18044">
        <ele>0</ele>
        <time>0001-01-01T00:00:00Z</time>
      </trkpt>
      <trkpt lat="49.34609" lon="7.18038">
        <ele>0</ele>
        <time>0001-01-01T00:00:00Z</time>
      </trkpt>
      <trkpt lat="49.3462" lon="7.18014">
        <ele>0</ele>
        <time>0001-01-01T00:00:00Z</time>
      </trkpt>
      <trkpt lat="49.34635" lon="7.18005">
        <ele>0</ele>
        <time>0001-01-01T00:00:00Z</time>
      </trkpt>
      <trkpt lat="49.34638" lon="7.18005">
        <ele>0</ele>
        <time>0001-01-01T00:00:00Z</time>
      </trkpt>
      <trkpt lat="49.34641" lon="7.18004">
        <ele>0</ele>
        <time>0001-01-01T00:00:00Z</time>
      </trkpt>
      <trkpt lat="49.34644" lon="7.18004">
        <ele>0</ele>
        <time>0001-01-01T00:00:00Z</time>
      </trkpt>
      <trkpt lat="49.34667" lon="7.18008">
        <ele>0</ele>
        <time>0001-01-01T00:00:00Z</time>
      </trkpt>
      <trkpt lat="49.34678" lon="7.18011">
        <ele>0</ele>
        <time>0001-01-01T00:00:00Z</time>
      </trkpt>
      <trkpt lat="49.34704" lon="7.1798">
        <ele>0</ele>
        <time>0001-01-01T00:00:00Z</time>
      </trkpt>
      <trkpt lat="49.34711" lon="7.17973">
        <ele>0</ele>
        <time>0001-01-01T00:00:00Z</time>
      </trkpt>
      <trkpt lat="49.34716" lon="7.17963">
        <ele>0</ele>
        <time>0001-01-01T00:00:00Z</time>
      </trkpt>
      <trkpt lat="49.34721" lon="7.17957">
        <ele>0</ele>
        <time>0001-01-01T00:00:00Z</time>
      </trkpt>
      <trkpt lat="49.34742" lon="7.17938">
        <ele>0</ele>
        <time>0001-01-01T00:00:00Z</time>
      </trkpt>
      <trkpt lat="49.34759" lon="7.17919">
        <ele>0</ele>
        <time>0001-01-01T00:00:00Z</time>
      </trkpt>
      <trkpt lat="49.34796" lon="7.17871">
        <ele>0</ele>
        <time>0001-01-01T00:00:00Z</time>
      </trkpt>
      <trkpt lat="49.34843" lon="7.17832">
        <ele>0</ele>
        <time>0001-01-01T00:00:00Z</time>
      </trkpt>
      <trkpt lat="49.34875" lon="7.17812">
        <ele>0</ele>
        <time>0001-01-01T00:00:00Z</time>
      </trkpt>
      <trkpt lat="49.34893" lon="7.17804">
        <ele>0</ele>
        <time>0001-01-01T00:00:00Z</time>
      </trkpt>
      <trkpt lat="49.34885" lon="7.17774">
        <ele>0</ele>
        <time>0001-01-01T00:00:00Z</time>
      </trkpt>
      <trkpt lat="49.34882" lon="7.17756">
        <ele>0</ele>
        <time>0001-01-01T00:00:00Z</time>
      </trkpt>
      <trkpt lat="49.34851" lon="7.17448">
        <ele>0</ele>
        <time>0001-01-01T00:00:00Z</time>
      </trkpt>
      <trkpt lat="49.34851" lon="7.17441">
        <ele>0</ele>
        <time>0001-01-01T00:00:00Z</time>
      </trkpt>
      <trkpt lat="49.34852" lon="7.17433">
        <ele>0</ele>
        <time>0001-01-01T00:00:00Z</time>
      </trkpt>
      <trkpt lat="49.34852" lon="7.17413">
        <ele>0</ele>
        <time>0001-01-01T00:00:00Z</time>
      </trkpt>
      <trkpt lat="49.34855" lon="7.17396">
        <ele>0</ele>
        <time>0001-01-01T00:00:00Z</time>
      </trkpt>
      <trkpt lat="49.34859" lon="7.17386">
        <ele>0</ele>
        <time>0001-01-01T00:00:00Z</time>
      </trkpt>
      <trkpt lat="49.34894" lon="7.17213">
        <ele>0</ele>
        <time>0001-01-01T00:00:00Z</time>
      </trkpt>
      <trkpt lat="49.34892" lon="7.17054">
        <ele>0</ele>
        <time>0001-01-01T00:00:00Z</time>
      </trkpt>
      <trkpt lat="49.34898" lon="7.16998">
        <ele>0</ele>
        <time>0001-01-01T00:00:00Z</time>
      </trkpt>
      <trkpt lat="49.34905" lon="7.16973">
        <ele>0</ele>
        <time>0001-01-01T00:00:00Z</time>
      </trkpt>
      <trkpt lat="49.34905" lon="7.16972">
        <ele>0</ele>
        <time>0001-01-01T00:00:00Z</time>
      </trkpt>
      <trkpt lat="49.34907" lon="7.16972">
        <ele>0</ele>
        <time>0001-01-01T00:00:00Z</time>
      </trkpt>
      <trkpt lat="49.34908" lon="7.16971">
        <ele>0</ele>
        <time>0001-01-01T00:00:00Z</time>
      </trkpt>
      <trkpt lat="49.34909" lon="7.16971">
        <ele>0</ele>
        <time>0001-01-01T00:00:00Z</time>
      </trkpt>
      <trkpt lat="49.34909" lon="7.1697">
        <ele>0</ele>
        <time>0001-01-01T00:00:00Z</time>
      </trkpt>
      <trkpt lat="49.3491" lon="7.1697">
        <ele>0</ele>
        <time>0001-01-01T00:00:00Z</time>
      </trkpt>
      <trkpt lat="49.3491" lon="7.16969">
        <ele>0</ele>
        <time>0001-01-01T00:00:00Z</time>
      </trkpt>
      <trkpt lat="49.34911" lon="7.16969">
        <ele>0</ele>
        <time>0001-01-01T00:00:00Z</time>
      </trkpt>
      <trkpt lat="49.34911" lon="7.16968">
        <ele>0</ele>
        <time>0001-01-01T00:00:00Z</time>
      </trkpt>
      <trkpt lat="49.34913" lon="7.16966">
        <ele>0</ele>
        <time>0001-01-01T00:00:00Z</time>
      </trkpt>
      <trkpt lat="49.34913" lon="7.16965">
        <ele>0</ele>
        <time>0001-01-01T00:00:00Z</time>
      </trkpt>
      <trkpt lat="49.34914" lon="7.16964">
        <ele>0</ele>
        <time>0001-01-01T00:00:00Z</time>
      </trkpt>
      <trkpt lat="49.34914" lon="7.16962">
        <ele>0</ele>
        <time>0001-01-01T00:00:00Z</time>
      </trkpt>
      <trkpt lat="49.34915" lon="7.16962">
        <ele>0</ele>
        <time>0001-01-01T00:00:00Z</time>
      </trkpt>
      <trkpt lat="49.34915" lon="7.16956">
        <ele>0</ele>
        <time>0001-01-01T00:00:00Z</time>
      </trkpt>
      <trkpt lat="49.34916" lon="7.16955">
        <ele>0</ele>
        <time>0001-01-01T00:00:00Z</time>
      </trkpt>
      <trkpt lat="49.34916" lon="7.16953">
        <ele>0</ele>
        <time>0001-01-01T00:00:00Z</time>
      </trkpt>
      <trkpt lat="49.34915" lon="7.16952">
        <ele>0</ele>
        <time>0001-01-01T00:00:00Z</time>
      </trkpt>
      <trkpt lat="49.34915" lon="7.16947">
        <ele>0</ele>
        <time>0001-01-01T00:00:00Z</time>
      </trkpt>
      <trkpt lat="49.34914" lon="7.16946">
        <ele>0</ele>
        <time>0001-01-01T00:00:00Z</time>
      </trkpt>
      <trkpt lat="49.34914" lon="7.16944">
        <ele>0</ele>
        <time>0001-01-01T00:00:00Z</time>
      </trkpt>
      <trkpt lat="49.34913" lon="7.16944">
        <ele>0</ele>
        <time>0001-01-01T00:00:00Z</time>
      </trkpt>
      <trkpt lat="49.34913" lon="7.16942">
        <ele>0</ele>
        <time>0001-01-01T00:00:00Z</time>
      </trkpt>
      <trkpt lat="49.34911" lon="7.1694">
        <ele>0</ele>
        <time>0001-01-01T00:00:00Z</time>
      </trkpt>
      <trkpt lat="49.34911" lon="7.16939">
        <ele>0</ele>
        <time>0001-01-01T00:00:00Z</time>
      </trkpt>
      <trkpt lat="49.3491" lon="7.16939">
        <ele>0</ele>
        <time>0001-01-01T00:00:00Z</time>
      </trkpt>
      <trkpt lat="49.34933" lon="7.16853">
        <ele>0</ele>
        <time>0001-01-01T00:00:00Z</time>
      </trkpt>
      <trkpt lat="49.34939" lon="7.1681">
        <ele>0</ele>
        <time>0001-01-01T00:00:00Z</time>
      </trkpt>
      <trkpt lat="49.34942" lon="7.1677">
        <ele>0</ele>
        <time>0001-01-01T00:00:00Z</time>
      </trkpt>
      <trkpt lat="49.34941" lon="7.16729">
        <ele>0</ele>
        <time>0001-01-01T00:00:00Z</time>
      </trkpt>
      <trkpt lat="49.34929" lon="7.16663">
        <ele>0</ele>
        <time>0001-01-01T00:00:00Z</time>
      </trkpt>
      <trkpt lat="49.34915" lon="7.16619">
        <ele>0</ele>
        <time>0001-01-01T00:00:00Z</time>
      </trkpt>
      <trkpt lat="49.34889" lon="7.16557">
        <ele>0</ele>
        <time>0001-01-01T00:00:00Z</time>
      </trkpt>
      <trkpt lat="49.34858" lon="7.16471">
        <ele>0</ele>
        <time>0001-01-01T00:00:00Z</time>
      </trkpt>
      <trkpt lat="49.34851" lon="7.16446">
        <ele>0</ele>
        <time>0001-01-01T00:00:00Z</time>
      </trkpt>
      <trkpt lat="49.34849" lon="7.16427">
        <ele>0</ele>
        <time>0001-01-01T00:00:00Z</time>
      </trkpt>
      <trkpt lat="49.34853" lon="7.16399">
        <ele>0</ele>
        <time>0001-01-01T00:00:00Z</time>
      </trkpt>
      <trkpt lat="49.34861" lon="7.16369">
        <ele>0</ele>
        <time>0001-01-01T00:00:00Z</time>
      </trkpt>
      <trkpt lat="49.3487" lon="7.16349">
        <ele>0</ele>
        <time>0001-01-01T00:00:00Z</time>
      </trkpt>
      <trkpt lat="49.34871" lon="7.16343">
        <ele>0</ele>
        <time>0001-01-01T00:00:00Z</time>
      </trkpt>
      <trkpt lat="49.34872" lon="7.16341">
        <ele>0</ele>
        <time>0001-01-01T00:00:00Z</time>
      </trkpt>
      <trkpt lat="49.34883" lon="7.16328">
        <ele>0</ele>
        <time>0001-01-01T00:00:00Z</time>
      </trkpt>
      <trkpt lat="49.34901" lon="7.16317">
        <ele>0</ele>
        <time>0001-01-01T00:00:00Z</time>
      </trkpt>
      <trkpt lat="49.34918" lon="7.16309">
        <ele>0</ele>
        <time>0001-01-01T00:00:00Z</time>
      </trkpt>
      <trkpt lat="49.35006" lon="7.16276">
        <ele>0</ele>
        <time>0001-01-01T00:00:00Z</time>
      </trkpt>
      <trkpt lat="49.35021" lon="7.16272">
        <ele>0</ele>
        <time>0001-01-01T00:00:00Z</time>
      </trkpt>
      <trkpt lat="49.35026" lon="7.1627">
        <ele>0</ele>
        <time>0001-01-01T00:00:00Z</time>
      </trkpt>
      <trkpt lat="49.35051" lon="7.16265">
        <ele>0</ele>
        <time>0001-01-01T00:00:00Z</time>
      </trkpt>
      <trkpt lat="49.35084" lon="7.16263">
        <ele>0</ele>
        <time>0001-01-01T00:00:00Z</time>
      </trkpt>
      <trkpt lat="49.35103" lon="7.16264">
        <ele>0</ele>
        <time>0001-01-01T00:00:00Z</time>
      </trkpt>
      <trkpt lat="49.35118" lon="7.16266">
        <ele>0</ele>
        <time>0001-01-01T00:00:00Z</time>
      </trkpt>
      <trkpt lat="49.35134" lon="7.16271">
        <ele>0</ele>
        <time>0001-01-01T00:00:00Z</time>
      </trkpt>
      <trkpt lat="49.35154" lon="7.16283">
        <ele>0</ele>
        <time>0001-01-01T00:00:00Z</time>
      </trkpt>
      <trkpt lat="49.35165" lon="7.16288">
        <ele>0</ele>
        <time>0001-01-01T00:00:00Z</time>
      </trkpt>
      <trkpt lat="49.35287" lon="7.16417">
        <ele>0</ele>
        <time>0001-01-01T00:00:00Z</time>
      </trkpt>
      <trkpt lat="49.35317" lon="7.16442">
        <ele>0</ele>
        <time>0001-01-01T00:00:00Z</time>
      </trkpt>
      <trkpt lat="49.35348" lon="7.16464">
        <ele>0</ele>
        <time>0001-01-01T00:00:00Z</time>
      </trkpt>
      <trkpt lat="49.35376" lon="7.1648">
        <ele>0</ele>
        <time>0001-01-01T00:00:00Z</time>
      </trkpt>
      <trkpt lat="49.35401" lon="7.16491">
        <ele>0</ele>
        <time>0001-01-01T00:00:00Z</time>
      </trkpt>
      <trkpt lat="49.35425" lon="7.16499">
        <ele>0</ele>
        <time>0001-01-01T00:00:00Z</time>
      </trkpt>
      <trkpt lat="49.35446" lon="7.16504">
        <ele>0</ele>
        <time>0001-01-01T00:00:00Z</time>
      </trkpt>
      <trkpt lat="49.35488" lon="7.16511">
        <ele>0</ele>
        <time>0001-01-01T00:00:00Z</time>
      </trkpt>
      <trkpt lat="49.35553" lon="7.16506">
        <ele>0</ele>
        <time>0001-01-01T00:00:00Z</time>
      </trkpt>
      <trkpt lat="49.35593" lon="7.16495">
        <ele>0</ele>
        <time>0001-01-01T00:00:00Z</time>
      </trkpt>
      <trkpt lat="49.35618" lon="7.16485">
        <ele>0</ele>
        <time>0001-01-01T00:00:00Z</time>
      </trkpt>
      <trkpt lat="49.35637" lon="7.16475">
        <ele>0</ele>
        <time>0001-01-01T00:00:00Z</time>
      </trkpt>
      <trkpt lat="49.35675" lon="7.16451">
        <ele>0</ele>
        <time>0001-01-01T00:00:00Z</time>
      </trkpt>
      <trkpt lat="49.357" lon="7.16432">
        <ele>0</ele>
        <time>0001-01-01T00:00:00Z</time>
      </trkpt>
      <trkpt lat="49.35734" lon="7.16399">
        <ele>0</ele>
        <time>0001-01-01T00:00:00Z</time>
      </trkpt>
      <trkpt lat="49.35742" lon="7.16387">
        <ele>0</ele>
        <time>0001-01-01T00:00:00Z</time>
      </trkpt>
      <trkpt lat="49.35777" lon="7.16345">
        <ele>0</ele>
        <time>0001-01-01T00:00:00Z</time>
      </trkpt>
      <trkpt lat="49.35819" lon="7.16274">
        <ele>0</ele>
        <time>0001-01-01T00:00:00Z</time>
      </trkpt>
      <trkpt lat="49.35857" lon="7.16187">
        <ele>0</ele>
        <time>0001-01-01T00:00:00Z</time>
      </trkpt>
      <trkpt lat="49.35877" lon="7.16122">
        <ele>0</ele>
        <time>0001-01-01T00:00:00Z</time>
      </trkpt>
      <trkpt lat="49.35893" lon="7.16051">
        <ele>0</ele>
        <time>0001-01-01T00:00:00Z</time>
      </trkpt>
      <trkpt lat="49.35903" lon="7.15979">
        <ele>0</ele>
        <time>0001-01-01T00:00:00Z</time>
      </trkpt>
      <trkpt lat="49.35934" lon="7.15672">
        <ele>0</ele>
        <time>0001-01-01T00:00:00Z</time>
      </trkpt>
      <trkpt lat="49.35941" lon="7.15628">
        <ele>0</ele>
        <time>0001-01-01T00:00:00Z</time>
      </trkpt>
      <trkpt lat="49.35966" lon="7.15518">
        <ele>0</ele>
        <time>0001-01-01T00:00:00Z</time>
      </trkpt>
      <trkpt lat="49.36001" lon="7.15424">
        <ele>0</ele>
        <time>0001-01-01T00:00:00Z</time>
      </trkpt>
      <trkpt lat="49.36035" lon="7.15358">
        <ele>0</ele>
        <time>0001-01-01T00:00:00Z</time>
      </trkpt>
      <trkpt lat="49.36064" lon="7.15311">
        <ele>0</ele>
        <time>0001-01-01T00:00:00Z</time>
      </trkpt>
      <trkpt lat="49.3608" lon="7.15291">
        <ele>0</ele>
        <time>0001-01-01T00:00:00Z</time>
      </trkpt>
      <trkpt lat="49.36103" lon="7.15266">
        <ele>0</ele>
        <time>0001-01-01T00:00:00Z</time>
      </trkpt>
      <trkpt lat="49.36112" lon="7.15261">
        <ele>0</ele>
        <time>0001-01-01T00:00:00Z</time>
      </trkpt>
      <trkpt lat="49.36127" lon="7.15247">
        <ele>0</ele>
        <time>0001-01-01T00:00:00Z</time>
      </trkpt>
      <trkpt lat="49.36164" lon="7.15218">
        <ele>0</ele>
        <time>0001-01-01T00:00:00Z</time>
      </trkpt>
      <trkpt lat="49.36169" lon="7.15213">
        <ele>0</ele>
        <time>0001-01-01T00:00:00Z</time>
      </trkpt>
      <trkpt lat="49.36197" lon="7.15195">
        <ele>0</ele>
        <time>0001-01-01T00:00:00Z</time>
      </trkpt>
      <trkpt lat="49.36221" lon="7.15182">
        <ele>0</ele>
        <time>0001-01-01T00:00:00Z</time>
      </trkpt>
      <trkpt lat="49.36268" lon="7.15163">
        <ele>0</ele>
        <time>0001-01-01T00:00:00Z</time>
      </trkpt>
      <trkpt lat="49.36304" lon="7.15155">
        <ele>0</ele>
        <time>0001-01-01T00:00:00Z</time>
      </trkpt>
      <trkpt lat="49.3631" lon="7.15151">
        <ele>0</ele>
        <time>0001-01-01T00:00:00Z</time>
      </trkpt>
      <trkpt lat="49.36413" lon="7.15142">
        <ele>0</ele>
        <time>0001-01-01T00:00:00Z</time>
      </trkpt>
      <trkpt lat="49.36431" lon="7.15138">
        <ele>0</ele>
        <time>0001-01-01T00:00:00Z</time>
      </trkpt>
      <trkpt lat="49.36454" lon="7.1513">
        <ele>0</ele>
        <time>0001-01-01T00:00:00Z</time>
      </trkpt>
      <trkpt lat="49.36463" lon="7.15125">
        <ele>0</ele>
        <time>0001-01-01T00:00:00Z</time>
      </trkpt>
      <trkpt lat="49.36471" lon="7.15122">
        <ele>0</ele>
        <time>0001-01-01T00:00:00Z</time>
      </trkpt>
      <trkpt lat="49.36515" lon="7.1509">
        <ele>0</ele>
        <time>0001-01-01T00:00:00Z</time>
      </trkpt>
      <trkpt lat="49.3654" lon="7.15064">
        <ele>0</ele>
        <time>0001-01-01T00:00:00Z</time>
      </trkpt>
      <trkpt lat="49.36565" lon="7.15031">
        <ele>0</ele>
        <time>0001-01-01T00:00:00Z</time>
      </trkpt>
      <trkpt lat="49.36723" lon="7.14773">
        <ele>0</ele>
        <time>0001-01-01T00:00:00Z</time>
      </trkpt>
      <trkpt lat="49.36748" lon="7.14736">
        <ele>0</ele>
        <time>0001-01-01T00:00:00Z</time>
      </trkpt>
      <trkpt lat="49.3676" lon="7.14722">
        <ele>0</ele>
        <time>0001-01-01T00:00:00Z</time>
      </trkpt>
      <trkpt lat="49.36792" lon="7.1469">
        <ele>0</ele>
        <time>0001-01-01T00:00:00Z</time>
      </trkpt>
      <trkpt lat="49.36826" lon="7.14666">
        <ele>0</ele>
        <time>0001-01-01T00:00:00Z</time>
      </trkpt>
      <trkpt lat="49.36852" lon="7.14654">
        <ele>0</ele>
        <time>0001-01-01T00:00:00Z</time>
      </trkpt>
      <trkpt lat="49.36895" lon="7.14643">
        <ele>0</ele>
        <time>0001-01-01T00:00:00Z</time>
      </trkpt>
      <trkpt lat="49.36914" lon="7.14642">
        <ele>0</ele>
        <time>0001-01-01T00:00:00Z</time>
      </trkpt>
      <trkpt lat="49.36995" lon="7.14647">
        <ele>0</ele>
        <time>0001-01-01T00:00:00Z</time>
      </trkpt>
      <trkpt lat="49.37" lon="7.14648">
        <ele>0</ele>
        <time>0001-01-01T00:00:00Z</time>
      </trkpt>
      <trkpt lat="49.37059" lon="7.14651">
        <ele>0</ele>
        <time>0001-01-01T00:00:00Z</time>
      </trkpt>
      <trkpt lat="49.38006" lon="7.14735">
        <ele>0</ele>
        <time>0001-01-01T00:00:00Z</time>
      </trkpt>
      <trkpt lat="49.38053" lon="7.14744">
        <ele>0</ele>
        <time>0001-01-01T00:00:00Z</time>
      </trkpt>
      <trkpt lat="49.38078" lon="7.14746">
        <ele>0</ele>
        <time>0001-01-01T00:00:00Z</time>
      </trkpt>
      <trkpt lat="49.38106" lon="7.14753">
        <ele>0</ele>
        <time>0001-01-01T00:00:00Z</time>
      </trkpt>
      <trkpt lat="49.38124" lon="7.1476">
        <ele>0</ele>
        <time>0001-01-01T00:00:00Z</time>
      </trkpt>
      <trkpt lat="49.38166" lon="7.14783">
        <ele>0</ele>
        <time>0001-01-01T00:00:00Z</time>
      </trkpt>
      <trkpt lat="49.38672" lon="7.15092">
        <ele>0</ele>
        <time>0001-01-01T00:00:00Z</time>
      </trkpt>
      <trkpt lat="49.38695" lon="7.15104">
        <ele>0</ele>
        <time>0001-01-01T00:00:00Z</time>
      </trkpt>
      <trkpt lat="49.38701" lon="7.15108">
        <ele>0</ele>
        <time>0001-01-01T00:00:00Z</time>
      </trkpt>
      <trkpt lat="49.38713" lon="7.15118">
        <ele>0</ele>
        <time>0001-01-01T00:00:00Z</time>
      </trkpt>
      <trkpt lat="49.38767" lon="7.15148">
        <ele>0</ele>
        <time>0001-01-01T00:00:00Z</time>
      </trkpt>
      <trkpt lat="49.38792" lon="7.15158">
        <ele>0</ele>
        <time>0001-01-01T00:00:00Z</time>
      </trkpt>
      <trkpt lat="49.38818" lon="7.15164">
        <ele>0</ele>
        <time>0001-01-01T00:00:00Z</time>
      </trkpt>
      <trkpt lat="49.38829" lon="7.15165">
        <ele>0</ele>
        <time>0001-01-01T00:00:00Z</time>
      </trkpt>
      <trkpt lat="49.38848" lon="7.15165">
        <ele>0</ele>
        <time>0001-01-01T00:00:00Z</time>
      </trkpt>
      <trkpt lat="49.38899" lon="7.15159">
        <ele>0</ele>
        <time>0001-01-01T00:00:00Z</time>
      </trkpt>
      <trkpt lat="49.38946" lon="7.15151">
        <ele>0</ele>
        <time>0001-01-01T00:00:00Z</time>
      </trkpt>
      <trkpt lat="49.38981" lon="7.15147">
        <ele>0</ele>
        <time>0001-01-01T00:00:00Z</time>
      </trkpt>
      <trkpt lat="49.39005" lon="7.15147">
        <ele>0</ele>
        <time>0001-01-01T00:00:00Z</time>
      </trkpt>
      <trkpt lat="49.39031" lon="7.15149">
        <ele>0</ele>
        <time>0001-01-01T00:00:00Z</time>
      </trkpt>
      <trkpt lat="49.39054" lon="7.15159">
        <ele>0</ele>
        <time>0001-01-01T00:00:00Z</time>
      </trkpt>
      <trkpt lat="49.39065" lon="7.15165">
        <ele>0</ele>
        <time>0001-01-01T00:00:00Z</time>
      </trkpt>
      <trkpt lat="49.39077" lon="7.15174">
        <ele>0</ele>
        <time>0001-01-01T00:00:00Z</time>
      </trkpt>
      <trkpt lat="49.39122" lon="7.15217">
        <ele>0</ele>
        <time>0001-01-01T00:00:00Z</time>
      </trkpt>
      <trkpt lat="49.39133" lon="7.15234">
        <ele>0</ele>
        <time>0001-01-01T00:00:00Z</time>
      </trkpt>
      <trkpt lat="49.39147" lon="7.1526">
        <ele>0</ele>
        <time>0001-01-01T00:00:00Z</time>
      </trkpt>
      <trkpt lat="49.39248" lon="7.15524">
        <ele>0</ele>
        <time>0001-01-01T00:00:00Z</time>
      </trkpt>
      <trkpt lat="49.39287" lon="7.15638">
        <ele>0</ele>
        <time>0001-01-01T00:00:00Z</time>
      </trkpt>
      <trkpt lat="49.39303" lon="7.15694">
        <ele>0</ele>
        <time>0001-01-01T00:00:00Z</time>
      </trkpt>
      <trkpt lat="49.39314" lon="7.15762">
        <ele>0</ele>
        <time>0001-01-01T00:00:00Z</time>
      </trkpt>
      <trkpt lat="49.39323" lon="7.15921">
        <ele>0</ele>
        <time>0001-01-01T00:00:00Z</time>
      </trkpt>
      <trkpt lat="49.39333" lon="7.16008">
        <ele>0</ele>
        <time>0001-01-01T00:00:00Z</time>
      </trkpt>
      <trkpt lat="49.39342" lon="7.16046">
        <ele>0</ele>
        <time>0001-01-01T00:00:00Z</time>
      </trkpt>
      <trkpt lat="49.39358" lon="7.16087">
        <ele>0</ele>
        <time>0001-01-01T00:00:00Z</time>
      </trkpt>
      <trkpt lat="49.3937" lon="7.16113">
        <ele>0</ele>
        <time>0001-01-01T00:00:00Z</time>
      </trkpt>
      <trkpt lat="49.39398" lon="7.16158">
        <ele>0</ele>
        <time>0001-01-01T00:00:00Z</time>
      </trkpt>
      <trkpt lat="49.39684" lon="7.16578">
        <ele>0</ele>
        <time>0001-01-01T00:00:00Z</time>
      </trkpt>
      <trkpt lat="49.39693" lon="7.16589">
        <ele>0</ele>
        <time>0001-01-01T00:00:00Z</time>
      </trkpt>
      <trkpt lat="49.39702" lon="7.16597">
        <ele>0</ele>
        <time>0001-01-01T00:00:00Z</time>
      </trkpt>
      <trkpt lat="49.39703" lon="7.16599">
        <ele>0</ele>
        <time>0001-01-01T00:00:00Z</time>
      </trkpt>
      <trkpt lat="49.39719" lon="7.16611">
        <ele>0</ele>
        <time>0001-01-01T00:00:00Z</time>
      </trkpt>
      <trkpt lat="49.39734" lon="7.1662">
        <ele>0</ele>
        <time>0001-01-01T00:00:00Z</time>
      </trkpt>
      <trkpt lat="49.39747" lon="7.16626">
        <ele>0</ele>
        <time>0001-01-01T00:00:00Z</time>
      </trkpt>
      <trkpt lat="49.39766" lon="7.16632">
        <ele>0</ele>
        <time>0001-01-01T00:00:00Z</time>
      </trkpt>
      <trkpt lat="49.39791" lon="7.16632">
        <ele>0</ele>
        <time>0001-01-01T00:00:00Z</time>
      </trkpt>
      <trkpt lat="49.39822" lon="7.16626">
        <ele>0</ele>
        <time>0001-01-01T00:00:00Z</time>
      </trkpt>
      <trkpt lat="49.39827" lon="7.16624">
        <ele>0</ele>
        <time>0001-01-01T00:00:00Z</time>
      </trkpt>
      <trkpt lat="49.39832" lon="7.16623">
        <ele>0</ele>
        <time>0001-01-01T00:00:00Z</time>
      </trkpt>
      <trkpt lat="49.39862" lon="7.16611">
        <ele>0</ele>
        <time>0001-01-01T00:00:00Z</time>
      </trkpt>
      <trkpt lat="49.39874" lon="7.16605">
        <ele>0</ele>
        <time>0001-01-01T00:00:00Z</time>
      </trkpt>
      <trkpt lat="49.39884" lon="7.16597">
        <ele>0</ele>
        <time>0001-01-01T00:00:00Z</time>
      </trkpt>
      <trkpt lat="49.39892" lon="7.16587">
        <ele>0</ele>
        <time>0001-01-01T00:00:00Z</time>
      </trkpt>
      <trkpt lat="49.39912" lon="7.16572">
        <ele>0</ele>
        <time>0001-01-01T00:00:00Z</time>
      </trkpt>
      <trkpt lat="49.39923" lon="7.16566">
        <ele>0</ele>
        <time>0001-01-01T00:00:00Z</time>
      </trkpt>
      <trkpt lat="49.39983" lon="7.16545">
        <ele>0</ele>
        <time>0001-01-01T00:00:00Z</time>
      </trkpt>
      <trkpt lat="49.40014" lon="7.16536">
        <ele>0</ele>
        <time>0001-01-01T00:00:00Z</time>
      </trkpt>
      <trkpt lat="49.40032" lon="7.16526">
        <ele>0</ele>
        <time>0001-01-01T00:00:00Z</time>
      </trkpt>
      <trkpt lat="49.40036" lon="7.16523">
        <ele>0</ele>
        <time>0001-01-01T00:00:00Z</time>
      </trkpt>
      <trkpt lat="49.40038" lon="7.1652">
        <ele>0</ele>
        <time>0001-01-01T00:00:00Z</time>
      </trkpt>
      <trkpt lat="49.40045" lon="7.16515">
        <ele>0</ele>
        <time>0001-01-01T00:00:00Z</time>
      </trkpt>
      <trkpt lat="49.40092" lon="7.16457">
        <ele>0</ele>
        <time>0001-01-01T00:00:00Z</time>
      </trkpt>
      <trkpt lat="49.40107" lon="7.16443">
        <ele>0</ele>
        <time>0001-01-01T00:00:00Z</time>
      </trkpt>
      <trkpt lat="49.40118" lon="7.16435">
        <ele>0</ele>
        <time>0001-01-01T00:00:00Z</time>
      </trkpt>
      <trkpt lat="49.40213" lon="7.16381">
        <ele>0</ele>
        <time>0001-01-01T00:00:00Z</time>
      </trkpt>
      <trkpt lat="49.40223" lon="7.16374">
        <ele>0</ele>
        <time>0001-01-01T00:00:00Z</time>
      </trkpt>
      <trkpt lat="49.40268" lon="7.16349">
        <ele>0</ele>
        <time>0001-01-01T00:00:00Z</time>
      </trkpt>
      <trkpt lat="49.40283" lon="7.16344">
        <ele>0</ele>
        <time>0001-01-01T00:00:00Z</time>
      </trkpt>
      <trkpt lat="49.40294" lon="7.16342">
        <ele>0</ele>
        <time>0001-01-01T00:00:00Z</time>
      </trkpt>
      <trkpt lat="49.40301" lon="7.16342">
        <ele>0</ele>
        <time>0001-01-01T00:00:00Z</time>
      </trkpt>
      <trkpt lat="49.40316" lon="7.16345">
        <ele>0</ele>
        <time>0001-01-01T00:00:00Z</time>
      </trkpt>
      <trkpt lat="49.40328" lon="7.1635">
        <ele>0</ele>
        <time>0001-01-01T00:00:00Z</time>
      </trkpt>
      <trkpt lat="49.40354" lon="7.16364">
        <ele>0</ele>
        <time>0001-01-01T00:00:00Z</time>
      </trkpt>
      <trkpt lat="49.40609" lon="7.16479">
        <ele>0</ele>
        <time>0001-01-01T00:00:00Z</time>
      </trkpt>
      <trkpt lat="49.40624" lon="7.16489">
        <ele>0</ele>
        <time>0001-01-01T00:00:00Z</time>
      </trkpt>
      <trkpt lat="49.40636" lon="7.16499">
        <ele>0</ele>
        <time>0001-01-01T00:00:00Z</time>
      </trkpt>
      <trkpt lat="49.40656" lon="7.16524">
        <ele>0</ele>
        <time>0001-01-01T00:00:00Z</time>
      </trkpt>
      <trkpt lat="49.40676" lon="7.16561">
        <ele>0</ele>
        <time>0001-01-01T00:00:00Z</time>
      </trkpt>
      <trkpt lat="49.40683" lon="7.16581">
        <ele>0</ele>
        <time>0001-01-01T00:00:00Z</time>
      </trkpt>
      <trkpt lat="49.40747" lon="7.16716">
        <ele>0</ele>
        <time>0001-01-01T00:00:00Z</time>
      </trkpt>
      <trkpt lat="49.40769" lon="7.16746">
        <ele>0</ele>
        <time>0001-01-01T00:00:00Z</time>
      </trkpt>
      <trkpt lat="49.40781" lon="7.16757">
        <ele>0</ele>
        <time>0001-01-01T00:00:00Z</time>
      </trkpt>
      <trkpt lat="49.40804" lon="7.16774">
        <ele>0</ele>
        <time>0001-01-01T00:00:00Z</time>
      </trkpt>
      <trkpt lat="49.40825" lon="7.16781">
        <ele>0</ele>
        <time>0001-01-01T00:00:00Z</time>
      </trkpt>
      <trkpt lat="49.40857" lon="7.16785">
        <ele>0</ele>
        <time>0001-01-01T00:00:00Z</time>
      </trkpt>
      <trkpt lat="49.40869" lon="7.16783">
        <ele>0</ele>
        <time>0001-01-01T00:00:00Z</time>
      </trkpt>
      <trkpt lat="49.40881" lon="7.16779">
        <ele>0</ele>
        <time>0001-01-01T00:00:00Z</time>
      </trkpt>
      <trkpt lat="49.40899" lon="7.1677">
        <ele>0</ele>
        <time>0001-01-01T00:00:00Z</time>
      </trkpt>
      <trkpt lat="49.40923" lon="7.16752">
        <ele>0</ele>
        <time>0001-01-01T00:00:00Z</time>
      </trkpt>
      <trkpt lat="49.40998" lon="7.16685">
        <ele>0</ele>
        <time>0001-01-01T00:00:00Z</time>
      </trkpt>
      <trkpt lat="49.41034" lon="7.16639">
        <ele>0</ele>
        <time>0001-01-01T00:00:00Z</time>
      </trkpt>
      <trkpt lat="49.41053" lon="7.16609">
        <ele>0</ele>
        <time>0001-01-01T00:00:00Z</time>
      </trkpt>
      <trkpt lat="49.41074" lon="7.16571">
        <ele>0</ele>
        <time>0001-01-01T00:00:00Z</time>
      </trkpt>
      <trkpt lat="49.41105" lon="7.16505">
        <ele>0</ele>
        <time>0001-01-01T00:00:00Z</time>
      </trkpt>
      <trkpt lat="49.41137" lon="7.16423">
        <ele>0</ele>
        <time>0001-01-01T00:00:00Z</time>
      </trkpt>
      <trkpt lat="49.41215" lon="7.16152">
        <ele>0</ele>
        <time>0001-01-01T00:00:00Z</time>
      </trkpt>
      <trkpt lat="49.41238" lon="7.16088">
        <ele>0</ele>
        <time>0001-01-01T00:00:00Z</time>
      </trkpt>
      <trkpt lat="49.41256" lon="7.16051">
        <ele>0</ele>
        <time>0001-01-01T00:00:00Z</time>
      </trkpt>
      <trkpt lat="49.41275" lon="7.16018">
        <ele>0</ele>
        <time>0001-01-01T00:00:00Z</time>
      </trkpt>
      <trkpt lat="49.41299" lon="7.15986">
        <ele>0</ele>
        <time>0001-01-01T00:00:00Z</time>
      </trkpt>
      <trkpt lat="49.41325" lon="7.15958">
        <ele>0</ele>
        <time>0001-01-01T00:00:00Z</time>
      </trkpt>
      <trkpt lat="49.4134" lon="7.15945">
        <ele>0</ele>
        <time>0001-01-01T00:00:00Z</time>
      </trkpt>
      <trkpt lat="49.41372" lon="7.15924">
        <ele>0</ele>
        <time>0001-01-01T00:00:00Z</time>
      </trkpt>
      <trkpt lat="49.41395" lon="7.15912">
        <ele>0</ele>
        <time>0001-01-01T00:00:00Z</time>
      </trkpt>
      <trkpt lat="49.41413" lon="7.15906">
        <ele>0</ele>
        <time>0001-01-01T00:00:00Z</time>
      </trkpt>
      <trkpt lat="49.4143" lon="7.15903">
        <ele>0</ele>
        <time>0001-01-01T00:00:00Z</time>
      </trkpt>
      <trkpt lat="49.41475" lon="7.15902">
        <ele>0</ele>
        <time>0001-01-01T00:00:00Z</time>
      </trkpt>
      <trkpt lat="49.41497" lon="7.15905">
        <ele>0</ele>
        <time>0001-01-01T00:00:00Z</time>
      </trkpt>
      <trkpt lat="49.41538" lon="7.15918">
        <ele>0</ele>
        <time>0001-01-01T00:00:00Z</time>
      </trkpt>
      <trkpt lat="49.41692" lon="7.1599">
        <ele>0</ele>
        <time>0001-01-01T00:00:00Z</time>
      </trkpt>
      <trkpt lat="49.41792" lon="7.16026">
        <ele>0</ele>
        <time>0001-01-01T00:00:00Z</time>
      </trkpt>
      <trkpt lat="49.41878" lon="7.16043">
        <ele>0</ele>
        <time>0001-01-01T00:00:00Z</time>
      </trkpt>
      <trkpt lat="49.41894" lon="7.16044">
        <ele>0</ele>
        <time>0001-01-01T00:00:00Z</time>
      </trkpt>
      <trkpt lat="49.41917" lon="7.16049">
        <ele>0</ele>
        <time>0001-01-01T00:00:00Z</time>
      </trkpt>
      <trkpt lat="49.41966" lon="7.16063">
        <ele>0</ele>
        <time>0001-01-01T00:00:00Z</time>
      </trkpt>
      <trkpt lat="49.4222" lon="7.16158">
        <ele>0</ele>
        <time>0001-01-01T00:00:00Z</time>
      </trkpt>
      <trkpt lat="49.42298" lon="7.16174">
        <ele>0</ele>
        <time>0001-01-01T00:00:00Z</time>
      </trkpt>
      <trkpt lat="49.42355" lon="7.16196">
        <ele>0</ele>
        <time>0001-01-01T00:00:00Z</time>
      </trkpt>
      <trkpt lat="49.42447" lon="7.16238">
        <ele>0</ele>
        <time>0001-01-01T00:00:00Z</time>
      </trkpt>
      <trkpt lat="49.42504" lon="7.16272">
        <ele>0</ele>
        <time>0001-01-01T00:00:00Z</time>
      </trkpt>
      <trkpt lat="49.42527" lon="7.16289">
        <ele>0</ele>
        <time>0001-01-01T00:00:00Z</time>
      </trkpt>
      <trkpt lat="49.42564" lon="7.16328">
        <ele>0</ele>
        <time>0001-01-01T00:00:00Z</time>
      </trkpt>
      <trkpt lat="49.42623" lon="7.16401">
        <ele>0</ele>
        <time>0001-01-01T00:00:00Z</time>
      </trkpt>
      <trkpt lat="49.42676" lon="7.16456">
        <ele>0</ele>
        <time>0001-01-01T00:00:00Z</time>
      </trkpt>
      <trkpt lat="49.42702" lon="7.16476">
        <ele>0</ele>
        <time>0001-01-01T00:00:00Z</time>
      </trkpt>
      <trkpt lat="49.42728" lon="7.16493">
        <ele>0</ele>
        <time>0001-01-01T00:00:00Z</time>
      </trkpt>
      <trkpt lat="49.42751" lon="7.16505">
        <ele>0</ele>
        <time>0001-01-01T00:00:00Z</time>
      </trkpt>
      <trkpt lat="49.42794" lon="7.16518">
        <ele>0</ele>
        <time>0001-01-01T00:00:00Z</time>
      </trkpt>
      <trkpt lat="49.42814" lon="7.16521">
        <ele>0</ele>
        <time>0001-01-01T00:00:00Z</time>
      </trkpt>
      <trkpt lat="49.42848" lon="7.16522">
        <ele>0</ele>
        <time>0001-01-01T00:00:00Z</time>
      </trkpt>
      <trkpt lat="49.42864" lon="7.1652">
        <ele>0</ele>
        <time>0001-01-01T00:00:00Z</time>
      </trkpt>
      <trkpt lat="49.42899" lon="7.16512">
        <ele>0</ele>
        <time>0001-01-01T00:00:00Z</time>
      </trkpt>
      <trkpt lat="49.42917" lon="7.16505">
        <ele>0</ele>
        <time>0001-01-01T00:00:00Z</time>
      </trkpt>
      <trkpt lat="49.42942" lon="7.16493">
        <ele>0</ele>
        <time>0001-01-01T00:00:00Z</time>
      </trkpt>
      <trkpt lat="49.42971" lon="7.16474">
        <ele>0</ele>
        <time>0001-01-01T00:00:00Z</time>
      </trkpt>
      <trkpt lat="49.42989" lon="7.16459">
        <ele>0</ele>
        <time>0001-01-01T00:00:00Z</time>
      </trkpt>
      <trkpt lat="49.43034" lon="7.16414">
        <ele>0</ele>
        <time>0001-01-01T00:00:00Z</time>
      </trkpt>
      <trkpt lat="49.43075" lon="7.1636">
        <ele>0</ele>
        <time>0001-01-01T00:00:00Z</time>
      </trkpt>
      <trkpt lat="49.43097" lon="7.16323">
        <ele>0</ele>
        <time>0001-01-01T00:00:00Z</time>
      </trkpt>
      <trkpt lat="49.43122" lon="7.16275">
        <ele>0</ele>
        <time>0001-01-01T00:00:00Z</time>
      </trkpt>
      <trkpt lat="49.43141" lon="7.16231">
        <ele>0</ele>
        <time>0001-01-01T00:00:00Z</time>
      </trkpt>
      <trkpt lat="49.43165" lon="7.16163">
        <ele>0</ele>
        <time>0001-01-01T00:00:00Z</time>
      </trkpt>
      <trkpt lat="49.43204" lon="7.16036">
        <ele>0</ele>
        <time>0001-01-01T00:00:00Z</time>
      </trkpt>
      <trkpt lat="49.43298" lon="7.15657">
        <ele>0</ele>
        <time>0001-01-01T00:00:00Z</time>
      </trkpt>
      <trkpt lat="49.43309" lon="7.15634">
        <ele>0</ele>
        <time>0001-01-01T00:00:00Z</time>
      </trkpt>
      <trkpt lat="49.43339" lon="7.1555">
        <ele>0</ele>
        <time>0001-01-01T00:00:00Z</time>
      </trkpt>
      <trkpt lat="49.43393" lon="7.15414">
        <ele>0</ele>
        <time>0001-01-01T00:00:00Z</time>
      </trkpt>
      <trkpt lat="49.43397" lon="7.15398">
        <ele>0</ele>
        <time>0001-01-01T00:00:00Z</time>
      </trkpt>
      <trkpt lat="49.43596" lon="7.1491">
        <ele>0</ele>
        <time>0001-01-01T00:00:00Z</time>
      </trkpt>
      <trkpt lat="49.43622" lon="7.14852">
        <ele>0</ele>
        <time>0001-01-01T00:00:00Z</time>
      </trkpt>
      <trkpt lat="49.43647" lon="7.14803">
        <ele>0</ele>
        <time>0001-01-01T00:00:00Z</time>
      </trkpt>
      <trkpt lat="49.43666" lon="7.1477">
        <ele>0</ele>
        <time>0001-01-01T00:00:00Z</time>
      </trkpt>
      <trkpt lat="49.43696" lon="7.14727">
        <ele>0</ele>
        <time>0001-01-01T00:00:00Z</time>
      </trkpt>
      <trkpt lat="49.43715" lon="7.14703">
        <ele>0</ele>
        <time>0001-01-01T00:00:00Z</time>
      </trkpt>
      <trkpt lat="49.43757" lon="7.14657">
        <ele>0</ele>
        <time>0001-01-01T00:00:00Z</time>
      </trkpt>
      <trkpt lat="49.43789" lon="7.14628">
        <ele>0</ele>
        <time>0001-01-01T00:00:00Z</time>
      </trkpt>
      <trkpt lat="49.43811" lon="7.14611">
        <ele>0</ele>
        <time>0001-01-01T00:00:00Z</time>
      </trkpt>
      <trkpt lat="49.43857" lon="7.14582">
        <ele>0</ele>
        <time>0001-01-01T00:00:00Z</time>
      </trkpt>
      <trkpt lat="49.439" lon="7.14559">
        <ele>0</ele>
        <time>0001-01-01T00:00:00Z</time>
      </trkpt>
      <trkpt lat="49.44116" lon="7.14469">
        <ele>0</ele>
        <time>0001-01-01T00:00:00Z</time>
      </trkpt>
      <trkpt lat="49.44135" lon="7.14459">
        <ele>0</ele>
        <time>0001-01-01T00:00:00Z</time>
      </trkpt>
      <trkpt lat="49.44161" lon="7.14449">
        <ele>0</ele>
        <time>0001-01-01T00:00:00Z</time>
      </trkpt>
      <trkpt lat="49.44216" lon="7.14437">
        <ele>0</ele>
        <time>0001-01-01T00:00:00Z</time>
      </trkpt>
      <trkpt lat="49.44262" lon="7.14432">
        <ele>0</ele>
        <time>0001-01-01T00:00:00Z</time>
      </trkpt>
      <trkpt lat="49.44313" lon="7.14434">
        <ele>0</ele>
        <time>0001-01-01T00:00:00Z</time>
      </trkpt>
      <trkpt lat="49.44334" lon="7.14437">
        <ele>0</ele>
        <time>0001-01-01T00:00:00Z</time>
      </trkpt>
      <trkpt lat="49.44383" lon="7.1445">
        <ele>0</ele>
        <time>0001-01-01T00:00:00Z</time>
      </trkpt>
      <trkpt lat="49.4443" lon="7.14469">
        <ele>0</ele>
        <time>0001-01-01T00:00:00Z</time>
      </trkpt>
      <trkpt lat="49.44484" lon="7.14501">
        <ele>0</ele>
        <time>0001-01-01T00:00:00Z</time>
      </trkpt>
      <trkpt lat="49.44504" lon="7.14516">
        <ele>0</ele>
        <time>0001-01-01T00:00:00Z</time>
      </trkpt>
      <trkpt lat="49.44762" lon="7.14736">
        <ele>0</ele>
        <time>0001-01-01T00:00:00Z</time>
      </trkpt>
      <trkpt lat="49.44807" lon="7.1478">
        <ele>0</ele>
        <time>0001-01-01T00:00:00Z</time>
      </trkpt>
      <trkpt lat="49.44894" lon="7.14872">
        <ele>0</ele>
        <time>0001-01-01T00:00:00Z</time>
      </trkpt>
      <trkpt lat="49.44944" lon="7.1493">
        <ele>0</ele>
        <time>0001-01-01T00:00:00Z</time>
      </trkpt>
      <trkpt lat="49.44954" lon="7.14948">
        <ele>0</ele>
        <time>0001-01-01T00:00:00Z</time>
      </trkpt>
      <trkpt lat="49.45032" lon="7.15043">
        <ele>0</ele>
        <time>0001-01-01T00:00:00Z</time>
      </trkpt>
      <trkpt lat="49.45107" lon="7.15143">
        <ele>0</ele>
        <time>0001-01-01T00:00:00Z</time>
      </trkpt>
      <trkpt lat="49.45116" lon="7.15151">
        <ele>0</ele>
        <time>0001-01-01T00:00:00Z</time>
      </trkpt>
      <trkpt lat="49.45166" lon="7.15204">
        <ele>0</ele>
        <time>0001-01-01T00:00:00Z</time>
      </trkpt>
      <trkpt lat="49.4522" lon="7.15256">
        <ele>0</ele>
        <time>0001-01-01T00:00:00Z</time>
      </trkpt>
      <trkpt lat="49.45308" lon="7.15333">
        <ele>0</ele>
        <time>0001-01-01T00:00:00Z</time>
      </trkpt>
      <trkpt lat="49.45394" lon="7.15403">
        <ele>0</ele>
        <time>0001-01-01T00:00:00Z</time>
      </trkpt>
      <trkpt lat="49.45714" lon="7.15647">
        <ele>0</ele>
        <time>0001-01-01T00:00:00Z</time>
      </trkpt>
      <trkpt lat="49.4576" lon="7.15676">
        <ele>0</ele>
        <time>0001-01-01T00:00:00Z</time>
      </trkpt>
      <trkpt lat="49.458" lon="7.15698">
        <ele>0</ele>
        <time>0001-01-01T00:00:00Z</time>
      </trkpt>
      <trkpt lat="49.45833" lon="7.15713">
        <ele>0</ele>
        <time>0001-01-01T00:00:00Z</time>
      </trkpt>
      <trkpt lat="49.45867" lon="7.15726">
        <ele>0</ele>
        <time>0001-01-01T00:00:00Z</time>
      </trkpt>
      <trkpt lat="49.45913" lon="7.15739">
        <ele>0</ele>
        <time>0001-01-01T00:00:00Z</time>
      </trkpt>
      <trkpt lat="49.45944" lon="7.15745">
        <ele>0</ele>
        <time>0001-01-01T00:00:00Z</time>
      </trkpt>
      <trkpt lat="49.45963" lon="7.15753">
        <ele>0</ele>
        <time>0001-01-01T00:00:00Z</time>
      </trkpt>
      <trkpt lat="49.4599" lon="7.15757">
        <ele>0</ele>
        <time>0001-01-01T00:00:00Z</time>
      </trkpt>
      <trkpt lat="49.46014" lon="7.15771">
        <ele>0</ele>
        <time>0001-01-01T00:00:00Z</time>
      </trkpt>
      <trkpt lat="49.46022" lon="7.15779">
        <ele>0</ele>
        <time>0001-01-01T00:00:00Z</time>
      </trkpt>
      <trkpt lat="49.46048" lon="7.15814">
        <ele>0</ele>
        <time>0001-01-01T00:00:00Z</time>
      </trkpt>
      <trkpt lat="49.46054" lon="7.1582">
        <ele>0</ele>
        <time>0001-01-01T00:00:00Z</time>
      </trkpt>
      <trkpt lat="49.46059" lon="7.15823">
        <ele>0</ele>
        <time>0001-01-01T00:00:00Z</time>
      </trkpt>
      <trkpt lat="49.46066" lon="7.15826">
        <ele>0</ele>
        <time>0001-01-01T00:00:00Z</time>
      </trkpt>
      <trkpt lat="49.46072" lon="7.15826">
        <ele>0</ele>
        <time>0001-01-01T00:00:00Z</time>
      </trkpt>
      <trkpt lat="49.46093" lon="7.15822">
        <ele>0</ele>
        <time>0001-01-01T00:00:00Z</time>
      </trkpt>
      <trkpt lat="49.46156" lon="7.15795">
        <ele>0</ele>
        <time>0001-01-01T00:00:00Z</time>
      </trkpt>
      <trkpt lat="49.46157" lon="7.15795">
        <ele>0</ele>
        <time>0001-01-01T00:00:00Z</time>
      </trkpt>
      <trkpt lat="49.46157" lon="7.15796">
        <ele>0</ele>
        <time>0001-01-01T00:00:00Z</time>
      </trkpt>
      <trkpt lat="49.46158" lon="7.15797">
        <ele>0</ele>
        <time>0001-01-01T00:00:00Z</time>
      </trkpt>
      <trkpt lat="49.46158" lon="7.15798">
        <ele>0</ele>
        <time>0001-01-01T00:00:00Z</time>
      </trkpt>
      <trkpt lat="49.46159" lon="7.15799">
        <ele>0</ele>
        <time>0001-01-01T00:00:00Z</time>
      </trkpt>
      <trkpt lat="49.4616" lon="7.15799">
        <ele>0</ele>
        <time>0001-01-01T00:00:00Z</time>
      </trkpt>
      <trkpt lat="49.4616" lon="7.158">
        <ele>0</ele>
        <time>0001-01-01T00:00:00Z</time>
      </trkpt>
      <trkpt lat="49.46161" lon="7.15801">
        <ele>0</ele>
        <time>0001-01-01T00:00:00Z</time>
      </trkpt>
      <trkpt lat="49.46162" lon="7.15801">
        <ele>0</ele>
        <time>0001-01-01T00:00:00Z</time>
      </trkpt>
      <trkpt lat="49.46163" lon="7.15802">
        <ele>0</ele>
        <time>0001-01-01T00:00:00Z</time>
      </trkpt>
      <trkpt lat="49.46165" lon="7.15802">
        <ele>0</ele>
        <time>0001-01-01T00:00:00Z</time>
      </trkpt>
      <trkpt lat="49.46168" lon="7.15826">
        <ele>0</ele>
        <time>0001-01-01T00:00:00Z</time>
      </trkpt>
      <trkpt lat="49.46168" lon="7.15903">
        <ele>0</ele>
        <time>0001-01-01T00:00:00Z</time>
      </trkpt>
      <trkpt lat="49.46171" lon="7.15929">
        <ele>0</ele>
        <time>0001-01-01T00:00:00Z</time>
      </trkpt>
      <trkpt lat="49.46179" lon="7.15969">
        <ele>0</ele>
        <time>0001-01-01T00:00:00Z</time>
      </trkpt>
      <trkpt lat="49.46201" lon="7.16041">
        <ele>0</ele>
        <time>0001-01-01T00:00:00Z</time>
      </trkpt>
      <trkpt lat="49.462" lon="7.16042">
        <ele>0</ele>
        <time>0001-01-01T00:00:00Z</time>
      </trkpt>
      <trkpt lat="49.462" lon="7.16046">
        <ele>0</ele>
        <time>0001-01-01T00:00:00Z</time>
      </trkpt>
      <trkpt lat="49.46199" lon="7.16047">
        <ele>0</ele>
        <time>0001-01-01T00:00:00Z</time>
      </trkpt>
      <trkpt lat="49.46199" lon="7.16048">
        <ele>0</ele>
        <time>0001-01-01T00:00:00Z</time>
      </trkpt>
      <trkpt lat="49.462" lon="7.16049">
        <ele>0</ele>
        <time>0001-01-01T00:00:00Z</time>
      </trkpt>
      <trkpt lat="49.462" lon="7.16054">
        <ele>0</ele>
        <time>0001-01-01T00:00:00Z</time>
      </trkpt>
      <trkpt lat="49.46165" lon="7.16126">
        <ele>0</ele>
        <time>0001-01-01T00:00:00Z</time>
      </trkpt>
      <trkpt lat="49.46158" lon="7.16135">
        <ele>0</ele>
        <time>0001-01-01T00:00:00Z</time>
      </trkpt>
      <trkpt lat="49.46124" lon="7.16189">
        <ele>0</ele>
        <time>0001-01-01T00:00:00Z</time>
      </trkpt>
      <trkpt lat="49.46115" lon="7.16207">
        <ele>0</ele>
        <time>0001-01-01T00:00:00Z</time>
      </trkpt>
      <trkpt lat="49.46112" lon="7.16211">
        <ele>0</ele>
        <time>0001-01-01T00:00:00Z</time>
      </trkpt>
      <trkpt lat="49.46103" lon="7.16239">
        <ele>0</ele>
        <time>0001-01-01T00:00:00Z</time>
      </trkpt>
      <trkpt lat="49.46103" lon="7.16262">
        <ele>0</ele>
        <time>0001-01-01T00:00:00Z</time>
      </trkpt>
      <trkpt lat="49.46104" lon="7.16271">
        <ele>0</ele>
        <time>0001-01-01T00:00:00Z</time>
      </trkpt>
      <trkpt lat="49.46109" lon="7.16286">
        <ele>0</ele>
        <time>0001-01-01T00:00:00Z</time>
      </trkpt>
      <trkpt lat="49.46149" lon="7.16352">
        <ele>0</ele>
        <time>0001-01-01T00:00:00Z</time>
      </trkpt>
      <trkpt lat="49.46162" lon="7.16369">
        <ele>0</ele>
        <time>0001-01-01T00:00:00Z</time>
      </trkpt>
      <trkpt lat="49.46184" lon="7.16393">
        <ele>0</ele>
        <time>0001-01-01T00:00:00Z</time>
      </trkpt>
      <trkpt lat="49.46206" lon="7.16412">
        <ele>0</ele>
        <time>0001-01-01T00:00:00Z</time>
      </trkpt>
      <trkpt lat="49.46228" lon="7.16427">
        <ele>0</ele>
        <time>0001-01-01T00:00:00Z</time>
      </trkpt>
      <trkpt lat="49.46244" lon="7.16436">
        <ele>0</ele>
        <time>0001-01-01T00:00:00Z</time>
      </trkpt>
      <trkpt lat="49.46327" lon="7.16463">
        <ele>0</ele>
        <time>0001-01-01T00:00:00Z</time>
      </trkpt>
      <trkpt lat="49.46335" lon="7.1647">
        <ele>0</ele>
        <time>0001-01-01T00:00:00Z</time>
      </trkpt>
      <trkpt lat="49.46359" lon="7.1648">
        <ele>0</ele>
        <time>0001-01-01T00:00:00Z</time>
      </trkpt>
      <trkpt lat="49.46359" lon="7.16481">
        <ele>0</ele>
        <time>0001-01-01T00:00:00Z</time>
      </trkpt>
      <trkpt lat="49.4636" lon="7.16482">
        <ele>0</ele>
        <time>0001-01-01T00:00:00Z</time>
      </trkpt>
      <trkpt lat="49.4636" lon="7.16484">
        <ele>0</ele>
        <time>0001-01-01T00:00:00Z</time>
      </trkpt>
      <trkpt lat="49.46361" lon="7.16485">
        <ele>0</ele>
        <time>0001-01-01T00:00:00Z</time>
      </trkpt>
      <trkpt lat="49.46361" lon="7.16486">
        <ele>0</ele>
        <time>0001-01-01T00:00:00Z</time>
      </trkpt>
      <trkpt lat="49.46362" lon="7.16487">
        <ele>0</ele>
        <time>0001-01-01T00:00:00Z</time>
      </trkpt>
      <trkpt lat="49.46362" lon="7.16488">
        <ele>0</ele>
        <time>0001-01-01T00:00:00Z</time>
      </trkpt>
      <trkpt lat="49.46363" lon="7.16488">
        <ele>0</ele>
        <time>0001-01-01T00:00:00Z</time>
      </trkpt>
      <trkpt lat="49.46363" lon="7.16489">
        <ele>0</ele>
        <time>0001-01-01T00:00:00Z</time>
      </trkpt>
      <trkpt lat="49.46365" lon="7.16491">
        <ele>0</ele>
        <time>0001-01-01T00:00:00Z</time>
      </trkpt>
      <trkpt lat="49.46366" lon="7.16491">
        <ele>0</ele>
        <time>0001-01-01T00:00:00Z</time>
      </trkpt>
      <trkpt lat="49.46367" lon="7.16492">
        <ele>0</ele>
        <time>0001-01-01T00:00:00Z</time>
      </trkpt>
      <trkpt lat="49.46369" lon="7.16492">
        <ele>0</ele>
        <time>0001-01-01T00:00:00Z</time>
      </trkpt>
      <trkpt lat="49.46369" lon="7.16493">
        <ele>0</ele>
        <time>0001-01-01T00:00:00Z</time>
      </trkpt>
      <trkpt lat="49.46371" lon="7.16493">
        <ele>0</ele>
        <time>0001-01-01T00:00:00Z</time>
      </trkpt>
      <trkpt lat="49.46372" lon="7.16492">
        <ele>0</ele>
        <time>0001-01-01T00:00:00Z</time>
      </trkpt>
      <trkpt lat="49.46373" lon="7.16492">
        <ele>0</ele>
        <time>0001-01-01T00:00:00Z</time>
      </trkpt>
      <trkpt lat="49.46376" lon="7.16489">
        <ele>0</ele>
        <time>0001-01-01T00:00:00Z</time>
      </trkpt>
      <trkpt lat="49.46376" lon="7.16488">
        <ele>0</ele>
        <time>0001-01-01T00:00:00Z</time>
      </trkpt>
      <trkpt lat="49.46377" lon="7.16488">
        <ele>0</ele>
        <time>0001-01-01T00:00:00Z</time>
      </trkpt>
      <trkpt lat="49.46378" lon="7.16486">
        <ele>0</ele>
        <time>0001-01-01T00:00:00Z</time>
      </trkpt>
      <trkpt lat="49.46425" lon="7.16507">
        <ele>0</ele>
        <time>0001-01-01T00:00:00Z</time>
      </trkpt>
      <trkpt lat="49.46434" lon="7.16508">
        <ele>0</ele>
        <time>0001-01-01T00:00:00Z</time>
      </trkpt>
      <trkpt lat="49.46519" lon="7.16546">
        <ele>0</ele>
        <time>0001-01-01T00:00:00Z</time>
      </trkpt>
      <trkpt lat="49.4652" lon="7.16547">
        <ele>0</ele>
        <time>0001-01-01T00:00:00Z</time>
      </trkpt>
      <trkpt lat="49.46541" lon="7.16557">
        <ele>0</ele>
        <time>0001-01-01T00:00:00Z</time>
      </trkpt>
      <trkpt lat="49.46609" lon="7.16571">
        <ele>0</ele>
        <time>0001-01-01T00:00:00Z</time>
      </trkpt>
      <trkpt lat="49.46671" lon="7.16581">
        <ele>0</ele>
        <time>0001-01-01T00:00:00Z</time>
      </trkpt>
      <trkpt lat="49.46747" lon="7.16598">
        <ele>0</ele>
        <time>0001-01-01T00:00:00Z</time>
      </trkpt>
      <trkpt lat="49.46835" lon="7.16608">
        <ele>0</ele>
        <time>0001-01-01T00:00:00Z</time>
      </trkpt>
      <trkpt lat="49.46839" lon="7.1659">
        <ele>0</ele>
        <time>0001-01-01T00:00:00Z</time>
      </trkpt>
      <trkpt lat="49.46848" lon="7.16533">
        <ele>0</ele>
        <time>0001-01-01T00:00:00Z</time>
      </trkpt>
      <trkpt lat="49.46848" lon="7.16512">
        <ele>0</ele>
        <time>0001-01-01T00:00:00Z</time>
      </trkpt>
      <trkpt lat="49.46846" lon="7.16497">
        <ele>0</ele>
        <time>0001-01-01T00:00:00Z</time>
      </trkpt>
      <trkpt lat="49.46846" lon="7.16486">
        <ele>0</ele>
        <time>0001-01-01T00:00:00Z</time>
      </trkpt>
      <trkpt lat="49.46839" lon="7.16422">
        <ele>0</ele>
        <time>0001-01-01T00:00:00Z</time>
      </trkpt>
      <trkpt lat="49.46837" lon="7.16412">
        <ele>0</ele>
        <time>0001-01-01T00:00:00Z</time>
      </trkpt>
      <trkpt lat="49.46832" lon="7.16399">
        <ele>0</ele>
        <time>0001-01-01T00:00:00Z</time>
      </trkpt>
      <trkpt lat="49.46832" lon="7.16397">
        <ele>0</ele>
        <time>0001-01-01T00:00:00Z</time>
      </trkpt>
      <trkpt lat="49.4683" lon="7.16393">
        <ele>0</ele>
        <time>0001-01-01T00:00:00Z</time>
      </trkpt>
      <trkpt lat="49.46824" lon="7.16386">
        <ele>0</ele>
        <time>0001-01-01T00:00:00Z</time>
      </trkpt>
      <trkpt lat="49.46812" lon="7.16378">
        <ele>0</ele>
        <time>0001-01-01T00:00:00Z</time>
      </trkpt>
      <trkpt lat="49.46792" lon="7.16368">
        <ele>0</ele>
        <time>0001-01-01T00:00:00Z</time>
      </trkpt>
      <trkpt lat="49.46716" lon="7.16344">
        <ele>0</ele>
        <time>0001-01-01T00:00:00Z</time>
      </trkpt>
      <trkpt lat="49.46707" lon="7.16339">
        <ele>0</ele>
        <time>0001-01-01T00:00:00Z</time>
      </trkpt>
      <trkpt lat="49.467" lon="7.16333">
        <ele>0</ele>
        <time>0001-01-01T00:00:00Z</time>
      </trkpt>
      <trkpt lat="49.46693" lon="7.16324">
        <ele>0</ele>
        <time>0001-01-01T00:00:00Z</time>
      </trkpt>
      <trkpt lat="49.46689" lon="7.16317">
        <ele>0</ele>
        <time>0001-01-01T00:00:00Z</time>
      </trkpt>
      <trkpt lat="49.46686" lon="7.16309">
        <ele>0</ele>
        <time>0001-01-01T00:00:00Z</time>
      </trkpt>
      <trkpt lat="49.46664" lon="7.16143">
        <ele>0</ele>
        <time>0001-01-01T00:00:00Z</time>
      </trkpt>
      <trkpt lat="49.46664" lon="7.16112">
        <ele>0</ele>
        <time>0001-01-01T00:00:00Z</time>
      </trkpt>
      <trkpt lat="49.46666" lon="7.16092">
        <ele>0</ele>
        <time>0001-01-01T00:00:00Z</time>
      </trkpt>
      <trkpt lat="49.4667" lon="7.16069">
        <ele>0</ele>
        <time>0001-01-01T00:00:00Z</time>
      </trkpt>
      <trkpt lat="49.46692" lon="7.15974">
        <ele>0</ele>
        <time>0001-01-01T00:00:00Z</time>
      </trkpt>
      <trkpt lat="49.46707" lon="7.15939">
        <ele>0</ele>
        <time>0001-01-01T00:00:00Z</time>
      </trkpt>
      <trkpt lat="49.4677" lon="7.15824">
        <ele>0</ele>
        <time>0001-01-01T00:00:00Z</time>
      </trkpt>
      <trkpt lat="49.46783" lon="7.1579">
        <ele>0</ele>
        <time>0001-01-01T00:00:00Z</time>
      </trkpt>
      <trkpt lat="49.46814" lon="7.15689">
        <ele>0</ele>
        <time>0001-01-01T00:00:00Z</time>
      </trkpt>
      <trkpt lat="49.46834" lon="7.15606">
        <ele>0</ele>
        <time>0001-01-01T00:00:00Z</time>
      </trkpt>
      <trkpt lat="49.46837" lon="7.15575">
        <ele>0</ele>
        <time>0001-01-01T00:00:00Z</time>
      </trkpt>
      <trkpt lat="49.46846" lon="7.15163">
        <ele>0</ele>
        <time>0001-01-01T00:00:00Z</time>
      </trkpt>
      <trkpt lat="49.46852" lon="7.15131">
        <ele>0</ele>
        <time>0001-01-01T00:00:00Z</time>
      </trkpt>
      <trkpt lat="49.46855" lon="7.15094">
        <ele>0</ele>
        <time>0001-01-01T00:00:00Z</time>
      </trkpt>
      <trkpt lat="49.46866" lon="7.15048">
        <ele>0</ele>
        <time>0001-01-01T00:00:00Z</time>
      </trkpt>
      <trkpt lat="49.46871" lon="7.15048">
        <ele>0</ele>
        <time>0001-01-01T00:00:00Z</time>
      </trkpt>
      <trkpt lat="49.46872" lon="7.15047">
        <ele>0</ele>
        <time>0001-01-01T00:00:00Z</time>
      </trkpt>
      <trkpt lat="49.46874" lon="7.15047">
        <ele>0</ele>
        <time>0001-01-01T00:00:00Z</time>
      </trkpt>
      <trkpt lat="49.46874" lon="7.15046">
        <ele>0</ele>
        <time>0001-01-01T00:00:00Z</time>
      </trkpt>
      <trkpt lat="49.46876" lon="7.15044">
        <ele>0</ele>
        <time>0001-01-01T00:00:00Z</time>
      </trkpt>
      <trkpt lat="49.46877" lon="7.15044">
        <ele>0</ele>
        <time>0001-01-01T00:00:00Z</time>
      </trkpt>
      <trkpt lat="49.46877" lon="7.15043">
        <ele>0</ele>
        <time>0001-01-01T00:00:00Z</time>
      </trkpt>
      <trkpt lat="49.46879" lon="7.15041">
        <ele>0</ele>
        <time>0001-01-01T00:00:00Z</time>
      </trkpt>
      <trkpt lat="49.46879" lon="7.1504">
        <ele>0</ele>
        <time>0001-01-01T00:00:00Z</time>
      </trkpt>
      <trkpt lat="49.4688" lon="7.15039">
        <ele>0</ele>
        <time>0001-01-01T00:00:00Z</time>
      </trkpt>
      <trkpt lat="49.4688" lon="7.15036">
        <ele>0</ele>
        <time>0001-01-01T00:00:00Z</time>
      </trkpt>
      <trkpt lat="49.46881" lon="7.15035">
        <ele>0</ele>
        <time>0001-01-01T00:00:00Z</time>
      </trkpt>
      <trkpt lat="49.46881" lon="7.15032">
        <ele>0</ele>
        <time>0001-01-01T00:00:00Z</time>
      </trkpt>
      <trkpt lat="49.46882" lon="7.15031">
        <ele>0</ele>
        <time>0001-01-01T00:00:00Z</time>
      </trkpt>
      <trkpt lat="49.46882" lon="7.15023">
        <ele>0</ele>
        <time>0001-01-01T00:00:00Z</time>
      </trkpt>
      <trkpt lat="49.46881" lon="7.15022">
        <ele>0</ele>
        <time>0001-01-01T00:00:00Z</time>
      </trkpt>
      <trkpt lat="49.46881" lon="7.15018">
        <ele>0</ele>
        <time>0001-01-01T00:00:00Z</time>
      </trkpt>
      <trkpt lat="49.4688" lon="7.15017">
        <ele>0</ele>
        <time>0001-01-01T00:00:00Z</time>
      </trkpt>
      <trkpt lat="49.4688" lon="7.15016">
        <ele>0</ele>
        <time>0001-01-01T00:00:00Z</time>
      </trkpt>
      <trkpt lat="49.46879" lon="7.15015">
        <ele>0</ele>
        <time>0001-01-01T00:00:00Z</time>
      </trkpt>
      <trkpt lat="49.46879" lon="7.15014">
        <ele>0</ele>
        <time>0001-01-01T00:00:00Z</time>
      </trkpt>
      <trkpt lat="49.46878" lon="7.15013">
        <ele>0</ele>
        <time>0001-01-01T00:00:00Z</time>
      </trkpt>
      <trkpt lat="49.46878" lon="7.15012">
        <ele>0</ele>
        <time>0001-01-01T00:00:00Z</time>
      </trkpt>
      <trkpt lat="49.46876" lon="7.1501">
        <ele>0</ele>
        <time>0001-01-01T00:00:00Z</time>
      </trkpt>
      <trkpt lat="49.46876" lon="7.15009">
        <ele>0</ele>
        <time>0001-01-01T00:00:00Z</time>
      </trkpt>
      <trkpt lat="49.46875" lon="7.15009">
        <ele>0</ele>
        <time>0001-01-01T00:00:00Z</time>
      </trkpt>
      <trkpt lat="49.46873" lon="7.15007">
        <ele>0</ele>
        <time>0001-01-01T00:00:00Z</time>
      </trkpt>
      <trkpt lat="49.46871" lon="7.15006">
        <ele>0</ele>
        <time>0001-01-01T00:00:00Z</time>
      </trkpt>
      <trkpt lat="49.46867" lon="7.14974">
        <ele>0</ele>
        <time>0001-01-01T00:00:00Z</time>
      </trkpt>
      <trkpt lat="49.46866" lon="7.14937">
        <ele>0</ele>
        <time>0001-01-01T00:00:00Z</time>
      </trkpt>
      <trkpt lat="49.46868" lon="7.14913">
        <ele>0</ele>
        <time>0001-01-01T00:00:00Z</time>
      </trkpt>
      <trkpt lat="49.46868" lon="7.14901">
        <ele>0</ele>
        <time>0001-01-01T00:00:00Z</time>
      </trkpt>
      <trkpt lat="49.46869" lon="7.14899">
        <ele>0</ele>
        <time>0001-01-01T00:00:00Z</time>
      </trkpt>
      <trkpt lat="49.46869" lon="7.1489">
        <ele>0</ele>
        <time>0001-01-01T00:00:00Z</time>
      </trkpt>
      <trkpt lat="49.46875" lon="7.14854">
        <ele>0</ele>
        <time>0001-01-01T00:00:00Z</time>
      </trkpt>
      <trkpt lat="49.4688" lon="7.14841">
        <ele>0</ele>
        <time>0001-01-01T00:00:00Z</time>
      </trkpt>
      <trkpt lat="49.46881" lon="7.1484">
        <ele>0</ele>
        <time>0001-01-01T00:00:00Z</time>
      </trkpt>
      <trkpt lat="49.46882" lon="7.1484">
        <ele>0</ele>
        <time>0001-01-01T00:00:00Z</time>
      </trkpt>
      <trkpt lat="49.46883" lon="7.14839">
        <ele>0</ele>
        <time>0001-01-01T00:00:00Z</time>
      </trkpt>
      <trkpt lat="49.46884" lon="7.14839">
        <ele>0</ele>
        <time>0001-01-01T00:00:00Z</time>
      </trkpt>
      <trkpt lat="49.46884" lon="7.14838">
        <ele>0</ele>
        <time>0001-01-01T00:00:00Z</time>
      </trkpt>
      <trkpt lat="49.46887" lon="7.14835">
        <ele>0</ele>
        <time>0001-01-01T00:00:00Z</time>
      </trkpt>
      <trkpt lat="49.46887" lon="7.14834">
        <ele>0</ele>
        <time>0001-01-01T00:00:00Z</time>
      </trkpt>
      <trkpt lat="49.46888" lon="7.14833">
        <ele>0</ele>
        <time>0001-01-01T00:00:00Z</time>
      </trkpt>
      <trkpt lat="49.46888" lon="7.14832">
        <ele>0</ele>
        <time>0001-01-01T00:00:00Z</time>
      </trkpt>
      <trkpt lat="49.46889" lon="7.1483">
        <ele>0</ele>
        <time>0001-01-01T00:00:00Z</time>
      </trkpt>
      <trkpt lat="49.46889" lon="7.14829">
        <ele>0</ele>
        <time>0001-01-01T00:00:00Z</time>
      </trkpt>
      <trkpt lat="49.4689" lon="7.14828">
        <ele>0</ele>
        <time>0001-01-01T00:00:00Z</time>
      </trkpt>
      <trkpt lat="49.4689" lon="7.14825">
        <ele>0</ele>
        <time>0001-01-01T00:00:00Z</time>
      </trkpt>
      <trkpt lat="49.46891" lon="7.14823">
        <ele>0</ele>
        <time>0001-01-01T00:00:00Z</time>
      </trkpt>
      <trkpt lat="49.46891" lon="7.14817">
        <ele>0</ele>
        <time>0001-01-01T00:00:00Z</time>
      </trkpt>
      <trkpt lat="49.4689" lon="7.14816">
        <ele>0</ele>
        <time>0001-01-01T00:00:00Z</time>
      </trkpt>
      <trkpt lat="49.4689" lon="7.14812">
        <ele>0</ele>
        <time>0001-01-01T00:00:00Z</time>
      </trkpt>
      <trkpt lat="49.46889" lon="7.1481">
        <ele>0</ele>
        <time>0001-01-01T00:00:00Z</time>
      </trkpt>
      <trkpt lat="49.46889" lon="7.14809">
        <ele>0</ele>
        <time>0001-01-01T00:00:00Z</time>
      </trkpt>
      <trkpt lat="49.46888" lon="7.14808">
        <ele>0</ele>
        <time>0001-01-01T00:00:00Z</time>
      </trkpt>
      <trkpt lat="49.46888" lon="7.14807">
        <ele>0</ele>
        <time>0001-01-01T00:00:00Z</time>
      </trkpt>
      <trkpt lat="49.46887" lon="7.14806">
        <ele>0</ele>
        <time>0001-01-01T00:00:00Z</time>
      </trkpt>
      <trkpt lat="49.46887" lon="7.14805">
        <ele>0</ele>
        <time>0001-01-01T00:00:00Z</time>
      </trkpt>
      <trkpt lat="49.46882" lon="7.148">
        <ele>0</ele>
        <time>0001-01-01T00:00:00Z</time>
      </trkpt>
      <trkpt lat="49.46881" lon="7.148">
        <ele>0</ele>
        <time>0001-01-01T00:00:00Z</time>
      </trkpt>
      <trkpt lat="49.4688" lon="7.14799">
        <ele>0</ele>
        <time>0001-01-01T00:00:00Z</time>
      </trkpt>
      <trkpt lat="49.46878" lon="7.14799">
        <ele>0</ele>
        <time>0001-01-01T00:00:00Z</time>
      </trkpt>
      <trkpt lat="49.46875" lon="7.14708">
        <ele>0</ele>
        <time>0001-01-01T00:00:00Z</time>
      </trkpt>
      <trkpt lat="49.46879" lon="7.14413">
        <ele>0</ele>
        <time>0001-01-01T00:00:00Z</time>
      </trkpt>
      <trkpt lat="49.46898" lon="7.13945">
        <ele>0</ele>
        <time>0001-01-01T00:00:00Z</time>
      </trkpt>
      <trkpt lat="49.46901" lon="7.13944">
        <ele>0</ele>
        <time>0001-01-01T00:00:00Z</time>
      </trkpt>
      <trkpt lat="49.46902" lon="7.13944">
        <ele>0</ele>
        <time>0001-01-01T00:00:00Z</time>
      </trkpt>
      <trkpt lat="49.46908" lon="7.13938">
        <ele>0</ele>
        <time>0001-01-01T00:00:00Z</time>
      </trkpt>
      <trkpt lat="49.46908" lon="7.13937">
        <ele>0</ele>
        <time>0001-01-01T00:00:00Z</time>
      </trkpt>
      <trkpt lat="49.46909" lon="7.13936">
        <ele>0</ele>
        <time>0001-01-01T00:00:00Z</time>
      </trkpt>
      <trkpt lat="49.4691" lon="7.13934">
        <ele>0</ele>
        <time>0001-01-01T00:00:00Z</time>
      </trkpt>
      <trkpt lat="49.4691" lon="7.13933">
        <ele>0</ele>
        <time>0001-01-01T00:00:00Z</time>
      </trkpt>
      <trkpt lat="49.46911" lon="7.13931">
        <ele>0</ele>
        <time>0001-01-01T00:00:00Z</time>
      </trkpt>
      <trkpt lat="49.46911" lon="7.13928">
        <ele>0</ele>
        <time>0001-01-01T00:00:00Z</time>
      </trkpt>
      <trkpt lat="49.46912" lon="7.13927">
        <ele>0</ele>
        <time>0001-01-01T00:00:00Z</time>
      </trkpt>
      <trkpt lat="49.46912" lon="7.13916">
        <ele>0</ele>
        <time>0001-01-01T00:00:00Z</time>
      </trkpt>
      <trkpt lat="49.46911" lon="7.13914">
        <ele>0</ele>
        <time>0001-01-01T00:00:00Z</time>
      </trkpt>
      <trkpt lat="49.46911" lon="7.13911">
        <ele>0</ele>
        <time>0001-01-01T00:00:00Z</time>
      </trkpt>
      <trkpt lat="49.4691" lon="7.1391">
        <ele>0</ele>
        <time>0001-01-01T00:00:00Z</time>
      </trkpt>
      <trkpt lat="49.4691" lon="7.13908">
        <ele>0</ele>
        <time>0001-01-01T00:00:00Z</time>
      </trkpt>
      <trkpt lat="49.46908" lon="7.13906">
        <ele>0</ele>
        <time>0001-01-01T00:00:00Z</time>
      </trkpt>
      <trkpt lat="49.46908" lon="7.13905">
        <ele>0</ele>
        <time>0001-01-01T00:00:00Z</time>
      </trkpt>
      <trkpt lat="49.46907" lon="7.13903">
        <ele>0</ele>
        <time>0001-01-01T00:00:00Z</time>
      </trkpt>
      <trkpt lat="49.46905" lon="7.13901">
        <ele>0</ele>
        <time>0001-01-01T00:00:00Z</time>
      </trkpt>
      <trkpt lat="49.46904" lon="7.13901">
        <ele>0</ele>
        <time>0001-01-01T00:00:00Z</time>
      </trkpt>
      <trkpt lat="49.46902" lon="7.13899">
        <ele>0</ele>
        <time>0001-01-01T00:00:00Z</time>
      </trkpt>
      <trkpt lat="49.46901" lon="7.1388">
        <ele>0</ele>
        <time>0001-01-01T00:00:00Z</time>
      </trkpt>
      <trkpt lat="49.46904" lon="7.13792">
        <ele>0</ele>
        <time>0001-01-01T00:00:00Z</time>
      </trkpt>
      <trkpt lat="49.46902" lon="7.13768">
        <ele>0</ele>
        <time>0001-01-01T00:00:00Z</time>
      </trkpt>
      <trkpt lat="49.46948" lon="7.12916">
        <ele>0</ele>
        <time>0001-01-01T00:00:00Z</time>
      </trkpt>
      <trkpt lat="49.46955" lon="7.12641">
        <ele>0</ele>
        <time>0001-01-01T00:00:00Z</time>
      </trkpt>
      <trkpt lat="49.46954" lon="7.12566">
        <ele>0</ele>
        <time>0001-01-01T00:00:00Z</time>
      </trkpt>
      <trkpt lat="49.46937" lon="7.12378">
        <ele>0</ele>
        <time>0001-01-01T00:00:00Z</time>
      </trkpt>
      <trkpt lat="49.46938" lon="7.12363">
        <ele>0</ele>
        <time>0001-01-01T00:00:00Z</time>
      </trkpt>
      <trkpt lat="49.46926" lon="7.12205">
        <ele>0</ele>
        <time>0001-01-01T00:00:00Z</time>
      </trkpt>
      <trkpt lat="49.46915" lon="7.12106">
        <ele>0</ele>
        <time>0001-01-01T00:00:00Z</time>
      </trkpt>
      <trkpt lat="49.46912" lon="7.12094">
        <ele>0</ele>
        <time>0001-01-01T00:00:00Z</time>
      </trkpt>
      <trkpt lat="49.46907" lon="7.12022">
        <ele>0</ele>
        <time>0001-01-01T00:00:00Z</time>
      </trkpt>
      <trkpt lat="49.46873" lon="7.11098">
        <ele>0</ele>
        <time>0001-01-01T00:00:00Z</time>
      </trkpt>
      <trkpt lat="49.46871" lon="7.10964">
        <ele>0</ele>
        <time>0001-01-01T00:00:00Z</time>
      </trkpt>
      <trkpt lat="49.46873" lon="7.10921">
        <ele>0</ele>
        <time>0001-01-01T00:00:00Z</time>
      </trkpt>
      <trkpt lat="49.46883" lon="7.10832">
        <ele>0</ele>
        <time>0001-01-01T00:00:00Z</time>
      </trkpt>
      <trkpt lat="49.46901" lon="7.10754">
        <ele>0</ele>
        <time>0001-01-01T00:00:00Z</time>
      </trkpt>
      <trkpt lat="49.46922" lon="7.10689">
        <ele>0</ele>
        <time>0001-01-01T00:00:00Z</time>
      </trkpt>
      <trkpt lat="49.47114" lon="7.10225">
        <ele>0</ele>
        <time>0001-01-01T00:00:00Z</time>
      </trkpt>
      <trkpt lat="49.47121" lon="7.10211">
        <ele>0</ele>
        <time>0001-01-01T00:00:00Z</time>
      </trkpt>
      <trkpt lat="49.47129" lon="7.10201">
        <ele>0</ele>
        <time>0001-01-01T00:00:00Z</time>
      </trkpt>
      <trkpt lat="49.47134" lon="7.10196">
        <ele>0</ele>
        <time>0001-01-01T00:00:00Z</time>
      </trkpt>
      <trkpt lat="49.47143" lon="7.10189">
        <ele>0</ele>
        <time>0001-01-01T00:00:00Z</time>
      </trkpt>
      <trkpt lat="49.47153" lon="7.10183">
        <ele>0</ele>
        <time>0001-01-01T00:00:00Z</time>
      </trkpt>
      <trkpt lat="49.4717" lon="7.10176">
        <ele>0</ele>
        <time>0001-01-01T00:00:00Z</time>
      </trkpt>
      <trkpt lat="49.47348" lon="7.10127">
        <ele>0</ele>
        <time>0001-01-01T00:00:00Z</time>
      </trkpt>
      <trkpt lat="49.47356" lon="7.10126">
        <ele>0</ele>
        <time>0001-01-01T00:00:00Z</time>
      </trkpt>
      <trkpt lat="49.47368" lon="7.10128">
        <ele>0</ele>
        <time>0001-01-01T00:00:00Z</time>
      </trkpt>
      <trkpt lat="49.47374" lon="7.1013">
        <ele>0</ele>
        <time>0001-01-01T00:00:00Z</time>
      </trkpt>
      <trkpt lat="49.47391" lon="7.10138">
        <ele>0</ele>
        <time>0001-01-01T00:00:00Z</time>
      </trkpt>
      <trkpt lat="49.47405" lon="7.10149">
        <ele>0</ele>
        <time>0001-01-01T00:00:00Z</time>
      </trkpt>
      <trkpt lat="49.4742" lon="7.10166">
        <ele>0</ele>
        <time>0001-01-01T00:00:00Z</time>
      </trkpt>
      <trkpt lat="49.47476" lon="7.10242">
        <ele>0</ele>
        <time>0001-01-01T00:00:00Z</time>
      </trkpt>
      <trkpt lat="49.4749" lon="7.10258">
        <ele>0</ele>
        <time>0001-01-01T00:00:00Z</time>
      </trkpt>
      <trkpt lat="49.47497" lon="7.10263">
        <ele>0</ele>
        <time>0001-01-01T00:00:00Z</time>
      </trkpt>
      <trkpt lat="49.47501" lon="7.10265">
        <ele>0</ele>
        <time>0001-01-01T00:00:00Z</time>
      </trkpt>
      <trkpt lat="49.47506" lon="7.10266">
        <ele>0</ele>
        <time>0001-01-01T00:00:00Z</time>
      </trkpt>
      <trkpt lat="49.4751" lon="7.10266">
        <ele>0</ele>
        <time>0001-01-01T00:00:00Z</time>
      </trkpt>
      <trkpt lat="49.4752" lon="7.10264">
        <ele>0</ele>
        <time>0001-01-01T00:00:00Z</time>
      </trkpt>
      <trkpt lat="49.47528" lon="7.10256">
        <ele>0</ele>
        <time>0001-01-01T00:00:00Z</time>
      </trkpt>
      <trkpt lat="49.47529" lon="7.10253">
        <ele>0</ele>
        <time>0001-01-01T00:00:00Z</time>
      </trkpt>
      <trkpt lat="49.47532" lon="7.10248">
        <ele>0</ele>
        <time>0001-01-01T00:00:00Z</time>
      </trkpt>
      <trkpt lat="49.47536" lon="7.10237">
        <ele>0</ele>
        <time>0001-01-01T00:00:00Z</time>
      </trkpt>
      <trkpt lat="49.47542" lon="7.10147">
        <ele>0</ele>
        <time>0001-01-01T00:00:00Z</time>
      </trkpt>
      <trkpt lat="49.47551" lon="7.10115">
        <ele>0</ele>
        <time>0001-01-01T00:00:00Z</time>
      </trkpt>
      <trkpt lat="49.47563" lon="7.1009">
        <ele>0</ele>
        <time>0001-01-01T00:00:00Z</time>
      </trkpt>
      <trkpt lat="49.47649" lon="7.09943">
        <ele>0</ele>
        <time>0001-01-01T00:00:00Z</time>
      </trkpt>
      <trkpt lat="49.4766" lon="7.09919">
        <ele>0</ele>
        <time>0001-01-01T00:00:00Z</time>
      </trkpt>
      <trkpt lat="49.47678" lon="7.09812">
        <ele>0</ele>
        <time>0001-01-01T00:00:00Z</time>
      </trkpt>
      <trkpt lat="49.4768" lon="7.09781">
        <ele>0</ele>
        <time>0001-01-01T00:00:00Z</time>
      </trkpt>
      <trkpt lat="49.47678" lon="7.09745">
        <ele>0</ele>
        <time>0001-01-01T00:00:00Z</time>
      </trkpt>
      <trkpt lat="49.47642" lon="7.09388">
        <ele>0</ele>
        <time>0001-01-01T00:00:00Z</time>
      </trkpt>
      <trkpt lat="49.47557" lon="7.08748">
        <ele>0</ele>
        <time>0001-01-01T00:00:00Z</time>
      </trkpt>
      <trkpt lat="49.47554" lon="7.08682">
        <ele>0</ele>
        <time>0001-01-01T00:00:00Z</time>
      </trkpt>
      <trkpt lat="49.47555" lon="7.08481">
        <ele>0</ele>
        <time>0001-01-01T00:00:00Z</time>
      </trkpt>
      <trkpt lat="49.47553" lon="7.08445">
        <ele>0</ele>
        <time>0001-01-01T00:00:00Z</time>
      </trkpt>
      <trkpt lat="49.475" lon="7.08095">
        <ele>0</ele>
        <time>0001-01-01T00:00:00Z</time>
      </trkpt>
      <trkpt lat="49.47491" lon="7.08061">
        <ele>0</ele>
        <time>0001-01-01T00:00:00Z</time>
      </trkpt>
      <trkpt lat="49.47487" lon="7.0805">
        <ele>0</ele>
        <time>0001-01-01T00:00:00Z</time>
      </trkpt>
      <trkpt lat="49.47471" lon="7.0802">
        <ele>0</ele>
        <time>0001-01-01T00:00:00Z</time>
      </trkpt>
      <trkpt lat="49.47433" lon="7.07961">
        <ele>0</ele>
        <time>0001-01-01T00:00:00Z</time>
      </trkpt>
      <trkpt lat="49.47425" lon="7.07945">
        <ele>0</ele>
        <time>0001-01-01T00:00:00Z</time>
      </trkpt>
      <trkpt lat="49.47419" lon="7.0793">
        <ele>0</ele>
        <time>0001-01-01T00:00:00Z</time>
      </trkpt>
      <trkpt lat="49.47414" lon="7.07905">
        <ele>0</ele>
        <time>0001-01-01T00:00:00Z</time>
      </trkpt>
      <trkpt lat="49.47386" lon="7.0765">
        <ele>0</ele>
        <time>0001-01-01T00:00:00Z</time>
      </trkpt>
      <trkpt lat="49.4738" lon="7.0761">
        <ele>0</ele>
        <time>0001-01-01T00:00:00Z</time>
      </trkpt>
      <trkpt lat="49.47369" lon="7.07572">
        <ele>0</ele>
        <time>0001-01-01T00:00:00Z</time>
      </trkpt>
      <trkpt lat="49.47358" lon="7.07547">
        <ele>0</ele>
        <time>0001-01-01T00:00:00Z</time>
      </trkpt>
      <trkpt lat="49.4733" lon="7.07505">
        <ele>0</ele>
        <time>0001-01-01T00:00:00Z</time>
      </trkpt>
      <trkpt lat="49.47296" lon="7.07464">
        <ele>0</ele>
        <time>0001-01-01T00:00:00Z</time>
      </trkpt>
      <trkpt lat="49.47286" lon="7.07454">
        <ele>0</ele>
        <time>0001-01-01T00:00:00Z</time>
      </trkpt>
      <trkpt lat="49.47263" lon="7.07437">
        <ele>0</ele>
        <time>0001-01-01T00:00:00Z</time>
      </trkpt>
      <trkpt lat="49.47256" lon="7.07433">
        <ele>0</ele>
        <time>0001-01-01T00:00:00Z</time>
      </trkpt>
      <trkpt lat="49.4725" lon="7.07428">
        <ele>0</ele>
        <time>0001-01-01T00:00:00Z</time>
      </trkpt>
      <trkpt lat="49.47243" lon="7.07425">
        <ele>0</ele>
        <time>0001-01-01T00:00:00Z</time>
      </trkpt>
      <trkpt lat="49.47223" lon="7.07409">
        <ele>0</ele>
        <time>0001-01-01T00:00:00Z</time>
      </trkpt>
      <trkpt lat="49.47215" lon="7.07401">
        <ele>0</ele>
        <time>0001-01-01T00:00:00Z</time>
      </trkpt>
      <trkpt lat="49.47212" lon="7.07396">
        <ele>0</ele>
        <time>0001-01-01T00:00:00Z</time>
      </trkpt>
      <trkpt lat="49.47204" lon="7.07386">
        <ele>0</ele>
        <time>0001-01-01T00:00:00Z</time>
      </trkpt>
      <trkpt lat="49.4718" lon="7.07329">
        <ele>0</ele>
        <time>0001-01-01T00:00:00Z</time>
      </trkpt>
      <trkpt lat="49.47177" lon="7.07319">
        <ele>0</ele>
        <time>0001-01-01T00:00:00Z</time>
      </trkpt>
      <trkpt lat="49.47155" lon="7.07263">
        <ele>0</ele>
        <time>0001-01-01T00:00:00Z</time>
      </trkpt>
      <trkpt lat="49.47136" lon="7.07227">
        <ele>0</ele>
        <time>0001-01-01T00:00:00Z</time>
      </trkpt>
      <trkpt lat="49.47128" lon="7.07202">
        <ele>0</ele>
        <time>0001-01-01T00:00:00Z</time>
      </trkpt>
      <trkpt lat="49.47126" lon="7.07192">
        <ele>0</ele>
        <time>0001-01-01T00:00:00Z</time>
      </trkpt>
      <trkpt lat="49.47126" lon="7.07185">
        <ele>0</ele>
        <time>0001-01-01T00:00:00Z</time>
      </trkpt>
      <trkpt lat="49.47125" lon="7.0718">
        <ele>0</ele>
        <time>0001-01-01T00:00:00Z</time>
      </trkpt>
      <trkpt lat="49.47125" lon="7.07165">
        <ele>0</ele>
        <time>0001-01-01T00:00:00Z</time>
      </trkpt>
      <trkpt lat="49.47126" lon="7.07165">
        <ele>0</ele>
        <time>0001-01-01T00:00:00Z</time>
      </trkpt>
      <trkpt lat="49.47126" lon="7.07163">
        <ele>0</ele>
        <time>0001-01-01T00:00:00Z</time>
      </trkpt>
      <trkpt lat="49.47127" lon="7.07163">
        <ele>0</ele>
        <time>0001-01-01T00:00:00Z</time>
      </trkpt>
      <trkpt lat="49.47127" lon="7.0716">
        <ele>0</ele>
        <time>0001-01-01T00:00:00Z</time>
      </trkpt>
      <trkpt lat="49.47128" lon="7.0716">
        <ele>0</ele>
        <time>0001-01-01T00:00:00Z</time>
      </trkpt>
      <trkpt lat="49.47128" lon="7.07151">
        <ele>0</ele>
        <time>0001-01-01T00:00:00Z</time>
      </trkpt>
      <trkpt lat="49.47127" lon="7.07151">
        <ele>0</ele>
        <time>0001-01-01T00:00:00Z</time>
      </trkpt>
      <trkpt lat="49.47127" lon="7.07148">
        <ele>0</ele>
        <time>0001-01-01T00:00:00Z</time>
      </trkpt>
      <trkpt lat="49.47149" lon="7.07123">
        <ele>0</ele>
        <time>0001-01-01T00:00:00Z</time>
      </trkpt>
      <trkpt lat="49.47154" lon="7.07115">
        <ele>0</ele>
        <time>0001-01-01T00:00:00Z</time>
      </trkpt>
      <trkpt lat="49.47211" lon="7.0705">
        <ele>0</ele>
        <time>0001-01-01T00:00:00Z</time>
      </trkpt>
      <trkpt lat="49.47228" lon="7.07026">
        <ele>0</ele>
        <time>0001-01-01T00:00:00Z</time>
      </trkpt>
      <trkpt lat="49.47231" lon="7.0702">
        <ele>0</ele>
        <time>0001-01-01T00:00:00Z</time>
      </trkpt>
      <trkpt lat="49.47238" lon="7.06994">
        <ele>0</ele>
        <time>0001-01-01T00:00:00Z</time>
      </trkpt>
      <trkpt lat="49.47242" lon="7.06968">
        <ele>0</ele>
        <time>0001-01-01T00:00:00Z</time>
      </trkpt>
      <trkpt lat="49.47241" lon="7.06952">
        <ele>0</ele>
        <time>0001-01-01T00:00:00Z</time>
      </trkpt>
      <trkpt lat="49.47239" lon="7.06943">
        <ele>0</ele>
        <time>0001-01-01T00:00:00Z</time>
      </trkpt>
      <trkpt lat="49.47237" lon="7.06941">
        <ele>0</ele>
        <time>0001-01-01T00:00:00Z</time>
      </trkpt>
      <trkpt lat="49.47237" lon="7.06939">
        <ele>0</ele>
        <time>0001-01-01T00:00:00Z</time>
      </trkpt>
      <trkpt lat="49.47235" lon="7.06935">
        <ele>0</ele>
        <time>0001-01-01T00:00:00Z</time>
      </trkpt>
      <trkpt lat="49.47201" lon="7.06899">
        <ele>0</ele>
        <time>0001-01-01T00:00:00Z</time>
      </trkpt>
      <trkpt lat="49.47151" lon="7.06856">
        <ele>0</ele>
        <time>0001-01-01T00:00:00Z</time>
      </trkpt>
      <trkpt lat="49.47133" lon="7.06838">
        <ele>0</ele>
        <time>0001-01-01T00:00:00Z</time>
      </trkpt>
      <trkpt lat="49.47129" lon="7.06831">
        <ele>0</ele>
        <time>0001-01-01T00:00:00Z</time>
      </trkpt>
      <trkpt lat="49.47125" lon="7.06817">
        <ele>0</ele>
        <time>0001-01-01T00:00:00Z</time>
      </trkpt>
      <trkpt lat="49.47125" lon="7.06799">
        <ele>0</ele>
        <time>0001-01-01T00:00:00Z</time>
      </trkpt>
      <trkpt lat="49.47136" lon="7.06754">
        <ele>0</ele>
        <time>0001-01-01T00:00:00Z</time>
      </trkpt>
      <trkpt lat="49.47143" lon="7.06736">
        <ele>0</ele>
        <time>0001-01-01T00:00:00Z</time>
      </trkpt>
      <trkpt lat="49.47147" lon="7.06731">
        <ele>0</ele>
        <time>0001-01-01T00:00:00Z</time>
      </trkpt>
      <trkpt lat="49.47163" lon="7.06715">
        <ele>0</ele>
        <time>0001-01-01T00:00:00Z</time>
      </trkpt>
      <trkpt lat="49.472" lon="7.06683">
        <ele>0</ele>
        <time>0001-01-01T00:00:00Z</time>
      </trkpt>
      <trkpt lat="49.47217" lon="7.06661">
        <ele>0</ele>
        <time>0001-01-01T00:00:00Z</time>
      </trkpt>
      <trkpt lat="49.47233" lon="7.06635">
        <ele>0</ele>
        <time>0001-01-01T00:00:00Z</time>
      </trkpt>
      <trkpt lat="49.47242" lon="7.06612">
        <ele>0</ele>
        <time>0001-01-01T00:00:00Z</time>
      </trkpt>
      <trkpt lat="49.4746" lon="7.0574">
        <ele>0</ele>
        <time>0001-01-01T00:00:00Z</time>
      </trkpt>
      <trkpt lat="49.47505" lon="7.05577">
        <ele>0</ele>
        <time>0001-01-01T00:00:00Z</time>
      </trkpt>
      <trkpt lat="49.47683" lon="7.05035">
        <ele>0</ele>
        <time>0001-01-01T00:00:00Z</time>
      </trkpt>
      <trkpt lat="49.47812" lon="7.04557">
        <ele>0</ele>
        <time>0001-01-01T00:00:00Z</time>
      </trkpt>
      <trkpt lat="49.47824" lon="7.04521">
        <ele>0</ele>
        <time>0001-01-01T00:00:00Z</time>
      </trkpt>
      <trkpt lat="49.4784" lon="7.04485">
        <ele>0</ele>
        <time>0001-01-01T00:00:00Z</time>
      </trkpt>
      <trkpt lat="49.47853" lon="7.0446">
        <ele>0</ele>
        <time>0001-01-01T00:00:00Z</time>
      </trkpt>
      <trkpt lat="49.47883" lon="7.04413">
        <ele>0</ele>
        <time>0001-01-01T00:00:00Z</time>
      </trkpt>
      <trkpt lat="49.48026" lon="7.04216">
        <ele>0</ele>
        <time>0001-01-01T00:00:00Z</time>
      </trkpt>
      <trkpt lat="49.48043" lon="7.04187">
        <ele>0</ele>
        <time>0001-01-01T00:00:00Z</time>
      </trkpt>
      <trkpt lat="49.4809" lon="7.04074">
        <ele>0</ele>
        <time>0001-01-01T00:00:00Z</time>
      </trkpt>
      <trkpt lat="49.48097" lon="7.04061">
        <ele>0</ele>
        <time>0001-01-01T00:00:00Z</time>
      </trkpt>
      <trkpt lat="49.48119" lon="7.04032">
        <ele>0</ele>
        <time>0001-01-01T00:00:00Z</time>
      </trkpt>
      <trkpt lat="49.48205" lon="7.03955">
        <ele>0</ele>
        <time>0001-01-01T00:00:00Z</time>
      </trkpt>
      <trkpt lat="49.48296" lon="7.03868">
        <ele>0</ele>
        <time>0001-01-01T00:00:00Z</time>
      </trkpt>
      <trkpt lat="49.48334" lon="7.03835">
        <ele>0</ele>
        <time>0001-01-01T00:00:00Z</time>
      </trkpt>
      <trkpt lat="49.48367" lon="7.03803">
        <ele>0</ele>
        <time>0001-01-01T00:00:00Z</time>
      </trkpt>
      <trkpt lat="49.4837" lon="7.03801">
        <ele>0</ele>
        <time>0001-01-01T00:00:00Z</time>
      </trkpt>
      <trkpt lat="49.48375" lon="7.038">
        <ele>0</ele>
        <time>0001-01-01T00:00:00Z</time>
      </trkpt>
      <trkpt lat="49.48416" lon="7.03757">
        <ele>0</ele>
        <time>0001-01-01T00:00:00Z</time>
      </trkpt>
      <trkpt lat="49.48419" lon="7.03751">
        <ele>0</ele>
        <time>0001-01-01T00:00:00Z</time>
      </trkpt>
      <trkpt lat="49.48413" lon="7.03741">
        <ele>0</ele>
        <time>0001-01-01T00:00:00Z</time>
      </trkpt>
      <trkpt lat="49.48411" lon="7.03739">
        <ele>0</ele>
        <time>0001-01-01T00:00:00Z</time>
      </trkpt>
      <trkpt lat="49.48399" lon="7.03719">
        <ele>0</ele>
        <time>0001-01-01T00:00:00Z</time>
      </trkpt>
      <trkpt lat="49.48363" lon="7.03619">
        <ele>0</ele>
        <time>0001-01-01T00:00:00Z</time>
      </trkpt>
      <trkpt lat="49.48372" lon="7.03619">
        <ele>0</ele>
        <time>0001-01-01T00:00:00Z</time>
      </trkpt>
      <trkpt lat="49.48379" lon="7.0362">
        <ele>0</ele>
        <time>0001-01-01T00:00:00Z</time>
      </trkpt>
      <trkpt lat="49.48451" lon="7.03647">
        <ele>0</ele>
        <time>0001-01-01T00:00:00Z</time>
      </trkpt>
      <trkpt lat="49.48452" lon="7.03647">
        <ele>0</ele>
        <time>0001-01-01T00:00:00Z</time>
      </trkpt>
      <trkpt lat="49.48455" lon="7.03649">
        <ele>0</ele>
        <time>0001-01-01T00:00:00Z</time>
      </trkpt>
      <trkpt lat="49.4864" lon="7.03713">
        <ele>0</ele>
        <time>0001-01-01T00:00:00Z</time>
      </trkpt>
      <trkpt lat="49.48646" lon="7.03711">
        <ele>0</ele>
        <time>0001-01-01T00:00:00Z</time>
      </trkpt>
      <trkpt lat="49.48649" lon="7.03709">
        <ele>0</ele>
        <time>0001-01-01T00:00:00Z</time>
      </trkpt>
      <trkpt lat="49.48664" lon="7.03688">
        <ele>0</ele>
        <time>0001-01-01T00:00:00Z</time>
      </trkpt>
      <trkpt lat="49.48672" lon="7.03679">
        <ele>0</ele>
        <time>0001-01-01T00:00:00Z</time>
      </trkpt>
      <trkpt lat="49.48682" lon="7.0367">
        <ele>0</ele>
        <time>0001-01-01T00:00:00Z</time>
      </trkpt>
      <trkpt lat="49.487" lon="7.03665">
        <ele>0</ele>
        <time>0001-01-01T00:00:00Z</time>
      </trkpt>
      <trkpt lat="49.48716" lon="7.03663">
        <ele>0</ele>
        <time>0001-01-01T00:00:00Z</time>
      </trkpt>
      <trkpt lat="49.48732" lon="7.03665">
        <ele>0</ele>
        <time>0001-01-01T00:00:00Z</time>
      </trkpt>
      <trkpt lat="49.48751" lon="7.03674">
        <ele>0</ele>
        <time>0001-01-01T00:00:00Z</time>
      </trkpt>
      <trkpt lat="49.48766" lon="7.03688">
        <ele>0</ele>
        <time>0001-01-01T00:00:00Z</time>
      </trkpt>
      <trkpt lat="49.48797" lon="7.03727">
        <ele>0</ele>
        <time>0001-01-01T00:00:00Z</time>
      </trkpt>
      <trkpt lat="49.4882" lon="7.0376">
        <ele>0</ele>
        <time>0001-01-01T00:00:00Z</time>
      </trkpt>
      <trkpt lat="49.48844" lon="7.03788">
        <ele>0</ele>
        <time>0001-01-01T00:00:00Z</time>
      </trkpt>
      <trkpt lat="49.48859" lon="7.03803">
        <ele>0</ele>
        <time>0001-01-01T00:00:00Z</time>
      </trkpt>
      <trkpt lat="49.48886" lon="7.03824">
        <ele>0</ele>
        <time>0001-01-01T00:00:00Z</time>
      </trkpt>
      <trkpt lat="49.48941" lon="7.03854">
        <ele>0</ele>
        <time>0001-01-01T00:00:00Z</time>
      </trkpt>
      <trkpt lat="49.48958" lon="7.0386">
        <ele>0</ele>
        <time>0001-01-01T00:00:00Z</time>
      </trkpt>
      <trkpt lat="49.48955" lon="7.03836">
        <ele>0</ele>
        <time>0001-01-01T00:00:00Z</time>
      </trkpt>
      <trkpt lat="49.48951" lon="7.03635">
        <ele>0</ele>
        <time>0001-01-01T00:00:00Z</time>
      </trkpt>
      <trkpt lat="49.48942" lon="7.03579">
        <ele>0</ele>
        <time>0001-01-01T00:00:00Z</time>
      </trkpt>
      <trkpt lat="49.48942" lon="7.03575">
        <ele>0</ele>
        <time>0001-01-01T00:00:00Z</time>
      </trkpt>
      <trkpt lat="49.48936" lon="7.03544">
        <ele>0</ele>
        <time>0001-01-01T00:00:00Z</time>
      </trkpt>
      <trkpt lat="49.48932" lon="7.03492">
        <ele>0</ele>
        <time>0001-01-01T00:00:00Z</time>
      </trkpt>
      <trkpt lat="49.48931" lon="7.03421">
        <ele>0</ele>
        <time>0001-01-01T00:00:00Z</time>
      </trkpt>
      <trkpt lat="49.48932" lon="7.03401">
        <ele>0</ele>
        <time>0001-01-01T00:00:00Z</time>
      </trkpt>
      <trkpt lat="49.48938" lon="7.03368">
        <ele>0</ele>
        <time>0001-01-01T00:00:00Z</time>
      </trkpt>
      <trkpt lat="49.48952" lon="7.03334">
        <ele>0</ele>
        <time>0001-01-01T00:00:00Z</time>
      </trkpt>
      <trkpt lat="49.48978" lon="7.03284">
        <ele>0</ele>
        <time>0001-01-01T00:00:00Z</time>
      </trkpt>
      <trkpt lat="49.48984" lon="7.03266">
        <ele>0</ele>
        <time>0001-01-01T00:00:00Z</time>
      </trkpt>
      <trkpt lat="49.48988" lon="7.0324">
        <ele>0</ele>
        <time>0001-01-01T00:00:00Z</time>
      </trkpt>
      <trkpt lat="49.48988" lon="7.03226">
        <ele>0</ele>
        <time>0001-01-01T00:00:00Z</time>
      </trkpt>
      <trkpt lat="49.48981" lon="7.03204">
        <ele>0</ele>
        <time>0001-01-01T00:00:00Z</time>
      </trkpt>
      <trkpt lat="49.48975" lon="7.03195">
        <ele>0</ele>
        <time>0001-01-01T00:00:00Z</time>
      </trkpt>
      <trkpt lat="49.48968" lon="7.03188">
        <ele>0</ele>
        <time>0001-01-01T00:00:00Z</time>
      </trkpt>
      <trkpt lat="49.48931" lon="7.03173">
        <ele>0</ele>
        <time>0001-01-01T00:00:00Z</time>
      </trkpt>
      <trkpt lat="49.48916" lon="7.0316">
        <ele>0</ele>
        <time>0001-01-01T00:00:00Z</time>
      </trkpt>
      <trkpt lat="49.48909" lon="7.03146">
        <ele>0</ele>
        <time>0001-01-01T00:00:00Z</time>
      </trkpt>
      <trkpt lat="49.48906" lon="7.03133">
        <ele>0</ele>
        <time>0001-01-01T00:00:00Z</time>
      </trkpt>
      <trkpt lat="49.48902" lon="7.031">
        <ele>0</ele>
        <time>0001-01-01T00:00:00Z</time>
      </trkpt>
      <trkpt lat="49.48899" lon="7.0305">
        <ele>0</ele>
        <time>0001-01-01T00:00:00Z</time>
      </trkpt>
      <trkpt lat="49.48895" lon="7.03023">
        <ele>0</ele>
        <time>0001-01-01T00:00:00Z</time>
      </trkpt>
      <trkpt lat="49.48883" lon="7.02974">
        <ele>0</ele>
        <time>0001-01-01T00:00:00Z</time>
      </trkpt>
      <trkpt lat="49.48875" lon="7.0295">
        <ele>0</ele>
        <time>0001-01-01T00:00:00Z</time>
      </trkpt>
      <trkpt lat="49.48859" lon="7.02913">
        <ele>0</ele>
        <time>0001-01-01T00:00:00Z</time>
      </trkpt>
      <trkpt lat="49.48838" lon="7.02857">
        <ele>0</ele>
        <time>0001-01-01T00:00:00Z</time>
      </trkpt>
      <trkpt lat="49.48814" lon="7.02776">
        <ele>0</ele>
        <time>0001-01-01T00:00:00Z</time>
      </trkpt>
      <trkpt lat="49.48807" lon="7.02758">
        <ele>0</ele>
        <time>0001-01-01T00:00:00Z</time>
      </trkpt>
      <trkpt lat="49.48801" lon="7.02746">
        <ele>0</ele>
        <time>0001-01-01T00:00:00Z</time>
      </trkpt>
      <trkpt lat="49.48792" lon="7.02741">
        <ele>0</ele>
        <time>0001-01-01T00:00:00Z</time>
      </trkpt>
      <trkpt lat="49.48784" lon="7.02735">
        <ele>0</ele>
        <time>0001-01-01T00:00:00Z</time>
      </trkpt>
      <trkpt lat="49.48771" lon="7.02729">
        <ele>0</ele>
        <time>0001-01-01T00:00:00Z</time>
      </trkpt>
      <trkpt lat="49.48758" lon="7.02732">
        <ele>0</ele>
        <time>0001-01-01T00:00:00Z</time>
      </trkpt>
      <trkpt lat="49.48742" lon="7.02741">
        <ele>0</ele>
        <time>0001-01-01T00:00:00Z</time>
      </trkpt>
      <trkpt lat="49.48708" lon="7.02769">
        <ele>0</ele>
        <time>0001-01-01T00:00:00Z</time>
      </trkpt>
      <trkpt lat="49.48668" lon="7.02811">
        <ele>0</ele>
        <time>0001-01-01T00:00:00Z</time>
      </trkpt>
      <trkpt lat="49.48647" lon="7.02848">
        <ele>0</ele>
        <time>0001-01-01T00:00:00Z</time>
      </trkpt>
      <trkpt lat="49.48646" lon="7.02849">
        <ele>0</ele>
        <time>0001-01-01T00:00:00Z</time>
      </trkpt>
      <trkpt lat="49.48647" lon="7.02848">
        <ele>0</ele>
        <time>0001-01-01T00:00:00Z</time>
      </trkpt>
      <trkpt lat="49.48668" lon="7.02811">
        <ele>0</ele>
        <time>0001-01-01T00:00:00Z</time>
      </trkpt>
      <trkpt lat="49.48708" lon="7.02769">
        <ele>0</ele>
        <time>0001-01-01T00:00:00Z</time>
      </trkpt>
      <trkpt lat="49.48742" lon="7.02741">
        <ele>0</ele>
        <time>0001-01-01T00:00:00Z</time>
      </trkpt>
      <trkpt lat="49.48758" lon="7.02732">
        <ele>0</ele>
        <time>0001-01-01T00:00:00Z</time>
      </trkpt>
      <trkpt lat="49.48771" lon="7.02729">
        <ele>0</ele>
        <time>0001-01-01T00:00:00Z</time>
      </trkpt>
      <trkpt lat="49.48784" lon="7.02735">
        <ele>0</ele>
        <time>0001-01-01T00:00:00Z</time>
      </trkpt>
      <trkpt lat="49.48792" lon="7.02741">
        <ele>0</ele>
        <time>0001-01-01T00:00:00Z</time>
      </trkpt>
      <trkpt lat="49.48801" lon="7.02746">
        <ele>0</ele>
        <time>0001-01-01T00:00:00Z</time>
      </trkpt>
      <trkpt lat="49.48807" lon="7.02758">
        <ele>0</ele>
        <time>0001-01-01T00:00:00Z</time>
      </trkpt>
      <trkpt lat="49.48814" lon="7.02776">
        <ele>0</ele>
        <time>0001-01-01T00:00:00Z</time>
      </trkpt>
      <trkpt lat="49.48838" lon="7.02857">
        <ele>0</ele>
        <time>0001-01-01T00:00:00Z</time>
      </trkpt>
      <trkpt lat="49.48859" lon="7.02913">
        <ele>0</ele>
        <time>0001-01-01T00:00:00Z</time>
      </trkpt>
      <trkpt lat="49.48875" lon="7.0295">
        <ele>0</ele>
        <time>0001-01-01T00:00:00Z</time>
      </trkpt>
      <trkpt lat="49.48883" lon="7.02974">
        <ele>0</ele>
        <time>0001-01-01T00:00:00Z</time>
      </trkpt>
      <trkpt lat="49.48895" lon="7.03023">
        <ele>0</ele>
        <time>0001-01-01T00:00:00Z</time>
      </trkpt>
      <trkpt lat="49.48899" lon="7.0305">
        <ele>0</ele>
        <time>0001-01-01T00:00:00Z</time>
      </trkpt>
      <trkpt lat="49.48902" lon="7.031">
        <ele>0</ele>
        <time>0001-01-01T00:00:00Z</time>
      </trkpt>
      <trkpt lat="49.48906" lon="7.03133">
        <ele>0</ele>
        <time>0001-01-01T00:00:00Z</time>
      </trkpt>
      <trkpt lat="49.48909" lon="7.03146">
        <ele>0</ele>
        <time>0001-01-01T00:00:00Z</time>
      </trkpt>
      <trkpt lat="49.48916" lon="7.0316">
        <ele>0</ele>
        <time>0001-01-01T00:00:00Z</time>
      </trkpt>
      <trkpt lat="49.48931" lon="7.03173">
        <ele>0</ele>
        <time>0001-01-01T00:00:00Z</time>
      </trkpt>
      <trkpt lat="49.48968" lon="7.03188">
        <ele>0</ele>
        <time>0001-01-01T00:00:00Z</time>
      </trkpt>
      <trkpt lat="49.48975" lon="7.03195">
        <ele>0</ele>
        <time>0001-01-01T00:00:00Z</time>
      </trkpt>
      <trkpt lat="49.48981" lon="7.03204">
        <ele>0</ele>
        <time>0001-01-01T00:00:00Z</time>
      </trkpt>
      <trkpt lat="49.48988" lon="7.03226">
        <ele>0</ele>
        <time>0001-01-01T00:00:00Z</time>
      </trkpt>
      <trkpt lat="49.48988" lon="7.0324">
        <ele>0</ele>
        <time>0001-01-01T00:00:00Z</time>
      </trkpt>
      <trkpt lat="49.48984" lon="7.03266">
        <ele>0</ele>
        <time>0001-01-01T00:00:00Z</time>
      </trkpt>
      <trkpt lat="49.48978" lon="7.03284">
        <ele>0</ele>
        <time>0001-01-01T00:00:00Z</time>
      </trkpt>
      <trkpt lat="49.48952" lon="7.03334">
        <ele>0</ele>
        <time>0001-01-01T00:00:00Z</time>
      </trkpt>
      <trkpt lat="49.48938" lon="7.03368">
        <ele>0</ele>
        <time>0001-01-01T00:00:00Z</time>
      </trkpt>
      <trkpt lat="49.48932" lon="7.03401">
        <ele>0</ele>
        <time>0001-01-01T00:00:00Z</time>
      </trkpt>
      <trkpt lat="49.48931" lon="7.03421">
        <ele>0</ele>
        <time>0001-01-01T00:00:00Z</time>
      </trkpt>
      <trkpt lat="49.48932" lon="7.03492">
        <ele>0</ele>
        <time>0001-01-01T00:00:00Z</time>
      </trkpt>
      <trkpt lat="49.48936" lon="7.03544">
        <ele>0</ele>
        <time>0001-01-01T00:00:00Z</time>
      </trkpt>
      <trkpt lat="49.48942" lon="7.03575">
        <ele>0</ele>
        <time>0001-01-01T00:00:00Z</time>
      </trkpt>
      <trkpt lat="49.48942" lon="7.03579">
        <ele>0</ele>
        <time>0001-01-01T00:00:00Z</time>
      </trkpt>
      <trkpt lat="49.48951" lon="7.03635">
        <ele>0</ele>
        <time>0001-01-01T00:00:00Z</time>
      </trkpt>
      <trkpt lat="49.48955" lon="7.03836">
        <ele>0</ele>
        <time>0001-01-01T00:00:00Z</time>
      </trkpt>
      <trkpt lat="49.48958" lon="7.0386">
        <ele>0</ele>
        <time>0001-01-01T00:00:00Z</time>
      </trkpt>
      <trkpt lat="49.48941" lon="7.03854">
        <ele>0</ele>
        <time>0001-01-01T00:00:00Z</time>
      </trkpt>
      <trkpt lat="49.48886" lon="7.03824">
        <ele>0</ele>
        <time>0001-01-01T00:00:00Z</time>
      </trkpt>
      <trkpt lat="49.48859" lon="7.03803">
        <ele>0</ele>
        <time>0001-01-01T00:00:00Z</time>
      </trkpt>
      <trkpt lat="49.48844" lon="7.03788">
        <ele>0</ele>
        <time>0001-01-01T00:00:00Z</time>
      </trkpt>
      <trkpt lat="49.4882" lon="7.0376">
        <ele>0</ele>
        <time>0001-01-01T00:00:00Z</time>
      </trkpt>
      <trkpt lat="49.48797" lon="7.03727">
        <ele>0</ele>
        <time>0001-01-01T00:00:00Z</time>
      </trkpt>
      <trkpt lat="49.48766" lon="7.03688">
        <ele>0</ele>
        <time>0001-01-01T00:00:00Z</time>
      </trkpt>
      <trkpt lat="49.48751" lon="7.03674">
        <ele>0</ele>
        <time>0001-01-01T00:00:00Z</time>
      </trkpt>
      <trkpt lat="49.48732" lon="7.03665">
        <ele>0</ele>
        <time>0001-01-01T00:00:00Z</time>
      </trkpt>
      <trkpt lat="49.48716" lon="7.03663">
        <ele>0</ele>
        <time>0001-01-01T00:00:00Z</time>
      </trkpt>
      <trkpt lat="49.487" lon="7.03665">
        <ele>0</ele>
        <time>0001-01-01T00:00:00Z</time>
      </trkpt>
      <trkpt lat="49.48682" lon="7.0367">
        <ele>0</ele>
        <time>0001-01-01T00:00:00Z</time>
      </trkpt>
      <trkpt lat="49.48672" lon="7.03679">
        <ele>0</ele>
        <time>0001-01-01T00:00:00Z</time>
      </trkpt>
      <trkpt lat="49.48664" lon="7.03688">
        <ele>0</ele>
        <time>0001-01-01T00:00:00Z</time>
      </trkpt>
      <trkpt lat="49.48649" lon="7.03709">
        <ele>0</ele>
        <time>0001-01-01T00:00:00Z</time>
      </trkpt>
      <trkpt lat="49.48646" lon="7.03711">
        <ele>0</ele>
        <time>0001-01-01T00:00:00Z</time>
      </trkpt>
      <trkpt lat="49.4864" lon="7.03713">
        <ele>0</ele>
        <time>0001-01-01T00:00:00Z</time>
      </trkpt>
      <trkpt lat="49.48455" lon="7.03649">
        <ele>0</ele>
        <time>0001-01-01T00:00:00Z</time>
      </trkpt>
      <trkpt lat="49.48452" lon="7.03647">
        <ele>0</ele>
        <time>0001-01-01T00:00:00Z</time>
      </trkpt>
      <trkpt lat="49.48451" lon="7.03647">
        <ele>0</ele>
        <time>0001-01-01T00:00:00Z</time>
      </trkpt>
      <trkpt lat="49.48379" lon="7.0362">
        <ele>0</ele>
        <time>0001-01-01T00:00:00Z</time>
      </trkpt>
      <trkpt lat="49.48372" lon="7.03619">
        <ele>0</ele>
        <time>0001-01-01T00:00:00Z</time>
      </trkpt>
      <trkpt lat="49.48363" lon="7.03619">
        <ele>0</ele>
        <time>0001-01-01T00:00:00Z</time>
      </trkpt>
      <trkpt lat="49.48406" lon="7.03742">
        <ele>0</ele>
        <time>0001-01-01T00:00:00Z</time>
      </trkpt>
      <trkpt lat="49.48409" lon="7.03747">
        <ele>0</ele>
        <time>0001-01-01T00:00:00Z</time>
      </trkpt>
      <trkpt lat="49.48392" lon="7.03772">
        <ele>0</ele>
        <time>0001-01-01T00:00:00Z</time>
      </trkpt>
      <trkpt lat="49.48374" lon="7.03794">
        <ele>0</ele>
        <time>0001-01-01T00:00:00Z</time>
      </trkpt>
      <trkpt lat="49.4837" lon="7.03801">
        <ele>0</ele>
        <time>0001-01-01T00:00:00Z</time>
      </trkpt>
      <trkpt lat="49.48367" lon="7.03803">
        <ele>0</ele>
        <time>0001-01-01T00:00:00Z</time>
      </trkpt>
      <trkpt lat="49.48334" lon="7.03835">
        <ele>0</ele>
        <time>0001-01-01T00:00:00Z</time>
      </trkpt>
      <trkpt lat="49.48296" lon="7.03868">
        <ele>0</ele>
        <time>0001-01-01T00:00:00Z</time>
      </trkpt>
      <trkpt lat="49.48205" lon="7.03955">
        <ele>0</ele>
        <time>0001-01-01T00:00:00Z</time>
      </trkpt>
      <trkpt lat="49.48119" lon="7.04032">
        <ele>0</ele>
        <time>0001-01-01T00:00:00Z</time>
      </trkpt>
      <trkpt lat="49.48097" lon="7.04061">
        <ele>0</ele>
        <time>0001-01-01T00:00:00Z</time>
      </trkpt>
      <trkpt lat="49.48071" lon="7.04038">
        <ele>0</ele>
        <time>0001-01-01T00:00:00Z</time>
      </trkpt>
      <trkpt lat="49.48059" lon="7.04032">
        <ele>0</ele>
        <time>0001-01-01T00:00:00Z</time>
      </trkpt>
      <trkpt lat="49.48044" lon="7.0402">
        <ele>0</ele>
        <time>0001-01-01T00:00:00Z</time>
      </trkpt>
      <trkpt lat="49.47992" lon="7.03985">
        <ele>0</ele>
        <time>0001-01-01T00:00:00Z</time>
      </trkpt>
      <trkpt lat="49.47983" lon="7.03981">
        <ele>0</ele>
        <time>0001-01-01T00:00:00Z</time>
      </trkpt>
      <trkpt lat="49.4798" lon="7.03981">
        <ele>0</ele>
        <time>0001-01-01T00:00:00Z</time>
      </trkpt>
      <trkpt lat="49.47904" lon="7.03967">
        <ele>0</ele>
        <time>0001-01-01T00:00:00Z</time>
      </trkpt>
      <trkpt lat="49.47892" lon="7.03959">
        <ele>0</ele>
        <time>0001-01-01T00:00:00Z</time>
      </trkpt>
      <trkpt lat="49.4788" lon="7.03948">
        <ele>0</ele>
        <time>0001-01-01T00:00:00Z</time>
      </trkpt>
      <trkpt lat="49.47832" lon="7.03886">
        <ele>0</ele>
        <time>0001-01-01T00:00:00Z</time>
      </trkpt>
      <trkpt lat="49.47799" lon="7.03857">
        <ele>0</ele>
        <time>0001-01-01T00:00:00Z</time>
      </trkpt>
      <trkpt lat="49.47762" lon="7.03828">
        <ele>0</ele>
        <time>0001-01-01T00:00:00Z</time>
      </trkpt>
      <trkpt lat="49.47698" lon="7.03783">
        <ele>0</ele>
        <time>0001-01-01T00:00:00Z</time>
      </trkpt>
      <trkpt lat="49.47647" lon="7.03756">
        <ele>0</ele>
        <time>0001-01-01T00:00:00Z</time>
      </trkpt>
      <trkpt lat="49.47573" lon="7.03691">
        <ele>0</ele>
        <time>0001-01-01T00:00:00Z</time>
      </trkpt>
      <trkpt lat="49.47565" lon="7.03686">
        <ele>0</ele>
        <time>0001-01-01T00:00:00Z</time>
      </trkpt>
      <trkpt lat="49.47552" lon="7.0368">
        <ele>0</ele>
        <time>0001-01-01T00:00:00Z</time>
      </trkpt>
      <trkpt lat="49.47483" lon="7.03657">
        <ele>0</ele>
        <time>0001-01-01T00:00:00Z</time>
      </trkpt>
      <trkpt lat="49.47473" lon="7.03656">
        <ele>0</ele>
        <time>0001-01-01T00:00:00Z</time>
      </trkpt>
      <trkpt lat="49.47459" lon="7.03656">
        <ele>0</ele>
        <time>0001-01-01T00:00:00Z</time>
      </trkpt>
      <trkpt lat="49.47308" lon="7.03675">
        <ele>0</ele>
        <time>0001-01-01T00:00:00Z</time>
      </trkpt>
      <trkpt lat="49.4726" lon="7.03677">
        <ele>0</ele>
        <time>0001-01-01T00:00:00Z</time>
      </trkpt>
      <trkpt lat="49.47237" lon="7.03676">
        <ele>0</ele>
        <time>0001-01-01T00:00:00Z</time>
      </trkpt>
      <trkpt lat="49.47142" lon="7.03664">
        <ele>0</ele>
        <time>0001-01-01T00:00:00Z</time>
      </trkpt>
      <trkpt lat="49.47069" lon="7.03659">
        <ele>0</ele>
        <time>0001-01-01T00:00:00Z</time>
      </trkpt>
      <trkpt lat="49.47028" lon="7.03662">
        <ele>0</ele>
        <time>0001-01-01T00:00:00Z</time>
      </trkpt>
      <trkpt lat="49.47023" lon="7.03663">
        <ele>0</ele>
        <time>0001-01-01T00:00:00Z</time>
      </trkpt>
      <trkpt lat="49.47018" lon="7.03663">
        <ele>0</ele>
        <time>0001-01-01T00:00:00Z</time>
      </trkpt>
      <trkpt lat="49.47009" lon="7.0366">
        <ele>0</ele>
        <time>0001-01-01T00:00:00Z</time>
      </trkpt>
      <trkpt lat="49.46994" lon="7.03652">
        <ele>0</ele>
        <time>0001-01-01T00:00:00Z</time>
      </trkpt>
      <trkpt lat="49.46924" lon="7.03602">
        <ele>0</ele>
        <time>0001-01-01T00:00:00Z</time>
      </trkpt>
      <trkpt lat="49.46899" lon="7.03581">
        <ele>0</ele>
        <time>0001-01-01T00:00:00Z</time>
      </trkpt>
      <trkpt lat="49.4685" lon="7.03523">
        <ele>0</ele>
        <time>0001-01-01T00:00:00Z</time>
      </trkpt>
      <trkpt lat="49.46812" lon="7.03465">
        <ele>0</ele>
        <time>0001-01-01T00:00:00Z</time>
      </trkpt>
      <trkpt lat="49.4675" lon="7.0336">
        <ele>0</ele>
        <time>0001-01-01T00:00:00Z</time>
      </trkpt>
      <trkpt lat="49.46728" lon="7.03328">
        <ele>0</ele>
        <time>0001-01-01T00:00:00Z</time>
      </trkpt>
      <trkpt lat="49.46708" lon="7.03306">
        <ele>0</ele>
        <time>0001-01-01T00:00:00Z</time>
      </trkpt>
      <trkpt lat="49.46701" lon="7.033">
        <ele>0</ele>
        <time>0001-01-01T00:00:00Z</time>
      </trkpt>
      <trkpt lat="49.46692" lon="7.03294">
        <ele>0</ele>
        <time>0001-01-01T00:00:00Z</time>
      </trkpt>
      <trkpt lat="49.46682" lon="7.03285">
        <ele>0</ele>
        <time>0001-01-01T00:00:00Z</time>
      </trkpt>
      <trkpt lat="49.46671" lon="7.03279">
        <ele>0</ele>
        <time>0001-01-01T00:00:00Z</time>
      </trkpt>
      <trkpt lat="49.46638" lon="7.03265">
        <ele>0</ele>
        <time>0001-01-01T00:00:00Z</time>
      </trkpt>
      <trkpt lat="49.46616" lon="7.03259">
        <ele>0</ele>
        <time>0001-01-01T00:00:00Z</time>
      </trkpt>
      <trkpt lat="49.46589" lon="7.03247">
        <ele>0</ele>
        <time>0001-01-01T00:00:00Z</time>
      </trkpt>
      <trkpt lat="49.46578" lon="7.0324">
        <ele>0</ele>
        <time>0001-01-01T00:00:00Z</time>
      </trkpt>
      <trkpt lat="49.46563" lon="7.03228">
        <ele>0</ele>
        <time>0001-01-01T00:00:00Z</time>
      </trkpt>
      <trkpt lat="49.46329" lon="7.02994">
        <ele>0</ele>
        <time>0001-01-01T00:00:00Z</time>
      </trkpt>
      <trkpt lat="49.46302" lon="7.02975">
        <ele>0</ele>
        <time>0001-01-01T00:00:00Z</time>
      </trkpt>
      <trkpt lat="49.46285" lon="7.02967">
        <ele>0</ele>
        <time>0001-01-01T00:00:00Z</time>
      </trkpt>
      <trkpt lat="49.46267" lon="7.02962">
        <ele>0</ele>
        <time>0001-01-01T00:00:00Z</time>
      </trkpt>
      <trkpt lat="49.46244" lon="7.02958">
        <ele>0</ele>
        <time>0001-01-01T00:00:00Z</time>
      </trkpt>
      <trkpt lat="49.46194" lon="7.02959">
        <ele>0</ele>
        <time>0001-01-01T00:00:00Z</time>
      </trkpt>
      <trkpt lat="49.46184" lon="7.02958">
        <ele>0</ele>
        <time>0001-01-01T00:00:00Z</time>
      </trkpt>
      <trkpt lat="49.46161" lon="7.02952">
        <ele>0</ele>
        <time>0001-01-01T00:00:00Z</time>
      </trkpt>
      <trkpt lat="49.46149" lon="7.02947">
        <ele>0</ele>
        <time>0001-01-01T00:00:00Z</time>
      </trkpt>
      <trkpt lat="49.46115" lon="7.02926">
        <ele>0</ele>
        <time>0001-01-01T00:00:00Z</time>
      </trkpt>
      <trkpt lat="49.46075" lon="7.02891">
        <ele>0</ele>
        <time>0001-01-01T00:00:00Z</time>
      </trkpt>
      <trkpt lat="49.46032" lon="7.02844">
        <ele>0</ele>
        <time>0001-01-01T00:00:00Z</time>
      </trkpt>
      <trkpt lat="49.4597" lon="7.02763">
        <ele>0</ele>
        <time>0001-01-01T00:00:00Z</time>
      </trkpt>
      <trkpt lat="49.45947" lon="7.02721">
        <ele>0</ele>
        <time>0001-01-01T00:00:00Z</time>
      </trkpt>
      <trkpt lat="49.45872" lon="7.02567">
        <ele>0</ele>
        <time>0001-01-01T00:00:00Z</time>
      </trkpt>
      <trkpt lat="49.45842" lon="7.0249">
        <ele>0</ele>
        <time>0001-01-01T00:00:00Z</time>
      </trkpt>
      <trkpt lat="49.45798" lon="7.02357">
        <ele>0</ele>
        <time>0001-01-01T00:00:00Z</time>
      </trkpt>
      <trkpt lat="49.45753" lon="7.02196">
        <ele>0</ele>
        <time>0001-01-01T00:00:00Z</time>
      </trkpt>
      <trkpt lat="49.45729" lon="7.0212">
        <ele>0</ele>
        <time>0001-01-01T00:00:00Z</time>
      </trkpt>
      <trkpt lat="49.45696" lon="7.02038">
        <ele>0</ele>
        <time>0001-01-01T00:00:00Z</time>
      </trkpt>
      <trkpt lat="49.45682" lon="7.02009">
        <ele>0</ele>
        <time>0001-01-01T00:00:00Z</time>
      </trkpt>
      <trkpt lat="49.45638" lon="7.01905">
        <ele>0</ele>
        <time>0001-01-01T00:00:00Z</time>
      </trkpt>
      <trkpt lat="49.45631" lon="7.01884">
        <ele>0</ele>
        <time>0001-01-01T00:00:00Z</time>
      </trkpt>
      <trkpt lat="49.45623" lon="7.01846">
        <ele>0</ele>
        <time>0001-01-01T00:00:00Z</time>
      </trkpt>
      <trkpt lat="49.45607" lon="7.01785">
        <ele>0</ele>
        <time>0001-01-01T00:00:00Z</time>
      </trkpt>
      <trkpt lat="49.45598" lon="7.01759">
        <ele>0</ele>
        <time>0001-01-01T00:00:00Z</time>
      </trkpt>
      <trkpt lat="49.45572" lon="7.01698">
        <ele>0</ele>
        <time>0001-01-01T00:00:00Z</time>
      </trkpt>
      <trkpt lat="49.4556" lon="7.01662">
        <ele>0</ele>
        <time>0001-01-01T00:00:00Z</time>
      </trkpt>
      <trkpt lat="49.45538" lon="7.01575">
        <ele>0</ele>
        <time>0001-01-01T00:00:00Z</time>
      </trkpt>
      <trkpt lat="49.45527" lon="7.0154">
        <ele>0</ele>
        <time>0001-01-01T00:00:00Z</time>
      </trkpt>
      <trkpt lat="49.45511" lon="7.01506">
        <ele>0</ele>
        <time>0001-01-01T00:00:00Z</time>
      </trkpt>
      <trkpt lat="49.45354" lon="7.01256">
        <ele>0</ele>
        <time>0001-01-01T00:00:00Z</time>
      </trkpt>
      <trkpt lat="49.45341" lon="7.01238">
        <ele>0</ele>
        <time>0001-01-01T00:00:00Z</time>
      </trkpt>
      <trkpt lat="49.45269" lon="7.01152">
        <ele>0</ele>
        <time>0001-01-01T00:00:00Z</time>
      </trkpt>
      <trkpt lat="49.45252" lon="7.01128">
        <ele>0</ele>
        <time>0001-01-01T00:00:00Z</time>
      </trkpt>
      <trkpt lat="49.45189" lon="7.01024">
        <ele>0</ele>
        <time>0001-01-01T00:00:00Z</time>
      </trkpt>
      <trkpt lat="49.4503" lon="7.00792">
        <ele>0</ele>
        <time>0001-01-01T00:00:00Z</time>
      </trkpt>
      <trkpt lat="49.45018" lon="7.00778">
        <ele>0</ele>
        <time>0001-01-01T00:00:00Z</time>
      </trkpt>
      <trkpt lat="49.45003" lon="7.00763">
        <ele>0</ele>
        <time>0001-01-01T00:00:00Z</time>
      </trkpt>
      <trkpt lat="49.44993" lon="7.00755">
        <ele>0</ele>
        <time>0001-01-01T00:00:00Z</time>
      </trkpt>
      <trkpt lat="49.4497" lon="7.0074">
        <ele>0</ele>
        <time>0001-01-01T00:00:00Z</time>
      </trkpt>
      <trkpt lat="49.44887" lon="7.00703">
        <ele>0</ele>
        <time>0001-01-01T00:00:00Z</time>
      </trkpt>
      <trkpt lat="49.44864" lon="7.00695">
        <ele>0</ele>
        <time>0001-01-01T00:00:00Z</time>
      </trkpt>
      <trkpt lat="49.44815" lon="7.00674">
        <ele>0</ele>
        <time>0001-01-01T00:00:00Z</time>
      </trkpt>
      <trkpt lat="49.44795" lon="7.00661">
        <ele>0</ele>
        <time>0001-01-01T00:00:00Z</time>
      </trkpt>
      <trkpt lat="49.44604" lon="7.00509">
        <ele>0</ele>
        <time>0001-01-01T00:00:00Z</time>
      </trkpt>
      <trkpt lat="49.44518" lon="7.00427">
        <ele>0</ele>
        <time>0001-01-01T00:00:00Z</time>
      </trkpt>
      <trkpt lat="49.4438" lon="7.00282">
        <ele>0</ele>
        <time>0001-01-01T00:00:00Z</time>
      </trkpt>
      <trkpt lat="49.44247" lon="7.00172">
        <ele>0</ele>
        <time>0001-01-01T00:00:00Z</time>
      </trkpt>
      <trkpt lat="49.44175" lon="7.00118">
        <ele>0</ele>
        <time>0001-01-01T00:00:00Z</time>
      </trkpt>
      <trkpt lat="49.43959" lon="6.99944">
        <ele>0</ele>
        <time>0001-01-01T00:00:00Z</time>
      </trkpt>
      <trkpt lat="49.43911" lon="6.99908">
        <ele>0</ele>
        <time>0001-01-01T00:00:00Z</time>
      </trkpt>
      <trkpt lat="49.43892" lon="6.99892">
        <ele>0</ele>
        <time>0001-01-01T00:00:00Z</time>
      </trkpt>
      <trkpt lat="49.43871" lon="6.99878">
        <ele>0</ele>
        <time>0001-01-01T00:00:00Z</time>
      </trkpt>
      <trkpt lat="49.43848" lon="6.99865">
        <ele>0</ele>
        <time>0001-01-01T00:00:00Z</time>
      </trkpt>
      <trkpt lat="49.43815" lon="6.99849">
        <ele>0</ele>
        <time>0001-01-01T00:00:00Z</time>
      </trkpt>
      <trkpt lat="49.43728" lon="6.99825">
        <ele>0</ele>
        <time>0001-01-01T00:00:00Z</time>
      </trkpt>
      <trkpt lat="49.43712" lon="6.99823">
        <ele>0</ele>
        <time>0001-01-01T00:00:00Z</time>
      </trkpt>
      <trkpt lat="49.4356" lon="6.99821">
        <ele>0</ele>
        <time>0001-01-01T00:00:00Z</time>
      </trkpt>
      <trkpt lat="49.43541" lon="6.99824">
        <ele>0</ele>
        <time>0001-01-01T00:00:00Z</time>
      </trkpt>
      <trkpt lat="49.43527" lon="6.99828">
        <ele>0</ele>
        <time>0001-01-01T00:00:00Z</time>
      </trkpt>
      <trkpt lat="49.43513" lon="6.99834">
        <ele>0</ele>
        <time>0001-01-01T00:00:00Z</time>
      </trkpt>
      <trkpt lat="49.43486" lon="6.99848">
        <ele>0</ele>
        <time>0001-01-01T00:00:00Z</time>
      </trkpt>
      <trkpt lat="49.4347" lon="6.99859">
        <ele>0</ele>
        <time>0001-01-01T00:00:00Z</time>
      </trkpt>
      <trkpt lat="49.43354" lon="6.99973">
        <ele>0</ele>
        <time>0001-01-01T00:00:00Z</time>
      </trkpt>
      <trkpt lat="49.4334" lon="6.99989">
        <ele>0</ele>
        <time>0001-01-01T00:00:00Z</time>
      </trkpt>
      <trkpt lat="49.43325" lon="7.00009">
        <ele>0</ele>
        <time>0001-01-01T00:00:00Z</time>
      </trkpt>
      <trkpt lat="49.43308" lon="7.00035">
        <ele>0</ele>
        <time>0001-01-01T00:00:00Z</time>
      </trkpt>
      <trkpt lat="49.43295" lon="7.0006">
        <ele>0</ele>
        <time>0001-01-01T00:00:00Z</time>
      </trkpt>
      <trkpt lat="49.43252" lon="7.00164">
        <ele>0</ele>
        <time>0001-01-01T00:00:00Z</time>
      </trkpt>
      <trkpt lat="49.43213" lon="7.00281">
        <ele>0</ele>
        <time>0001-01-01T00:00:00Z</time>
      </trkpt>
      <trkpt lat="49.43191" lon="7.00362">
        <ele>0</ele>
        <time>0001-01-01T00:00:00Z</time>
      </trkpt>
      <trkpt lat="49.43128" lon="7.00641">
        <ele>0</ele>
        <time>0001-01-01T00:00:00Z</time>
      </trkpt>
      <trkpt lat="49.43111" lon="7.00706">
        <ele>0</ele>
        <time>0001-01-01T00:00:00Z</time>
      </trkpt>
      <trkpt lat="49.43081" lon="7.00797">
        <ele>0</ele>
        <time>0001-01-01T00:00:00Z</time>
      </trkpt>
      <trkpt lat="49.43065" lon="7.00833">
        <ele>0</ele>
        <time>0001-01-01T00:00:00Z</time>
      </trkpt>
      <trkpt lat="49.43051" lon="7.00856">
        <ele>0</ele>
        <time>0001-01-01T00:00:00Z</time>
      </trkpt>
      <trkpt lat="49.4303" lon="7.00883">
        <ele>0</ele>
        <time>0001-01-01T00:00:00Z</time>
      </trkpt>
      <trkpt lat="49.43008" lon="7.00906">
        <ele>0</ele>
        <time>0001-01-01T00:00:00Z</time>
      </trkpt>
      <trkpt lat="49.42989" lon="7.00921">
        <ele>0</ele>
        <time>0001-01-01T00:00:00Z</time>
      </trkpt>
      <trkpt lat="49.42976" lon="7.00928">
        <ele>0</ele>
        <time>0001-01-01T00:00:00Z</time>
      </trkpt>
      <trkpt lat="49.42959" lon="7.00935">
        <ele>0</ele>
        <time>0001-01-01T00:00:00Z</time>
      </trkpt>
      <trkpt lat="49.4293" lon="7.00944">
        <ele>0</ele>
        <time>0001-01-01T00:00:00Z</time>
      </trkpt>
      <trkpt lat="49.42915" lon="7.00946">
        <ele>0</ele>
        <time>0001-01-01T00:00:00Z</time>
      </trkpt>
      <trkpt lat="49.42901" lon="7.00946">
        <ele>0</ele>
        <time>0001-01-01T00:00:00Z</time>
      </trkpt>
      <trkpt lat="49.42877" lon="7.00943">
        <ele>0</ele>
        <time>0001-01-01T00:00:00Z</time>
      </trkpt>
      <trkpt lat="49.42766" lon="7.00919">
        <ele>0</ele>
        <time>0001-01-01T00:00:00Z</time>
      </trkpt>
      <trkpt lat="49.42729" lon="7.00916">
        <ele>0</ele>
        <time>0001-01-01T00:00:00Z</time>
      </trkpt>
      <trkpt lat="49.42715" lon="7.00917">
        <ele>0</ele>
        <time>0001-01-01T00:00:00Z</time>
      </trkpt>
      <trkpt lat="49.4269" lon="7.00925">
        <ele>0</ele>
        <time>0001-01-01T00:00:00Z</time>
      </trkpt>
      <trkpt lat="49.4263" lon="7.00953">
        <ele>0</ele>
        <time>0001-01-01T00:00:00Z</time>
      </trkpt>
      <trkpt lat="49.42614" lon="7.00964">
        <ele>0</ele>
        <time>0001-01-01T00:00:00Z</time>
      </trkpt>
      <trkpt lat="49.42594" lon="7.00982">
        <ele>0</ele>
        <time>0001-01-01T00:00:00Z</time>
      </trkpt>
      <trkpt lat="49.42546" lon="7.01044">
        <ele>0</ele>
        <time>0001-01-01T00:00:00Z</time>
      </trkpt>
      <trkpt lat="49.42537" lon="7.01053">
        <ele>0</ele>
        <time>0001-01-01T00:00:00Z</time>
      </trkpt>
      <trkpt lat="49.42529" lon="7.01059">
        <ele>0</ele>
        <time>0001-01-01T00:00:00Z</time>
      </trkpt>
      <trkpt lat="49.42512" lon="7.01068">
        <ele>0</ele>
        <time>0001-01-01T00:00:00Z</time>
      </trkpt>
      <trkpt lat="49.42486" lon="7.01072">
        <ele>0</ele>
        <time>0001-01-01T00:00:00Z</time>
      </trkpt>
      <trkpt lat="49.42448" lon="7.01068">
        <ele>0</ele>
        <time>0001-01-01T00:00:00Z</time>
      </trkpt>
      <trkpt lat="49.42431" lon="7.01068">
        <ele>0</ele>
        <time>0001-01-01T00:00:00Z</time>
      </trkpt>
      <trkpt lat="49.42416" lon="7.01071">
        <ele>0</ele>
        <time>0001-01-01T00:00:00Z</time>
      </trkpt>
      <trkpt lat="49.42397" lon="7.01079">
        <ele>0</ele>
        <time>0001-01-01T00:00:00Z</time>
      </trkpt>
      <trkpt lat="49.42375" lon="7.01092">
        <ele>0</ele>
        <time>0001-01-01T00:00:00Z</time>
      </trkpt>
      <trkpt lat="49.42353" lon="7.01109">
        <ele>0</ele>
        <time>0001-01-01T00:00:00Z</time>
      </trkpt>
      <trkpt lat="49.42339" lon="7.01118">
        <ele>0</ele>
        <time>0001-01-01T00:00:00Z</time>
      </trkpt>
      <trkpt lat="49.42316" lon="7.0113">
        <ele>0</ele>
        <time>0001-01-01T00:00:00Z</time>
      </trkpt>
      <trkpt lat="49.42309" lon="7.01132">
        <ele>0</ele>
        <time>0001-01-01T00:00:00Z</time>
      </trkpt>
      <trkpt lat="49.42302" lon="7.01135">
        <ele>0</ele>
        <time>0001-01-01T00:00:00Z</time>
      </trkpt>
      <trkpt lat="49.42285" lon="7.01138">
        <ele>0</ele>
        <time>0001-01-01T00:00:00Z</time>
      </trkpt>
      <trkpt lat="49.42268" lon="7.01138">
        <ele>0</ele>
        <time>0001-01-01T00:00:00Z</time>
      </trkpt>
      <trkpt lat="49.42261" lon="7.01137">
        <ele>0</ele>
        <time>0001-01-01T00:00:00Z</time>
      </trkpt>
      <trkpt lat="49.4224" lon="7.01131">
        <ele>0</ele>
        <time>0001-01-01T00:00:00Z</time>
      </trkpt>
      <trkpt lat="49.42217" lon="7.0112">
        <ele>0</ele>
        <time>0001-01-01T00:00:00Z</time>
      </trkpt>
      <trkpt lat="49.42069" lon="7.01024">
        <ele>0</ele>
        <time>0001-01-01T00:00:00Z</time>
      </trkpt>
      <trkpt lat="49.42058" lon="7.01018">
        <ele>0</ele>
        <time>0001-01-01T00:00:00Z</time>
      </trkpt>
      <trkpt lat="49.42043" lon="7.01008">
        <ele>0</ele>
        <time>0001-01-01T00:00:00Z</time>
      </trkpt>
      <trkpt lat="49.42038" lon="7.01006">
        <ele>0</ele>
        <time>0001-01-01T00:00:00Z</time>
      </trkpt>
      <trkpt lat="49.42033" lon="7.01003">
        <ele>0</ele>
        <time>0001-01-01T00:00:00Z</time>
      </trkpt>
      <trkpt lat="49.42017" lon="7.00998">
        <ele>0</ele>
        <time>0001-01-01T00:00:00Z</time>
      </trkpt>
      <trkpt lat="49.42002" lon="7.00995">
        <ele>0</ele>
        <time>0001-01-01T00:00:00Z</time>
      </trkpt>
      <trkpt lat="49.41997" lon="7.00995">
        <ele>0</ele>
        <time>0001-01-01T00:00:00Z</time>
      </trkpt>
      <trkpt lat="49.41988" lon="7.00997">
        <ele>0</ele>
        <time>0001-01-01T00:00:00Z</time>
      </trkpt>
      <trkpt lat="49.41984" lon="7.01">
        <ele>0</ele>
        <time>0001-01-01T00:00:00Z</time>
      </trkpt>
      <trkpt lat="49.41972" lon="7.01013">
        <ele>0</ele>
        <time>0001-01-01T00:00:00Z</time>
      </trkpt>
      <trkpt lat="49.41958" lon="7.01042">
        <ele>0</ele>
        <time>0001-01-01T00:00:00Z</time>
      </trkpt>
      <trkpt lat="49.41912" lon="7.0112">
        <ele>0</ele>
        <time>0001-01-01T00:00:00Z</time>
      </trkpt>
      <trkpt lat="49.41909" lon="7.01122">
        <ele>0</ele>
        <time>0001-01-01T00:00:00Z</time>
      </trkpt>
      <trkpt lat="49.41907" lon="7.01124">
        <ele>0</ele>
        <time>0001-01-01T00:00:00Z</time>
      </trkpt>
      <trkpt lat="49.419" lon="7.01127">
        <ele>0</ele>
        <time>0001-01-01T00:00:00Z</time>
      </trkpt>
      <trkpt lat="49.41892" lon="7.01127">
        <ele>0</ele>
        <time>0001-01-01T00:00:00Z</time>
      </trkpt>
      <trkpt lat="49.41883" lon="7.01125">
        <ele>0</ele>
        <time>0001-01-01T00:00:00Z</time>
      </trkpt>
      <trkpt lat="49.41868" lon="7.01166">
        <ele>0</ele>
        <time>0001-01-01T00:00:00Z</time>
      </trkpt>
      <trkpt lat="49.41829" lon="7.01257">
        <ele>0</ele>
        <time>0001-01-01T00:00:00Z</time>
      </trkpt>
      <trkpt lat="49.41808" lon="7.01294">
        <ele>0</ele>
        <time>0001-01-01T00:00:00Z</time>
      </trkpt>
      <trkpt lat="49.41795" lon="7.01323">
        <ele>0</ele>
        <time>0001-01-01T00:00:00Z</time>
      </trkpt>
      <trkpt lat="49.41775" lon="7.0138">
        <ele>0</ele>
        <time>0001-01-01T00:00:00Z</time>
      </trkpt>
      <trkpt lat="49.41766" lon="7.01398">
        <ele>0</ele>
        <time>0001-01-01T00:00:00Z</time>
      </trkpt>
      <trkpt lat="49.41746" lon="7.01421">
        <ele>0</ele>
        <time>0001-01-01T00:00:00Z</time>
      </trkpt>
      <trkpt lat="49.41724" lon="7.01451">
        <ele>0</ele>
        <time>0001-01-01T00:00:00Z</time>
      </trkpt>
      <trkpt lat="49.41711" lon="7.01465">
        <ele>0</ele>
        <time>0001-01-01T00:00:00Z</time>
      </trkpt>
      <trkpt lat="49.41688" lon="7.01482">
        <ele>0</ele>
        <time>0001-01-01T00:00:00Z</time>
      </trkpt>
      <trkpt lat="49.4166" lon="7.01506">
        <ele>0</ele>
        <time>0001-01-01T00:00:00Z</time>
      </trkpt>
      <trkpt lat="49.41594" lon="7.01557">
        <ele>0</ele>
        <time>0001-01-01T00:00:00Z</time>
      </trkpt>
      <trkpt lat="49.41589" lon="7.01559">
        <ele>0</ele>
        <time>0001-01-01T00:00:00Z</time>
      </trkpt>
      <trkpt lat="49.41586" lon="7.01559">
        <ele>0</ele>
        <time>0001-01-01T00:00:00Z</time>
      </trkpt>
      <trkpt lat="49.41582" lon="7.0156">
        <ele>0</ele>
        <time>0001-01-01T00:00:00Z</time>
      </trkpt>
      <trkpt lat="49.41578" lon="7.0156">
        <ele>0</ele>
        <time>0001-01-01T00:00:00Z</time>
      </trkpt>
      <trkpt lat="49.41575" lon="7.01559">
        <ele>0</ele>
        <time>0001-01-01T00:00:00Z</time>
      </trkpt>
      <trkpt lat="49.41572" lon="7.01559">
        <ele>0</ele>
        <time>0001-01-01T00:00:00Z</time>
      </trkpt>
      <trkpt lat="49.41565" lon="7.01557">
        <ele>0</ele>
        <time>0001-01-01T00:00:00Z</time>
      </trkpt>
      <trkpt lat="49.41561" lon="7.01554">
        <ele>0</ele>
        <time>0001-01-01T00:00:00Z</time>
      </trkpt>
      <trkpt lat="49.41557" lon="7.01552">
        <ele>0</ele>
        <time>0001-01-01T00:00:00Z</time>
      </trkpt>
      <trkpt lat="49.41503" lon="7.01504">
        <ele>0</ele>
        <time>0001-01-01T00:00:00Z</time>
      </trkpt>
      <trkpt lat="49.41488" lon="7.01496">
        <ele>0</ele>
        <time>0001-01-01T00:00:00Z</time>
      </trkpt>
      <trkpt lat="49.41472" lon="7.01492">
        <ele>0</ele>
        <time>0001-01-01T00:00:00Z</time>
      </trkpt>
      <trkpt lat="49.41373" lon="7.01484">
        <ele>0</ele>
        <time>0001-01-01T00:00:00Z</time>
      </trkpt>
      <trkpt lat="49.41367" lon="7.01485">
        <ele>0</ele>
        <time>0001-01-01T00:00:00Z</time>
      </trkpt>
      <trkpt lat="49.41359" lon="7.01485">
        <ele>0</ele>
        <time>0001-01-01T00:00:00Z</time>
      </trkpt>
      <trkpt lat="49.41344" lon="7.01488">
        <ele>0</ele>
        <time>0001-01-01T00:00:00Z</time>
      </trkpt>
      <trkpt lat="49.41324" lon="7.01494">
        <ele>0</ele>
        <time>0001-01-01T00:00:00Z</time>
      </trkpt>
      <trkpt lat="49.4131" lon="7.015">
        <ele>0</ele>
        <time>0001-01-01T00:00:00Z</time>
      </trkpt>
      <trkpt lat="49.41287" lon="7.01512">
        <ele>0</ele>
        <time>0001-01-01T00:00:00Z</time>
      </trkpt>
      <trkpt lat="49.41245" lon="7.01544">
        <ele>0</ele>
        <time>0001-01-01T00:00:00Z</time>
      </trkpt>
      <trkpt lat="49.41221" lon="7.01558">
        <ele>0</ele>
        <time>0001-01-01T00:00:00Z</time>
      </trkpt>
      <trkpt lat="49.41217" lon="7.01559">
        <ele>0</ele>
        <time>0001-01-01T00:00:00Z</time>
      </trkpt>
      <trkpt lat="49.41213" lon="7.01561">
        <ele>0</ele>
        <time>0001-01-01T00:00:00Z</time>
      </trkpt>
      <trkpt lat="49.41209" lon="7.01562">
        <ele>0</ele>
        <time>0001-01-01T00:00:00Z</time>
      </trkpt>
      <trkpt lat="49.41205" lon="7.01564">
        <ele>0</ele>
        <time>0001-01-01T00:00:00Z</time>
      </trkpt>
      <trkpt lat="49.41187" lon="7.01569">
        <ele>0</ele>
        <time>0001-01-01T00:00:00Z</time>
      </trkpt>
      <trkpt lat="49.41182" lon="7.01569">
        <ele>0</ele>
        <time>0001-01-01T00:00:00Z</time>
      </trkpt>
      <trkpt lat="49.41176" lon="7.0157">
        <ele>0</ele>
        <time>0001-01-01T00:00:00Z</time>
      </trkpt>
      <trkpt lat="49.41099" lon="7.01567">
        <ele>0</ele>
        <time>0001-01-01T00:00:00Z</time>
      </trkpt>
      <trkpt lat="49.4109" lon="7.01569">
        <ele>0</ele>
        <time>0001-01-01T00:00:00Z</time>
      </trkpt>
      <trkpt lat="49.41086" lon="7.01571">
        <ele>0</ele>
        <time>0001-01-01T00:00:00Z</time>
      </trkpt>
      <trkpt lat="49.41082" lon="7.01572">
        <ele>0</ele>
        <time>0001-01-01T00:00:00Z</time>
      </trkpt>
      <trkpt lat="49.41072" lon="7.01578">
        <ele>0</ele>
        <time>0001-01-01T00:00:00Z</time>
      </trkpt>
      <trkpt lat="49.41062" lon="7.01586">
        <ele>0</ele>
        <time>0001-01-01T00:00:00Z</time>
      </trkpt>
      <trkpt lat="49.41051" lon="7.01598">
        <ele>0</ele>
        <time>0001-01-01T00:00:00Z</time>
      </trkpt>
      <trkpt lat="49.41038" lon="7.0162">
        <ele>0</ele>
        <time>0001-01-01T00:00:00Z</time>
      </trkpt>
      <trkpt lat="49.41016" lon="7.01667">
        <ele>0</ele>
        <time>0001-01-01T00:00:00Z</time>
      </trkpt>
      <trkpt lat="49.41002" lon="7.01693">
        <ele>0</ele>
        <time>0001-01-01T00:00:00Z</time>
      </trkpt>
      <trkpt lat="49.40991" lon="7.0171">
        <ele>0</ele>
        <time>0001-01-01T00:00:00Z</time>
      </trkpt>
      <trkpt lat="49.40987" lon="7.01714">
        <ele>0</ele>
        <time>0001-01-01T00:00:00Z</time>
      </trkpt>
      <trkpt lat="49.4098" lon="7.01723">
        <ele>0</ele>
        <time>0001-01-01T00:00:00Z</time>
      </trkpt>
      <trkpt lat="49.40959" lon="7.01741">
        <ele>0</ele>
        <time>0001-01-01T00:00:00Z</time>
      </trkpt>
      <trkpt lat="49.40943" lon="7.01749">
        <ele>0</ele>
        <time>0001-01-01T00:00:00Z</time>
      </trkpt>
      <trkpt lat="49.40935" lon="7.01752">
        <ele>0</ele>
        <time>0001-01-01T00:00:00Z</time>
      </trkpt>
      <trkpt lat="49.40913" lon="7.01756">
        <ele>0</ele>
        <time>0001-01-01T00:00:00Z</time>
      </trkpt>
      <trkpt lat="49.40849" lon="7.01757">
        <ele>0</ele>
        <time>0001-01-01T00:00:00Z</time>
      </trkpt>
      <trkpt lat="49.40843" lon="7.01758">
        <ele>0</ele>
        <time>0001-01-01T00:00:00Z</time>
      </trkpt>
      <trkpt lat="49.40824" lon="7.01764">
        <ele>0</ele>
        <time>0001-01-01T00:00:00Z</time>
      </trkpt>
      <trkpt lat="49.40805" lon="7.01775">
        <ele>0</ele>
        <time>0001-01-01T00:00:00Z</time>
      </trkpt>
      <trkpt lat="49.40792" lon="7.01787">
        <ele>0</ele>
        <time>0001-01-01T00:00:00Z</time>
      </trkpt>
      <trkpt lat="49.4078" lon="7.01802">
        <ele>0</ele>
        <time>0001-01-01T00:00:00Z</time>
      </trkpt>
      <trkpt lat="49.40763" lon="7.01829">
        <ele>0</ele>
        <time>0001-01-01T00:00:00Z</time>
      </trkpt>
      <trkpt lat="49.40719" lon="7.01907">
        <ele>0</ele>
        <time>0001-01-01T00:00:00Z</time>
      </trkpt>
      <trkpt lat="49.40698" lon="7.01936">
        <ele>0</ele>
        <time>0001-01-01T00:00:00Z</time>
      </trkpt>
      <trkpt lat="49.40671" lon="7.01969">
        <ele>0</ele>
        <time>0001-01-01T00:00:00Z</time>
      </trkpt>
      <trkpt lat="49.40472" lon="7.02134">
        <ele>0</ele>
        <time>0001-01-01T00:00:00Z</time>
      </trkpt>
      <trkpt lat="49.40433" lon="7.02171">
        <ele>0</ele>
        <time>0001-01-01T00:00:00Z</time>
      </trkpt>
      <trkpt lat="49.40404" lon="7.02206">
        <ele>0</ele>
        <time>0001-01-01T00:00:00Z</time>
      </trkpt>
      <trkpt lat="49.4038" lon="7.02245">
        <ele>0</ele>
        <time>0001-01-01T00:00:00Z</time>
      </trkpt>
      <trkpt lat="49.40367" lon="7.02273">
        <ele>0</ele>
        <time>0001-01-01T00:00:00Z</time>
      </trkpt>
      <trkpt lat="49.40349" lon="7.02319">
        <ele>0</ele>
        <time>0001-01-01T00:00:00Z</time>
      </trkpt>
      <trkpt lat="49.40316" lon="7.02424">
        <ele>0</ele>
        <time>0001-01-01T00:00:00Z</time>
      </trkpt>
      <trkpt lat="49.40294" lon="7.02485">
        <ele>0</ele>
        <time>0001-01-01T00:00:00Z</time>
      </trkpt>
      <trkpt lat="49.40238" lon="7.02596">
        <ele>0</ele>
        <time>0001-01-01T00:00:00Z</time>
      </trkpt>
      <trkpt lat="49.4022" lon="7.02639">
        <ele>0</ele>
        <time>0001-01-01T00:00:00Z</time>
      </trkpt>
      <trkpt lat="49.40148" lon="7.02921">
        <ele>0</ele>
        <time>0001-01-01T00:00:00Z</time>
      </trkpt>
      <trkpt lat="49.40145" lon="7.02946">
        <ele>0</ele>
        <time>0001-01-01T00:00:00Z</time>
      </trkpt>
      <trkpt lat="49.40145" lon="7.02965">
        <ele>0</ele>
        <time>0001-01-01T00:00:00Z</time>
      </trkpt>
      <trkpt lat="49.40146" lon="7.02973">
        <ele>0</ele>
        <time>0001-01-01T00:00:00Z</time>
      </trkpt>
      <trkpt lat="49.40146" lon="7.02981">
        <ele>0</ele>
        <time>0001-01-01T00:00:00Z</time>
      </trkpt>
      <trkpt lat="49.40147" lon="7.02989">
        <ele>0</ele>
        <time>0001-01-01T00:00:00Z</time>
      </trkpt>
      <trkpt lat="49.40153" lon="7.03016">
        <ele>0</ele>
        <time>0001-01-01T00:00:00Z</time>
      </trkpt>
      <trkpt lat="49.40176" lon="7.03099">
        <ele>0</ele>
        <time>0001-01-01T00:00:00Z</time>
      </trkpt>
      <trkpt lat="49.40177" lon="7.03107">
        <ele>0</ele>
        <time>0001-01-01T00:00:00Z</time>
      </trkpt>
      <trkpt lat="49.40179" lon="7.03114">
        <ele>0</ele>
        <time>0001-01-01T00:00:00Z</time>
      </trkpt>
      <trkpt lat="49.40182" lon="7.03143">
        <ele>0</ele>
        <time>0001-01-01T00:00:00Z</time>
      </trkpt>
      <trkpt lat="49.40182" lon="7.03181">
        <ele>0</ele>
        <time>0001-01-01T00:00:00Z</time>
      </trkpt>
      <trkpt lat="49.40171" lon="7.03278">
        <ele>0</ele>
        <time>0001-01-01T00:00:00Z</time>
      </trkpt>
      <trkpt lat="49.40168" lon="7.03294">
        <ele>0</ele>
        <time>0001-01-01T00:00:00Z</time>
      </trkpt>
      <trkpt lat="49.40167" lon="7.03306">
        <ele>0</ele>
        <time>0001-01-01T00:00:00Z</time>
      </trkpt>
      <trkpt lat="49.40138" lon="7.03411">
        <ele>0</ele>
        <time>0001-01-01T00:00:00Z</time>
      </trkpt>
      <trkpt lat="49.40128" lon="7.03438">
        <ele>0</ele>
        <time>0001-01-01T00:00:00Z</time>
      </trkpt>
      <trkpt lat="49.40115" lon="7.03464">
        <ele>0</ele>
        <time>0001-01-01T00:00:00Z</time>
      </trkpt>
      <trkpt lat="49.4011" lon="7.03472">
        <ele>0</ele>
        <time>0001-01-01T00:00:00Z</time>
      </trkpt>
      <trkpt lat="49.40091" lon="7.03496">
        <ele>0</ele>
        <time>0001-01-01T00:00:00Z</time>
      </trkpt>
      <trkpt lat="49.40074" lon="7.03511">
        <ele>0</ele>
        <time>0001-01-01T00:00:00Z</time>
      </trkpt>
      <trkpt lat="49.40068" lon="7.03515">
        <ele>0</ele>
        <time>0001-01-01T00:00:00Z</time>
      </trkpt>
      <trkpt lat="49.4004" lon="7.03529">
        <ele>0</ele>
        <time>0001-01-01T00:00:00Z</time>
      </trkpt>
      <trkpt lat="49.39916" lon="7.0357">
        <ele>0</ele>
        <time>0001-01-01T00:00:00Z</time>
      </trkpt>
      <trkpt lat="49.39783" lon="7.03624">
        <ele>0</ele>
        <time>0001-01-01T00:00:00Z</time>
      </trkpt>
      <trkpt lat="49.39773" lon="7.03627">
        <ele>0</ele>
        <time>0001-01-01T00:00:00Z</time>
      </trkpt>
      <trkpt lat="49.39749" lon="7.03638">
        <ele>0</ele>
        <time>0001-01-01T00:00:00Z</time>
      </trkpt>
      <trkpt lat="49.39736" lon="7.03646">
        <ele>0</ele>
        <time>0001-01-01T00:00:00Z</time>
      </trkpt>
      <trkpt lat="49.3973" lon="7.03651">
        <ele>0</ele>
        <time>0001-01-01T00:00:00Z</time>
      </trkpt>
      <trkpt lat="49.39719" lon="7.03666">
        <ele>0</ele>
        <time>0001-01-01T00:00:00Z</time>
      </trkpt>
      <trkpt lat="49.39715" lon="7.03675">
        <ele>0</ele>
        <time>0001-01-01T00:00:00Z</time>
      </trkpt>
      <trkpt lat="49.39714" lon="7.0368">
        <ele>0</ele>
        <time>0001-01-01T00:00:00Z</time>
      </trkpt>
      <trkpt lat="49.39712" lon="7.03685">
        <ele>0</ele>
        <time>0001-01-01T00:00:00Z</time>
      </trkpt>
      <trkpt lat="49.3971" lon="7.03694">
        <ele>0</ele>
        <time>0001-01-01T00:00:00Z</time>
      </trkpt>
      <trkpt lat="49.3971" lon="7.03699">
        <ele>0</ele>
        <time>0001-01-01T00:00:00Z</time>
      </trkpt>
      <trkpt lat="49.39709" lon="7.03704">
        <ele>0</ele>
        <time>0001-01-01T00:00:00Z</time>
      </trkpt>
      <trkpt lat="49.39709" lon="7.03715">
        <ele>0</ele>
        <time>0001-01-01T00:00:00Z</time>
      </trkpt>
      <trkpt lat="49.3971" lon="7.03721">
        <ele>0</ele>
        <time>0001-01-01T00:00:00Z</time>
      </trkpt>
      <trkpt lat="49.3971" lon="7.03727">
        <ele>0</ele>
        <time>0001-01-01T00:00:00Z</time>
      </trkpt>
      <trkpt lat="49.39717" lon="7.03765">
        <ele>0</ele>
        <time>0001-01-01T00:00:00Z</time>
      </trkpt>
      <trkpt lat="49.39729" lon="7.03806">
        <ele>0</ele>
        <time>0001-01-01T00:00:00Z</time>
      </trkpt>
      <trkpt lat="49.39738" lon="7.03854">
        <ele>0</ele>
        <time>0001-01-01T00:00:00Z</time>
      </trkpt>
      <trkpt lat="49.39749" lon="7.03933">
        <ele>0</ele>
        <time>0001-01-01T00:00:00Z</time>
      </trkpt>
      <trkpt lat="49.3975" lon="7.03951">
        <ele>0</ele>
        <time>0001-01-01T00:00:00Z</time>
      </trkpt>
      <trkpt lat="49.39747" lon="7.03982">
        <ele>0</ele>
        <time>0001-01-01T00:00:00Z</time>
      </trkpt>
      <trkpt lat="49.39742" lon="7.04003">
        <ele>0</ele>
        <time>0001-01-01T00:00:00Z</time>
      </trkpt>
      <trkpt lat="49.39737" lon="7.04016">
        <ele>0</ele>
        <time>0001-01-01T00:00:00Z</time>
      </trkpt>
      <trkpt lat="49.39729" lon="7.0403">
        <ele>0</ele>
        <time>0001-01-01T00:00:00Z</time>
      </trkpt>
      <trkpt lat="49.39698" lon="7.04076">
        <ele>0</ele>
        <time>0001-01-01T00:00:00Z</time>
      </trkpt>
      <trkpt lat="49.39691" lon="7.04083">
        <ele>0</ele>
        <time>0001-01-01T00:00:00Z</time>
      </trkpt>
      <trkpt lat="49.39685" lon="7.04087">
        <ele>0</ele>
        <time>0001-01-01T00:00:00Z</time>
      </trkpt>
      <trkpt lat="49.39682" lon="7.04087">
        <ele>0</ele>
        <time>0001-01-01T00:00:00Z</time>
      </trkpt>
      <trkpt lat="49.39679" lon="7.04088">
        <ele>0</ele>
        <time>0001-01-01T00:00:00Z</time>
      </trkpt>
      <trkpt lat="49.39673" lon="7.04088">
        <ele>0</ele>
        <time>0001-01-01T00:00:00Z</time>
      </trkpt>
      <trkpt lat="49.3967" lon="7.04087">
        <ele>0</ele>
        <time>0001-01-01T00:00:00Z</time>
      </trkpt>
      <trkpt lat="49.39668" lon="7.04085">
        <ele>0</ele>
        <time>0001-01-01T00:00:00Z</time>
      </trkpt>
      <trkpt lat="49.39665" lon="7.04083">
        <ele>0</ele>
        <time>0001-01-01T00:00:00Z</time>
      </trkpt>
      <trkpt lat="49.39658" lon="7.04075">
        <ele>0</ele>
        <time>0001-01-01T00:00:00Z</time>
      </trkpt>
      <trkpt lat="49.39637" lon="7.04039">
        <ele>0</ele>
        <time>0001-01-01T00:00:00Z</time>
      </trkpt>
      <trkpt lat="49.39624" lon="7.04008">
        <ele>0</ele>
        <time>0001-01-01T00:00:00Z</time>
      </trkpt>
      <trkpt lat="49.39622" lon="7.03998">
        <ele>0</ele>
        <time>0001-01-01T00:00:00Z</time>
      </trkpt>
      <trkpt lat="49.39615" lon="7.03974">
        <ele>0</ele>
        <time>0001-01-01T00:00:00Z</time>
      </trkpt>
      <trkpt lat="49.39614" lon="7.03968">
        <ele>0</ele>
        <time>0001-01-01T00:00:00Z</time>
      </trkpt>
      <trkpt lat="49.3961" lon="7.03956">
        <ele>0</ele>
        <time>0001-01-01T00:00:00Z</time>
      </trkpt>
      <trkpt lat="49.39602" lon="7.03941">
        <ele>0</ele>
        <time>0001-01-01T00:00:00Z</time>
      </trkpt>
      <trkpt lat="49.39599" lon="7.03937">
        <ele>0</ele>
        <time>0001-01-01T00:00:00Z</time>
      </trkpt>
      <trkpt lat="49.39593" lon="7.03931">
        <ele>0</ele>
        <time>0001-01-01T00:00:00Z</time>
      </trkpt>
      <trkpt lat="49.39589" lon="7.03928">
        <ele>0</ele>
        <time>0001-01-01T00:00:00Z</time>
      </trkpt>
      <trkpt lat="49.39581" lon="7.03924">
        <ele>0</ele>
        <time>0001-01-01T00:00:00Z</time>
      </trkpt>
      <trkpt lat="49.39577" lon="7.03923">
        <ele>0</ele>
        <time>0001-01-01T00:00:00Z</time>
      </trkpt>
      <trkpt lat="49.39566" lon="7.03923">
        <ele>0</ele>
        <time>0001-01-01T00:00:00Z</time>
      </trkpt>
      <trkpt lat="49.39558" lon="7.03925">
        <ele>0</ele>
        <time>0001-01-01T00:00:00Z</time>
      </trkpt>
      <trkpt lat="49.39554" lon="7.03927">
        <ele>0</ele>
        <time>0001-01-01T00:00:00Z</time>
      </trkpt>
      <trkpt lat="49.39546" lon="7.03933">
        <ele>0</ele>
        <time>0001-01-01T00:00:00Z</time>
      </trkpt>
      <trkpt lat="49.39534" lon="7.03945">
        <ele>0</ele>
        <time>0001-01-01T00:00:00Z</time>
      </trkpt>
      <trkpt lat="49.39522" lon="7.03954">
        <ele>0</ele>
        <time>0001-01-01T00:00:00Z</time>
      </trkpt>
      <trkpt lat="49.39513" lon="7.03955">
        <ele>0</ele>
        <time>0001-01-01T00:00:00Z</time>
      </trkpt>
      <trkpt lat="49.39495" lon="7.03935">
        <ele>0</ele>
        <time>0001-01-01T00:00:00Z</time>
      </trkpt>
      <trkpt lat="49.39287" lon="7.03567">
        <ele>0</ele>
        <time>0001-01-01T00:00:00Z</time>
      </trkpt>
      <trkpt lat="49.3927" lon="7.03541">
        <ele>0</ele>
        <time>0001-01-01T00:00:00Z</time>
      </trkpt>
      <trkpt lat="49.39266" lon="7.03537">
        <ele>0</ele>
        <time>0001-01-01T00:00:00Z</time>
      </trkpt>
      <trkpt lat="49.39259" lon="7.03533">
        <ele>0</ele>
        <time>0001-01-01T00:00:00Z</time>
      </trkpt>
      <trkpt lat="49.39243" lon="7.0353">
        <ele>0</ele>
        <time>0001-01-01T00:00:00Z</time>
      </trkpt>
      <trkpt lat="49.39226" lon="7.03532">
        <ele>0</ele>
        <time>0001-01-01T00:00:00Z</time>
      </trkpt>
      <trkpt lat="49.39214" lon="7.03537">
        <ele>0</ele>
        <time>0001-01-01T00:00:00Z</time>
      </trkpt>
      <trkpt lat="49.39207" lon="7.03541">
        <ele>0</ele>
        <time>0001-01-01T00:00:00Z</time>
      </trkpt>
      <trkpt lat="49.39202" lon="7.03543">
        <ele>0</ele>
        <time>0001-01-01T00:00:00Z</time>
      </trkpt>
      <trkpt lat="49.39194" lon="7.03549">
        <ele>0</ele>
        <time>0001-01-01T00:00:00Z</time>
      </trkpt>
      <trkpt lat="49.39179" lon="7.03563">
        <ele>0</ele>
        <time>0001-01-01T00:00:00Z</time>
      </trkpt>
      <trkpt lat="49.39166" lon="7.03578">
        <ele>0</ele>
        <time>0001-01-01T00:00:00Z</time>
      </trkpt>
      <trkpt lat="49.39147" lon="7.03609">
        <ele>0</ele>
        <time>0001-01-01T00:00:00Z</time>
      </trkpt>
      <trkpt lat="49.39116" lon="7.03681">
        <ele>0</ele>
        <time>0001-01-01T00:00:00Z</time>
      </trkpt>
      <trkpt lat="49.39053" lon="7.03791">
        <ele>0</ele>
        <time>0001-01-01T00:00:00Z</time>
      </trkpt>
      <trkpt lat="49.39031" lon="7.03836">
        <ele>0</ele>
        <time>0001-01-01T00:00:00Z</time>
      </trkpt>
      <trkpt lat="49.39017" lon="7.03871">
        <ele>0</ele>
        <time>0001-01-01T00:00:00Z</time>
      </trkpt>
      <trkpt lat="49.38977" lon="7.03996">
        <ele>0</ele>
        <time>0001-01-01T00:00:00Z</time>
      </trkpt>
      <trkpt lat="49.38958" lon="7.04045">
        <ele>0</ele>
        <time>0001-01-01T00:00:00Z</time>
      </trkpt>
      <trkpt lat="49.38936" lon="7.0408">
        <ele>0</ele>
        <time>0001-01-01T00:00:00Z</time>
      </trkpt>
      <trkpt lat="49.38916" lon="7.04106">
        <ele>0</ele>
        <time>0001-01-01T00:00:00Z</time>
      </trkpt>
      <trkpt lat="49.38905" lon="7.04117">
        <ele>0</ele>
        <time>0001-01-01T00:00:00Z</time>
      </trkpt>
      <trkpt lat="49.38888" lon="7.0413">
        <ele>0</ele>
        <time>0001-01-01T00:00:00Z</time>
      </trkpt>
      <trkpt lat="49.38876" lon="7.04137">
        <ele>0</ele>
        <time>0001-01-01T00:00:00Z</time>
      </trkpt>
      <trkpt lat="49.38859" lon="7.04145">
        <ele>0</ele>
        <time>0001-01-01T00:00:00Z</time>
      </trkpt>
      <trkpt lat="49.38848" lon="7.04148">
        <ele>0</ele>
        <time>0001-01-01T00:00:00Z</time>
      </trkpt>
      <trkpt lat="49.38841" lon="7.04152">
        <ele>0</ele>
        <time>0001-01-01T00:00:00Z</time>
      </trkpt>
      <trkpt lat="49.38822" lon="7.04158">
        <ele>0</ele>
        <time>0001-01-01T00:00:00Z</time>
      </trkpt>
      <trkpt lat="49.38803" lon="7.04156">
        <ele>0</ele>
        <time>0001-01-01T00:00:00Z</time>
      </trkpt>
      <trkpt lat="49.38774" lon="7.0416">
        <ele>0</ele>
        <time>0001-01-01T00:00:00Z</time>
      </trkpt>
      <trkpt lat="49.38749" lon="7.04167">
        <ele>0</ele>
        <time>0001-01-01T00:00:00Z</time>
      </trkpt>
      <trkpt lat="49.38734" lon="7.0417">
        <ele>0</ele>
        <time>0001-01-01T00:00:00Z</time>
      </trkpt>
      <trkpt lat="49.38721" lon="7.04176">
        <ele>0</ele>
        <time>0001-01-01T00:00:00Z</time>
      </trkpt>
      <trkpt lat="49.38711" lon="7.04183">
        <ele>0</ele>
        <time>0001-01-01T00:00:00Z</time>
      </trkpt>
      <trkpt lat="49.38701" lon="7.04192">
        <ele>0</ele>
        <time>0001-01-01T00:00:00Z</time>
      </trkpt>
      <trkpt lat="49.38694" lon="7.04207">
        <ele>0</ele>
        <time>0001-01-01T00:00:00Z</time>
      </trkpt>
      <trkpt lat="49.38681" lon="7.04222">
        <ele>0</ele>
        <time>0001-01-01T00:00:00Z</time>
      </trkpt>
      <trkpt lat="49.38666" lon="7.04236">
        <ele>0</ele>
        <time>0001-01-01T00:00:00Z</time>
      </trkpt>
      <trkpt lat="49.38647" lon="7.04251">
        <ele>0</ele>
        <time>0001-01-01T00:00:00Z</time>
      </trkpt>
      <trkpt lat="49.3862" lon="7.04267">
        <ele>0</ele>
        <time>0001-01-01T00:00:00Z</time>
      </trkpt>
      <trkpt lat="49.38596" lon="7.04274">
        <ele>0</ele>
        <time>0001-01-01T00:00:00Z</time>
      </trkpt>
      <trkpt lat="49.3858" lon="7.0428">
        <ele>0</ele>
        <time>0001-01-01T00:00:00Z</time>
      </trkpt>
      <trkpt lat="49.38535" lon="7.04303">
        <ele>0</ele>
        <time>0001-01-01T00:00:00Z</time>
      </trkpt>
      <trkpt lat="49.38524" lon="7.04312">
        <ele>0</ele>
        <time>0001-01-01T00:00:00Z</time>
      </trkpt>
      <trkpt lat="49.3851" lon="7.04326">
        <ele>0</ele>
        <time>0001-01-01T00:00:00Z</time>
      </trkpt>
      <trkpt lat="49.38491" lon="7.04349">
        <ele>0</ele>
        <time>0001-01-01T00:00:00Z</time>
      </trkpt>
      <trkpt lat="49.38482" lon="7.04363">
        <ele>0</ele>
        <time>0001-01-01T00:00:00Z</time>
      </trkpt>
      <trkpt lat="49.38479" lon="7.04369">
        <ele>0</ele>
        <time>0001-01-01T00:00:00Z</time>
      </trkpt>
      <trkpt lat="49.38471" lon="7.0438">
        <ele>0</ele>
        <time>0001-01-01T00:00:00Z</time>
      </trkpt>
      <trkpt lat="49.38457" lon="7.04409">
        <ele>0</ele>
        <time>0001-01-01T00:00:00Z</time>
      </trkpt>
      <trkpt lat="49.38456" lon="7.04409">
        <ele>0</ele>
        <time>0001-01-01T00:00:00Z</time>
      </trkpt>
      <trkpt lat="49.38456" lon="7.04408">
        <ele>0</ele>
        <time>0001-01-01T00:00:00Z</time>
      </trkpt>
      <trkpt lat="49.38455" lon="7.04408">
        <ele>0</ele>
        <time>0001-01-01T00:00:00Z</time>
      </trkpt>
      <trkpt lat="49.38455" lon="7.04407">
        <ele>0</ele>
        <time>0001-01-01T00:00:00Z</time>
      </trkpt>
      <trkpt lat="49.38454" lon="7.04407">
        <ele>0</ele>
        <time>0001-01-01T00:00:00Z</time>
      </trkpt>
      <trkpt lat="49.38454" lon="7.04406">
        <ele>0</ele>
        <time>0001-01-01T00:00:00Z</time>
      </trkpt>
      <trkpt lat="49.38453" lon="7.04406">
        <ele>0</ele>
        <time>0001-01-01T00:00:00Z</time>
      </trkpt>
      <trkpt lat="49.38453" lon="7.04405">
        <ele>0</ele>
        <time>0001-01-01T00:00:00Z</time>
      </trkpt>
      <trkpt lat="49.38446" lon="7.04405">
        <ele>0</ele>
        <time>0001-01-01T00:00:00Z</time>
      </trkpt>
      <trkpt lat="49.38445" lon="7.04406">
        <ele>0</ele>
        <time>0001-01-01T00:00:00Z</time>
      </trkpt>
      <trkpt lat="49.38444" lon="7.04406">
        <ele>0</ele>
        <time>0001-01-01T00:00:00Z</time>
      </trkpt>
      <trkpt lat="49.38444" lon="7.04407">
        <ele>0</ele>
        <time>0001-01-01T00:00:00Z</time>
      </trkpt>
      <trkpt lat="49.38443" lon="7.04407">
        <ele>0</ele>
        <time>0001-01-01T00:00:00Z</time>
      </trkpt>
      <trkpt lat="49.38443" lon="7.04408">
        <ele>0</ele>
        <time>0001-01-01T00:00:00Z</time>
      </trkpt>
      <trkpt lat="49.38442" lon="7.04408">
        <ele>0</ele>
        <time>0001-01-01T00:00:00Z</time>
      </trkpt>
      <trkpt lat="49.38442" lon="7.04409">
        <ele>0</ele>
        <time>0001-01-01T00:00:00Z</time>
      </trkpt>
      <trkpt lat="49.38441" lon="7.0441">
        <ele>0</ele>
        <time>0001-01-01T00:00:00Z</time>
      </trkpt>
      <trkpt lat="49.38441" lon="7.04411">
        <ele>0</ele>
        <time>0001-01-01T00:00:00Z</time>
      </trkpt>
      <trkpt lat="49.3844" lon="7.04412">
        <ele>0</ele>
        <time>0001-01-01T00:00:00Z</time>
      </trkpt>
      <trkpt lat="49.3844" lon="7.04414">
        <ele>0</ele>
        <time>0001-01-01T00:00:00Z</time>
      </trkpt>
      <trkpt lat="49.38439" lon="7.04414">
        <ele>0</ele>
        <time>0001-01-01T00:00:00Z</time>
      </trkpt>
      <trkpt lat="49.38439" lon="7.04418">
        <ele>0</ele>
        <time>0001-01-01T00:00:00Z</time>
      </trkpt>
      <trkpt lat="49.38438" lon="7.04419">
        <ele>0</ele>
        <time>0001-01-01T00:00:00Z</time>
      </trkpt>
      <trkpt lat="49.38438" lon="7.04423">
        <ele>0</ele>
        <time>0001-01-01T00:00:00Z</time>
      </trkpt>
      <trkpt lat="49.38439" lon="7.04424">
        <ele>0</ele>
        <time>0001-01-01T00:00:00Z</time>
      </trkpt>
      <trkpt lat="49.38439" lon="7.04428">
        <ele>0</ele>
        <time>0001-01-01T00:00:00Z</time>
      </trkpt>
      <trkpt lat="49.3844" lon="7.04429">
        <ele>0</ele>
        <time>0001-01-01T00:00:00Z</time>
      </trkpt>
      <trkpt lat="49.3844" lon="7.04431">
        <ele>0</ele>
        <time>0001-01-01T00:00:00Z</time>
      </trkpt>
      <trkpt lat="49.38441" lon="7.04431">
        <ele>0</ele>
        <time>0001-01-01T00:00:00Z</time>
      </trkpt>
      <trkpt lat="49.38441" lon="7.04433">
        <ele>0</ele>
        <time>0001-01-01T00:00:00Z</time>
      </trkpt>
      <trkpt lat="49.38442" lon="7.04433">
        <ele>0</ele>
        <time>0001-01-01T00:00:00Z</time>
      </trkpt>
      <trkpt lat="49.38442" lon="7.04434">
        <ele>0</ele>
        <time>0001-01-01T00:00:00Z</time>
      </trkpt>
      <trkpt lat="49.38443" lon="7.04434">
        <ele>0</ele>
        <time>0001-01-01T00:00:00Z</time>
      </trkpt>
      <trkpt lat="49.38443" lon="7.04435">
        <ele>0</ele>
        <time>0001-01-01T00:00:00Z</time>
      </trkpt>
      <trkpt lat="49.38444" lon="7.04435">
        <ele>0</ele>
        <time>0001-01-01T00:00:00Z</time>
      </trkpt>
      <trkpt lat="49.38444" lon="7.04436">
        <ele>0</ele>
        <time>0001-01-01T00:00:00Z</time>
      </trkpt>
      <trkpt lat="49.38445" lon="7.04436">
        <ele>0</ele>
        <time>0001-01-01T00:00:00Z</time>
      </trkpt>
      <trkpt lat="49.38446" lon="7.04437">
        <ele>0</ele>
        <time>0001-01-01T00:00:00Z</time>
      </trkpt>
      <trkpt lat="49.38447" lon="7.04437">
        <ele>0</ele>
        <time>0001-01-01T00:00:00Z</time>
      </trkpt>
      <trkpt lat="49.38447" lon="7.04452">
        <ele>0</ele>
        <time>0001-01-01T00:00:00Z</time>
      </trkpt>
      <trkpt lat="49.38446" lon="7.04462">
        <ele>0</ele>
        <time>0001-01-01T00:00:00Z</time>
      </trkpt>
      <trkpt lat="49.38442" lon="7.04476">
        <ele>0</ele>
        <time>0001-01-01T00:00:00Z</time>
      </trkpt>
      <trkpt lat="49.38433" lon="7.04499">
        <ele>0</ele>
        <time>0001-01-01T00:00:00Z</time>
      </trkpt>
      <trkpt lat="49.38427" lon="7.04519">
        <ele>0</ele>
        <time>0001-01-01T00:00:00Z</time>
      </trkpt>
      <trkpt lat="49.38378" lon="7.046">
        <ele>0</ele>
        <time>0001-01-01T00:00:00Z</time>
      </trkpt>
      <trkpt lat="49.38337" lon="7.0466">
        <ele>0</ele>
        <time>0001-01-01T00:00:00Z</time>
      </trkpt>
      <trkpt lat="49.3833" lon="7.04663">
        <ele>0</ele>
        <time>0001-01-01T00:00:00Z</time>
      </trkpt>
      <trkpt lat="49.38306" lon="7.04701">
        <ele>0</ele>
        <time>0001-01-01T00:00:00Z</time>
      </trkpt>
      <trkpt lat="49.38296" lon="7.04724">
        <ele>0</ele>
        <time>0001-01-01T00:00:00Z</time>
      </trkpt>
      <trkpt lat="49.38295" lon="7.04725">
        <ele>0</ele>
        <time>0001-01-01T00:00:00Z</time>
      </trkpt>
      <trkpt lat="49.38289" lon="7.04744">
        <ele>0</ele>
        <time>0001-01-01T00:00:00Z</time>
      </trkpt>
      <trkpt lat="49.38286" lon="7.04744">
        <ele>0</ele>
        <time>0001-01-01T00:00:00Z</time>
      </trkpt>
      <trkpt lat="49.38285" lon="7.04745">
        <ele>0</ele>
        <time>0001-01-01T00:00:00Z</time>
      </trkpt>
      <trkpt lat="49.38281" lon="7.04747">
        <ele>0</ele>
        <time>0001-01-01T00:00:00Z</time>
      </trkpt>
      <trkpt lat="49.38278" lon="7.04753">
        <ele>0</ele>
        <time>0001-01-01T00:00:00Z</time>
      </trkpt>
      <trkpt lat="49.38277" lon="7.04758">
        <ele>0</ele>
        <time>0001-01-01T00:00:00Z</time>
      </trkpt>
      <trkpt lat="49.38257" lon="7.04763">
        <ele>0</ele>
        <time>0001-01-01T00:00:00Z</time>
      </trkpt>
      <trkpt lat="49.38245" lon="7.04771">
        <ele>0</ele>
        <time>0001-01-01T00:00:00Z</time>
      </trkpt>
      <trkpt lat="49.38225" lon="7.0478">
        <ele>0</ele>
        <time>0001-01-01T00:00:00Z</time>
      </trkpt>
      <trkpt lat="49.38212" lon="7.04784">
        <ele>0</ele>
        <time>0001-01-01T00:00:00Z</time>
      </trkpt>
      <trkpt lat="49.38199" lon="7.04784">
        <ele>0</ele>
        <time>0001-01-01T00:00:00Z</time>
      </trkpt>
      <trkpt lat="49.38192" lon="7.04783">
        <ele>0</ele>
        <time>0001-01-01T00:00:00Z</time>
      </trkpt>
      <trkpt lat="49.38144" lon="7.0477">
        <ele>0</ele>
        <time>0001-01-01T00:00:00Z</time>
      </trkpt>
      <trkpt lat="49.38123" lon="7.04767">
        <ele>0</ele>
        <time>0001-01-01T00:00:00Z</time>
      </trkpt>
      <trkpt lat="49.38075" lon="7.04777">
        <ele>0</ele>
        <time>0001-01-01T00:00:00Z</time>
      </trkpt>
      <trkpt lat="49.38056" lon="7.04778">
        <ele>0</ele>
        <time>0001-01-01T00:00:00Z</time>
      </trkpt>
      <trkpt lat="49.37929" lon="7.04772">
        <ele>0</ele>
        <time>0001-01-01T00:00:00Z</time>
      </trkpt>
      <trkpt lat="49.37904" lon="7.04776">
        <ele>0</ele>
        <time>0001-01-01T00:00:00Z</time>
      </trkpt>
      <trkpt lat="49.37888" lon="7.04785">
        <ele>0</ele>
        <time>0001-01-01T00:00:00Z</time>
      </trkpt>
      <trkpt lat="49.37875" lon="7.04797">
        <ele>0</ele>
        <time>0001-01-01T00:00:00Z</time>
      </trkpt>
      <trkpt lat="49.37858" lon="7.04818">
        <ele>0</ele>
        <time>0001-01-01T00:00:00Z</time>
      </trkpt>
      <trkpt lat="49.37851" lon="7.04829">
        <ele>0</ele>
        <time>0001-01-01T00:00:00Z</time>
      </trkpt>
      <trkpt lat="49.37839" lon="7.04853">
        <ele>0</ele>
        <time>0001-01-01T00:00:00Z</time>
      </trkpt>
      <trkpt lat="49.37825" lon="7.04887">
        <ele>0</ele>
        <time>0001-01-01T00:00:00Z</time>
      </trkpt>
      <trkpt lat="49.37818" lon="7.04912">
        <ele>0</ele>
        <time>0001-01-01T00:00:00Z</time>
      </trkpt>
      <trkpt lat="49.37799" lon="7.04902">
        <ele>0</ele>
        <time>0001-01-01T00:00:00Z</time>
      </trkpt>
      <trkpt lat="49.37799" lon="7.04901">
        <ele>0</ele>
        <time>0001-01-01T00:00:00Z</time>
      </trkpt>
      <trkpt lat="49.37796" lon="7.04899">
        <ele>0</ele>
        <time>0001-01-01T00:00:00Z</time>
      </trkpt>
      <trkpt lat="49.37794" lon="7.04897">
        <ele>0</ele>
        <time>0001-01-01T00:00:00Z</time>
      </trkpt>
      <trkpt lat="49.37786" lon="7.04884">
        <ele>0</ele>
        <time>0001-01-01T00:00:00Z</time>
      </trkpt>
      <trkpt lat="49.37784" lon="7.04879">
        <ele>0</ele>
        <time>0001-01-01T00:00:00Z</time>
      </trkpt>
      <trkpt lat="49.37782" lon="7.04864">
        <ele>0</ele>
        <time>0001-01-01T00:00:00Z</time>
      </trkpt>
      <trkpt lat="49.37786" lon="7.04854">
        <ele>0</ele>
        <time>0001-01-01T00:00:00Z</time>
      </trkpt>
      <trkpt lat="49.37796" lon="7.04846">
        <ele>0</ele>
        <time>0001-01-01T00:00:00Z</time>
      </trkpt>
      <trkpt lat="49.37801" lon="7.04845">
        <ele>0</ele>
        <time>0001-01-01T00:00:00Z</time>
      </trkpt>
      <trkpt lat="49.37805" lon="7.04845">
        <ele>0</ele>
        <time>0001-01-01T00:00:00Z</time>
      </trkpt>
      <trkpt lat="49.37816" lon="7.0484">
        <ele>0</ele>
        <time>0001-01-01T00:00:00Z</time>
      </trkpt>
      <trkpt lat="49.37818" lon="7.04838">
        <ele>0</ele>
        <time>0001-01-01T00:00:00Z</time>
      </trkpt>
      <trkpt lat="49.3782" lon="7.04834">
        <ele>0</ele>
        <time>0001-01-01T00:00:00Z</time>
      </trkpt>
      <trkpt lat="49.37822" lon="7.04827">
        <ele>0</ele>
        <time>0001-01-01T00:00:00Z</time>
      </trkpt>
      <trkpt lat="49.37823" lon="7.0482">
        <ele>0</ele>
        <time>0001-01-01T00:00:00Z</time>
      </trkpt>
      <trkpt lat="49.37822" lon="7.04813">
        <ele>0</ele>
        <time>0001-01-01T00:00:00Z</time>
      </trkpt>
      <trkpt lat="49.37822" lon="7.04808">
        <ele>0</ele>
        <time>0001-01-01T00:00:00Z</time>
      </trkpt>
      <trkpt lat="49.37817" lon="7.04796">
        <ele>0</ele>
        <time>0001-01-01T00:00:00Z</time>
      </trkpt>
      <trkpt lat="49.37814" lon="7.04792">
        <ele>0</ele>
        <time>0001-01-01T00:00:00Z</time>
      </trkpt>
      <trkpt lat="49.37807" lon="7.04786">
        <ele>0</ele>
        <time>0001-01-01T00:00:00Z</time>
      </trkpt>
      <trkpt lat="49.37803" lon="7.04784">
        <ele>0</ele>
        <time>0001-01-01T00:00:00Z</time>
      </trkpt>
      <trkpt lat="49.37793" lon="7.04784">
        <ele>0</ele>
        <time>0001-01-01T00:00:00Z</time>
      </trkpt>
      <trkpt lat="49.37758" lon="7.0479">
        <ele>0</ele>
        <time>0001-01-01T00:00:00Z</time>
      </trkpt>
      <trkpt lat="49.37745" lon="7.0479">
        <ele>0</ele>
        <time>0001-01-01T00:00:00Z</time>
      </trkpt>
      <trkpt lat="49.37705" lon="7.04778">
        <ele>0</ele>
        <time>0001-01-01T00:00:00Z</time>
      </trkpt>
      <trkpt lat="49.37647" lon="7.04698">
        <ele>0</ele>
        <time>0001-01-01T00:00:00Z</time>
      </trkpt>
      <trkpt lat="49.37614" lon="7.04644">
        <ele>0</ele>
        <time>0001-01-01T00:00:00Z</time>
      </trkpt>
      <trkpt lat="49.37593" lon="7.04615">
        <ele>0</ele>
        <time>0001-01-01T00:00:00Z</time>
      </trkpt>
      <trkpt lat="49.37395" lon="7.04305">
        <ele>0</ele>
        <time>0001-01-01T00:00:00Z</time>
      </trkpt>
      <trkpt lat="49.3738" lon="7.04285">
        <ele>0</ele>
        <time>0001-01-01T00:00:00Z</time>
      </trkpt>
      <trkpt lat="49.37346" lon="7.04228">
        <ele>0</ele>
        <time>0001-01-01T00:00:00Z</time>
      </trkpt>
      <trkpt lat="49.37308" lon="7.04155">
        <ele>0</ele>
        <time>0001-01-01T00:00:00Z</time>
      </trkpt>
      <trkpt lat="49.37271" lon="7.04103">
        <ele>0</ele>
        <time>0001-01-01T00:00:00Z</time>
      </trkpt>
      <trkpt lat="49.3724" lon="7.04069">
        <ele>0</ele>
        <time>0001-01-01T00:00:00Z</time>
      </trkpt>
      <trkpt lat="49.3722" lon="7.04051">
        <ele>0</ele>
        <time>0001-01-01T00:00:00Z</time>
      </trkpt>
      <trkpt lat="49.3708" lon="7.03956">
        <ele>0</ele>
        <time>0001-01-01T00:00:00Z</time>
      </trkpt>
      <trkpt lat="49.37068" lon="7.0395">
        <ele>0</ele>
        <time>0001-01-01T00:00:00Z</time>
      </trkpt>
      <trkpt lat="49.3705" lon="7.03943">
        <ele>0</ele>
        <time>0001-01-01T00:00:00Z</time>
      </trkpt>
      <trkpt lat="49.37024" lon="7.03935">
        <ele>0</ele>
        <time>0001-01-01T00:00:00Z</time>
      </trkpt>
      <trkpt lat="49.37017" lon="7.03934">
        <ele>0</ele>
        <time>0001-01-01T00:00:00Z</time>
      </trkpt>
      <trkpt lat="49.36964" lon="7.03921">
        <ele>0</ele>
        <time>0001-01-01T00:00:00Z</time>
      </trkpt>
      <trkpt lat="49.36903" lon="7.03901">
        <ele>0</ele>
        <time>0001-01-01T00:00:00Z</time>
      </trkpt>
      <trkpt lat="49.3673" lon="7.03854">
        <ele>0</ele>
        <time>0001-01-01T00:00:00Z</time>
      </trkpt>
      <trkpt lat="49.36701" lon="7.03844">
        <ele>0</ele>
        <time>0001-01-01T00:00:00Z</time>
      </trkpt>
      <trkpt lat="49.36687" lon="7.03838">
        <ele>0</ele>
        <time>0001-01-01T00:00:00Z</time>
      </trkpt>
      <trkpt lat="49.36659" lon="7.03818">
        <ele>0</ele>
        <time>0001-01-01T00:00:00Z</time>
      </trkpt>
      <trkpt lat="49.36653" lon="7.03808">
        <ele>0</ele>
        <time>0001-01-01T00:00:00Z</time>
      </trkpt>
      <trkpt lat="49.36548" lon="7.03704">
        <ele>0</ele>
        <time>0001-01-01T00:00:00Z</time>
      </trkpt>
      <trkpt lat="49.36545" lon="7.03703">
        <ele>0</ele>
        <time>0001-01-01T00:00:00Z</time>
      </trkpt>
      <trkpt lat="49.36538" lon="7.03698">
        <ele>0</ele>
        <time>0001-01-01T00:00:00Z</time>
      </trkpt>
      <trkpt lat="49.36514" lon="7.03669">
        <ele>0</ele>
        <time>0001-01-01T00:00:00Z</time>
      </trkpt>
      <trkpt lat="49.36506" lon="7.03655">
        <ele>0</ele>
        <time>0001-01-01T00:00:00Z</time>
      </trkpt>
      <trkpt lat="49.3649" lon="7.03618">
        <ele>0</ele>
        <time>0001-01-01T00:00:00Z</time>
      </trkpt>
      <trkpt lat="49.36475" lon="7.0357">
        <ele>0</ele>
        <time>0001-01-01T00:00:00Z</time>
      </trkpt>
      <trkpt lat="49.36469" lon="7.03544">
        <ele>0</ele>
        <time>0001-01-01T00:00:00Z</time>
      </trkpt>
      <trkpt lat="49.36445" lon="7.03405">
        <ele>0</ele>
        <time>0001-01-01T00:00:00Z</time>
      </trkpt>
      <trkpt lat="49.36436" lon="7.03372">
        <ele>0</ele>
        <time>0001-01-01T00:00:00Z</time>
      </trkpt>
      <trkpt lat="49.36419" lon="7.03331">
        <ele>0</ele>
        <time>0001-01-01T00:00:00Z</time>
      </trkpt>
      <trkpt lat="49.36409" lon="7.03312">
        <ele>0</ele>
        <time>0001-01-01T00:00:00Z</time>
      </trkpt>
      <trkpt lat="49.36297" lon="7.03147">
        <ele>0</ele>
        <time>0001-01-01T00:00:00Z</time>
      </trkpt>
      <trkpt lat="49.36269" lon="7.03109">
        <ele>0</ele>
        <time>0001-01-01T00:00:00Z</time>
      </trkpt>
      <trkpt lat="49.36146" lon="7.02977">
        <ele>0</ele>
        <time>0001-01-01T00:00:00Z</time>
      </trkpt>
      <trkpt lat="49.36115" lon="7.02936">
        <ele>0</ele>
        <time>0001-01-01T00:00:00Z</time>
      </trkpt>
      <trkpt lat="49.3608" lon="7.0288">
        <ele>0</ele>
        <time>0001-01-01T00:00:00Z</time>
      </trkpt>
      <trkpt lat="49.36046" lon="7.02817">
        <ele>0</ele>
        <time>0001-01-01T00:00:00Z</time>
      </trkpt>
      <trkpt lat="49.3599" lon="7.02674">
        <ele>0</ele>
        <time>0001-01-01T00:00:00Z</time>
      </trkpt>
      <trkpt lat="49.35982" lon="7.02636">
        <ele>0</ele>
        <time>0001-01-01T00:00:00Z</time>
      </trkpt>
      <trkpt lat="49.35976" lon="7.02529">
        <ele>0</ele>
        <time>0001-01-01T00:00:00Z</time>
      </trkpt>
      <trkpt lat="49.35975" lon="7.02372">
        <ele>0</ele>
        <time>0001-01-01T00:00:00Z</time>
      </trkpt>
      <trkpt lat="49.35981" lon="7.02262">
        <ele>0</ele>
        <time>0001-01-01T00:00:00Z</time>
      </trkpt>
      <trkpt lat="49.35979" lon="7.02196">
        <ele>0</ele>
        <time>0001-01-01T00:00:00Z</time>
      </trkpt>
      <trkpt lat="49.3596" lon="7.02001">
        <ele>0</ele>
        <time>0001-01-01T00:00:00Z</time>
      </trkpt>
      <trkpt lat="49.35953" lon="7.01677">
        <ele>0</ele>
        <time>0001-01-01T00:00:00Z</time>
      </trkpt>
      <trkpt lat="49.35952" lon="7.01667">
        <ele>0</ele>
        <time>0001-01-01T00:00:00Z</time>
      </trkpt>
      <trkpt lat="49.35951" lon="7.01582">
        <ele>0</ele>
        <time>0001-01-01T00:00:00Z</time>
      </trkpt>
      <trkpt lat="49.35948" lon="7.01531">
        <ele>0</ele>
        <time>0001-01-01T00:00:00Z</time>
      </trkpt>
      <trkpt lat="49.35943" lon="7.01494">
        <ele>0</ele>
        <time>0001-01-01T00:00:00Z</time>
      </trkpt>
      <trkpt lat="49.35937" lon="7.01471">
        <ele>0</ele>
        <time>0001-01-01T00:00:00Z</time>
      </trkpt>
      <trkpt lat="49.35904" lon="7.01371">
        <ele>0</ele>
        <time>0001-01-01T00:00:00Z</time>
      </trkpt>
      <trkpt lat="49.35894" lon="7.01385">
        <ele>0</ele>
        <time>0001-01-01T00:00:00Z</time>
      </trkpt>
      <trkpt lat="49.3578" lon="7.01514">
        <ele>0</ele>
        <time>0001-01-01T00:00:00Z</time>
      </trkpt>
      <trkpt lat="49.35767" lon="7.01527">
        <ele>0</ele>
        <time>0001-01-01T00:00:00Z</time>
      </trkpt>
      <trkpt lat="49.35746" lon="7.01543">
        <ele>0</ele>
        <time>0001-01-01T00:00:00Z</time>
      </trkpt>
      <trkpt lat="49.35728" lon="7.0155">
        <ele>0</ele>
        <time>0001-01-01T00:00:00Z</time>
      </trkpt>
      <trkpt lat="49.35719" lon="7.01551">
        <ele>0</ele>
        <time>0001-01-01T00:00:00Z</time>
      </trkpt>
      <trkpt lat="49.35702" lon="7.01549">
        <ele>0</ele>
        <time>0001-01-01T00:00:00Z</time>
      </trkpt>
      <trkpt lat="49.35677" lon="7.0154">
        <ele>0</ele>
        <time>0001-01-01T00:00:00Z</time>
      </trkpt>
      <trkpt lat="49.35638" lon="7.01515">
        <ele>0</ele>
        <time>0001-01-01T00:00:00Z</time>
      </trkpt>
      <trkpt lat="49.35624" lon="7.01508">
        <ele>0</ele>
        <time>0001-01-01T00:00:00Z</time>
      </trkpt>
      <trkpt lat="49.35605" lon="7.01502">
        <ele>0</ele>
        <time>0001-01-01T00:00:00Z</time>
      </trkpt>
      <trkpt lat="49.35591" lon="7.015">
        <ele>0</ele>
        <time>0001-01-01T00:00:00Z</time>
      </trkpt>
      <trkpt lat="49.35586" lon="7.01501">
        <ele>0</ele>
        <time>0001-01-01T00:00:00Z</time>
      </trkpt>
      <trkpt lat="49.35569" lon="7.01508">
        <ele>0</ele>
        <time>0001-01-01T00:00:00Z</time>
      </trkpt>
      <trkpt lat="49.35436" lon="7.0154">
        <ele>0</ele>
        <time>0001-01-01T00:00:00Z</time>
      </trkpt>
      <trkpt lat="49.35418" lon="7.01552">
        <ele>0</ele>
        <time>0001-01-01T00:00:00Z</time>
      </trkpt>
      <trkpt lat="49.35404" lon="7.01568">
        <ele>0</ele>
        <time>0001-01-01T00:00:00Z</time>
      </trkpt>
      <trkpt lat="49.35377" lon="7.01604">
        <ele>0</ele>
        <time>0001-01-01T00:00:00Z</time>
      </trkpt>
      <trkpt lat="49.35365" lon="7.01618">
        <ele>0</ele>
        <time>0001-01-01T00:00:00Z</time>
      </trkpt>
      <trkpt lat="49.35356" lon="7.01626">
        <ele>0</ele>
        <time>0001-01-01T00:00:00Z</time>
      </trkpt>
      <trkpt lat="49.35341" lon="7.01634">
        <ele>0</ele>
        <time>0001-01-01T00:00:00Z</time>
      </trkpt>
      <trkpt lat="49.35331" lon="7.01636">
        <ele>0</ele>
        <time>0001-01-01T00:00:00Z</time>
      </trkpt>
      <trkpt lat="49.35312" lon="7.01636">
        <ele>0</ele>
        <time>0001-01-01T00:00:00Z</time>
      </trkpt>
      <trkpt lat="49.35288" lon="7.0163">
        <ele>0</ele>
        <time>0001-01-01T00:00:00Z</time>
      </trkpt>
      <trkpt lat="49.3525" lon="7.01615">
        <ele>0</ele>
        <time>0001-01-01T00:00:00Z</time>
      </trkpt>
      <trkpt lat="49.35214" lon="7.01596">
        <ele>0</ele>
        <time>0001-01-01T00:00:00Z</time>
      </trkpt>
      <trkpt lat="49.34897" lon="7.01356">
        <ele>0</ele>
        <time>0001-01-01T00:00:00Z</time>
      </trkpt>
      <trkpt lat="49.34886" lon="7.01345">
        <ele>0</ele>
        <time>0001-01-01T00:00:00Z</time>
      </trkpt>
      <trkpt lat="49.34852" lon="7.013">
        <ele>0</ele>
        <time>0001-01-01T00:00:00Z</time>
      </trkpt>
      <trkpt lat="49.34833" lon="7.01278">
        <ele>0</ele>
        <time>0001-01-01T00:00:00Z</time>
      </trkpt>
      <trkpt lat="49.34821" lon="7.01266">
        <ele>0</ele>
        <time>0001-01-01T00:00:00Z</time>
      </trkpt>
      <trkpt lat="49.34813" lon="7.01262">
        <ele>0</ele>
        <time>0001-01-01T00:00:00Z</time>
      </trkpt>
      <trkpt lat="49.34791" lon="7.01255">
        <ele>0</ele>
        <time>0001-01-01T00:00:00Z</time>
      </trkpt>
      <trkpt lat="49.34774" lon="7.01253">
        <ele>0</ele>
        <time>0001-01-01T00:00:00Z</time>
      </trkpt>
      <trkpt lat="49.34761" lon="7.01255">
        <ele>0</ele>
        <time>0001-01-01T00:00:00Z</time>
      </trkpt>
      <trkpt lat="49.34754" lon="7.01257">
        <ele>0</ele>
        <time>0001-01-01T00:00:00Z</time>
      </trkpt>
      <trkpt lat="49.34752" lon="7.01258">
        <ele>0</ele>
        <time>0001-01-01T00:00:00Z</time>
      </trkpt>
      <trkpt lat="49.34633" lon="7.01366">
        <ele>0</ele>
        <time>0001-01-01T00:00:00Z</time>
      </trkpt>
      <trkpt lat="49.34526" lon="7.01487">
        <ele>0</ele>
        <time>0001-01-01T00:00:00Z</time>
      </trkpt>
      <trkpt lat="49.34507" lon="7.01506">
        <ele>0</ele>
        <time>0001-01-01T00:00:00Z</time>
      </trkpt>
      <trkpt lat="49.34476" lon="7.0153">
        <ele>0</ele>
        <time>0001-01-01T00:00:00Z</time>
      </trkpt>
      <trkpt lat="49.34335" lon="7.01612">
        <ele>0</ele>
        <time>0001-01-01T00:00:00Z</time>
      </trkpt>
      <trkpt lat="49.34111" lon="7.01768">
        <ele>0</ele>
        <time>0001-01-01T00:00:00Z</time>
      </trkpt>
      <trkpt lat="49.34104" lon="7.0177">
        <ele>0</ele>
        <time>0001-01-01T00:00:00Z</time>
      </trkpt>
      <trkpt lat="49.34079" lon="7.01786">
        <ele>0</ele>
        <time>0001-01-01T00:00:00Z</time>
      </trkpt>
      <trkpt lat="49.3407" lon="7.01784">
        <ele>0</ele>
        <time>0001-01-01T00:00:00Z</time>
      </trkpt>
      <trkpt lat="49.34066" lon="7.01782">
        <ele>0</ele>
        <time>0001-01-01T00:00:00Z</time>
      </trkpt>
      <trkpt lat="49.34057" lon="7.01773">
        <ele>0</ele>
        <time>0001-01-01T00:00:00Z</time>
      </trkpt>
      <trkpt lat="49.34016" lon="7.0166">
        <ele>0</ele>
        <time>0001-01-01T00:00:00Z</time>
      </trkpt>
      <trkpt lat="49.34005" lon="7.01636">
        <ele>0</ele>
        <time>0001-01-01T00:00:00Z</time>
      </trkpt>
      <trkpt lat="49.33998" lon="7.01627">
        <ele>0</ele>
        <time>0001-01-01T00:00:00Z</time>
      </trkpt>
      <trkpt lat="49.33952" lon="7.0152">
        <ele>0</ele>
        <time>0001-01-01T00:00:00Z</time>
      </trkpt>
      <trkpt lat="49.33948" lon="7.01505">
        <ele>0</ele>
        <time>0001-01-01T00:00:00Z</time>
      </trkpt>
      <trkpt lat="49.33901" lon="7.0139">
        <ele>0</ele>
        <time>0001-01-01T00:00:00Z</time>
      </trkpt>
      <trkpt lat="49.33845" lon="7.01269">
        <ele>0</ele>
        <time>0001-01-01T00:00:00Z</time>
      </trkpt>
      <trkpt lat="49.33838" lon="7.01258">
        <ele>0</ele>
        <time>0001-01-01T00:00:00Z</time>
      </trkpt>
      <trkpt lat="49.33815" lon="7.01212">
        <ele>0</ele>
        <time>0001-01-01T00:00:00Z</time>
      </trkpt>
      <trkpt lat="49.33779" lon="7.01153">
        <ele>0</ele>
        <time>0001-01-01T00:00:00Z</time>
      </trkpt>
      <trkpt lat="49.33771" lon="7.01145">
        <ele>0</ele>
        <time>0001-01-01T00:00:00Z</time>
      </trkpt>
      <trkpt lat="49.33736" lon="7.01077">
        <ele>0</ele>
        <time>0001-01-01T00:00:00Z</time>
      </trkpt>
      <trkpt lat="49.33585" lon="7.0084">
        <ele>0</ele>
        <time>0001-01-01T00:00:00Z</time>
      </trkpt>
      <trkpt lat="49.3356" lon="7.00785">
        <ele>0</ele>
        <time>0001-01-01T00:00:00Z</time>
      </trkpt>
      <trkpt lat="49.33543" lon="7.00736">
        <ele>0</ele>
        <time>0001-01-01T00:00:00Z</time>
      </trkpt>
      <trkpt lat="49.33529" lon="7.00688">
        <ele>0</ele>
        <time>0001-01-01T00:00:00Z</time>
      </trkpt>
      <trkpt lat="49.33519" lon="7.00636">
        <ele>0</ele>
        <time>0001-01-01T00:00:00Z</time>
      </trkpt>
      <trkpt lat="49.33497" lon="7.00485">
        <ele>0</ele>
        <time>0001-01-01T00:00:00Z</time>
      </trkpt>
      <trkpt lat="49.3348" lon="7.00401">
        <ele>0</ele>
        <time>0001-01-01T00:00:00Z</time>
      </trkpt>
      <trkpt lat="49.3345" lon="7.00305">
        <ele>0</ele>
        <time>0001-01-01T00:00:00Z</time>
      </trkpt>
      <trkpt lat="49.33351" lon="7.0006">
        <ele>0</ele>
        <time>0001-01-01T00:00:00Z</time>
      </trkpt>
      <trkpt lat="49.33307" lon="6.99977">
        <ele>0</ele>
        <time>0001-01-01T00:00:00Z</time>
      </trkpt>
      <trkpt lat="49.3328" lon="6.99936">
        <ele>0</ele>
        <time>0001-01-01T00:00:00Z</time>
      </trkpt>
      <trkpt lat="49.33255" lon="6.99903">
        <ele>0</ele>
        <time>0001-01-01T00:00:00Z</time>
      </trkpt>
      <trkpt lat="49.33215" lon="6.99858">
        <ele>0</ele>
        <time>0001-01-01T00:00:00Z</time>
      </trkpt>
      <trkpt lat="49.33199" lon="6.99842">
        <ele>0</ele>
        <time>0001-01-01T00:00:00Z</time>
      </trkpt>
      <trkpt lat="49.3293" lon="6.99633">
        <ele>0</ele>
        <time>0001-01-01T00:00:00Z</time>
      </trkpt>
      <trkpt lat="49.32912" lon="6.99617">
        <ele>0</ele>
        <time>0001-01-01T00:00:00Z</time>
      </trkpt>
      <trkpt lat="49.32879" lon="6.99582">
        <ele>0</ele>
        <time>0001-01-01T00:00:00Z</time>
      </trkpt>
      <trkpt lat="49.32734" lon="6.99415">
        <ele>0</ele>
        <time>0001-01-01T00:00:00Z</time>
      </trkpt>
      <trkpt lat="49.32582" lon="6.99226">
        <ele>0</ele>
        <time>0001-01-01T00:00:00Z</time>
      </trkpt>
      <trkpt lat="49.32546" lon="6.99193">
        <ele>0</ele>
        <time>0001-01-01T00:00:00Z</time>
      </trkpt>
      <trkpt lat="49.32312" lon="6.99023">
        <ele>0</ele>
        <time>0001-01-01T00:00:00Z</time>
      </trkpt>
      <trkpt lat="49.32305" lon="6.99015">
        <ele>0</ele>
        <time>0001-01-01T00:00:00Z</time>
      </trkpt>
      <trkpt lat="49.32261" lon="6.98979">
        <ele>0</ele>
        <time>0001-01-01T00:00:00Z</time>
      </trkpt>
      <trkpt lat="49.32253" lon="6.98971">
        <ele>0</ele>
        <time>0001-01-01T00:00:00Z</time>
      </trkpt>
      <trkpt lat="49.32234" lon="6.9896">
        <ele>0</ele>
        <time>0001-01-01T00:00:00Z</time>
      </trkpt>
      <trkpt lat="49.32224" lon="6.98953">
        <ele>0</ele>
        <time>0001-01-01T00:00:00Z</time>
      </trkpt>
      <trkpt lat="49.32215" lon="6.98943">
        <ele>0</ele>
        <time>0001-01-01T00:00:00Z</time>
      </trkpt>
      <trkpt lat="49.32207" lon="6.98937">
        <ele>0</ele>
        <time>0001-01-01T00:00:00Z</time>
      </trkpt>
      <trkpt lat="49.3216" lon="6.98877">
        <ele>0</ele>
        <time>0001-01-01T00:00:00Z</time>
      </trkpt>
      <trkpt lat="49.3214" lon="6.98846">
        <ele>0</ele>
        <time>0001-01-01T00:00:00Z</time>
      </trkpt>
      <trkpt lat="49.32117" lon="6.98801">
        <ele>0</ele>
        <time>0001-01-01T00:00:00Z</time>
      </trkpt>
      <trkpt lat="49.32011" lon="6.98523">
        <ele>0</ele>
        <time>0001-01-01T00:00:00Z</time>
      </trkpt>
      <trkpt lat="49.32005" lon="6.98494">
        <ele>0</ele>
        <time>0001-01-01T00:00:00Z</time>
      </trkpt>
      <trkpt lat="49.31996" lon="6.98414">
        <ele>0</ele>
        <time>0001-01-01T00:00:00Z</time>
      </trkpt>
      <trkpt lat="49.31985" lon="6.9837">
        <ele>0</ele>
        <time>0001-01-01T00:00:00Z</time>
      </trkpt>
      <trkpt lat="49.31969" lon="6.98333">
        <ele>0</ele>
        <time>0001-01-01T00:00:00Z</time>
      </trkpt>
      <trkpt lat="49.31955" lon="6.9831">
        <ele>0</ele>
        <time>0001-01-01T00:00:00Z</time>
      </trkpt>
      <trkpt lat="49.31946" lon="6.98298">
        <ele>0</ele>
        <time>0001-01-01T00:00:00Z</time>
      </trkpt>
      <trkpt lat="49.3193" lon="6.98283">
        <ele>0</ele>
        <time>0001-01-01T00:00:00Z</time>
      </trkpt>
      <trkpt lat="49.319" lon="6.98259">
        <ele>0</ele>
        <time>0001-01-01T00:00:00Z</time>
      </trkpt>
      <trkpt lat="49.31898" lon="6.98258">
        <ele>0</ele>
        <time>0001-01-01T00:00:00Z</time>
      </trkpt>
      <trkpt lat="49.31865" lon="6.98231">
        <ele>0</ele>
        <time>0001-01-01T00:00:00Z</time>
      </trkpt>
      <trkpt lat="49.31855" lon="6.98214">
        <ele>0</ele>
        <time>0001-01-01T00:00:00Z</time>
      </trkpt>
      <trkpt lat="49.31849" lon="6.98201">
        <ele>0</ele>
        <time>0001-01-01T00:00:00Z</time>
      </trkpt>
      <trkpt lat="49.3174" lon="6.97881">
        <ele>0</ele>
        <time>0001-01-01T00:00:00Z</time>
      </trkpt>
      <trkpt lat="49.31698" lon="6.97767">
        <ele>0</ele>
        <time>0001-01-01T00:00:00Z</time>
      </trkpt>
      <trkpt lat="49.31689" lon="6.97736">
        <ele>0</ele>
        <time>0001-01-01T00:00:00Z</time>
      </trkpt>
      <trkpt lat="49.31617" lon="6.9743">
        <ele>0</ele>
        <time>0001-01-01T00:00:00Z</time>
      </trkpt>
      <trkpt lat="49.31597" lon="6.9737">
        <ele>0</ele>
        <time>0001-01-01T00:00:00Z</time>
      </trkpt>
      <trkpt lat="49.31593" lon="6.97363">
        <ele>0</ele>
        <time>0001-01-01T00:00:00Z</time>
      </trkpt>
      <trkpt lat="49.31557" lon="6.97264">
        <ele>0</ele>
        <time>0001-01-01T00:00:00Z</time>
      </trkpt>
      <trkpt lat="49.31546" lon="6.97239">
        <ele>0</ele>
        <time>0001-01-01T00:00:00Z</time>
      </trkpt>
      <trkpt lat="49.31533" lon="6.97215">
        <ele>0</ele>
        <time>0001-01-01T00:00:00Z</time>
      </trkpt>
      <trkpt lat="49.31505" lon="6.97175">
        <ele>0</ele>
        <time>0001-01-01T00:00:00Z</time>
      </trkpt>
      <trkpt lat="49.31387" lon="6.97048">
        <ele>0</ele>
        <time>0001-01-01T00:00:00Z</time>
      </trkpt>
      <trkpt lat="49.31348" lon="6.97017">
        <ele>0</ele>
        <time>0001-01-01T00:00:00Z</time>
      </trkpt>
      <trkpt lat="49.31234" lon="6.96944">
        <ele>0</ele>
        <time>0001-01-01T00:00:00Z</time>
      </trkpt>
      <trkpt lat="49.31219" lon="6.96939">
        <ele>0</ele>
        <time>0001-01-01T00:00:00Z</time>
      </trkpt>
      <trkpt lat="49.31177" lon="6.9693">
        <ele>0</ele>
        <time>0001-01-01T00:00:00Z</time>
      </trkpt>
      <trkpt lat="49.31144" lon="6.9693">
        <ele>0</ele>
        <time>0001-01-01T00:00:00Z</time>
      </trkpt>
      <trkpt lat="49.31128" lon="6.96933">
        <ele>0</ele>
        <time>0001-01-01T00:00:00Z</time>
      </trkpt>
      <trkpt lat="49.31057" lon="6.96965">
        <ele>0</ele>
        <time>0001-01-01T00:00:00Z</time>
      </trkpt>
      <trkpt lat="49.31044" lon="6.96969">
        <ele>0</ele>
        <time>0001-01-01T00:00:00Z</time>
      </trkpt>
      <trkpt lat="49.31033" lon="6.9697">
        <ele>0</ele>
        <time>0001-01-01T00:00:00Z</time>
      </trkpt>
      <trkpt lat="49.31009" lon="6.96966">
        <ele>0</ele>
        <time>0001-01-01T00:00:00Z</time>
      </trkpt>
      <trkpt lat="49.30893" lon="6.96912">
        <ele>0</ele>
        <time>0001-01-01T00:00:00Z</time>
      </trkpt>
      <trkpt lat="49.30873" lon="6.96906">
        <ele>0</ele>
        <time>0001-01-01T00:00:00Z</time>
      </trkpt>
      <trkpt lat="49.30858" lon="6.96904">
        <ele>0</ele>
        <time>0001-01-01T00:00:00Z</time>
      </trkpt>
      <trkpt lat="49.30835" lon="6.96903">
        <ele>0</ele>
        <time>0001-01-01T00:00:00Z</time>
      </trkpt>
      <trkpt lat="49.30777" lon="6.96904">
        <ele>0</ele>
        <time>0001-01-01T00:00:00Z</time>
      </trkpt>
      <trkpt lat="49.30758" lon="6.96903">
        <ele>0</ele>
        <time>0001-01-01T00:00:00Z</time>
      </trkpt>
      <trkpt lat="49.3063" lon="6.96919">
        <ele>0</ele>
        <time>0001-01-01T00:00:00Z</time>
      </trkpt>
      <trkpt lat="49.30592" lon="6.9692">
        <ele>0</ele>
        <time>0001-01-01T00:00:00Z</time>
      </trkpt>
      <trkpt lat="49.30574" lon="6.96916">
        <ele>0</ele>
        <time>0001-01-01T00:00:00Z</time>
      </trkpt>
      <trkpt lat="49.30554" lon="6.96909">
        <ele>0</ele>
        <time>0001-01-01T00:00:00Z</time>
      </trkpt>
      <trkpt lat="49.30544" lon="6.96904">
        <ele>0</ele>
        <time>0001-01-01T00:00:00Z</time>
      </trkpt>
      <trkpt lat="49.30453" lon="6.96847">
        <ele>0</ele>
        <time>0001-01-01T00:00:00Z</time>
      </trkpt>
      <trkpt lat="49.30365" lon="6.96797">
        <ele>0</ele>
        <time>0001-01-01T00:00:00Z</time>
      </trkpt>
      <trkpt lat="49.30282" lon="6.96755">
        <ele>0</ele>
        <time>0001-01-01T00:00:00Z</time>
      </trkpt>
      <trkpt lat="49.30255" lon="6.96738">
        <ele>0</ele>
        <time>0001-01-01T00:00:00Z</time>
      </trkpt>
      <trkpt lat="49.30236" lon="6.9672">
        <ele>0</ele>
        <time>0001-01-01T00:00:00Z</time>
      </trkpt>
      <trkpt lat="49.30218" lon="6.967">
        <ele>0</ele>
        <time>0001-01-01T00:00:00Z</time>
      </trkpt>
      <trkpt lat="49.30202" lon="6.96676">
        <ele>0</ele>
        <time>0001-01-01T00:00:00Z</time>
      </trkpt>
      <trkpt lat="49.30168" lon="6.96611">
        <ele>0</ele>
        <time>0001-01-01T00:00:00Z</time>
      </trkpt>
      <trkpt lat="49.30127" lon="6.96549">
        <ele>0</ele>
        <time>0001-01-01T00:00:00Z</time>
      </trkpt>
      <trkpt lat="49.30042" lon="6.96434">
        <ele>0</ele>
        <time>0001-01-01T00:00:00Z</time>
      </trkpt>
      <trkpt lat="49.29967" lon="6.96346">
        <ele>0</ele>
        <time>0001-01-01T00:00:00Z</time>
      </trkpt>
      <trkpt lat="49.29721" lon="6.96095">
        <ele>0</ele>
        <time>0001-01-01T00:00:00Z</time>
      </trkpt>
      <trkpt lat="49.29701" lon="6.9608">
        <ele>0</ele>
        <time>0001-01-01T00:00:00Z</time>
      </trkpt>
      <trkpt lat="49.29689" lon="6.96073">
        <ele>0</ele>
        <time>0001-01-01T00:00:00Z</time>
      </trkpt>
      <trkpt lat="49.29651" lon="6.96061">
        <ele>0</ele>
        <time>0001-01-01T00:00:00Z</time>
      </trkpt>
      <trkpt lat="49.29623" lon="6.96055">
        <ele>0</ele>
        <time>0001-01-01T00:00:00Z</time>
      </trkpt>
      <trkpt lat="49.29623" lon="6.95998">
        <ele>0</ele>
        <time>0001-01-01T00:00:00Z</time>
      </trkpt>
      <trkpt lat="49.29627" lon="6.95927">
        <ele>0</ele>
        <time>0001-01-01T00:00:00Z</time>
      </trkpt>
      <trkpt lat="49.29628" lon="6.95926">
        <ele>0</ele>
        <time>0001-01-01T00:00:00Z</time>
      </trkpt>
      <trkpt lat="49.29641" lon="6.9581">
        <ele>0</ele>
        <time>0001-01-01T00:00:00Z</time>
      </trkpt>
      <trkpt lat="49.29645" lon="6.95739">
        <ele>0</ele>
        <time>0001-01-01T00:00:00Z</time>
      </trkpt>
      <trkpt lat="49.29644" lon="6.95727">
        <ele>0</ele>
        <time>0001-01-01T00:00:00Z</time>
      </trkpt>
      <trkpt lat="49.29677" lon="6.95119">
        <ele>0</ele>
        <time>0001-01-01T00:00:00Z</time>
      </trkpt>
      <trkpt lat="49.29677" lon="6.95094">
        <ele>0</ele>
        <time>0001-01-01T00:00:00Z</time>
      </trkpt>
      <trkpt lat="49.29678" lon="6.95083">
        <ele>0</ele>
        <time>0001-01-01T00:00:00Z</time>
      </trkpt>
      <trkpt lat="49.29676" lon="6.95052">
        <ele>0</ele>
        <time>0001-01-01T00:00:00Z</time>
      </trkpt>
      <trkpt lat="49.29678" lon="6.95046">
        <ele>0</ele>
        <time>0001-01-01T00:00:00Z</time>
      </trkpt>
      <trkpt lat="49.29678" lon="6.95035">
        <ele>0</ele>
        <time>0001-01-01T00:00:00Z</time>
      </trkpt>
      <trkpt lat="49.29677" lon="6.9503">
        <ele>0</ele>
        <time>0001-01-01T00:00:00Z</time>
      </trkpt>
      <trkpt lat="49.29677" lon="6.95027">
        <ele>0</ele>
        <time>0001-01-01T00:00:00Z</time>
      </trkpt>
      <trkpt lat="49.29672" lon="6.95017">
        <ele>0</ele>
        <time>0001-01-01T00:00:00Z</time>
      </trkpt>
      <trkpt lat="49.29669" lon="6.95014">
        <ele>0</ele>
        <time>0001-01-01T00:00:00Z</time>
      </trkpt>
      <trkpt lat="49.29668" lon="6.95">
        <ele>0</ele>
        <time>0001-01-01T00:00:00Z</time>
      </trkpt>
      <trkpt lat="49.29665" lon="6.94982">
        <ele>0</ele>
        <time>0001-01-01T00:00:00Z</time>
      </trkpt>
      <trkpt lat="49.29665" lon="6.94965">
        <ele>0</ele>
        <time>0001-01-01T00:00:00Z</time>
      </trkpt>
      <trkpt lat="49.29669" lon="6.94941">
        <ele>0</ele>
        <time>0001-01-01T00:00:00Z</time>
      </trkpt>
      <trkpt lat="49.29667" lon="6.94895">
        <ele>0</ele>
        <time>0001-01-01T00:00:00Z</time>
      </trkpt>
      <trkpt lat="49.29668" lon="6.94862">
        <ele>0</ele>
        <time>0001-01-01T00:00:00Z</time>
      </trkpt>
      <trkpt lat="49.29686" lon="6.9473">
        <ele>0</ele>
        <time>0001-01-01T00:00:00Z</time>
      </trkpt>
      <trkpt lat="49.297" lon="6.94505">
        <ele>0</ele>
        <time>0001-01-01T00:00:00Z</time>
      </trkpt>
      <trkpt lat="49.29702" lon="6.94339">
        <ele>0</ele>
        <time>0001-01-01T00:00:00Z</time>
      </trkpt>
      <trkpt lat="49.2971" lon="6.94117">
        <ele>0</ele>
        <time>0001-01-01T00:00:00Z</time>
      </trkpt>
      <trkpt lat="49.29709" lon="6.94069">
        <ele>0</ele>
        <time>0001-01-01T00:00:00Z</time>
      </trkpt>
      <trkpt lat="49.29697" lon="6.93891">
        <ele>0</ele>
        <time>0001-01-01T00:00:00Z</time>
      </trkpt>
      <trkpt lat="49.29698" lon="6.93871">
        <ele>0</ele>
        <time>0001-01-01T00:00:00Z</time>
      </trkpt>
      <trkpt lat="49.29679" lon="6.9385">
        <ele>0</ele>
        <time>0001-01-01T00:00:00Z</time>
      </trkpt>
      <trkpt lat="49.29645" lon="6.93801">
        <ele>0</ele>
        <time>0001-01-01T00:00:00Z</time>
      </trkpt>
      <trkpt lat="49.29638" lon="6.93788">
        <ele>0</ele>
        <time>0001-01-01T00:00:00Z</time>
      </trkpt>
      <trkpt lat="49.29633" lon="6.93767">
        <ele>0</ele>
        <time>0001-01-01T00:00:00Z</time>
      </trkpt>
      <trkpt lat="49.29597" lon="6.93561">
        <ele>0</ele>
        <time>0001-01-01T00:00:00Z</time>
      </trkpt>
      <trkpt lat="49.29587" lon="6.93521">
        <ele>0</ele>
        <time>0001-01-01T00:00:00Z</time>
      </trkpt>
      <trkpt lat="49.29579" lon="6.93501">
        <ele>0</ele>
        <time>0001-01-01T00:00:00Z</time>
      </trkpt>
      <trkpt lat="49.29562" lon="6.93473">
        <ele>0</ele>
        <time>0001-01-01T00:00:00Z</time>
      </trkpt>
      <trkpt lat="49.29561" lon="6.93472">
        <ele>0</ele>
        <time>0001-01-01T00:00:00Z</time>
      </trkpt>
      <trkpt lat="49.29555" lon="6.9346">
        <ele>0</ele>
        <time>0001-01-01T00:00:00Z</time>
      </trkpt>
      <trkpt lat="49.29545" lon="6.93444">
        <ele>0</ele>
        <time>0001-01-01T00:00:00Z</time>
      </trkpt>
      <trkpt lat="49.29542" lon="6.93441">
        <ele>0</ele>
        <time>0001-01-01T00:00:00Z</time>
      </trkpt>
      <trkpt lat="49.29532" lon="6.93422">
        <ele>0</ele>
        <time>0001-01-01T00:00:00Z</time>
      </trkpt>
      <trkpt lat="49.29526" lon="6.93407">
        <ele>0</ele>
        <time>0001-01-01T00:00:00Z</time>
      </trkpt>
      <trkpt lat="49.29521" lon="6.934">
        <ele>0</ele>
        <time>0001-01-01T00:00:00Z</time>
      </trkpt>
      <trkpt lat="49.29517" lon="6.9339">
        <ele>0</ele>
        <time>0001-01-01T00:00:00Z</time>
      </trkpt>
      <trkpt lat="49.29494" lon="6.93312">
        <ele>0</ele>
        <time>0001-01-01T00:00:00Z</time>
      </trkpt>
      <trkpt lat="49.29478" lon="6.93271">
        <ele>0</ele>
        <time>0001-01-01T00:00:00Z</time>
      </trkpt>
      <trkpt lat="49.29455" lon="6.93224">
        <ele>0</ele>
        <time>0001-01-01T00:00:00Z</time>
      </trkpt>
      <trkpt lat="49.29447" lon="6.93204">
        <ele>0</ele>
        <time>0001-01-01T00:00:00Z</time>
      </trkpt>
      <trkpt lat="49.2944" lon="6.93181">
        <ele>0</ele>
        <time>0001-01-01T00:00:00Z</time>
      </trkpt>
      <trkpt lat="49.29435" lon="6.93169">
        <ele>0</ele>
        <time>0001-01-01T00:00:00Z</time>
      </trkpt>
      <trkpt lat="49.29434" lon="6.93168">
        <ele>0</ele>
        <time>0001-01-01T00:00:00Z</time>
      </trkpt>
      <trkpt lat="49.29423" lon="6.93147">
        <ele>0</ele>
        <time>0001-01-01T00:00:00Z</time>
      </trkpt>
      <trkpt lat="49.29406" lon="6.93125">
        <ele>0</ele>
        <time>0001-01-01T00:00:00Z</time>
      </trkpt>
      <trkpt lat="49.29276" lon="6.92998">
        <ele>0</ele>
        <time>0001-01-01T00:00:00Z</time>
      </trkpt>
      <trkpt lat="49.2926" lon="6.92984">
        <ele>0</ele>
        <time>0001-01-01T00:00:00Z</time>
      </trkpt>
      <trkpt lat="49.29195" lon="6.92945">
        <ele>0</ele>
        <time>0001-01-01T00:00:00Z</time>
      </trkpt>
      <trkpt lat="49.29128" lon="6.92895">
        <ele>0</ele>
        <time>0001-01-01T00:00:00Z</time>
      </trkpt>
      <trkpt lat="49.29123" lon="6.92892">
        <ele>0</ele>
        <time>0001-01-01T00:00:00Z</time>
      </trkpt>
      <trkpt lat="49.29117" lon="6.92883">
        <ele>0</ele>
        <time>0001-01-01T00:00:00Z</time>
      </trkpt>
      <trkpt lat="49.29114" lon="6.9288">
        <ele>0</ele>
        <time>0001-01-01T00:00:00Z</time>
      </trkpt>
      <trkpt lat="49.29096" lon="6.92871">
        <ele>0</ele>
        <time>0001-01-01T00:00:00Z</time>
      </trkpt>
      <trkpt lat="49.2909" lon="6.92867">
        <ele>0</ele>
        <time>0001-01-01T00:00:00Z</time>
      </trkpt>
      <trkpt lat="49.29085" lon="6.92867">
        <ele>0</ele>
        <time>0001-01-01T00:00:00Z</time>
      </trkpt>
      <trkpt lat="49.29078" lon="6.9287">
        <ele>0</ele>
        <time>0001-01-01T00:00:00Z</time>
      </trkpt>
      <trkpt lat="49.2906" lon="6.92884">
        <ele>0</ele>
        <time>0001-01-01T00:00:00Z</time>
      </trkpt>
      <trkpt lat="49.2901" lon="6.92945">
        <ele>0</ele>
        <time>0001-01-01T00:00:00Z</time>
      </trkpt>
      <trkpt lat="49.29008" lon="6.9295">
        <ele>0</ele>
        <time>0001-01-01T00:00:00Z</time>
      </trkpt>
      <trkpt lat="49.28933" lon="6.93031">
        <ele>0</ele>
        <time>0001-01-01T00:00:00Z</time>
      </trkpt>
      <trkpt lat="49.28922" lon="6.93039">
        <ele>0</ele>
        <time>0001-01-01T00:00:00Z</time>
      </trkpt>
      <trkpt lat="49.28781" lon="6.93095">
        <ele>0</ele>
        <time>0001-01-01T00:00:00Z</time>
      </trkpt>
      <trkpt lat="49.2877" lon="6.93101">
        <ele>0</ele>
        <time>0001-01-01T00:00:00Z</time>
      </trkpt>
      <trkpt lat="49.28746" lon="6.93117">
        <ele>0</ele>
        <time>0001-01-01T00:00:00Z</time>
      </trkpt>
      <trkpt lat="49.2871" lon="6.9315">
        <ele>0</ele>
        <time>0001-01-01T00:00:00Z</time>
      </trkpt>
      <trkpt lat="49.28646" lon="6.93215">
        <ele>0</ele>
        <time>0001-01-01T00:00:00Z</time>
      </trkpt>
      <trkpt lat="49.28638" lon="6.93221">
        <ele>0</ele>
        <time>0001-01-01T00:00:00Z</time>
      </trkpt>
      <trkpt lat="49.28598" lon="6.93241">
        <ele>0</ele>
        <time>0001-01-01T00:00:00Z</time>
      </trkpt>
      <trkpt lat="49.28579" lon="6.93246">
        <ele>0</ele>
        <time>0001-01-01T00:00:00Z</time>
      </trkpt>
      <trkpt lat="49.28548" lon="6.93248">
        <ele>0</ele>
        <time>0001-01-01T00:00:00Z</time>
      </trkpt>
      <trkpt lat="49.28326" lon="6.93215">
        <ele>0</ele>
        <time>0001-01-01T00:00:00Z</time>
      </trkpt>
      <trkpt lat="49.28306" lon="6.93214">
        <ele>0</ele>
        <time>0001-01-01T00:00:00Z</time>
      </trkpt>
      <trkpt lat="49.28248" lon="6.9322">
        <ele>0</ele>
        <time>0001-01-01T00:00:00Z</time>
      </trkpt>
      <trkpt lat="49.28095" lon="6.93246">
        <ele>0</ele>
        <time>0001-01-01T00:00:00Z</time>
      </trkpt>
      <trkpt lat="49.28046" lon="6.93247">
        <ele>0</ele>
        <time>0001-01-01T00:00:00Z</time>
      </trkpt>
      <trkpt lat="49.28019" lon="6.93245">
        <ele>0</ele>
        <time>0001-01-01T00:00:00Z</time>
      </trkpt>
      <trkpt lat="49.27983" lon="6.9324">
        <ele>0</ele>
        <time>0001-01-01T00:00:00Z</time>
      </trkpt>
      <trkpt lat="49.27916" lon="6.93218">
        <ele>0</ele>
        <time>0001-01-01T00:00:00Z</time>
      </trkpt>
      <trkpt lat="49.27886" lon="6.93206">
        <ele>0</ele>
        <time>0001-01-01T00:00:00Z</time>
      </trkpt>
      <trkpt lat="49.27619" lon="6.93085">
        <ele>0</ele>
        <time>0001-01-01T00:00:00Z</time>
      </trkpt>
      <trkpt lat="49.27564" lon="6.93066">
        <ele>0</ele>
        <time>0001-01-01T00:00:00Z</time>
      </trkpt>
      <trkpt lat="49.27545" lon="6.93063">
        <ele>0</ele>
        <time>0001-01-01T00:00:00Z</time>
      </trkpt>
      <trkpt lat="49.27533" lon="6.93039">
        <ele>0</ele>
        <time>0001-01-01T00:00:00Z</time>
      </trkpt>
      <trkpt lat="49.27532" lon="6.93035">
        <ele>0</ele>
        <time>0001-01-01T00:00:00Z</time>
      </trkpt>
      <trkpt lat="49.27499" lon="6.92959">
        <ele>0</ele>
        <time>0001-01-01T00:00:00Z</time>
      </trkpt>
      <trkpt lat="49.27374" lon="6.92642">
        <ele>0</ele>
        <time>0001-01-01T00:00:00Z</time>
      </trkpt>
      <trkpt lat="49.27356" lon="6.92612">
        <ele>0</ele>
        <time>0001-01-01T00:00:00Z</time>
      </trkpt>
      <trkpt lat="49.27339" lon="6.92593">
        <ele>0</ele>
        <time>0001-01-01T00:00:00Z</time>
      </trkpt>
      <trkpt lat="49.27146" lon="6.92444">
        <ele>0</ele>
        <time>0001-01-01T00:00:00Z</time>
      </trkpt>
      <trkpt lat="49.27086" lon="6.92385">
        <ele>0</ele>
        <time>0001-01-01T00:00:00Z</time>
      </trkpt>
      <trkpt lat="49.26985" lon="6.92255">
        <ele>0</ele>
        <time>0001-01-01T00:00:00Z</time>
      </trkpt>
      <trkpt lat="49.2695" lon="6.92217">
        <ele>0</ele>
        <time>0001-01-01T00:00:00Z</time>
      </trkpt>
      <trkpt lat="49.26541" lon="6.91859">
        <ele>0</ele>
        <time>0001-01-01T00:00:00Z</time>
      </trkpt>
      <trkpt lat="49.26484" lon="6.91822">
        <ele>0</ele>
        <time>0001-01-01T00:00:00Z</time>
      </trkpt>
      <trkpt lat="49.26478" lon="6.91819">
        <ele>0</ele>
        <time>0001-01-01T00:00:00Z</time>
      </trkpt>
      <trkpt lat="49.26355" lon="6.91741">
        <ele>0</ele>
        <time>0001-01-01T00:00:00Z</time>
      </trkpt>
      <trkpt lat="49.26348" lon="6.91738">
        <ele>0</ele>
        <time>0001-01-01T00:00:00Z</time>
      </trkpt>
      <trkpt lat="49.26346" lon="6.91738">
        <ele>0</ele>
        <time>0001-01-01T00:00:00Z</time>
      </trkpt>
      <trkpt lat="49.26343" lon="6.91737">
        <ele>0</ele>
        <time>0001-01-01T00:00:00Z</time>
      </trkpt>
      <trkpt lat="49.26341" lon="6.91738">
        <ele>0</ele>
        <time>0001-01-01T00:00:00Z</time>
      </trkpt>
      <trkpt lat="49.26339" lon="6.91738">
        <ele>0</ele>
        <time>0001-01-01T00:00:00Z</time>
      </trkpt>
      <trkpt lat="49.26337" lon="6.91739">
        <ele>0</ele>
        <time>0001-01-01T00:00:00Z</time>
      </trkpt>
      <trkpt lat="49.26292" lon="6.91772">
        <ele>0</ele>
        <time>0001-01-01T00:00:00Z</time>
      </trkpt>
      <trkpt lat="49.26283" lon="6.91776">
        <ele>0</ele>
        <time>0001-01-01T00:00:00Z</time>
      </trkpt>
      <trkpt lat="49.26279" lon="6.91776">
        <ele>0</ele>
        <time>0001-01-01T00:00:00Z</time>
      </trkpt>
      <trkpt lat="49.26275" lon="6.91777">
        <ele>0</ele>
        <time>0001-01-01T00:00:00Z</time>
      </trkpt>
      <trkpt lat="49.26265" lon="6.91775">
        <ele>0</ele>
        <time>0001-01-01T00:00:00Z</time>
      </trkpt>
      <trkpt lat="49.26256" lon="6.91771">
        <ele>0</ele>
        <time>0001-01-01T00:00:00Z</time>
      </trkpt>
      <trkpt lat="49.26252" lon="6.91768">
        <ele>0</ele>
        <time>0001-01-01T00:00:00Z</time>
      </trkpt>
      <trkpt lat="49.26249" lon="6.91764">
        <ele>0</ele>
        <time>0001-01-01T00:00:00Z</time>
      </trkpt>
      <trkpt lat="49.26237" lon="6.91752">
        <ele>0</ele>
        <time>0001-01-01T00:00:00Z</time>
      </trkpt>
      <trkpt lat="49.26231" lon="6.91743">
        <ele>0</ele>
        <time>0001-01-01T00:00:00Z</time>
      </trkpt>
      <trkpt lat="49.26219" lon="6.91731">
        <ele>0</ele>
        <time>0001-01-01T00:00:00Z</time>
      </trkpt>
      <trkpt lat="49.26215" lon="6.91728">
        <ele>0</ele>
        <time>0001-01-01T00:00:00Z</time>
      </trkpt>
      <trkpt lat="49.26182" lon="6.91718">
        <ele>0</ele>
        <time>0001-01-01T00:00:00Z</time>
      </trkpt>
      <trkpt lat="49.25935" lon="6.91664">
        <ele>0</ele>
        <time>0001-01-01T00:00:00Z</time>
      </trkpt>
      <trkpt lat="49.25924" lon="6.91663">
        <ele>0</ele>
        <time>0001-01-01T00:00:00Z</time>
      </trkpt>
      <trkpt lat="49.2495" lon="6.9147">
        <ele>0</ele>
        <time>0001-01-01T00:00:00Z</time>
      </trkpt>
      <trkpt lat="49.24943" lon="6.91467">
        <ele>0</ele>
        <time>0001-01-01T00:00:00Z</time>
      </trkpt>
      <trkpt lat="49.24936" lon="6.91465">
        <ele>0</ele>
        <time>0001-01-01T00:00:00Z</time>
      </trkpt>
      <trkpt lat="49.24855" lon="6.91427">
        <ele>0</ele>
        <time>0001-01-01T00:00:00Z</time>
      </trkpt>
      <trkpt lat="49.24845" lon="6.91419">
        <ele>0</ele>
        <time>0001-01-01T00:00:00Z</time>
      </trkpt>
      <trkpt lat="49.24838" lon="6.91412">
        <ele>0</ele>
        <time>0001-01-01T00:00:00Z</time>
      </trkpt>
      <trkpt lat="49.24831" lon="6.91401">
        <ele>0</ele>
        <time>0001-01-01T00:00:00Z</time>
      </trkpt>
      <trkpt lat="49.24825" lon="6.91389">
        <ele>0</ele>
        <time>0001-01-01T00:00:00Z</time>
      </trkpt>
      <trkpt lat="49.24819" lon="6.91367">
        <ele>0</ele>
        <time>0001-01-01T00:00:00Z</time>
      </trkpt>
      <trkpt lat="49.2481" lon="6.91288">
        <ele>0</ele>
        <time>0001-01-01T00:00:00Z</time>
      </trkpt>
      <trkpt lat="49.24802" lon="6.91273">
        <ele>0</ele>
        <time>0001-01-01T00:00:00Z</time>
      </trkpt>
      <trkpt lat="49.24789" lon="6.9126">
        <ele>0</ele>
        <time>0001-01-01T00:00:00Z</time>
      </trkpt>
      <trkpt lat="49.24783" lon="6.91256">
        <ele>0</ele>
        <time>0001-01-01T00:00:00Z</time>
      </trkpt>
      <trkpt lat="49.24779" lon="6.91255">
        <ele>0</ele>
        <time>0001-01-01T00:00:00Z</time>
      </trkpt>
      <trkpt lat="49.24776" lon="6.91255">
        <ele>0</ele>
        <time>0001-01-01T00:00:00Z</time>
      </trkpt>
      <trkpt lat="49.24769" lon="6.91257">
        <ele>0</ele>
        <time>0001-01-01T00:00:00Z</time>
      </trkpt>
      <trkpt lat="49.24763" lon="6.91261">
        <ele>0</ele>
        <time>0001-01-01T00:00:00Z</time>
      </trkpt>
      <trkpt lat="49.2476" lon="6.91264">
        <ele>0</ele>
        <time>0001-01-01T00:00:00Z</time>
      </trkpt>
      <trkpt lat="49.24751" lon="6.91282">
        <ele>0</ele>
        <time>0001-01-01T00:00:00Z</time>
      </trkpt>
      <trkpt lat="49.24748" lon="6.91293">
        <ele>0</ele>
        <time>0001-01-01T00:00:00Z</time>
      </trkpt>
      <trkpt lat="49.24739" lon="6.91375">
        <ele>0</ele>
        <time>0001-01-01T00:00:00Z</time>
      </trkpt>
      <trkpt lat="49.24735" lon="6.91394">
        <ele>0</ele>
        <time>0001-01-01T00:00:00Z</time>
      </trkpt>
      <trkpt lat="49.24731" lon="6.91402">
        <ele>0</ele>
        <time>0001-01-01T00:00:00Z</time>
      </trkpt>
      <trkpt lat="49.24728" lon="6.91411">
        <ele>0</ele>
        <time>0001-01-01T00:00:00Z</time>
      </trkpt>
      <trkpt lat="49.24715" lon="6.91428">
        <ele>0</ele>
        <time>0001-01-01T00:00:00Z</time>
      </trkpt>
      <trkpt lat="49.24709" lon="6.91433">
        <ele>0</ele>
        <time>0001-01-01T00:00:00Z</time>
      </trkpt>
      <trkpt lat="49.24694" lon="6.9144">
        <ele>0</ele>
        <time>0001-01-01T00:00:00Z</time>
      </trkpt>
      <trkpt lat="49.24687" lon="6.91441">
        <ele>0</ele>
        <time>0001-01-01T00:00:00Z</time>
      </trkpt>
      <trkpt lat="49.24682" lon="6.9144">
        <ele>0</ele>
        <time>0001-01-01T00:00:00Z</time>
      </trkpt>
      <trkpt lat="49.24676" lon="6.9144">
        <ele>0</ele>
        <time>0001-01-01T00:00:00Z</time>
      </trkpt>
      <trkpt lat="49.24647" lon="6.91434">
        <ele>0</ele>
        <time>0001-01-01T00:00:00Z</time>
      </trkpt>
      <trkpt lat="49.24648" lon="6.9142">
        <ele>0</ele>
        <time>0001-01-01T00:00:00Z</time>
      </trkpt>
      <trkpt lat="49.24665" lon="6.91305">
        <ele>0</ele>
        <time>0001-01-01T00:00:00Z</time>
      </trkpt>
      <trkpt lat="49.24759" lon="6.9076">
        <ele>0</ele>
        <time>0001-01-01T00:00:00Z</time>
      </trkpt>
      <trkpt lat="49.24824" lon="6.90166">
        <ele>0</ele>
        <time>0001-01-01T00:00:00Z</time>
      </trkpt>
      <trkpt lat="49.24824" lon="6.9016">
        <ele>0</ele>
        <time>0001-01-01T00:00:00Z</time>
      </trkpt>
      <trkpt lat="49.2483" lon="6.90116">
        <ele>0</ele>
        <time>0001-01-01T00:00:00Z</time>
      </trkpt>
      <trkpt lat="49.24844" lon="6.90058">
        <ele>0</ele>
        <time>0001-01-01T00:00:00Z</time>
      </trkpt>
      <trkpt lat="49.2491" lon="6.89821">
        <ele>0</ele>
        <time>0001-01-01T00:00:00Z</time>
      </trkpt>
      <trkpt lat="49.24927" lon="6.89781">
        <ele>0</ele>
        <time>0001-01-01T00:00:00Z</time>
      </trkpt>
      <trkpt lat="49.25009" lon="6.89648">
        <ele>0</ele>
        <time>0001-01-01T00:00:00Z</time>
      </trkpt>
      <trkpt lat="49.25013" lon="6.89643">
        <ele>0</ele>
        <time>0001-01-01T00:00:00Z</time>
      </trkpt>
      <trkpt lat="49.25028" lon="6.89611">
        <ele>0</ele>
        <time>0001-01-01T00:00:00Z</time>
      </trkpt>
      <trkpt lat="49.2508" lon="6.89481">
        <ele>0</ele>
        <time>0001-01-01T00:00:00Z</time>
      </trkpt>
      <trkpt lat="49.25094" lon="6.89422">
        <ele>0</ele>
        <time>0001-01-01T00:00:00Z</time>
      </trkpt>
      <trkpt lat="49.25178" lon="6.88864">
        <ele>0</ele>
        <time>0001-01-01T00:00:00Z</time>
      </trkpt>
      <trkpt lat="49.25209" lon="6.8862">
        <ele>0</ele>
        <time>0001-01-01T00:00:00Z</time>
      </trkpt>
      <trkpt lat="49.25238" lon="6.88291">
        <ele>0</ele>
        <time>0001-01-01T00:00:00Z</time>
      </trkpt>
      <trkpt lat="49.25264" lon="6.88112">
        <ele>0</ele>
        <time>0001-01-01T00:00:00Z</time>
      </trkpt>
      <trkpt lat="49.25268" lon="6.8802">
        <ele>0</ele>
        <time>0001-01-01T00:00:00Z</time>
      </trkpt>
      <trkpt lat="49.25266" lon="6.87864">
        <ele>0</ele>
        <time>0001-01-01T00:00:00Z</time>
      </trkpt>
      <trkpt lat="49.25263" lon="6.87806">
        <ele>0</ele>
        <time>0001-01-01T00:00:00Z</time>
      </trkpt>
      <trkpt lat="49.25235" lon="6.8758">
        <ele>0</ele>
        <time>0001-01-01T00:00:00Z</time>
      </trkpt>
      <trkpt lat="49.25214" lon="6.87442">
        <ele>0</ele>
        <time>0001-01-01T00:00:00Z</time>
      </trkpt>
      <trkpt lat="49.25173" lon="6.87214">
        <ele>0</ele>
        <time>0001-01-01T00:00:00Z</time>
      </trkpt>
      <trkpt lat="49.25157" lon="6.87142">
        <ele>0</ele>
        <time>0001-01-01T00:00:00Z</time>
      </trkpt>
      <trkpt lat="49.25119" lon="6.87004">
        <ele>0</ele>
        <time>0001-01-01T00:00:00Z</time>
      </trkpt>
      <trkpt lat="49.25114" lon="6.8696">
        <ele>0</ele>
        <time>0001-01-01T00:00:00Z</time>
      </trkpt>
      <trkpt lat="49.25115" lon="6.86937">
        <ele>0</ele>
        <time>0001-01-01T00:00:00Z</time>
      </trkpt>
      <trkpt lat="49.25113" lon="6.86842">
        <ele>0</ele>
        <time>0001-01-01T00:00:00Z</time>
      </trkpt>
      <trkpt lat="49.25111" lon="6.86831">
        <ele>0</ele>
        <time>0001-01-01T00:00:00Z</time>
      </trkpt>
      <trkpt lat="49.25013" lon="6.86505">
        <ele>0</ele>
        <time>0001-01-01T00:00:00Z</time>
      </trkpt>
      <trkpt lat="49.25011" lon="6.86487">
        <ele>0</ele>
        <time>0001-01-01T00:00:00Z</time>
      </trkpt>
      <trkpt lat="49.24999" lon="6.86439">
        <ele>0</ele>
        <time>0001-01-01T00:00:00Z</time>
      </trkpt>
      <trkpt lat="49.24988" lon="6.86362">
        <ele>0</ele>
        <time>0001-01-01T00:00:00Z</time>
      </trkpt>
      <trkpt lat="49.24983" lon="6.86289">
        <ele>0</ele>
        <time>0001-01-01T00:00:00Z</time>
      </trkpt>
      <trkpt lat="49.24985" lon="6.86277">
        <ele>0</ele>
        <time>0001-01-01T00:00:00Z</time>
      </trkpt>
      <trkpt lat="49.24989" lon="6.86273">
        <ele>0</ele>
        <time>0001-01-01T00:00:00Z</time>
      </trkpt>
      <trkpt lat="49.24989" lon="6.86272">
        <ele>0</ele>
        <time>0001-01-01T00:00:00Z</time>
      </trkpt>
      <trkpt lat="49.2499" lon="6.86272">
        <ele>0</ele>
        <time>0001-01-01T00:00:00Z</time>
      </trkpt>
      <trkpt lat="49.2499" lon="6.8627">
        <ele>0</ele>
        <time>0001-01-01T00:00:00Z</time>
      </trkpt>
      <trkpt lat="49.24991" lon="6.8627">
        <ele>0</ele>
        <time>0001-01-01T00:00:00Z</time>
      </trkpt>
      <trkpt lat="49.24991" lon="6.86268">
        <ele>0</ele>
        <time>0001-01-01T00:00:00Z</time>
      </trkpt>
      <trkpt lat="49.24992" lon="6.86267">
        <ele>0</ele>
        <time>0001-01-01T00:00:00Z</time>
      </trkpt>
      <trkpt lat="49.24992" lon="6.86252">
        <ele>0</ele>
        <time>0001-01-01T00:00:00Z</time>
      </trkpt>
      <trkpt lat="49.24991" lon="6.86251">
        <ele>0</ele>
        <time>0001-01-01T00:00:00Z</time>
      </trkpt>
      <trkpt lat="49.24991" lon="6.86249">
        <ele>0</ele>
        <time>0001-01-01T00:00:00Z</time>
      </trkpt>
      <trkpt lat="49.2499" lon="6.86248">
        <ele>0</ele>
        <time>0001-01-01T00:00:00Z</time>
      </trkpt>
      <trkpt lat="49.2499" lon="6.86247">
        <ele>0</ele>
        <time>0001-01-01T00:00:00Z</time>
      </trkpt>
      <trkpt lat="49.24989" lon="6.86247">
        <ele>0</ele>
        <time>0001-01-01T00:00:00Z</time>
      </trkpt>
      <trkpt lat="49.24989" lon="6.86245">
        <ele>0</ele>
        <time>0001-01-01T00:00:00Z</time>
      </trkpt>
      <trkpt lat="49.24987" lon="6.86243">
        <ele>0</ele>
        <time>0001-01-01T00:00:00Z</time>
      </trkpt>
      <trkpt lat="49.24986" lon="6.86243">
        <ele>0</ele>
        <time>0001-01-01T00:00:00Z</time>
      </trkpt>
      <trkpt lat="49.24986" lon="6.86242">
        <ele>0</ele>
        <time>0001-01-01T00:00:00Z</time>
      </trkpt>
      <trkpt lat="49.24985" lon="6.86242">
        <ele>0</ele>
        <time>0001-01-01T00:00:00Z</time>
      </trkpt>
      <trkpt lat="49.24984" lon="6.86241">
        <ele>0</ele>
        <time>0001-01-01T00:00:00Z</time>
      </trkpt>
      <trkpt lat="49.24981" lon="6.86241">
        <ele>0</ele>
        <time>0001-01-01T00:00:00Z</time>
      </trkpt>
      <trkpt lat="49.24977" lon="6.86226">
        <ele>0</ele>
        <time>0001-01-01T00:00:00Z</time>
      </trkpt>
      <trkpt lat="49.24966" lon="6.86074">
        <ele>0</ele>
        <time>0001-01-01T00:00:00Z</time>
      </trkpt>
      <trkpt lat="49.24958" lon="6.86026">
        <ele>0</ele>
        <time>0001-01-01T00:00:00Z</time>
      </trkpt>
      <trkpt lat="49.24934" lon="6.85926">
        <ele>0</ele>
        <time>0001-01-01T00:00:00Z</time>
      </trkpt>
      <trkpt lat="49.24897" lon="6.85819">
        <ele>0</ele>
        <time>0001-01-01T00:00:00Z</time>
      </trkpt>
      <trkpt lat="49.24887" lon="6.85796">
        <ele>0</ele>
        <time>0001-01-01T00:00:00Z</time>
      </trkpt>
      <trkpt lat="49.24866" lon="6.85729">
        <ele>0</ele>
        <time>0001-01-01T00:00:00Z</time>
      </trkpt>
      <trkpt lat="49.24847" lon="6.85645">
        <ele>0</ele>
        <time>0001-01-01T00:00:00Z</time>
      </trkpt>
      <trkpt lat="49.2484" lon="6.85578">
        <ele>0</ele>
        <time>0001-01-01T00:00:00Z</time>
      </trkpt>
      <trkpt lat="49.24838" lon="6.85536">
        <ele>0</ele>
        <time>0001-01-01T00:00:00Z</time>
      </trkpt>
      <trkpt lat="49.24839" lon="6.85487">
        <ele>0</ele>
        <time>0001-01-01T00:00:00Z</time>
      </trkpt>
      <trkpt lat="49.24847" lon="6.8538">
        <ele>0</ele>
        <time>0001-01-01T00:00:00Z</time>
      </trkpt>
      <trkpt lat="49.24867" lon="6.85238">
        <ele>0</ele>
        <time>0001-01-01T00:00:00Z</time>
      </trkpt>
      <trkpt lat="49.24873" lon="6.8521">
        <ele>0</ele>
        <time>0001-01-01T00:00:00Z</time>
      </trkpt>
      <trkpt lat="49.24885" lon="6.85167">
        <ele>0</ele>
        <time>0001-01-01T00:00:00Z</time>
      </trkpt>
      <trkpt lat="49.24901" lon="6.85129">
        <ele>0</ele>
        <time>0001-01-01T00:00:00Z</time>
      </trkpt>
      <trkpt lat="49.24913" lon="6.85121">
        <ele>0</ele>
        <time>0001-01-01T00:00:00Z</time>
      </trkpt>
      <trkpt lat="49.24926" lon="6.8511">
        <ele>0</ele>
        <time>0001-01-01T00:00:00Z</time>
      </trkpt>
      <trkpt lat="49.24932" lon="6.85106">
        <ele>0</ele>
        <time>0001-01-01T00:00:00Z</time>
      </trkpt>
      <trkpt lat="49.24945" lon="6.85101">
        <ele>0</ele>
        <time>0001-01-01T00:00:00Z</time>
      </trkpt>
      <trkpt lat="49.24963" lon="6.85101">
        <ele>0</ele>
        <time>0001-01-01T00:00:00Z</time>
      </trkpt>
      <trkpt lat="49.24969" lon="6.85102">
        <ele>0</ele>
        <time>0001-01-01T00:00:00Z</time>
      </trkpt>
      <trkpt lat="49.24977" lon="6.85105">
        <ele>0</ele>
        <time>0001-01-01T00:00:00Z</time>
      </trkpt>
      <trkpt lat="49.24997" lon="6.85115">
        <ele>0</ele>
        <time>0001-01-01T00:00:00Z</time>
      </trkpt>
      <trkpt lat="49.25004" lon="6.85117">
        <ele>0</ele>
        <time>0001-01-01T00:00:00Z</time>
      </trkpt>
      <trkpt lat="49.25012" lon="6.85115">
        <ele>0</ele>
        <time>0001-01-01T00:00:00Z</time>
      </trkpt>
      <trkpt lat="49.25016" lon="6.85113">
        <ele>0</ele>
        <time>0001-01-01T00:00:00Z</time>
      </trkpt>
      <trkpt lat="49.25024" lon="6.85105">
        <ele>0</ele>
        <time>0001-01-01T00:00:00Z</time>
      </trkpt>
      <trkpt lat="49.25026" lon="6.851">
        <ele>0</ele>
        <time>0001-01-01T00:00:00Z</time>
      </trkpt>
      <trkpt lat="49.25029" lon="6.85096">
        <ele>0</ele>
        <time>0001-01-01T00:00:00Z</time>
      </trkpt>
      <trkpt lat="49.25037" lon="6.85072">
        <ele>0</ele>
        <time>0001-01-01T00:00:00Z</time>
      </trkpt>
      <trkpt lat="49.2499" lon="6.85032">
        <ele>0</ele>
        <time>0001-01-01T00:00:00Z</time>
      </trkpt>
      <trkpt lat="49.24975" lon="6.85023">
        <ele>0</ele>
        <time>0001-01-01T00:00:00Z</time>
      </trkpt>
      <trkpt lat="49.24946" lon="6.85">
        <ele>0</ele>
        <time>0001-01-01T00:00:00Z</time>
      </trkpt>
      <trkpt lat="49.24928" lon="6.84967">
        <ele>0</ele>
        <time>0001-01-01T00:00:00Z</time>
      </trkpt>
      <trkpt lat="49.24924" lon="6.84949">
        <ele>0</ele>
        <time>0001-01-01T00:00:00Z</time>
      </trkpt>
      <trkpt lat="49.24923" lon="6.84917">
        <ele>0</ele>
        <time>0001-01-01T00:00:00Z</time>
      </trkpt>
      <trkpt lat="49.24925" lon="6.84894">
        <ele>0</ele>
        <time>0001-01-01T00:00:00Z</time>
      </trkpt>
      <trkpt lat="49.24928" lon="6.84882">
        <ele>0</ele>
        <time>0001-01-01T00:00:00Z</time>
      </trkpt>
      <trkpt lat="49.24929" lon="6.84869">
        <ele>0</ele>
        <time>0001-01-01T00:00:00Z</time>
      </trkpt>
      <trkpt lat="49.24967" lon="6.84784">
        <ele>0</ele>
        <time>0001-01-01T00:00:00Z</time>
      </trkpt>
      <trkpt lat="49.24968" lon="6.84772">
        <ele>0</ele>
        <time>0001-01-01T00:00:00Z</time>
      </trkpt>
      <trkpt lat="49.24967" lon="6.84748">
        <ele>0</ele>
        <time>0001-01-01T00:00:00Z</time>
      </trkpt>
      <trkpt lat="49.24961" lon="6.84726">
        <ele>0</ele>
        <time>0001-01-01T00:00:00Z</time>
      </trkpt>
      <trkpt lat="49.24959" lon="6.84722">
        <ele>0</ele>
        <time>0001-01-01T00:00:00Z</time>
      </trkpt>
      <trkpt lat="49.24953" lon="6.84714">
        <ele>0</ele>
        <time>0001-01-01T00:00:00Z</time>
      </trkpt>
      <trkpt lat="49.24942" lon="6.84702">
        <ele>0</ele>
        <time>0001-01-01T00:00:00Z</time>
      </trkpt>
      <trkpt lat="49.24926" lon="6.8469">
        <ele>0</ele>
        <time>0001-01-01T00:00:00Z</time>
      </trkpt>
      <trkpt lat="49.24894" lon="6.84672">
        <ele>0</ele>
        <time>0001-01-01T00:00:00Z</time>
      </trkpt>
      <trkpt lat="49.24869" lon="6.8466">
        <ele>0</ele>
        <time>0001-01-01T00:00:00Z</time>
      </trkpt>
      <trkpt lat="49.24843" lon="6.84645">
        <ele>0</ele>
        <time>0001-01-01T00:00:00Z</time>
      </trkpt>
      <trkpt lat="49.24837" lon="6.84643">
        <ele>0</ele>
        <time>0001-01-01T00:00:00Z</time>
      </trkpt>
    </trkseg>
  </trk>
</gpx>